<?xml version="1.0" encoding="UTF-8" standalone="no" ?>
<gpx xmlns="http://www.topografix.com/GPX/1/1" xmlns:xsi="http://www.w3.org/2001/XMLSchema-instance" xsi:schemaLocation="http://www.topografix.com/GPX/1/1 http://www.topografix.com/GPX/1/1/gpx.xsd" version="1.1" creator="VisuGPX - https://www.visugpx.com">
  <metadata>
    <name>vtt cirque de morgon</name>
    <desc><![CDATA[vtt cirque de morgon, sortie du 22 mai2010]]></desc>
  </metadata>
  <trk>
    <name><![CDATA[vtt cirque de morgon_1]]></name>
    <trkseg>
      <trkpt lat="44.52467" lon="6.40029">
        <ele>786.23822021484</ele>
        <time>2010-05-22T08:14:59Z</time>
      </trkpt>
      <trkpt lat="44.52466" lon="6.40029">
        <ele>786.54144287109</ele>
        <time>2010-05-22T08:15:07Z</time>
      </trkpt>
      <trkpt lat="44.52458" lon="6.40024">
        <ele>788.55603027344</ele>
        <time>2010-05-22T08:15:12Z</time>
      </trkpt>
      <trkpt lat="44.52463" lon="6.4002">
        <ele>787.291015625</ele>
        <time>2010-05-22T08:15:16Z</time>
      </trkpt>
      <trkpt lat="44.52465" lon="6.40025">
        <ele>786.8740234375</ele>
        <time>2010-05-22T08:15:17Z</time>
      </trkpt>
      <trkpt lat="44.52471" lon="6.40048">
        <ele>785.43969726562</ele>
        <time>2010-05-22T08:15:23Z</time>
      </trkpt>
      <trkpt lat="44.52474" lon="6.40055">
        <ele>784.78503417969</ele>
        <time>2010-05-22T08:15:26Z</time>
      </trkpt>
      <trkpt lat="44.52468" lon="6.4006">
        <ele>787.02020263672</ele>
        <time>2010-05-22T08:15:30Z</time>
      </trkpt>
      <trkpt lat="44.52467" lon="6.40059">
        <ele>787.38153076172</ele>
        <time>2010-05-22T08:15:31Z</time>
      </trkpt>
      <trkpt lat="44.52456" lon="6.40057">
        <ele>790.57073974609</ele>
        <time>2010-05-22T08:15:38Z</time>
      </trkpt>
      <trkpt lat="44.52443" lon="6.40053">
        <ele>794.02917480469</ele>
        <time>2010-05-22T08:15:45Z</time>
      </trkpt>
      <trkpt lat="44.52435" lon="6.4005">
        <ele>794.76251220703</ele>
        <time>2010-05-22T08:15:50Z</time>
      </trkpt>
      <trkpt lat="44.52428" lon="6.40052">
        <ele>795.60784912109</ele>
        <time>2010-05-22T08:15:55Z</time>
      </trkpt>
      <trkpt lat="44.52422" lon="6.40056">
        <ele>796.39422607422</ele>
        <time>2010-05-22T08:16:00Z</time>
      </trkpt>
      <trkpt lat="44.52415" lon="6.40062">
        <ele>797.68951416016</ele>
        <time>2010-05-22T08:16:06Z</time>
      </trkpt>
      <trkpt lat="44.52412" lon="6.40074">
        <ele>798.84454345703</ele>
        <time>2010-05-22T08:16:11Z</time>
      </trkpt>
      <trkpt lat="44.52411" lon="6.40077">
        <ele>799.12939453125</ele>
        <time>2010-05-22T08:16:12Z</time>
      </trkpt>
      <trkpt lat="44.5241" lon="6.40089">
        <ele>799.81207275391</ele>
        <time>2010-05-22T08:16:17Z</time>
      </trkpt>
      <trkpt lat="44.52411" lon="6.4011">
        <ele>799.99200439453</ele>
        <time>2010-05-22T08:16:26Z</time>
      </trkpt>
      <trkpt lat="44.52415" lon="6.40123">
        <ele>800.02947998047</ele>
        <time>2010-05-22T08:16:32Z</time>
      </trkpt>
      <trkpt lat="44.52422" lon="6.40138">
        <ele>800</ele>
        <time>2010-05-22T08:16:40Z</time>
      </trkpt>
      <trkpt lat="44.5242" lon="6.40155">
        <ele>800</ele>
        <time>2010-05-22T08:16:44Z</time>
      </trkpt>
      <trkpt lat="44.52409" lon="6.40177">
        <ele>800.62829589844</ele>
        <time>2010-05-22T08:16:48Z</time>
      </trkpt>
      <trkpt lat="44.52392" lon="6.4022">
        <ele>803.55841064453</ele>
        <time>2010-05-22T08:16:53Z</time>
      </trkpt>
      <trkpt lat="44.52382" lon="6.40252">
        <ele>806.86578369141</ele>
        <time>2010-05-22T08:16:57Z</time>
      </trkpt>
      <trkpt lat="44.52374" lon="6.40292">
        <ele>811.27905273438</ele>
        <time>2010-05-22T08:17:03Z</time>
      </trkpt>
      <trkpt lat="44.52378" lon="6.40311">
        <ele>811.80810546875</ele>
        <time>2010-05-22T08:17:07Z</time>
      </trkpt>
      <trkpt lat="44.52389" lon="6.40311">
        <ele>809.57806396484</ele>
        <time>2010-05-22T08:17:10Z</time>
      </trkpt>
      <trkpt lat="44.52399" lon="6.40303">
        <ele>806.3916015625</ele>
        <time>2010-05-22T08:17:13Z</time>
      </trkpt>
      <trkpt lat="44.52418" lon="6.40279">
        <ele>800.17700195312</ele>
        <time>2010-05-22T08:17:20Z</time>
      </trkpt>
      <trkpt lat="44.52431" lon="6.40263">
        <ele>799.99359130859</ele>
        <time>2010-05-22T08:17:26Z</time>
      </trkpt>
      <trkpt lat="44.5244" lon="6.40253">
        <ele>799.36871337891</ele>
        <time>2010-05-22T08:17:31Z</time>
      </trkpt>
      <trkpt lat="44.52446" lon="6.40256">
        <ele>799.19970703125</ele>
        <time>2010-05-22T08:17:35Z</time>
      </trkpt>
      <trkpt lat="44.52445" lon="6.40258">
        <ele>799.29406738281</ele>
        <time>2010-05-22T08:17:36Z</time>
      </trkpt>
      <trkpt lat="44.52436" lon="6.40286">
        <ele>800.2724609375</ele>
        <time>2010-05-22T08:17:46Z</time>
      </trkpt>
      <trkpt lat="44.5243" lon="6.40303">
        <ele>801.36926269531</ele>
        <time>2010-05-22T08:17:53Z</time>
      </trkpt>
      <trkpt lat="44.52425" lon="6.40312">
        <ele>803.28784179688</ele>
        <time>2010-05-22T08:17:58Z</time>
      </trkpt>
      <trkpt lat="44.52417" lon="6.40323">
        <ele>806.12725830078</ele>
        <time>2010-05-22T08:18:04Z</time>
      </trkpt>
      <trkpt lat="44.52409" lon="6.40335">
        <ele>809.36413574219</ele>
        <time>2010-05-22T08:18:10Z</time>
      </trkpt>
      <trkpt lat="44.52405" lon="6.4034">
        <ele>810.69769287109</ele>
        <time>2010-05-22T08:18:13Z</time>
      </trkpt>
      <trkpt lat="44.52397" lon="6.40346">
        <ele>812.43078613281</ele>
        <time>2010-05-22T08:18:19Z</time>
      </trkpt>
      <trkpt lat="44.52389" lon="6.40351">
        <ele>813.86834716797</ele>
        <time>2010-05-22T08:18:24Z</time>
      </trkpt>
      <trkpt lat="44.52382" lon="6.40357">
        <ele>815.14733886719</ele>
        <time>2010-05-22T08:18:29Z</time>
      </trkpt>
      <trkpt lat="44.52371" lon="6.40369">
        <ele>816.66412353516</ele>
        <time>2010-05-22T08:18:36Z</time>
      </trkpt>
      <trkpt lat="44.52362" lon="6.4038">
        <ele>817.62426757812</ele>
        <time>2010-05-22T08:18:42Z</time>
      </trkpt>
      <trkpt lat="44.52353" lon="6.40398">
        <ele>818.52923583984</ele>
        <time>2010-05-22T08:18:50Z</time>
      </trkpt>
      <trkpt lat="44.52348" lon="6.4041">
        <ele>818.86822509766</ele>
        <time>2010-05-22T08:18:56Z</time>
      </trkpt>
      <trkpt lat="44.52344" lon="6.40425">
        <ele>819.38958740234</ele>
        <time>2010-05-22T08:19:03Z</time>
      </trkpt>
      <trkpt lat="44.52337" lon="6.40437">
        <ele>819.81097412109</ele>
        <time>2010-05-22T08:19:09Z</time>
      </trkpt>
      <trkpt lat="44.5233" lon="6.40452">
        <ele>820</ele>
        <time>2010-05-22T08:19:16Z</time>
      </trkpt>
      <trkpt lat="44.52319" lon="6.40465">
        <ele>820</ele>
        <time>2010-05-22T08:19:24Z</time>
      </trkpt>
      <trkpt lat="44.52309" lon="6.40482">
        <ele>820.07849121094</ele>
        <time>2010-05-22T08:19:35Z</time>
      </trkpt>
      <trkpt lat="44.52299" lon="6.40496">
        <ele>821.49407958984</ele>
        <time>2010-05-22T08:19:43Z</time>
      </trkpt>
      <trkpt lat="44.52289" lon="6.40506">
        <ele>825.04919433594</ele>
        <time>2010-05-22T08:19:51Z</time>
      </trkpt>
      <trkpt lat="44.52283" lon="6.40515">
        <ele>827.73510742188</ele>
        <time>2010-05-22T08:19:57Z</time>
      </trkpt>
      <trkpt lat="44.52274" lon="6.40529">
        <ele>832.06634521484</ele>
        <time>2010-05-22T08:20:05Z</time>
      </trkpt>
      <trkpt lat="44.52267" lon="6.40543">
        <ele>835.43603515625</ele>
        <time>2010-05-22T08:20:13Z</time>
      </trkpt>
      <trkpt lat="44.52258" lon="6.40554">
        <ele>837.97491455078</ele>
        <time>2010-05-22T08:20:21Z</time>
      </trkpt>
      <trkpt lat="44.52248" lon="6.40566">
        <ele>839.72784423828</ele>
        <time>2010-05-22T08:20:28Z</time>
      </trkpt>
      <trkpt lat="44.52235" lon="6.40581">
        <ele>840.37060546875</ele>
        <time>2010-05-22T08:20:36Z</time>
      </trkpt>
      <trkpt lat="44.52232" lon="6.40608">
        <ele>840.943359375</ele>
        <time>2010-05-22T08:20:45Z</time>
      </trkpt>
      <trkpt lat="44.52223" lon="6.40629">
        <ele>842.01306152344</ele>
        <time>2010-05-22T08:20:53Z</time>
      </trkpt>
      <trkpt lat="44.5221" lon="6.40639">
        <ele>841.73791503906</ele>
        <time>2010-05-22T08:20:59Z</time>
      </trkpt>
      <trkpt lat="44.5219" lon="6.40648">
        <ele>841.60955810547</ele>
        <time>2010-05-22T08:21:08Z</time>
      </trkpt>
      <trkpt lat="44.52176" lon="6.4065">
        <ele>842.76220703125</ele>
        <time>2010-05-22T08:21:15Z</time>
      </trkpt>
      <trkpt lat="44.52159" lon="6.40648">
        <ele>843.47698974609</ele>
        <time>2010-05-22T08:21:23Z</time>
      </trkpt>
      <trkpt lat="44.52142" lon="6.40645">
        <ele>844.04345703125</ele>
        <time>2010-05-22T08:21:31Z</time>
      </trkpt>
      <trkpt lat="44.52125" lon="6.40647">
        <ele>847.44989013672</ele>
        <time>2010-05-22T08:21:39Z</time>
      </trkpt>
      <trkpt lat="44.52111" lon="6.40652">
        <ele>850.79290771484</ele>
        <time>2010-05-22T08:21:46Z</time>
      </trkpt>
      <trkpt lat="44.521" lon="6.40664">
        <ele>854.2783203125</ele>
        <time>2010-05-22T08:21:54Z</time>
      </trkpt>
      <trkpt lat="44.5209" lon="6.40676">
        <ele>856.49700927734</ele>
        <time>2010-05-22T08:22:01Z</time>
      </trkpt>
      <trkpt lat="44.52082" lon="6.40686">
        <ele>857.73565673828</ele>
        <time>2010-05-22T08:22:07Z</time>
      </trkpt>
      <trkpt lat="44.52068" lon="6.40695">
        <ele>858.54937744141</ele>
        <time>2010-05-22T08:22:16Z</time>
      </trkpt>
      <trkpt lat="44.52055" lon="6.40698">
        <ele>859.02587890625</ele>
        <time>2010-05-22T08:22:23Z</time>
      </trkpt>
      <trkpt lat="44.52045" lon="6.40694">
        <ele>860.52770996094</ele>
        <time>2010-05-22T08:22:30Z</time>
      </trkpt>
      <trkpt lat="44.52029" lon="6.40691">
        <ele>863.18951416016</ele>
        <time>2010-05-22T08:22:36Z</time>
      </trkpt>
      <trkpt lat="44.52017" lon="6.40688">
        <ele>865.17736816406</ele>
        <time>2010-05-22T08:22:42Z</time>
      </trkpt>
      <trkpt lat="44.52005" lon="6.40688">
        <ele>867.00036621094</ele>
        <time>2010-05-22T08:22:49Z</time>
      </trkpt>
      <trkpt lat="44.51994" lon="6.40686">
        <ele>868.82000732422</ele>
        <time>2010-05-22T08:22:56Z</time>
      </trkpt>
      <trkpt lat="44.51981" lon="6.40688">
        <ele>870.35119628906</ele>
        <time>2010-05-22T08:23:02Z</time>
      </trkpt>
      <trkpt lat="44.51964" lon="6.40696">
        <ele>872.06207275391</ele>
        <time>2010-05-22T08:23:09Z</time>
      </trkpt>
      <trkpt lat="44.51959" lon="6.40704">
        <ele>872.15478515625</ele>
        <time>2010-05-22T08:23:14Z</time>
      </trkpt>
      <trkpt lat="44.51951" lon="6.40722">
        <ele>872.04150390625</ele>
        <time>2010-05-22T08:23:21Z</time>
      </trkpt>
      <trkpt lat="44.5195" lon="6.40742">
        <ele>873.78167724609</ele>
        <time>2010-05-22T08:23:28Z</time>
      </trkpt>
      <trkpt lat="44.51945" lon="6.40758">
        <ele>875.50762939453</ele>
        <time>2010-05-22T08:23:34Z</time>
      </trkpt>
      <trkpt lat="44.51941" lon="6.40773">
        <ele>876.83435058594</ele>
        <time>2010-05-22T08:23:40Z</time>
      </trkpt>
      <trkpt lat="44.51934" lon="6.40787">
        <ele>877.92205810547</ele>
        <time>2010-05-22T08:23:47Z</time>
      </trkpt>
      <trkpt lat="44.51931" lon="6.40789">
        <ele>878.11151123047</ele>
        <time>2010-05-22T08:23:49Z</time>
      </trkpt>
      <trkpt lat="44.51921" lon="6.40792">
        <ele>878.43933105469</ele>
        <time>2010-05-22T08:23:53Z</time>
      </trkpt>
      <trkpt lat="44.51898" lon="6.40799">
        <ele>879.22863769531</ele>
        <time>2010-05-22T08:24:03Z</time>
      </trkpt>
      <trkpt lat="44.51883" lon="6.40803">
        <ele>879.80029296875</ele>
        <time>2010-05-22T08:24:10Z</time>
      </trkpt>
      <trkpt lat="44.51866" lon="6.40804">
        <ele>881.65515136719</ele>
        <time>2010-05-22T08:24:18Z</time>
      </trkpt>
      <trkpt lat="44.51846" lon="6.40811">
        <ele>886.07684326172</ele>
        <time>2010-05-22T08:24:29Z</time>
      </trkpt>
      <trkpt lat="44.51829" lon="6.40815">
        <ele>889.78656005859</ele>
        <time>2010-05-22T08:24:38Z</time>
      </trkpt>
      <trkpt lat="44.51817" lon="6.40818">
        <ele>892.32952880859</ele>
        <time>2010-05-22T08:24:45Z</time>
      </trkpt>
      <trkpt lat="44.51801" lon="6.40822">
        <ele>895.18444824219</ele>
        <time>2010-05-22T08:24:54Z</time>
      </trkpt>
      <trkpt lat="44.51787" lon="6.40828">
        <ele>897.0966796875</ele>
        <time>2010-05-22T08:25:03Z</time>
      </trkpt>
      <trkpt lat="44.51773" lon="6.40836">
        <ele>898.31042480469</ele>
        <time>2010-05-22T08:25:12Z</time>
      </trkpt>
      <trkpt lat="44.51761" lon="6.40841">
        <ele>898.84307861328</ele>
        <time>2010-05-22T08:25:19Z</time>
      </trkpt>
      <trkpt lat="44.51748" lon="6.40848">
        <ele>899.74926757812</ele>
        <time>2010-05-22T08:25:28Z</time>
      </trkpt>
      <trkpt lat="44.51737" lon="6.40852">
        <ele>901.89794921875</ele>
        <time>2010-05-22T08:25:35Z</time>
      </trkpt>
      <trkpt lat="44.51723" lon="6.40858">
        <ele>901.599609375</ele>
        <time>2010-05-22T08:25:44Z</time>
      </trkpt>
      <trkpt lat="44.51707" lon="6.40869">
        <ele>908.1953125</ele>
        <time>2010-05-22T08:25:53Z</time>
      </trkpt>
      <trkpt lat="44.51694" lon="6.40877">
        <ele>910.41375732422</ele>
        <time>2010-05-22T08:26:01Z</time>
      </trkpt>
      <trkpt lat="44.5168" lon="6.4089">
        <ele>909.21997070312</ele>
        <time>2010-05-22T08:26:11Z</time>
      </trkpt>
      <trkpt lat="44.51674" lon="6.40903">
        <ele>908.44079589844</ele>
        <time>2010-05-22T08:26:18Z</time>
      </trkpt>
      <trkpt lat="44.51679" lon="6.40905">
        <ele>906.02478027344</ele>
        <time>2010-05-22T08:26:23Z</time>
      </trkpt>
      <trkpt lat="44.51689" lon="6.40898">
        <ele>903.78497314453</ele>
        <time>2010-05-22T08:26:30Z</time>
      </trkpt>
      <trkpt lat="44.51697" lon="6.40896">
        <ele>901.6591796875</ele>
        <time>2010-05-22T08:26:35Z</time>
      </trkpt>
      <trkpt lat="44.51706" lon="6.40906">
        <ele>899.77508544922</ele>
        <time>2010-05-22T08:26:41Z</time>
      </trkpt>
      <trkpt lat="44.5171" lon="6.40923">
        <ele>899.33093261719</ele>
        <time>2010-05-22T08:26:48Z</time>
      </trkpt>
      <trkpt lat="44.51709" lon="6.40931">
        <ele>899.81353759766</ele>
        <time>2010-05-22T08:26:52Z</time>
      </trkpt>
      <trkpt lat="44.51711" lon="6.40941">
        <ele>900.43151855469</ele>
        <time>2010-05-22T08:26:57Z</time>
      </trkpt>
      <trkpt lat="44.51712" lon="6.40956">
        <ele>902.23840332031</ele>
        <time>2010-05-22T08:27:03Z</time>
      </trkpt>
      <trkpt lat="44.51717" lon="6.40966">
        <ele>903.93444824219</ele>
        <time>2010-05-22T08:27:10Z</time>
      </trkpt>
      <trkpt lat="44.51718" lon="6.40969">
        <ele>904.43566894531</ele>
        <time>2010-05-22T08:27:11Z</time>
      </trkpt>
      <trkpt lat="44.51723" lon="6.40981">
        <ele>906.4560546875</ele>
        <time>2010-05-22T08:27:18Z</time>
      </trkpt>
      <trkpt lat="44.51727" lon="6.40991">
        <ele>907.38348388672</ele>
        <time>2010-05-22T08:27:25Z</time>
      </trkpt>
      <trkpt lat="44.51734" lon="6.41006">
        <ele>909.16271972656</ele>
        <time>2010-05-22T08:27:33Z</time>
      </trkpt>
      <trkpt lat="44.51736" lon="6.41012">
        <ele>910.48858642578</ele>
        <time>2010-05-22T08:27:38Z</time>
      </trkpt>
      <trkpt lat="44.51737" lon="6.41012">
        <ele>910.68988037109</ele>
        <time>2010-05-22T08:27:40Z</time>
      </trkpt>
      <trkpt lat="44.51744" lon="6.41013">
        <ele>910.06909179688</ele>
        <time>2010-05-22T08:27:47Z</time>
      </trkpt>
      <trkpt lat="44.51752" lon="6.41004">
        <ele>906.36206054688</ele>
        <time>2010-05-22T08:27:54Z</time>
      </trkpt>
      <trkpt lat="44.51761" lon="6.40994">
        <ele>906.03863525391</ele>
        <time>2010-05-22T08:28:02Z</time>
      </trkpt>
      <trkpt lat="44.51771" lon="6.4099">
        <ele>906.97454833984</ele>
        <time>2010-05-22T08:28:09Z</time>
      </trkpt>
      <trkpt lat="44.51781" lon="6.40993">
        <ele>910.87951660156</ele>
        <time>2010-05-22T08:28:15Z</time>
      </trkpt>
      <trkpt lat="44.51786" lon="6.40993">
        <ele>913.37890625</ele>
        <time>2010-05-22T08:28:18Z</time>
      </trkpt>
      <trkpt lat="44.5179" lon="6.40988">
        <ele>912.99951171875</ele>
        <time>2010-05-22T08:28:22Z</time>
      </trkpt>
      <trkpt lat="44.51797" lon="6.40973">
        <ele>909.47357177734</ele>
        <time>2010-05-22T08:28:31Z</time>
      </trkpt>
      <trkpt lat="44.51807" lon="6.40968">
        <ele>911.22369384766</ele>
        <time>2010-05-22T08:28:38Z</time>
      </trkpt>
      <trkpt lat="44.51815" lon="6.40966">
        <ele>914.16668701172</ele>
        <time>2010-05-22T08:28:44Z</time>
      </trkpt>
      <trkpt lat="44.51824" lon="6.40961">
        <ele>915.86090087891</ele>
        <time>2010-05-22T08:28:50Z</time>
      </trkpt>
      <trkpt lat="44.51836" lon="6.40954">
        <ele>917.23498535156</ele>
        <time>2010-05-22T08:28:58Z</time>
      </trkpt>
      <trkpt lat="44.51848" lon="6.40948">
        <ele>917.45861816406</ele>
        <time>2010-05-22T08:29:06Z</time>
      </trkpt>
      <trkpt lat="44.51859" lon="6.40945">
        <ele>919.69189453125</ele>
        <time>2010-05-22T08:29:13Z</time>
      </trkpt>
      <trkpt lat="44.51873" lon="6.40937">
        <ele>919.35656738281</ele>
        <time>2010-05-22T08:29:22Z</time>
      </trkpt>
      <trkpt lat="44.51874" lon="6.40936">
        <ele>918.9423828125</ele>
        <time>2010-05-22T08:29:23Z</time>
      </trkpt>
      <trkpt lat="44.51889" lon="6.40927">
        <ele>918.92755126953</ele>
        <time>2010-05-22T08:29:32Z</time>
      </trkpt>
      <trkpt lat="44.51899" lon="6.40918">
        <ele>917.97576904297</ele>
        <time>2010-05-22T08:29:38Z</time>
      </trkpt>
      <trkpt lat="44.51903" lon="6.40915">
        <ele>917.98107910156</ele>
        <time>2010-05-22T08:29:41Z</time>
      </trkpt>
      <trkpt lat="44.51914" lon="6.40925">
        <ele>923.70007324219</ele>
        <time>2010-05-22T08:29:49Z</time>
      </trkpt>
      <trkpt lat="44.51924" lon="6.40937">
        <ele>927.40399169922</ele>
        <time>2010-05-22T08:29:56Z</time>
      </trkpt>
      <trkpt lat="44.51932" lon="6.40946">
        <ele>929.36486816406</ele>
        <time>2010-05-22T08:30:02Z</time>
      </trkpt>
      <trkpt lat="44.5194" lon="6.40962">
        <ele>932.25756835938</ele>
        <time>2010-05-22T08:30:09Z</time>
      </trkpt>
      <trkpt lat="44.51946" lon="6.4097">
        <ele>933.39282226562</ele>
        <time>2010-05-22T08:30:14Z</time>
      </trkpt>
      <trkpt lat="44.51949" lon="6.40981">
        <ele>935.43170166016</ele>
        <time>2010-05-22T08:30:21Z</time>
      </trkpt>
      <trkpt lat="44.51959" lon="6.40989">
        <ele>936.14764404297</ele>
        <time>2010-05-22T08:30:28Z</time>
      </trkpt>
      <trkpt lat="44.5197" lon="6.40986">
        <ele>934.63854980469</ele>
        <time>2010-05-22T08:30:34Z</time>
      </trkpt>
      <trkpt lat="44.51985" lon="6.40981">
        <ele>934.61016845703</ele>
        <time>2010-05-22T08:30:42Z</time>
      </trkpt>
      <trkpt lat="44.51999" lon="6.40982">
        <ele>935.88629150391</ele>
        <time>2010-05-22T08:30:50Z</time>
      </trkpt>
      <trkpt lat="44.52004" lon="6.40983">
        <ele>936.21551513672</ele>
        <time>2010-05-22T08:30:53Z</time>
      </trkpt>
      <trkpt lat="44.5201" lon="6.40984">
        <ele>936.40222167969</ele>
        <time>2010-05-22T08:30:59Z</time>
      </trkpt>
      <trkpt lat="44.52011" lon="6.40984">
        <ele>936.37426757812</ele>
        <time>2010-05-22T08:31:16Z</time>
      </trkpt>
      <trkpt lat="44.52025" lon="6.40989">
        <ele>937.19763183594</ele>
        <time>2010-05-22T08:31:23Z</time>
      </trkpt>
      <trkpt lat="44.52038" lon="6.40997">
        <ele>937.66729736328</ele>
        <time>2010-05-22T08:31:29Z</time>
      </trkpt>
      <trkpt lat="44.52049" lon="6.41002">
        <ele>937.44067382812</ele>
        <time>2010-05-22T08:31:35Z</time>
      </trkpt>
      <trkpt lat="44.5206" lon="6.41009">
        <ele>938.88360595703</ele>
        <time>2010-05-22T08:31:41Z</time>
      </trkpt>
      <trkpt lat="44.52072" lon="6.41019">
        <ele>941.80346679688</ele>
        <time>2010-05-22T08:31:48Z</time>
      </trkpt>
      <trkpt lat="44.52079" lon="6.41029">
        <ele>944.55895996094</ele>
        <time>2010-05-22T08:31:53Z</time>
      </trkpt>
      <trkpt lat="44.52088" lon="6.41045">
        <ele>950.11322021484</ele>
        <time>2010-05-22T08:32:00Z</time>
      </trkpt>
      <trkpt lat="44.52089" lon="6.41047">
        <ele>951.28173828125</ele>
        <time>2010-05-22T08:32:01Z</time>
      </trkpt>
      <trkpt lat="44.52099" lon="6.41051">
        <ele>955.82049560547</ele>
        <time>2010-05-22T08:32:07Z</time>
      </trkpt>
      <trkpt lat="44.52101" lon="6.4105">
        <ele>956.341796875</ele>
        <time>2010-05-22T08:32:08Z</time>
      </trkpt>
      <trkpt lat="44.52115" lon="6.41039">
        <ele>960.31353759766</ele>
        <time>2010-05-22T08:32:17Z</time>
      </trkpt>
      <trkpt lat="44.52128" lon="6.41025">
        <ele>963.29425048828</ele>
        <time>2010-05-22T08:32:26Z</time>
      </trkpt>
      <trkpt lat="44.52143" lon="6.41006">
        <ele>963.57446289062</ele>
        <time>2010-05-22T08:32:37Z</time>
      </trkpt>
      <trkpt lat="44.52159" lon="6.40988">
        <ele>959.92950439453</ele>
        <time>2010-05-22T08:32:48Z</time>
      </trkpt>
      <trkpt lat="44.52175" lon="6.4098">
        <ele>956.37719726562</ele>
        <time>2010-05-22T08:32:57Z</time>
      </trkpt>
      <trkpt lat="44.52186" lon="6.40977">
        <ele>953.19104003906</ele>
        <time>2010-05-22T08:33:04Z</time>
      </trkpt>
      <trkpt lat="44.52192" lon="6.40977">
        <ele>952.40948486328</ele>
        <time>2010-05-22T08:33:07Z</time>
      </trkpt>
      <trkpt lat="44.522" lon="6.40978">
        <ele>949.95922851562</ele>
        <time>2010-05-22T08:33:12Z</time>
      </trkpt>
      <trkpt lat="44.52215" lon="6.40987">
        <ele>946.3955078125</ele>
        <time>2010-05-22T08:33:21Z</time>
      </trkpt>
      <trkpt lat="44.52227" lon="6.40995">
        <ele>944.63854980469</ele>
        <time>2010-05-22T08:33:28Z</time>
      </trkpt>
      <trkpt lat="44.52241" lon="6.41004">
        <ele>944.55163574219</ele>
        <time>2010-05-22T08:33:37Z</time>
      </trkpt>
      <trkpt lat="44.52253" lon="6.41016">
        <ele>945.99639892578</ele>
        <time>2010-05-22T08:33:45Z</time>
      </trkpt>
      <trkpt lat="44.52264" lon="6.41028">
        <ele>949.14361572266</ele>
        <time>2010-05-22T08:33:52Z</time>
      </trkpt>
      <trkpt lat="44.52272" lon="6.41037">
        <ele>951.06451416016</ele>
        <time>2010-05-22T08:33:58Z</time>
      </trkpt>
      <trkpt lat="44.52281" lon="6.41051">
        <ele>954.39758300781</ele>
        <time>2010-05-22T08:34:04Z</time>
      </trkpt>
      <trkpt lat="44.5229" lon="6.41071">
        <ele>959.982421875</ele>
        <time>2010-05-22T08:34:12Z</time>
      </trkpt>
      <trkpt lat="44.52299" lon="6.41091">
        <ele>963.38854980469</ele>
        <time>2010-05-22T08:34:19Z</time>
      </trkpt>
      <trkpt lat="44.52309" lon="6.4111">
        <ele>966.49908447266</ele>
        <time>2010-05-22T08:34:27Z</time>
      </trkpt>
      <trkpt lat="44.52317" lon="6.41119">
        <ele>966.11944580078</ele>
        <time>2010-05-22T08:34:32Z</time>
      </trkpt>
      <trkpt lat="44.52327" lon="6.41141">
        <ele>966.14691162109</ele>
        <time>2010-05-22T08:34:41Z</time>
      </trkpt>
      <trkpt lat="44.52329" lon="6.41168">
        <ele>967.75366210938</ele>
        <time>2010-05-22T08:34:49Z</time>
      </trkpt>
      <trkpt lat="44.52325" lon="6.41184">
        <ele>971.98168945312</ele>
        <time>2010-05-22T08:34:55Z</time>
      </trkpt>
      <trkpt lat="44.52325" lon="6.41203">
        <ele>974.5810546875</ele>
        <time>2010-05-22T08:35:01Z</time>
      </trkpt>
      <trkpt lat="44.52327" lon="6.41222">
        <ele>975.04699707031</ele>
        <time>2010-05-22T08:35:08Z</time>
      </trkpt>
      <trkpt lat="44.52335" lon="6.41257">
        <ele>974.24102783203</ele>
        <time>2010-05-22T08:35:19Z</time>
      </trkpt>
      <trkpt lat="44.52332" lon="6.41279">
        <ele>977.71710205078</ele>
        <time>2010-05-22T08:35:27Z</time>
      </trkpt>
      <trkpt lat="44.52327" lon="6.41304">
        <ele>981.79425048828</ele>
        <time>2010-05-22T08:35:35Z</time>
      </trkpt>
      <trkpt lat="44.52323" lon="6.41326">
        <ele>982.64923095703</ele>
        <time>2010-05-22T08:35:42Z</time>
      </trkpt>
      <trkpt lat="44.52318" lon="6.41345">
        <ele>984.1083984375</ele>
        <time>2010-05-22T08:35:49Z</time>
      </trkpt>
      <trkpt lat="44.52316" lon="6.41365">
        <ele>984.53002929688</ele>
        <time>2010-05-22T08:35:55Z</time>
      </trkpt>
      <trkpt lat="44.52313" lon="6.41386">
        <ele>985.84838867188</ele>
        <time>2010-05-22T08:36:02Z</time>
      </trkpt>
      <trkpt lat="44.52309" lon="6.41407">
        <ele>987.57940673828</ele>
        <time>2010-05-22T08:36:09Z</time>
      </trkpt>
      <trkpt lat="44.52306" lon="6.41431">
        <ele>988.98211669922</ele>
        <time>2010-05-22T08:36:16Z</time>
      </trkpt>
      <trkpt lat="44.52296" lon="6.41454">
        <ele>992.90881347656</ele>
        <time>2010-05-22T08:36:22Z</time>
      </trkpt>
      <trkpt lat="44.52294" lon="6.41482">
        <ele>993.17163085938</ele>
        <time>2010-05-22T08:36:28Z</time>
      </trkpt>
      <trkpt lat="44.52289" lon="6.41517">
        <ele>993.27709960938</ele>
        <time>2010-05-22T08:36:36Z</time>
      </trkpt>
      <trkpt lat="44.5229" lon="6.41543">
        <ele>991.49633789062</ele>
        <time>2010-05-22T08:36:41Z</time>
      </trkpt>
      <trkpt lat="44.52288" lon="6.41575">
        <ele>990.27252197266</ele>
        <time>2010-05-22T08:36:47Z</time>
      </trkpt>
      <trkpt lat="44.52282" lon="6.41602">
        <ele>990.75610351562</ele>
        <time>2010-05-22T08:36:51Z</time>
      </trkpt>
      <trkpt lat="44.52275" lon="6.41648">
        <ele>990.6884765625</ele>
        <time>2010-05-22T08:36:57Z</time>
      </trkpt>
      <trkpt lat="44.52274" lon="6.41657">
        <ele>990.74438476562</ele>
        <time>2010-05-22T08:36:58Z</time>
      </trkpt>
      <trkpt lat="44.52275" lon="6.41683">
        <ele>988.25158691406</ele>
        <time>2010-05-22T08:37:01Z</time>
      </trkpt>
      <trkpt lat="44.52279" lon="6.41697">
        <ele>986.12298583984</ele>
        <time>2010-05-22T08:37:03Z</time>
      </trkpt>
      <trkpt lat="44.5229" lon="6.41736">
        <ele>990.13757324219</ele>
        <time>2010-05-22T08:37:09Z</time>
      </trkpt>
      <trkpt lat="44.52293" lon="6.41786">
        <ele>992.43762207031</ele>
        <time>2010-05-22T08:37:15Z</time>
      </trkpt>
      <trkpt lat="44.52291" lon="6.41842">
        <ele>987.75958251953</ele>
        <time>2010-05-22T08:37:20Z</time>
      </trkpt>
      <trkpt lat="44.52289" lon="6.41908">
        <ele>982.95977783203</ele>
        <time>2010-05-22T08:37:26Z</time>
      </trkpt>
      <trkpt lat="44.52282" lon="6.41976">
        <ele>980.06048583984</ele>
        <time>2010-05-22T08:37:33Z</time>
      </trkpt>
      <trkpt lat="44.52282" lon="6.41985">
        <ele>979.43560791016</ele>
        <time>2010-05-22T08:37:34Z</time>
      </trkpt>
      <trkpt lat="44.52269" lon="6.42038">
        <ele>978.50085449219</ele>
        <time>2010-05-22T08:37:40Z</time>
      </trkpt>
      <trkpt lat="44.5224" lon="6.42093">
        <ele>978.43414306641</ele>
        <time>2010-05-22T08:37:46Z</time>
      </trkpt>
      <trkpt lat="44.52212" lon="6.42118">
        <ele>983.17395019531</ele>
        <time>2010-05-22T08:37:50Z</time>
      </trkpt>
      <trkpt lat="44.52187" lon="6.42145">
        <ele>984.54162597656</ele>
        <time>2010-05-22T08:37:55Z</time>
      </trkpt>
      <trkpt lat="44.52174" lon="6.42181">
        <ele>984.33654785156</ele>
        <time>2010-05-22T08:38:02Z</time>
      </trkpt>
      <trkpt lat="44.52159" lon="6.42207">
        <ele>984.31323242188</ele>
        <time>2010-05-22T08:38:09Z</time>
      </trkpt>
      <trkpt lat="44.5214" lon="6.42238">
        <ele>984.94708251953</ele>
        <time>2010-05-22T08:38:17Z</time>
      </trkpt>
      <trkpt lat="44.52121" lon="6.42253">
        <ele>988.443359375</ele>
        <time>2010-05-22T08:38:23Z</time>
      </trkpt>
      <trkpt lat="44.52097" lon="6.42259">
        <ele>991.51306152344</ele>
        <time>2010-05-22T08:38:30Z</time>
      </trkpt>
      <trkpt lat="44.52066" lon="6.42263">
        <ele>993.35021972656</ele>
        <time>2010-05-22T08:38:39Z</time>
      </trkpt>
      <trkpt lat="44.5206" lon="6.42268">
        <ele>991.78784179688</ele>
        <time>2010-05-22T08:38:41Z</time>
      </trkpt>
      <trkpt lat="44.5206" lon="6.42289">
        <ele>984.60528564453</ele>
        <time>2010-05-22T08:38:46Z</time>
      </trkpt>
      <trkpt lat="44.52065" lon="6.42295">
        <ele>982.49530029297</ele>
        <time>2010-05-22T08:38:49Z</time>
      </trkpt>
      <trkpt lat="44.5208" lon="6.42311">
        <ele>978.45428466797</ele>
        <time>2010-05-22T08:38:56Z</time>
      </trkpt>
      <trkpt lat="44.52085" lon="6.4233">
        <ele>974.82763671875</ele>
        <time>2010-05-22T08:39:00Z</time>
      </trkpt>
      <trkpt lat="44.52081" lon="6.42357">
        <ele>978.91149902344</ele>
        <time>2010-05-22T08:39:05Z</time>
      </trkpt>
      <trkpt lat="44.52076" lon="6.4239">
        <ele>983.80322265625</ele>
        <time>2010-05-22T08:39:10Z</time>
      </trkpt>
      <trkpt lat="44.52075" lon="6.42403">
        <ele>983.18762207031</ele>
        <time>2010-05-22T08:39:12Z</time>
      </trkpt>
      <trkpt lat="44.52074" lon="6.42435">
        <ele>980.97991943359</ele>
        <time>2010-05-22T08:39:17Z</time>
      </trkpt>
      <trkpt lat="44.52063" lon="6.42477">
        <ele>981.33258056641</ele>
        <time>2010-05-22T08:39:23Z</time>
      </trkpt>
      <trkpt lat="44.5206" lon="6.42512">
        <ele>978.79107666016</ele>
        <time>2010-05-22T08:39:28Z</time>
      </trkpt>
      <trkpt lat="44.52061" lon="6.42536">
        <ele>976.03576660156</ele>
        <time>2010-05-22T08:39:31Z</time>
      </trkpt>
      <trkpt lat="44.52049" lon="6.42556">
        <ele>979.52600097656</ele>
        <time>2010-05-22T08:39:34Z</time>
      </trkpt>
      <trkpt lat="44.52038" lon="6.42566">
        <ele>981.30004882812</ele>
        <time>2010-05-22T08:39:36Z</time>
      </trkpt>
      <trkpt lat="44.5202" lon="6.42581">
        <ele>983.79577636719</ele>
        <time>2010-05-22T08:39:39Z</time>
      </trkpt>
      <trkpt lat="44.52011" lon="6.42606">
        <ele>980.76031494141</ele>
        <time>2010-05-22T08:39:43Z</time>
      </trkpt>
      <trkpt lat="44.52018" lon="6.4261">
        <ele>980.21325683594</ele>
        <time>2010-05-22T08:39:45Z</time>
      </trkpt>
      <trkpt lat="44.52022" lon="6.4261">
        <ele>980.11053466797</ele>
        <time>2010-05-22T08:39:46Z</time>
      </trkpt>
      <trkpt lat="44.52042" lon="6.42612">
        <ele>973.93804931641</ele>
        <time>2010-05-22T08:39:54Z</time>
      </trkpt>
      <trkpt lat="44.52057" lon="6.42615">
        <ele>967.12823486328</ele>
        <time>2010-05-22T08:40:01Z</time>
      </trkpt>
      <trkpt lat="44.52071" lon="6.42625">
        <ele>963.24011230469</ele>
        <time>2010-05-22T08:40:08Z</time>
      </trkpt>
      <trkpt lat="44.52082" lon="6.42634">
        <ele>960.43933105469</ele>
        <time>2010-05-22T08:40:14Z</time>
      </trkpt>
      <trkpt lat="44.52096" lon="6.42637">
        <ele>959.72680664062</ele>
        <time>2010-05-22T08:40:20Z</time>
      </trkpt>
      <trkpt lat="44.5211" lon="6.42642">
        <ele>960.70520019531</ele>
        <time>2010-05-22T08:40:27Z</time>
      </trkpt>
      <trkpt lat="44.52126" lon="6.42649">
        <ele>963.51458740234</ele>
        <time>2010-05-22T08:40:34Z</time>
      </trkpt>
      <trkpt lat="44.52148" lon="6.42651">
        <ele>966.57177734375</ele>
        <time>2010-05-22T08:40:42Z</time>
      </trkpt>
      <trkpt lat="44.52165" lon="6.4265">
        <ele>969.06298828125</ele>
        <time>2010-05-22T08:40:48Z</time>
      </trkpt>
      <trkpt lat="44.52185" lon="6.42642">
        <ele>972.46075439453</ele>
        <time>2010-05-22T08:40:57Z</time>
      </trkpt>
      <trkpt lat="44.52198" lon="6.42632">
        <ele>972.24212646484</ele>
        <time>2010-05-22T08:41:04Z</time>
      </trkpt>
      <trkpt lat="44.52211" lon="6.42618">
        <ele>970.90869140625</ele>
        <time>2010-05-22T08:41:13Z</time>
      </trkpt>
      <trkpt lat="44.52221" lon="6.42604">
        <ele>969.16412353516</ele>
        <time>2010-05-22T08:41:21Z</time>
      </trkpt>
      <trkpt lat="44.52227" lon="6.42596">
        <ele>968.01214599609</ele>
        <time>2010-05-22T08:41:25Z</time>
      </trkpt>
      <trkpt lat="44.52235" lon="6.42604">
        <ele>971.59057617188</ele>
        <time>2010-05-22T08:41:30Z</time>
      </trkpt>
      <trkpt lat="44.52234" lon="6.42616">
        <ele>975.00012207031</ele>
        <time>2010-05-22T08:41:35Z</time>
      </trkpt>
      <trkpt lat="44.52229" lon="6.42627">
        <ele>977.99279785156</ele>
        <time>2010-05-22T08:41:40Z</time>
      </trkpt>
      <trkpt lat="44.52223" lon="6.42651">
        <ele>982.89996337891</ele>
        <time>2010-05-22T08:41:50Z</time>
      </trkpt>
      <trkpt lat="44.52221" lon="6.4267">
        <ele>985.23187255859</ele>
        <time>2010-05-22T08:41:57Z</time>
      </trkpt>
      <trkpt lat="44.52216" lon="6.42689">
        <ele>987.34674072266</ele>
        <time>2010-05-22T08:42:05Z</time>
      </trkpt>
      <trkpt lat="44.52213" lon="6.42709">
        <ele>989.65386962891</ele>
        <time>2010-05-22T08:42:13Z</time>
      </trkpt>
      <trkpt lat="44.5221" lon="6.42726">
        <ele>991.99243164062</ele>
        <time>2010-05-22T08:42:19Z</time>
      </trkpt>
      <trkpt lat="44.52209" lon="6.42745">
        <ele>995.5439453125</ele>
        <time>2010-05-22T08:42:25Z</time>
      </trkpt>
      <trkpt lat="44.522" lon="6.42759">
        <ele>996.517578125</ele>
        <time>2010-05-22T08:42:31Z</time>
      </trkpt>
      <trkpt lat="44.52188" lon="6.42768">
        <ele>996.35296630859</ele>
        <time>2010-05-22T08:42:37Z</time>
      </trkpt>
      <trkpt lat="44.52177" lon="6.42778">
        <ele>996.70513916016</ele>
        <time>2010-05-22T08:42:43Z</time>
      </trkpt>
      <trkpt lat="44.52164" lon="6.42785">
        <ele>997.06866455078</ele>
        <time>2010-05-22T08:42:50Z</time>
      </trkpt>
      <trkpt lat="44.52146" lon="6.42793">
        <ele>998.48046875</ele>
        <time>2010-05-22T08:42:59Z</time>
      </trkpt>
      <trkpt lat="44.5213" lon="6.428">
        <ele>999.70892333984</ele>
        <time>2010-05-22T08:43:07Z</time>
      </trkpt>
      <trkpt lat="44.52116" lon="6.42809">
        <ele>1001.0440063477</ele>
        <time>2010-05-22T08:43:15Z</time>
      </trkpt>
      <trkpt lat="44.52102" lon="6.42817">
        <ele>1002.2666625977</ele>
        <time>2010-05-22T08:43:23Z</time>
      </trkpt>
      <trkpt lat="44.52091" lon="6.42824">
        <ele>1003.5267944336</ele>
        <time>2010-05-22T08:43:31Z</time>
      </trkpt>
      <trkpt lat="44.52084" lon="6.42829">
        <ele>1004.4375</ele>
        <time>2010-05-22T08:43:37Z</time>
      </trkpt>
      <trkpt lat="44.52074" lon="6.42834">
        <ele>1006.5419311523</ele>
        <time>2010-05-22T08:43:44Z</time>
      </trkpt>
      <trkpt lat="44.52063" lon="6.42839">
        <ele>1008.6567993164</ele>
        <time>2010-05-22T08:43:51Z</time>
      </trkpt>
      <trkpt lat="44.5205" lon="6.42843">
        <ele>1010.9293823242</ele>
        <time>2010-05-22T08:43:59Z</time>
      </trkpt>
      <trkpt lat="44.52034" lon="6.42845">
        <ele>1013.0579833984</ele>
        <time>2010-05-22T08:44:09Z</time>
      </trkpt>
      <trkpt lat="44.52027" lon="6.42848">
        <ele>1014.2142333984</ele>
        <time>2010-05-22T08:44:15Z</time>
      </trkpt>
      <trkpt lat="44.52018" lon="6.42853">
        <ele>1016.3291015625</ele>
        <time>2010-05-22T08:44:23Z</time>
      </trkpt>
      <trkpt lat="44.5201" lon="6.42867">
        <ele>1018.4275512695</ele>
        <time>2010-05-22T08:44:31Z</time>
      </trkpt>
      <trkpt lat="44.52003" lon="6.42882">
        <ele>1019.4717407227</ele>
        <time>2010-05-22T08:44:38Z</time>
      </trkpt>
      <trkpt lat="44.51996" lon="6.42892">
        <ele>1021.2380981445</ele>
        <time>2010-05-22T08:44:44Z</time>
      </trkpt>
      <trkpt lat="44.51991" lon="6.42906">
        <ele>1023.020324707</ele>
        <time>2010-05-22T08:44:51Z</time>
      </trkpt>
      <trkpt lat="44.51984" lon="6.42926">
        <ele>1025.2434082031</ele>
        <time>2010-05-22T08:45:00Z</time>
      </trkpt>
      <trkpt lat="44.51977" lon="6.42946">
        <ele>1026.5001220703</ele>
        <time>2010-05-22T08:45:09Z</time>
      </trkpt>
      <trkpt lat="44.51973" lon="6.42959">
        <ele>1027.2397460938</ele>
        <time>2010-05-22T08:45:15Z</time>
      </trkpt>
      <trkpt lat="44.51967" lon="6.42972">
        <ele>1029.3220214844</ele>
        <time>2010-05-22T08:45:23Z</time>
      </trkpt>
      <trkpt lat="44.51963" lon="6.42984">
        <ele>1030.5701904297</ele>
        <time>2010-05-22T08:45:29Z</time>
      </trkpt>
      <trkpt lat="44.5196" lon="6.42998">
        <ele>1031.2750244141</ele>
        <time>2010-05-22T08:45:35Z</time>
      </trkpt>
      <trkpt lat="44.51955" lon="6.4301">
        <ele>1032.6646728516</ele>
        <time>2010-05-22T08:45:41Z</time>
      </trkpt>
      <trkpt lat="44.51954" lon="6.4302">
        <ele>1032.7537841797</ele>
        <time>2010-05-22T08:45:45Z</time>
      </trkpt>
      <trkpt lat="44.51946" lon="6.43038">
        <ele>1034.5087890625</ele>
        <time>2010-05-22T08:45:54Z</time>
      </trkpt>
      <trkpt lat="44.51942" lon="6.43052">
        <ele>1034.9077148438</ele>
        <time>2010-05-22T08:46:02Z</time>
      </trkpt>
      <trkpt lat="44.51935" lon="6.43064">
        <ele>1036.2178955078</ele>
        <time>2010-05-22T08:46:09Z</time>
      </trkpt>
      <trkpt lat="44.51928" lon="6.43081">
        <ele>1037.4669189453</ele>
        <time>2010-05-22T08:46:17Z</time>
      </trkpt>
      <trkpt lat="44.51925" lon="6.43093">
        <ele>1038.0615234375</ele>
        <time>2010-05-22T08:46:22Z</time>
      </trkpt>
      <trkpt lat="44.51914" lon="6.43096">
        <ele>1041.9217529297</ele>
        <time>2010-05-22T08:46:28Z</time>
      </trkpt>
      <trkpt lat="44.51911" lon="6.43091">
        <ele>1042.4510498047</ele>
        <time>2010-05-22T08:46:30Z</time>
      </trkpt>
      <trkpt lat="44.51912" lon="6.43069">
        <ele>1043.3352050781</ele>
        <time>2010-05-22T08:46:38Z</time>
      </trkpt>
      <trkpt lat="44.51914" lon="6.4305">
        <ele>1043.4599609375</ele>
        <time>2010-05-22T08:46:46Z</time>
      </trkpt>
      <trkpt lat="44.51913" lon="6.43037">
        <ele>1043.6575927734</ele>
        <time>2010-05-22T08:46:52Z</time>
      </trkpt>
      <trkpt lat="44.51914" lon="6.43019">
        <ele>1043.8537597656</ele>
        <time>2010-05-22T08:47:00Z</time>
      </trkpt>
      <trkpt lat="44.51914" lon="6.43016">
        <ele>1043.9396972656</ele>
        <time>2010-05-22T08:47:01Z</time>
      </trkpt>
      <trkpt lat="44.51917" lon="6.43002">
        <ele>1043.8933105469</ele>
        <time>2010-05-22T08:47:08Z</time>
      </trkpt>
      <trkpt lat="44.51913" lon="6.42992">
        <ele>1045.2052001953</ele>
        <time>2010-05-22T08:47:14Z</time>
      </trkpt>
      <trkpt lat="44.5191" lon="6.4299">
        <ele>1045.8876953125</ele>
        <time>2010-05-22T08:47:16Z</time>
      </trkpt>
      <trkpt lat="44.51905" lon="6.42997">
        <ele>1046.7230224609</ele>
        <time>2010-05-22T08:47:22Z</time>
      </trkpt>
      <trkpt lat="44.51904" lon="6.43005">
        <ele>1046.5574951172</ele>
        <time>2010-05-22T08:47:25Z</time>
      </trkpt>
      <trkpt lat="44.51901" lon="6.43033">
        <ele>1046.2185058594</ele>
        <time>2010-05-22T08:47:35Z</time>
      </trkpt>
      <trkpt lat="44.51897" lon="6.43051">
        <ele>1046.6359863281</ele>
        <time>2010-05-22T08:47:42Z</time>
      </trkpt>
      <trkpt lat="44.51889" lon="6.43069">
        <ele>1047.1495361328</ele>
        <time>2010-05-22T08:47:51Z</time>
      </trkpt>
      <trkpt lat="44.51878" lon="6.43078">
        <ele>1051.7900390625</ele>
        <time>2010-05-22T08:47:58Z</time>
      </trkpt>
      <trkpt lat="44.51864" lon="6.43087">
        <ele>1058.0450439453</ele>
        <time>2010-05-22T08:48:06Z</time>
      </trkpt>
      <trkpt lat="44.51857" lon="6.43099">
        <ele>1058.7160644531</ele>
        <time>2010-05-22T08:48:13Z</time>
      </trkpt>
      <trkpt lat="44.51855" lon="6.43114">
        <ele>1057.4466552734</ele>
        <time>2010-05-22T08:48:20Z</time>
      </trkpt>
      <trkpt lat="44.51851" lon="6.43129">
        <ele>1057.2758789062</ele>
        <time>2010-05-22T08:48:28Z</time>
      </trkpt>
      <trkpt lat="44.51844" lon="6.43141">
        <ele>1058.1263427734</ele>
        <time>2010-05-22T08:48:35Z</time>
      </trkpt>
      <trkpt lat="44.51839" lon="6.43154">
        <ele>1059.4874267578</ele>
        <time>2010-05-22T08:48:43Z</time>
      </trkpt>
      <trkpt lat="44.51838" lon="6.43155">
        <ele>1059.6573486328</ele>
        <time>2010-05-22T08:48:57Z</time>
      </trkpt>
      <trkpt lat="44.51833" lon="6.43164">
        <ele>1061.9925537109</ele>
        <time>2010-05-22T08:49:03Z</time>
      </trkpt>
      <trkpt lat="44.51824" lon="6.43182">
        <ele>1064.1867675781</ele>
        <time>2010-05-22T08:49:09Z</time>
      </trkpt>
      <trkpt lat="44.51822" lon="6.43204">
        <ele>1062.6026611328</ele>
        <time>2010-05-22T08:49:14Z</time>
      </trkpt>
      <trkpt lat="44.51818" lon="6.43235">
        <ele>1059.3006591797</ele>
        <time>2010-05-22T08:49:19Z</time>
      </trkpt>
      <trkpt lat="44.51814" lon="6.43242">
        <ele>1059.2644042969</ele>
        <time>2010-05-22T08:49:20Z</time>
      </trkpt>
      <trkpt lat="44.51799" lon="6.4326">
        <ele>1062.1492919922</ele>
        <time>2010-05-22T08:49:23Z</time>
      </trkpt>
      <trkpt lat="44.51775" lon="6.43277">
        <ele>1069.4827880859</ele>
        <time>2010-05-22T08:49:28Z</time>
      </trkpt>
      <trkpt lat="44.51766" lon="6.43297">
        <ele>1066.5240478516</ele>
        <time>2010-05-22T08:49:31Z</time>
      </trkpt>
      <trkpt lat="44.51762" lon="6.43329">
        <ele>1055.8486328125</ele>
        <time>2010-05-22T08:49:35Z</time>
      </trkpt>
      <trkpt lat="44.51773" lon="6.43349">
        <ele>1044.4652099609</ele>
        <time>2010-05-22T08:49:38Z</time>
      </trkpt>
      <trkpt lat="44.5179" lon="6.43347">
        <ele>1038.6282958984</ele>
        <time>2010-05-22T08:49:41Z</time>
      </trkpt>
      <trkpt lat="44.51799" lon="6.4334">
        <ele>1035.2954101562</ele>
        <time>2010-05-22T08:49:43Z</time>
      </trkpt>
      <trkpt lat="44.51821" lon="6.43347">
        <ele>1027.6578369141</ele>
        <time>2010-05-22T08:49:48Z</time>
      </trkpt>
      <trkpt lat="44.51834" lon="6.43366">
        <ele>1027.9163818359</ele>
        <time>2010-05-22T08:49:51Z</time>
      </trkpt>
      <trkpt lat="44.5185" lon="6.43352">
        <ele>1025.7390136719</ele>
        <time>2010-05-22T08:49:55Z</time>
      </trkpt>
      <trkpt lat="44.51858" lon="6.4334">
        <ele>1022.4201049805</ele>
        <time>2010-05-22T08:49:57Z</time>
      </trkpt>
      <trkpt lat="44.51882" lon="6.43321">
        <ele>1021.6106567383</ele>
        <time>2010-05-22T08:50:01Z</time>
      </trkpt>
      <trkpt lat="44.51901" lon="6.43302">
        <ele>1015.8228149414</ele>
        <time>2010-05-22T08:50:04Z</time>
      </trkpt>
      <trkpt lat="44.51933" lon="6.4329">
        <ele>1008.1986083984</ele>
        <time>2010-05-22T08:50:08Z</time>
      </trkpt>
      <trkpt lat="44.51953" lon="6.43301">
        <ele>1013.9978027344</ele>
        <time>2010-05-22T08:50:11Z</time>
      </trkpt>
      <trkpt lat="44.5197" lon="6.43328">
        <ele>1019.7143554688</ele>
        <time>2010-05-22T08:50:14Z</time>
      </trkpt>
      <trkpt lat="44.51973" lon="6.43337">
        <ele>1021.4311523438</ele>
        <time>2010-05-22T08:50:15Z</time>
      </trkpt>
      <trkpt lat="44.52" lon="6.43351">
        <ele>1017.3526611328</ele>
        <time>2010-05-22T08:50:20Z</time>
      </trkpt>
      <trkpt lat="44.52011" lon="6.43329">
        <ele>1011.2177734375</ele>
        <time>2010-05-22T08:50:23Z</time>
      </trkpt>
      <trkpt lat="44.52024" lon="6.43306">
        <ele>1002.0023193359</ele>
        <time>2010-05-22T08:50:26Z</time>
      </trkpt>
      <trkpt lat="44.52037" lon="6.43298">
        <ele>1000.3603515625</ele>
        <time>2010-05-22T08:50:28Z</time>
      </trkpt>
      <trkpt lat="44.5205" lon="6.4329">
        <ele>998.94732666016</ele>
        <time>2010-05-22T08:50:30Z</time>
      </trkpt>
      <trkpt lat="44.52084" lon="6.43285">
        <ele>999.90856933594</ele>
        <time>2010-05-22T08:50:35Z</time>
      </trkpt>
      <trkpt lat="44.52129" lon="6.43278">
        <ele>996.26538085938</ele>
        <time>2010-05-22T08:50:41Z</time>
      </trkpt>
      <trkpt lat="44.52165" lon="6.43269">
        <ele>992.83544921875</ele>
        <time>2010-05-22T08:50:46Z</time>
      </trkpt>
      <trkpt lat="44.52192" lon="6.43267">
        <ele>994.68890380859</ele>
        <time>2010-05-22T08:50:50Z</time>
      </trkpt>
      <trkpt lat="44.52222" lon="6.43272">
        <ele>996.39807128906</ele>
        <time>2010-05-22T08:50:55Z</time>
      </trkpt>
      <trkpt lat="44.52238" lon="6.43273">
        <ele>997.39709472656</ele>
        <time>2010-05-22T08:50:58Z</time>
      </trkpt>
      <trkpt lat="44.52263" lon="6.43275">
        <ele>997.53088378906</ele>
        <time>2010-05-22T08:51:03Z</time>
      </trkpt>
      <trkpt lat="44.52288" lon="6.43281">
        <ele>998.66796875</ele>
        <time>2010-05-22T08:51:08Z</time>
      </trkpt>
      <trkpt lat="44.52303" lon="6.43291">
        <ele>1003.0451660156</ele>
        <time>2010-05-22T08:51:12Z</time>
      </trkpt>
      <trkpt lat="44.52328" lon="6.43287">
        <ele>1000.9489746094</ele>
        <time>2010-05-22T08:51:18Z</time>
      </trkpt>
      <trkpt lat="44.52343" lon="6.43289">
        <ele>999.99322509766</ele>
        <time>2010-05-22T08:51:22Z</time>
      </trkpt>
      <trkpt lat="44.52352" lon="6.43302">
        <ele>1003.3671264648</ele>
        <time>2010-05-22T08:51:25Z</time>
      </trkpt>
      <trkpt lat="44.52357" lon="6.43313">
        <ele>1006.4691772461</ele>
        <time>2010-05-22T08:51:27Z</time>
      </trkpt>
      <trkpt lat="44.52369" lon="6.43345">
        <ele>1013.8887939453</ele>
        <time>2010-05-22T08:51:32Z</time>
      </trkpt>
      <trkpt lat="44.52378" lon="6.43383">
        <ele>1016.2383422852</ele>
        <time>2010-05-22T08:51:37Z</time>
      </trkpt>
      <trkpt lat="44.5238" lon="6.43389">
        <ele>1015.6073608398</ele>
        <time>2010-05-22T08:51:38Z</time>
      </trkpt>
      <trkpt lat="44.52392" lon="6.43413">
        <ele>1014.0602416992</ele>
        <time>2010-05-22T08:51:42Z</time>
      </trkpt>
      <trkpt lat="44.52409" lon="6.43437">
        <ele>1015.2965698242</ele>
        <time>2010-05-22T08:51:47Z</time>
      </trkpt>
      <trkpt lat="44.52418" lon="6.43446">
        <ele>1014.3387451172</ele>
        <time>2010-05-22T08:51:49Z</time>
      </trkpt>
      <trkpt lat="44.52445" lon="6.4347">
        <ele>1005.1494750977</ele>
        <time>2010-05-22T08:51:55Z</time>
      </trkpt>
      <trkpt lat="44.52473" lon="6.43493">
        <ele>1004.1396484375</ele>
        <time>2010-05-22T08:52:01Z</time>
      </trkpt>
      <trkpt lat="44.52489" lon="6.4353">
        <ele>1012.0698852539</ele>
        <time>2010-05-22T08:52:06Z</time>
      </trkpt>
      <trkpt lat="44.52499" lon="6.43553">
        <ele>1011.3238525391</ele>
        <time>2010-05-22T08:52:09Z</time>
      </trkpt>
      <trkpt lat="44.52526" lon="6.43595">
        <ele>1005.0918579102</ele>
        <time>2010-05-22T08:52:14Z</time>
      </trkpt>
      <trkpt lat="44.5253" lon="6.4363">
        <ele>1011.080871582</ele>
        <time>2010-05-22T08:52:18Z</time>
      </trkpt>
      <trkpt lat="44.52521" lon="6.43654">
        <ele>1014.3898925781</ele>
        <time>2010-05-22T08:52:21Z</time>
      </trkpt>
      <trkpt lat="44.52517" lon="6.4366">
        <ele>1015.252746582</ele>
        <time>2010-05-22T08:52:22Z</time>
      </trkpt>
      <trkpt lat="44.52489" lon="6.43696">
        <ele>1023.8630371094</ele>
        <time>2010-05-22T08:52:28Z</time>
      </trkpt>
      <trkpt lat="44.5246" lon="6.43722">
        <ele>1027.6848144531</ele>
        <time>2010-05-22T08:52:34Z</time>
      </trkpt>
      <trkpt lat="44.52443" lon="6.43746">
        <ele>1030.3016357422</ele>
        <time>2010-05-22T08:52:39Z</time>
      </trkpt>
      <trkpt lat="44.52418" lon="6.43777">
        <ele>1030.4694824219</ele>
        <time>2010-05-22T08:52:46Z</time>
      </trkpt>
      <trkpt lat="44.52401" lon="6.43799">
        <ele>1028.4357910156</ele>
        <time>2010-05-22T08:52:52Z</time>
      </trkpt>
      <trkpt lat="44.52372" lon="6.43819">
        <ele>1029.3929443359</ele>
        <time>2010-05-22T08:53:01Z</time>
      </trkpt>
      <trkpt lat="44.52355" lon="6.4382">
        <ele>1033.1474609375</ele>
        <time>2010-05-22T08:53:06Z</time>
      </trkpt>
      <trkpt lat="44.52349" lon="6.43831">
        <ele>1032.1011962891</ele>
        <time>2010-05-22T08:53:10Z</time>
      </trkpt>
      <trkpt lat="44.5234" lon="6.43854">
        <ele>1029.8779296875</ele>
        <time>2010-05-22T08:53:17Z</time>
      </trkpt>
      <trkpt lat="44.52327" lon="6.43871">
        <ele>1032.4937744141</ele>
        <time>2010-05-22T08:53:25Z</time>
      </trkpt>
      <trkpt lat="44.52318" lon="6.43886">
        <ele>1033.8842773438</ele>
        <time>2010-05-22T08:53:32Z</time>
      </trkpt>
      <trkpt lat="44.52313" lon="6.43903">
        <ele>1033.3714599609</ele>
        <time>2010-05-22T08:53:40Z</time>
      </trkpt>
      <trkpt lat="44.52308" lon="6.4392">
        <ele>1033.4450683594</ele>
        <time>2010-05-22T08:53:49Z</time>
      </trkpt>
      <trkpt lat="44.52298" lon="6.43936">
        <ele>1034.197265625</ele>
        <time>2010-05-22T08:53:57Z</time>
      </trkpt>
      <trkpt lat="44.52291" lon="6.43953">
        <ele>1034.3033447266</ele>
        <time>2010-05-22T08:54:04Z</time>
      </trkpt>
      <trkpt lat="44.52281" lon="6.4397">
        <ele>1037.5650634766</ele>
        <time>2010-05-22T08:54:11Z</time>
      </trkpt>
      <trkpt lat="44.52269" lon="6.43989">
        <ele>1039.6424560547</ele>
        <time>2010-05-22T08:54:18Z</time>
      </trkpt>
      <trkpt lat="44.52262" lon="6.44013">
        <ele>1037.7161865234</ele>
        <time>2010-05-22T08:54:25Z</time>
      </trkpt>
      <trkpt lat="44.52251" lon="6.44035">
        <ele>1038.4390869141</ele>
        <time>2010-05-22T08:54:32Z</time>
      </trkpt>
      <trkpt lat="44.52239" lon="6.4406">
        <ele>1040.0023193359</ele>
        <time>2010-05-22T08:54:39Z</time>
      </trkpt>
      <trkpt lat="44.52225" lon="6.44088">
        <ele>1040.142578125</ele>
        <time>2010-05-22T08:54:46Z</time>
      </trkpt>
      <trkpt lat="44.52211" lon="6.44113">
        <ele>1041.7312011719</ele>
        <time>2010-05-22T08:54:52Z</time>
      </trkpt>
      <trkpt lat="44.52201" lon="6.44137">
        <ele>1042.3526611328</ele>
        <time>2010-05-22T08:54:57Z</time>
      </trkpt>
      <trkpt lat="44.52188" lon="6.44155">
        <ele>1043.8098144531</ele>
        <time>2010-05-22T08:55:01Z</time>
      </trkpt>
      <trkpt lat="44.52182" lon="6.44179">
        <ele>1041.7629394531</ele>
        <time>2010-05-22T08:55:06Z</time>
      </trkpt>
      <trkpt lat="44.52177" lon="6.44189">
        <ele>1041.2275390625</ele>
        <time>2010-05-22T08:55:08Z</time>
      </trkpt>
      <trkpt lat="44.52164" lon="6.44208">
        <ele>1040.8325195312</ele>
        <time>2010-05-22T08:55:12Z</time>
      </trkpt>
      <trkpt lat="44.52145" lon="6.4422">
        <ele>1040.0192871094</ele>
        <time>2010-05-22T08:55:16Z</time>
      </trkpt>
      <trkpt lat="44.52133" lon="6.44223">
        <ele>1041.3591308594</ele>
        <time>2010-05-22T08:55:18Z</time>
      </trkpt>
      <trkpt lat="44.52115" lon="6.44238">
        <ele>1042.3891601562</ele>
        <time>2010-05-22T08:55:22Z</time>
      </trkpt>
      <trkpt lat="44.52107" lon="6.44248">
        <ele>1041.3364257812</ele>
        <time>2010-05-22T08:55:24Z</time>
      </trkpt>
      <trkpt lat="44.52081" lon="6.44266">
        <ele>1040.8996582031</ele>
        <time>2010-05-22T08:55:29Z</time>
      </trkpt>
      <trkpt lat="44.52071" lon="6.44275">
        <ele>1039.9658203125</ele>
        <time>2010-05-22T08:55:31Z</time>
      </trkpt>
      <trkpt lat="44.52044" lon="6.44297">
        <ele>1037.8708496094</ele>
        <time>2010-05-22T08:55:36Z</time>
      </trkpt>
      <trkpt lat="44.52023" lon="6.44301">
        <ele>1039.6474609375</ele>
        <time>2010-05-22T08:55:39Z</time>
      </trkpt>
      <trkpt lat="44.51998" lon="6.44311">
        <ele>1042.8256835938</ele>
        <time>2010-05-22T08:55:43Z</time>
      </trkpt>
      <trkpt lat="44.51985" lon="6.44312">
        <ele>1044.0825195312</ele>
        <time>2010-05-22T08:55:47Z</time>
      </trkpt>
      <trkpt lat="44.51984" lon="6.44312">
        <ele>1044.3552246094</ele>
        <time>2010-05-22T08:55:51Z</time>
      </trkpt>
      <trkpt lat="44.51979" lon="6.4431">
        <ele>1045.4420166016</ele>
        <time>2010-05-22T08:56:10Z</time>
      </trkpt>
      <trkpt lat="44.5197" lon="6.44315">
        <ele>1045.2331542969</ele>
        <time>2010-05-22T08:56:16Z</time>
      </trkpt>
      <trkpt lat="44.5196" lon="6.44323">
        <ele>1044.6999511719</ele>
        <time>2010-05-22T08:56:22Z</time>
      </trkpt>
      <trkpt lat="44.51948" lon="6.44329">
        <ele>1045.5140380859</ele>
        <time>2010-05-22T08:56:29Z</time>
      </trkpt>
      <trkpt lat="44.51943" lon="6.4433">
        <ele>1046.34375</ele>
        <time>2010-05-22T08:56:32Z</time>
      </trkpt>
      <trkpt lat="44.51932" lon="6.44333">
        <ele>1047.7995605469</ele>
        <time>2010-05-22T08:56:38Z</time>
      </trkpt>
      <trkpt lat="44.5192" lon="6.44343">
        <ele>1047.2027587891</ele>
        <time>2010-05-22T08:56:46Z</time>
      </trkpt>
      <trkpt lat="44.51908" lon="6.44346">
        <ele>1049.2358398438</ele>
        <time>2010-05-22T08:56:53Z</time>
      </trkpt>
      <trkpt lat="44.51899" lon="6.44349">
        <ele>1050.7661132812</ele>
        <time>2010-05-22T08:56:59Z</time>
      </trkpt>
      <trkpt lat="44.51889" lon="6.44352">
        <ele>1052.0518798828</ele>
        <time>2010-05-22T08:57:05Z</time>
      </trkpt>
      <trkpt lat="44.51877" lon="6.44354">
        <ele>1054.544921875</ele>
        <time>2010-05-22T08:57:12Z</time>
      </trkpt>
      <trkpt lat="44.51865" lon="6.4436">
        <ele>1055.2749023438</ele>
        <time>2010-05-22T08:57:19Z</time>
      </trkpt>
      <trkpt lat="44.51854" lon="6.44363">
        <ele>1056.0960693359</ele>
        <time>2010-05-22T08:57:26Z</time>
      </trkpt>
      <trkpt lat="44.51838" lon="6.44364">
        <ele>1057.3377685547</ele>
        <time>2010-05-22T08:57:34Z</time>
      </trkpt>
      <trkpt lat="44.51824" lon="6.44367">
        <ele>1057.5812988281</ele>
        <time>2010-05-22T08:57:43Z</time>
      </trkpt>
      <trkpt lat="44.51812" lon="6.44364">
        <ele>1059.0632324219</ele>
        <time>2010-05-22T08:57:50Z</time>
      </trkpt>
      <trkpt lat="44.51802" lon="6.44361">
        <ele>1060.1734619141</ele>
        <time>2010-05-22T08:57:56Z</time>
      </trkpt>
      <trkpt lat="44.51791" lon="6.4436">
        <ele>1061.7004394531</ele>
        <time>2010-05-22T08:58:03Z</time>
      </trkpt>
      <trkpt lat="44.51779" lon="6.4436">
        <ele>1062.3958740234</ele>
        <time>2010-05-22T08:58:10Z</time>
      </trkpt>
      <trkpt lat="44.51766" lon="6.44356">
        <ele>1064.0588378906</ele>
        <time>2010-05-22T08:58:18Z</time>
      </trkpt>
      <trkpt lat="44.51756" lon="6.44355">
        <ele>1064.486328125</ele>
        <time>2010-05-22T08:58:24Z</time>
      </trkpt>
      <trkpt lat="44.51746" lon="6.44353">
        <ele>1064.8612060547</ele>
        <time>2010-05-22T08:58:31Z</time>
      </trkpt>
      <trkpt lat="44.51736" lon="6.44345">
        <ele>1066.3905029297</ele>
        <time>2010-05-22T08:58:39Z</time>
      </trkpt>
      <trkpt lat="44.51726" lon="6.4434">
        <ele>1066.8109130859</ele>
        <time>2010-05-22T08:58:47Z</time>
      </trkpt>
      <trkpt lat="44.51714" lon="6.44338">
        <ele>1066.8029785156</ele>
        <time>2010-05-22T08:58:53Z</time>
      </trkpt>
      <trkpt lat="44.517" lon="6.44319">
        <ele>1069.8236083984</ele>
        <time>2010-05-22T08:59:00Z</time>
      </trkpt>
      <trkpt lat="44.51695" lon="6.44308">
        <ele>1071.662109375</ele>
        <time>2010-05-22T08:59:04Z</time>
      </trkpt>
      <trkpt lat="44.51688" lon="6.44303">
        <ele>1072.7763671875</ele>
        <time>2010-05-22T08:59:11Z</time>
      </trkpt>
      <trkpt lat="44.51685" lon="6.44302">
        <ele>1072.8983154297</ele>
        <time>2010-05-22T08:59:13Z</time>
      </trkpt>
      <trkpt lat="44.5167" lon="6.44301">
        <ele>1073.7720947266</ele>
        <time>2010-05-22T08:59:21Z</time>
      </trkpt>
      <trkpt lat="44.51655" lon="6.44306">
        <ele>1074.0471191406</ele>
        <time>2010-05-22T08:59:28Z</time>
      </trkpt>
      <trkpt lat="44.51652" lon="6.44309">
        <ele>1073.8260498047</ele>
        <time>2010-05-22T08:59:33Z</time>
      </trkpt>
      <trkpt lat="44.5165" lon="6.44314">
        <ele>1073.0001220703</ele>
        <time>2010-05-22T08:59:50Z</time>
      </trkpt>
      <trkpt lat="44.51646" lon="6.4431">
        <ele>1074.2496337891</ele>
        <time>2010-05-22T08:59:57Z</time>
      </trkpt>
      <trkpt lat="44.51638" lon="6.44309">
        <ele>1075.0437011719</ele>
        <time>2010-05-22T09:00:04Z</time>
      </trkpt>
      <trkpt lat="44.51637" lon="6.44309">
        <ele>1075.0848388672</ele>
        <time>2010-05-22T09:00:05Z</time>
      </trkpt>
      <trkpt lat="44.5163" lon="6.44313">
        <ele>1074.4326171875</ele>
        <time>2010-05-22T09:00:10Z</time>
      </trkpt>
      <trkpt lat="44.51617" lon="6.44327">
        <ele>1071.3873291016</ele>
        <time>2010-05-22T09:00:16Z</time>
      </trkpt>
      <trkpt lat="44.51605" lon="6.44337">
        <ele>1069.7456054688</ele>
        <time>2010-05-22T09:00:19Z</time>
      </trkpt>
      <trkpt lat="44.51595" lon="6.44344">
        <ele>1070.2762451172</ele>
        <time>2010-05-22T09:00:21Z</time>
      </trkpt>
      <trkpt lat="44.5158" lon="6.44381">
        <ele>1068.1282958984</ele>
        <time>2010-05-22T09:00:25Z</time>
      </trkpt>
      <trkpt lat="44.51577" lon="6.44407">
        <ele>1065.3291015625</ele>
        <time>2010-05-22T09:00:29Z</time>
      </trkpt>
      <trkpt lat="44.51582" lon="6.44418">
        <ele>1062.3793945312</ele>
        <time>2010-05-22T09:00:31Z</time>
      </trkpt>
      <trkpt lat="44.51593" lon="6.44445">
        <ele>1057.4534912109</ele>
        <time>2010-05-22T09:00:36Z</time>
      </trkpt>
      <trkpt lat="44.51585" lon="6.44463">
        <ele>1056.9729003906</ele>
        <time>2010-05-22T09:00:39Z</time>
      </trkpt>
      <trkpt lat="44.51581" lon="6.44467">
        <ele>1057.4117431641</ele>
        <time>2010-05-22T09:00:40Z</time>
      </trkpt>
      <trkpt lat="44.5157" lon="6.44479">
        <ele>1058.9979248047</ele>
        <time>2010-05-22T09:00:43Z</time>
      </trkpt>
      <trkpt lat="44.51559" lon="6.44488">
        <ele>1060.7751464844</ele>
        <time>2010-05-22T09:00:49Z</time>
      </trkpt>
      <trkpt lat="44.51548" lon="6.44499">
        <ele>1062.7912597656</ele>
        <time>2010-05-22T09:00:56Z</time>
      </trkpt>
      <trkpt lat="44.51537" lon="6.44512">
        <ele>1064.5649414062</ele>
        <time>2010-05-22T09:01:02Z</time>
      </trkpt>
      <trkpt lat="44.5153" lon="6.44525">
        <ele>1064.0152587891</ele>
        <time>2010-05-22T09:01:09Z</time>
      </trkpt>
      <trkpt lat="44.51518" lon="6.4454">
        <ele>1064.2048339844</ele>
        <time>2010-05-22T09:01:17Z</time>
      </trkpt>
      <trkpt lat="44.51516" lon="6.4455">
        <ele>1063.0166015625</ele>
        <time>2010-05-22T09:01:23Z</time>
      </trkpt>
      <trkpt lat="44.51514" lon="6.44552">
        <ele>1062.9456787109</ele>
        <time>2010-05-22T09:01:24Z</time>
      </trkpt>
      <trkpt lat="44.51506" lon="6.44561">
        <ele>1062.6323242188</ele>
        <time>2010-05-22T09:01:30Z</time>
      </trkpt>
      <trkpt lat="44.51503" lon="6.44563">
        <ele>1062.9310302734</ele>
        <time>2010-05-22T09:01:32Z</time>
      </trkpt>
      <trkpt lat="44.51493" lon="6.44567">
        <ele>1063.4678955078</ele>
        <time>2010-05-22T09:01:39Z</time>
      </trkpt>
      <trkpt lat="44.5149" lon="6.44568">
        <ele>1063.5983886719</ele>
        <time>2010-05-22T09:01:41Z</time>
      </trkpt>
      <trkpt lat="44.51476" lon="6.4457">
        <ele>1065.1982421875</ele>
        <time>2010-05-22T09:01:48Z</time>
      </trkpt>
      <trkpt lat="44.51461" lon="6.44569">
        <ele>1067.4609375</ele>
        <time>2010-05-22T09:01:55Z</time>
      </trkpt>
      <trkpt lat="44.51453" lon="6.4457">
        <ele>1068.3986816406</ele>
        <time>2010-05-22T09:02:01Z</time>
      </trkpt>
      <trkpt lat="44.51444" lon="6.44569">
        <ele>1069.6956787109</ele>
        <time>2010-05-22T09:02:06Z</time>
      </trkpt>
      <trkpt lat="44.51435" lon="6.44567">
        <ele>1071.0991210938</ele>
        <time>2010-05-22T09:02:12Z</time>
      </trkpt>
      <trkpt lat="44.51434" lon="6.44569">
        <ele>1070.7686767578</ele>
        <time>2010-05-22T09:02:19Z</time>
      </trkpt>
      <trkpt lat="44.51434" lon="6.44571">
        <ele>1070.2075195312</ele>
        <time>2010-05-22T09:02:25Z</time>
      </trkpt>
      <trkpt lat="44.51429" lon="6.44575">
        <ele>1069.484375</ele>
        <time>2010-05-22T09:02:32Z</time>
      </trkpt>
      <trkpt lat="44.51409" lon="6.44585">
        <ele>1066.8804931641</ele>
        <time>2010-05-22T09:02:36Z</time>
      </trkpt>
      <trkpt lat="44.51395" lon="6.44591">
        <ele>1063.9161376953</ele>
        <time>2010-05-22T09:02:38Z</time>
      </trkpt>
      <trkpt lat="44.51375" lon="6.44591">
        <ele>1060.7628173828</ele>
        <time>2010-05-22T09:02:42Z</time>
      </trkpt>
      <trkpt lat="44.51346" lon="6.44573">
        <ele>1061.1411132812</ele>
        <time>2010-05-22T09:02:47Z</time>
      </trkpt>
      <trkpt lat="44.51329" lon="6.44564">
        <ele>1061.0744628906</ele>
        <time>2010-05-22T09:02:50Z</time>
      </trkpt>
      <trkpt lat="44.51314" lon="6.44552">
        <ele>1062.5677490234</ele>
        <time>2010-05-22T09:02:55Z</time>
      </trkpt>
      <trkpt lat="44.5131" lon="6.44549">
        <ele>1062.7316894531</ele>
        <time>2010-05-22T09:02:56Z</time>
      </trkpt>
      <trkpt lat="44.51299" lon="6.4455">
        <ele>1060.3017578125</ele>
        <time>2010-05-22T09:03:00Z</time>
      </trkpt>
      <trkpt lat="44.51285" lon="6.44553">
        <ele>1056.3366699219</ele>
        <time>2010-05-22T09:03:05Z</time>
      </trkpt>
      <trkpt lat="44.51279" lon="6.44548">
        <ele>1055.7626953125</ele>
        <time>2010-05-22T09:03:10Z</time>
      </trkpt>
      <trkpt lat="44.51278" lon="6.44547">
        <ele>1055.8753662109</ele>
        <time>2010-05-22T09:03:11Z</time>
      </trkpt>
      <trkpt lat="44.5127" lon="6.44538">
        <ele>1058.6138916016</ele>
        <time>2010-05-22T09:03:18Z</time>
      </trkpt>
      <trkpt lat="44.51264" lon="6.44531">
        <ele>1060.513671875</ele>
        <time>2010-05-22T09:03:24Z</time>
      </trkpt>
      <trkpt lat="44.51257" lon="6.44521">
        <ele>1062.5961914062</ele>
        <time>2010-05-22T09:03:30Z</time>
      </trkpt>
      <trkpt lat="44.51255" lon="6.44517">
        <ele>1063.2938232422</ele>
        <time>2010-05-22T09:03:33Z</time>
      </trkpt>
      <trkpt lat="44.51253" lon="6.44505">
        <ele>1065.2067871094</ele>
        <time>2010-05-22T09:03:41Z</time>
      </trkpt>
      <trkpt lat="44.51254" lon="6.44495">
        <ele>1066.7687988281</ele>
        <time>2010-05-22T09:03:48Z</time>
      </trkpt>
      <trkpt lat="44.5125" lon="6.44483">
        <ele>1068.5576171875</ele>
        <time>2010-05-22T09:03:55Z</time>
      </trkpt>
      <trkpt lat="44.51247" lon="6.4448">
        <ele>1070.3454589844</ele>
        <time>2010-05-22T09:03:59Z</time>
      </trkpt>
      <trkpt lat="44.51245" lon="6.44479">
        <ele>1071.3917236328</ele>
        <time>2010-05-22T09:04:06Z</time>
      </trkpt>
      <trkpt lat="44.51243" lon="6.44482">
        <ele>1071.7819824219</ele>
        <time>2010-05-22T09:04:11Z</time>
      </trkpt>
      <trkpt lat="44.51239" lon="6.44488">
        <ele>1072.5446777344</ele>
        <time>2010-05-22T09:04:19Z</time>
      </trkpt>
      <trkpt lat="44.51234" lon="6.44494">
        <ele>1074.0552978516</ele>
        <time>2010-05-22T09:04:26Z</time>
      </trkpt>
      <trkpt lat="44.51231" lon="6.44498">
        <ele>1075.1049804688</ele>
        <time>2010-05-22T09:04:30Z</time>
      </trkpt>
      <trkpt lat="44.51229" lon="6.44503">
        <ele>1075.0731201172</ele>
        <time>2010-05-22T09:04:36Z</time>
      </trkpt>
      <trkpt lat="44.51226" lon="6.44508">
        <ele>1076.0394287109</ele>
        <time>2010-05-22T09:04:42Z</time>
      </trkpt>
      <trkpt lat="44.51223" lon="6.44511">
        <ele>1076.4748535156</ele>
        <time>2010-05-22T09:04:46Z</time>
      </trkpt>
      <trkpt lat="44.51223" lon="6.44518">
        <ele>1075.3087158203</ele>
        <time>2010-05-22T09:04:51Z</time>
      </trkpt>
      <trkpt lat="44.51221" lon="6.4452">
        <ele>1075.6773681641</ele>
        <time>2010-05-22T09:04:53Z</time>
      </trkpt>
      <trkpt lat="44.51213" lon="6.44526">
        <ele>1076.3876953125</ele>
        <time>2010-05-22T09:05:01Z</time>
      </trkpt>
      <trkpt lat="44.51211" lon="6.44527">
        <ele>1076.4764404297</ele>
        <time>2010-05-22T09:05:04Z</time>
      </trkpt>
      <trkpt lat="44.51205" lon="6.44527">
        <ele>1077.880859375</ele>
        <time>2010-05-22T09:05:12Z</time>
      </trkpt>
      <trkpt lat="44.51202" lon="6.44525">
        <ele>1078.7189941406</ele>
        <time>2010-05-22T09:05:18Z</time>
      </trkpt>
      <trkpt lat="44.51195" lon="6.4453">
        <ele>1079.6638183594</ele>
        <time>2010-05-22T09:05:24Z</time>
      </trkpt>
      <trkpt lat="44.5119" lon="6.44532">
        <ele>1080.4735107422</ele>
        <time>2010-05-22T09:05:31Z</time>
      </trkpt>
      <trkpt lat="44.5119" lon="6.44536">
        <ele>1079.8660888672</ele>
        <time>2010-05-22T09:05:38Z</time>
      </trkpt>
      <trkpt lat="44.51185" lon="6.44542">
        <ele>1080.4727783203</ele>
        <time>2010-05-22T09:05:43Z</time>
      </trkpt>
      <trkpt lat="44.51183" lon="6.44548">
        <ele>1080.1416015625</ele>
        <time>2010-05-22T09:05:47Z</time>
      </trkpt>
      <trkpt lat="44.51177" lon="6.44559">
        <ele>1080.6235351562</ele>
        <time>2010-05-22T09:05:54Z</time>
      </trkpt>
      <trkpt lat="44.51177" lon="6.44573">
        <ele>1078.5224609375</ele>
        <time>2010-05-22T09:06:01Z</time>
      </trkpt>
      <trkpt lat="44.51176" lon="6.44588">
        <ele>1077.5849609375</ele>
        <time>2010-05-22T09:06:07Z</time>
      </trkpt>
      <trkpt lat="44.51175" lon="6.44593">
        <ele>1078.4562988281</ele>
        <time>2010-05-22T09:06:10Z</time>
      </trkpt>
      <trkpt lat="44.51173" lon="6.44602">
        <ele>1079.8959960938</ele>
        <time>2010-05-22T09:06:18Z</time>
      </trkpt>
      <trkpt lat="44.51176" lon="6.44617">
        <ele>1080.4641113281</ele>
        <time>2010-05-22T09:06:25Z</time>
      </trkpt>
      <trkpt lat="44.51176" lon="6.44622">
        <ele>1080.9569091797</ele>
        <time>2010-05-22T09:06:27Z</time>
      </trkpt>
      <trkpt lat="44.5117" lon="6.44638">
        <ele>1084.4697265625</ele>
        <time>2010-05-22T09:06:36Z</time>
      </trkpt>
      <trkpt lat="44.5116" lon="6.44645">
        <ele>1089.6136474609</ele>
        <time>2010-05-22T09:06:44Z</time>
      </trkpt>
      <trkpt lat="44.51153" lon="6.4465">
        <ele>1092.7121582031</ele>
        <time>2010-05-22T09:06:50Z</time>
      </trkpt>
      <trkpt lat="44.51146" lon="6.44655">
        <ele>1095.7491455078</ele>
        <time>2010-05-22T09:06:56Z</time>
      </trkpt>
      <trkpt lat="44.51141" lon="6.44659">
        <ele>1097.6556396484</ele>
        <time>2010-05-22T09:07:00Z</time>
      </trkpt>
      <trkpt lat="44.51133" lon="6.44666">
        <ele>1099.5361328125</ele>
        <time>2010-05-22T09:07:07Z</time>
      </trkpt>
      <trkpt lat="44.51124" lon="6.44675">
        <ele>1100.2369384766</ele>
        <time>2010-05-22T09:07:15Z</time>
      </trkpt>
      <trkpt lat="44.51113" lon="6.44683">
        <ele>1101.6599121094</ele>
        <time>2010-05-22T09:07:23Z</time>
      </trkpt>
      <trkpt lat="44.51104" lon="6.44691">
        <ele>1102.3282470703</ele>
        <time>2010-05-22T09:07:31Z</time>
      </trkpt>
      <trkpt lat="44.51097" lon="6.44694">
        <ele>1103.0552978516</ele>
        <time>2010-05-22T09:07:36Z</time>
      </trkpt>
      <trkpt lat="44.5109" lon="6.44698">
        <ele>1103.7546386719</ele>
        <time>2010-05-22T09:07:41Z</time>
      </trkpt>
      <trkpt lat="44.51084" lon="6.44704">
        <ele>1103.62890625</ele>
        <time>2010-05-22T09:07:45Z</time>
      </trkpt>
      <trkpt lat="44.51071" lon="6.44715">
        <ele>1105.0859375</ele>
        <time>2010-05-22T09:07:53Z</time>
      </trkpt>
      <trkpt lat="44.5106" lon="6.44721">
        <ele>1107.5732421875</ele>
        <time>2010-05-22T09:07:59Z</time>
      </trkpt>
      <trkpt lat="44.51055" lon="6.44725">
        <ele>1108.3371582031</ele>
        <time>2010-05-22T09:08:04Z</time>
      </trkpt>
      <trkpt lat="44.51042" lon="6.44731">
        <ele>1109.3018798828</ele>
        <time>2010-05-22T09:08:11Z</time>
      </trkpt>
      <trkpt lat="44.51035" lon="6.44749">
        <ele>1105.9442138672</ele>
        <time>2010-05-22T09:08:17Z</time>
      </trkpt>
      <trkpt lat="44.51021" lon="6.44763">
        <ele>1104.9007568359</ele>
        <time>2010-05-22T09:08:22Z</time>
      </trkpt>
      <trkpt lat="44.51005" lon="6.44771">
        <ele>1105.4713134766</ele>
        <time>2010-05-22T09:08:27Z</time>
      </trkpt>
      <trkpt lat="44.50986" lon="6.44788">
        <ele>1105.5107421875</ele>
        <time>2010-05-22T09:08:33Z</time>
      </trkpt>
      <trkpt lat="44.5098" lon="6.44791">
        <ele>1106.2473144531</ele>
        <time>2010-05-22T09:08:35Z</time>
      </trkpt>
      <trkpt lat="44.50975" lon="6.44806">
        <ele>1104.2263183594</ele>
        <time>2010-05-22T09:08:40Z</time>
      </trkpt>
      <trkpt lat="44.50975" lon="6.44817">
        <ele>1100.6729736328</ele>
        <time>2010-05-22T09:08:44Z</time>
      </trkpt>
      <trkpt lat="44.50962" lon="6.44823">
        <ele>1099.3786621094</ele>
        <time>2010-05-22T09:08:48Z</time>
      </trkpt>
      <trkpt lat="44.50957" lon="6.44822">
        <ele>1099.6643066406</ele>
        <time>2010-05-22T09:08:49Z</time>
      </trkpt>
      <trkpt lat="44.5093" lon="6.44817">
        <ele>1099.7364501953</ele>
        <time>2010-05-22T09:08:55Z</time>
      </trkpt>
      <trkpt lat="44.50907" lon="6.44808">
        <ele>1101.3614501953</ele>
        <time>2010-05-22T09:09:00Z</time>
      </trkpt>
      <trkpt lat="44.50885" lon="6.44806">
        <ele>1099.8842773438</ele>
        <time>2010-05-22T09:09:06Z</time>
      </trkpt>
      <trkpt lat="44.50877" lon="6.44812">
        <ele>1097.3474121094</ele>
        <time>2010-05-22T09:09:10Z</time>
      </trkpt>
      <trkpt lat="44.50877" lon="6.44819">
        <ele>1094.8592529297</ele>
        <time>2010-05-22T09:09:12Z</time>
      </trkpt>
      <trkpt lat="44.50876" lon="6.44829">
        <ele>1091.7911376953</ele>
        <time>2010-05-22T09:09:15Z</time>
      </trkpt>
      <trkpt lat="44.50865" lon="6.4484">
        <ele>1090.8548583984</ele>
        <time>2010-05-22T09:09:20Z</time>
      </trkpt>
      <trkpt lat="44.5086" lon="6.44844">
        <ele>1091.1311035156</ele>
        <time>2010-05-22T09:09:22Z</time>
      </trkpt>
      <trkpt lat="44.5086" lon="6.44852">
        <ele>1089.4638671875</ele>
        <time>2010-05-22T09:09:27Z</time>
      </trkpt>
      <trkpt lat="44.50861" lon="6.44853">
        <ele>1088.9421386719</ele>
        <time>2010-05-22T09:09:28Z</time>
      </trkpt>
      <trkpt lat="44.50863" lon="6.44859">
        <ele>1087.1695556641</ele>
        <time>2010-05-22T09:09:34Z</time>
      </trkpt>
      <trkpt lat="44.50865" lon="6.44871">
        <ele>1084.3818359375</ele>
        <time>2010-05-22T09:09:45Z</time>
      </trkpt>
      <trkpt lat="44.50863" lon="6.44871">
        <ele>1084.6496582031</ele>
        <time>2010-05-22T09:09:53Z</time>
      </trkpt>
      <trkpt lat="44.50863" lon="6.44874">
        <ele>1084.4597167969</ele>
        <time>2010-05-22T09:10:00Z</time>
      </trkpt>
      <trkpt lat="44.50859" lon="6.44875">
        <ele>1085.6134033203</ele>
        <time>2010-05-22T09:10:10Z</time>
      </trkpt>
      <trkpt lat="44.50855" lon="6.44878">
        <ele>1086.9471435547</ele>
        <time>2010-05-22T09:10:18Z</time>
      </trkpt>
      <trkpt lat="44.50856" lon="6.44879">
        <ele>1086.0069580078</ele>
        <time>2010-05-22T09:10:20Z</time>
      </trkpt>
      <trkpt lat="44.50867" lon="6.44895">
        <ele>1081.5358886719</ele>
        <time>2010-05-22T09:10:28Z</time>
      </trkpt>
      <trkpt lat="44.5087" lon="6.44911">
        <ele>1081.8959960938</ele>
        <time>2010-05-22T09:10:32Z</time>
      </trkpt>
      <trkpt lat="44.50869" lon="6.44934">
        <ele>1083.2282714844</ele>
        <time>2010-05-22T09:10:37Z</time>
      </trkpt>
      <trkpt lat="44.50859" lon="6.44947">
        <ele>1089.5714111328</ele>
        <time>2010-05-22T09:10:41Z</time>
      </trkpt>
      <trkpt lat="44.50846" lon="6.44962">
        <ele>1091.3135986328</ele>
        <time>2010-05-22T09:10:44Z</time>
      </trkpt>
      <trkpt lat="44.5083" lon="6.44978">
        <ele>1091.8643798828</ele>
        <time>2010-05-22T09:10:48Z</time>
      </trkpt>
      <trkpt lat="44.50812" lon="6.44981">
        <ele>1095.646484375</ele>
        <time>2010-05-22T09:10:51Z</time>
      </trkpt>
      <trkpt lat="44.50788" lon="6.44994">
        <ele>1088.7098388672</ele>
        <time>2010-05-22T09:10:55Z</time>
      </trkpt>
      <trkpt lat="44.50766" lon="6.45">
        <ele>1087.1727294922</ele>
        <time>2010-05-22T09:10:58Z</time>
      </trkpt>
      <trkpt lat="44.50723" lon="6.45019">
        <ele>1082.4910888672</ele>
        <time>2010-05-22T09:11:04Z</time>
      </trkpt>
      <trkpt lat="44.50712" lon="6.4502">
        <ele>1081.8044433594</ele>
        <time>2010-05-22T09:11:06Z</time>
      </trkpt>
      <trkpt lat="44.50707" lon="6.45047">
        <ele>1076.60546875</ele>
        <time>2010-05-22T09:11:10Z</time>
      </trkpt>
      <trkpt lat="44.50705" lon="6.45057">
        <ele>1075.5479736328</ele>
        <time>2010-05-22T09:11:12Z</time>
      </trkpt>
      <trkpt lat="44.507" lon="6.45072">
        <ele>1074.5255126953</ele>
        <time>2010-05-22T09:11:18Z</time>
      </trkpt>
      <trkpt lat="44.50697" lon="6.45075">
        <ele>1074.4605712891</ele>
        <time>2010-05-22T09:11:20Z</time>
      </trkpt>
      <trkpt lat="44.50687" lon="6.45088">
        <ele>1074.2307128906</ele>
        <time>2010-05-22T09:11:27Z</time>
      </trkpt>
      <trkpt lat="44.50677" lon="6.45104">
        <ele>1074.2326660156</ele>
        <time>2010-05-22T09:11:34Z</time>
      </trkpt>
      <trkpt lat="44.50669" lon="6.45126">
        <ele>1073.6053466797</ele>
        <time>2010-05-22T09:11:42Z</time>
      </trkpt>
      <trkpt lat="44.50668" lon="6.45134">
        <ele>1073.1663818359</ele>
        <time>2010-05-22T09:11:45Z</time>
      </trkpt>
      <trkpt lat="44.50661" lon="6.45158">
        <ele>1072.412109375</ele>
        <time>2010-05-22T09:11:52Z</time>
      </trkpt>
      <trkpt lat="44.50654" lon="6.45167">
        <ele>1072.7802734375</ele>
        <time>2010-05-22T09:11:57Z</time>
      </trkpt>
      <trkpt lat="44.50647" lon="6.45177">
        <ele>1073.0256347656</ele>
        <time>2010-05-22T09:12:02Z</time>
      </trkpt>
      <trkpt lat="44.50644" lon="6.45181">
        <ele>1073.1733398438</ele>
        <time>2010-05-22T09:12:04Z</time>
      </trkpt>
      <trkpt lat="44.5064" lon="6.4519">
        <ele>1073.1079101562</ele>
        <time>2010-05-22T09:12:09Z</time>
      </trkpt>
      <trkpt lat="44.50631" lon="6.45203">
        <ele>1073.5603027344</ele>
        <time>2010-05-22T09:12:16Z</time>
      </trkpt>
      <trkpt lat="44.50624" lon="6.45214">
        <ele>1074.0159912109</ele>
        <time>2010-05-22T09:12:22Z</time>
      </trkpt>
      <trkpt lat="44.50621" lon="6.45229">
        <ele>1073.28125</ele>
        <time>2010-05-22T09:12:28Z</time>
      </trkpt>
      <trkpt lat="44.50612" lon="6.4524">
        <ele>1074.416015625</ele>
        <time>2010-05-22T09:12:33Z</time>
      </trkpt>
      <trkpt lat="44.50606" lon="6.45252">
        <ele>1075.1396484375</ele>
        <time>2010-05-22T09:12:38Z</time>
      </trkpt>
      <trkpt lat="44.50599" lon="6.45264">
        <ele>1075.9984130859</ele>
        <time>2010-05-22T09:12:43Z</time>
      </trkpt>
      <trkpt lat="44.50594" lon="6.45271">
        <ele>1076.9812011719</ele>
        <time>2010-05-22T09:12:47Z</time>
      </trkpt>
      <trkpt lat="44.50582" lon="6.45288">
        <ele>1079.4649658203</ele>
        <time>2010-05-22T09:12:56Z</time>
      </trkpt>
      <trkpt lat="44.50573" lon="6.45301">
        <ele>1080.4195556641</ele>
        <time>2010-05-22T09:13:03Z</time>
      </trkpt>
      <trkpt lat="44.50564" lon="6.45316">
        <ele>1081.2906494141</ele>
        <time>2010-05-22T09:13:11Z</time>
      </trkpt>
      <trkpt lat="44.50556" lon="6.45328">
        <ele>1082.3101806641</ele>
        <time>2010-05-22T09:13:19Z</time>
      </trkpt>
      <trkpt lat="44.50547" lon="6.45334">
        <ele>1082.9342041016</ele>
        <time>2010-05-22T09:13:25Z</time>
      </trkpt>
      <trkpt lat="44.50543" lon="6.4534">
        <ele>1082.7236328125</ele>
        <time>2010-05-22T09:13:32Z</time>
      </trkpt>
      <trkpt lat="44.50543" lon="6.45341">
        <ele>1082.5823974609</ele>
        <time>2010-05-22T09:14:11Z</time>
      </trkpt>
      <trkpt lat="44.50539" lon="6.45348">
        <ele>1082.4814453125</ele>
        <time>2010-05-22T09:14:31Z</time>
      </trkpt>
      <trkpt lat="44.50529" lon="6.45361">
        <ele>1082.8768310547</ele>
        <time>2010-05-22T09:14:37Z</time>
      </trkpt>
      <trkpt lat="44.50519" lon="6.45379">
        <ele>1083.3371582031</ele>
        <time>2010-05-22T09:14:45Z</time>
      </trkpt>
      <trkpt lat="44.50513" lon="6.45389">
        <ele>1083.689453125</ele>
        <time>2010-05-22T09:14:51Z</time>
      </trkpt>
      <trkpt lat="44.50506" lon="6.45396">
        <ele>1084.2751464844</ele>
        <time>2010-05-22T09:14:57Z</time>
      </trkpt>
      <trkpt lat="44.50502" lon="6.45404">
        <ele>1084.4442138672</ele>
        <time>2010-05-22T09:15:01Z</time>
      </trkpt>
      <trkpt lat="44.50494" lon="6.45417">
        <ele>1085.2524414062</ele>
        <time>2010-05-22T09:15:08Z</time>
      </trkpt>
      <trkpt lat="44.50486" lon="6.4543">
        <ele>1085.9837646484</ele>
        <time>2010-05-22T09:15:14Z</time>
      </trkpt>
      <trkpt lat="44.50484" lon="6.45435">
        <ele>1086.0180664062</ele>
        <time>2010-05-22T09:15:17Z</time>
      </trkpt>
      <trkpt lat="44.50471" lon="6.45444">
        <ele>1088.1892089844</ele>
        <time>2010-05-22T09:15:23Z</time>
      </trkpt>
      <trkpt lat="44.50454" lon="6.45453">
        <ele>1090.8358154297</ele>
        <time>2010-05-22T09:15:30Z</time>
      </trkpt>
      <trkpt lat="44.50433" lon="6.45459">
        <ele>1094.3530273438</ele>
        <time>2010-05-22T09:15:37Z</time>
      </trkpt>
      <trkpt lat="44.50421" lon="6.45464">
        <ele>1096.6944580078</ele>
        <time>2010-05-22T09:15:43Z</time>
      </trkpt>
      <trkpt lat="44.50409" lon="6.45473">
        <ele>1098.8679199219</ele>
        <time>2010-05-22T09:15:49Z</time>
      </trkpt>
      <trkpt lat="44.50399" lon="6.45483">
        <ele>1100.6361083984</ele>
        <time>2010-05-22T09:15:56Z</time>
      </trkpt>
      <trkpt lat="44.50393" lon="6.45492">
        <ele>1101.5836181641</ele>
        <time>2010-05-22T09:16:01Z</time>
      </trkpt>
      <trkpt lat="44.5039" lon="6.45497">
        <ele>1101.9063720703</ele>
        <time>2010-05-22T09:16:04Z</time>
      </trkpt>
      <trkpt lat="44.50382" lon="6.45506">
        <ele>1102.32421875</ele>
        <time>2010-05-22T09:16:11Z</time>
      </trkpt>
      <trkpt lat="44.50372" lon="6.45517">
        <ele>1102.5902099609</ele>
        <time>2010-05-22T09:16:17Z</time>
      </trkpt>
      <trkpt lat="44.50361" lon="6.45515">
        <ele>1104.3275146484</ele>
        <time>2010-05-22T09:16:23Z</time>
      </trkpt>
      <trkpt lat="44.50349" lon="6.45516">
        <ele>1105.9582519531</ele>
        <time>2010-05-22T09:16:30Z</time>
      </trkpt>
      <trkpt lat="44.50338" lon="6.45515">
        <ele>1107.7384033203</ele>
        <time>2010-05-22T09:16:37Z</time>
      </trkpt>
      <trkpt lat="44.50325" lon="6.45512">
        <ele>1111.1939697266</ele>
        <time>2010-05-22T09:16:45Z</time>
      </trkpt>
      <trkpt lat="44.50315" lon="6.45507">
        <ele>1114.4555664062</ele>
        <time>2010-05-22T09:16:52Z</time>
      </trkpt>
      <trkpt lat="44.50304" lon="6.45503">
        <ele>1117.8078613281</ele>
        <time>2010-05-22T09:16:59Z</time>
      </trkpt>
      <trkpt lat="44.50296" lon="6.455">
        <ele>1118.7380371094</ele>
        <time>2010-05-22T09:17:05Z</time>
      </trkpt>
      <trkpt lat="44.50286" lon="6.45498">
        <ele>1119.6525878906</ele>
        <time>2010-05-22T09:17:11Z</time>
      </trkpt>
      <trkpt lat="44.50277" lon="6.45495">
        <ele>1120.7436523438</ele>
        <time>2010-05-22T09:17:16Z</time>
      </trkpt>
      <trkpt lat="44.50268" lon="6.45492">
        <ele>1121.5324707031</ele>
        <time>2010-05-22T09:17:22Z</time>
      </trkpt>
      <trkpt lat="44.50259" lon="6.4549">
        <ele>1122.375</ele>
        <time>2010-05-22T09:17:27Z</time>
      </trkpt>
      <trkpt lat="44.50248" lon="6.45485">
        <ele>1124.4787597656</ele>
        <time>2010-05-22T09:17:34Z</time>
      </trkpt>
      <trkpt lat="44.50238" lon="6.45479">
        <ele>1126.7202148438</ele>
        <time>2010-05-22T09:17:41Z</time>
      </trkpt>
      <trkpt lat="44.50229" lon="6.45475">
        <ele>1128.5090332031</ele>
        <time>2010-05-22T09:17:47Z</time>
      </trkpt>
      <trkpt lat="44.50214" lon="6.45471">
        <ele>1132.1009521484</ele>
        <time>2010-05-22T09:17:55Z</time>
      </trkpt>
      <trkpt lat="44.50202" lon="6.45468">
        <ele>1134.6824951172</ele>
        <time>2010-05-22T09:18:01Z</time>
      </trkpt>
      <trkpt lat="44.50189" lon="6.45464">
        <ele>1136.8103027344</ele>
        <time>2010-05-22T09:18:09Z</time>
      </trkpt>
      <trkpt lat="44.50179" lon="6.45461">
        <ele>1137.7283935547</ele>
        <time>2010-05-22T09:18:15Z</time>
      </trkpt>
      <trkpt lat="44.50174" lon="6.45456">
        <ele>1138.5126953125</ele>
        <time>2010-05-22T09:18:19Z</time>
      </trkpt>
      <trkpt lat="44.50163" lon="6.45456">
        <ele>1138.8793945312</ele>
        <time>2010-05-22T09:18:26Z</time>
      </trkpt>
      <trkpt lat="44.50158" lon="6.45452">
        <ele>1139.3409423828</ele>
        <time>2010-05-22T09:18:31Z</time>
      </trkpt>
      <trkpt lat="44.50148" lon="6.45441">
        <ele>1140.7525634766</ele>
        <time>2010-05-22T09:18:37Z</time>
      </trkpt>
      <trkpt lat="44.50142" lon="6.45439">
        <ele>1140.4010009766</ele>
        <time>2010-05-22T09:18:42Z</time>
      </trkpt>
      <trkpt lat="44.50131" lon="6.45431">
        <ele>1140</ele>
        <time>2010-05-22T09:18:50Z</time>
      </trkpt>
      <trkpt lat="44.50123" lon="6.45423">
        <ele>1140</ele>
        <time>2010-05-22T09:18:58Z</time>
      </trkpt>
      <trkpt lat="44.50115" lon="6.45416">
        <ele>1140.064453125</ele>
        <time>2010-05-22T09:19:04Z</time>
      </trkpt>
      <trkpt lat="44.50105" lon="6.45408">
        <ele>1140.2145996094</ele>
        <time>2010-05-22T09:19:11Z</time>
      </trkpt>
      <trkpt lat="44.501" lon="6.45403">
        <ele>1140.5963134766</ele>
        <time>2010-05-22T09:19:16Z</time>
      </trkpt>
      <trkpt lat="44.50094" lon="6.45397">
        <ele>1141.2602539062</ele>
        <time>2010-05-22T09:19:22Z</time>
      </trkpt>
      <trkpt lat="44.50092" lon="6.45396">
        <ele>1141.5385742188</ele>
        <time>2010-05-22T09:19:24Z</time>
      </trkpt>
      <trkpt lat="44.50087" lon="6.45393">
        <ele>1142.1690673828</ele>
        <time>2010-05-22T09:19:28Z</time>
      </trkpt>
      <trkpt lat="44.50081" lon="6.45387">
        <ele>1143.9777832031</ele>
        <time>2010-05-22T09:19:35Z</time>
      </trkpt>
      <trkpt lat="44.50079" lon="6.45386">
        <ele>1144.3425292969</ele>
        <time>2010-05-22T09:19:36Z</time>
      </trkpt>
      <trkpt lat="44.50068" lon="6.45378">
        <ele>1147.4611816406</ele>
        <time>2010-05-22T09:19:44Z</time>
      </trkpt>
      <trkpt lat="44.50058" lon="6.45374">
        <ele>1149.0941162109</ele>
        <time>2010-05-22T09:19:52Z</time>
      </trkpt>
      <trkpt lat="44.50049" lon="6.4537">
        <ele>1150.9420166016</ele>
        <time>2010-05-22T09:19:59Z</time>
      </trkpt>
      <trkpt lat="44.50039" lon="6.45363">
        <ele>1153.4725341797</ele>
        <time>2010-05-22T09:20:06Z</time>
      </trkpt>
      <trkpt lat="44.50031" lon="6.4536">
        <ele>1154.7705078125</ele>
        <time>2010-05-22T09:20:12Z</time>
      </trkpt>
      <trkpt lat="44.50028" lon="6.45357">
        <ele>1155.4013671875</ele>
        <time>2010-05-22T09:20:15Z</time>
      </trkpt>
      <trkpt lat="44.50018" lon="6.45348">
        <ele>1157.3492431641</ele>
        <time>2010-05-22T09:20:23Z</time>
      </trkpt>
      <trkpt lat="44.50008" lon="6.45339">
        <ele>1158.9053955078</ele>
        <time>2010-05-22T09:20:30Z</time>
      </trkpt>
      <trkpt lat="44.50002" lon="6.45332">
        <ele>1160.0881347656</ele>
        <time>2010-05-22T09:20:36Z</time>
      </trkpt>
      <trkpt lat="44.49995" lon="6.45326">
        <ele>1161.2159423828</ele>
        <time>2010-05-22T09:20:42Z</time>
      </trkpt>
      <trkpt lat="44.49991" lon="6.45324">
        <ele>1161.607421875</ele>
        <time>2010-05-22T09:20:45Z</time>
      </trkpt>
      <trkpt lat="44.49984" lon="6.45318">
        <ele>1162.3836669922</ele>
        <time>2010-05-22T09:20:52Z</time>
      </trkpt>
      <trkpt lat="44.49975" lon="6.4531">
        <ele>1163.3767089844</ele>
        <time>2010-05-22T09:20:58Z</time>
      </trkpt>
      <trkpt lat="44.49966" lon="6.453">
        <ele>1165.6397705078</ele>
        <time>2010-05-22T09:21:05Z</time>
      </trkpt>
      <trkpt lat="44.49958" lon="6.45293">
        <ele>1167.9854736328</ele>
        <time>2010-05-22T09:21:11Z</time>
      </trkpt>
      <trkpt lat="44.49952" lon="6.45288">
        <ele>1170.0500488281</ele>
        <time>2010-05-22T09:21:17Z</time>
      </trkpt>
      <trkpt lat="44.49949" lon="6.45285">
        <ele>1171.0684814453</ele>
        <time>2010-05-22T09:21:19Z</time>
      </trkpt>
      <trkpt lat="44.4994" lon="6.45282">
        <ele>1172.0861816406</ele>
        <time>2010-05-22T09:21:26Z</time>
      </trkpt>
      <trkpt lat="44.49939" lon="6.45282">
        <ele>1172.0552978516</ele>
        <time>2010-05-22T09:21:27Z</time>
      </trkpt>
      <trkpt lat="44.4993" lon="6.4527">
        <ele>1178.1849365234</ele>
        <time>2010-05-22T09:21:34Z</time>
      </trkpt>
      <trkpt lat="44.49918" lon="6.45263">
        <ele>1182.5806884766</ele>
        <time>2010-05-22T09:21:42Z</time>
      </trkpt>
      <trkpt lat="44.49908" lon="6.45261">
        <ele>1181.1928710938</ele>
        <time>2010-05-22T09:21:48Z</time>
      </trkpt>
      <trkpt lat="44.49901" lon="6.45258">
        <ele>1180.8292236328</ele>
        <time>2010-05-22T09:21:54Z</time>
      </trkpt>
      <trkpt lat="44.49889" lon="6.45254">
        <ele>1177.7297363281</ele>
        <time>2010-05-22T09:22:01Z</time>
      </trkpt>
      <trkpt lat="44.49886" lon="6.45252">
        <ele>1178.1285400391</ele>
        <time>2010-05-22T09:22:04Z</time>
      </trkpt>
      <trkpt lat="44.49876" lon="6.45238">
        <ele>1183.5745849609</ele>
        <time>2010-05-22T09:22:13Z</time>
      </trkpt>
      <trkpt lat="44.4987" lon="6.45232">
        <ele>1182.8875732422</ele>
        <time>2010-05-22T09:22:19Z</time>
      </trkpt>
      <trkpt lat="44.49865" lon="6.45229">
        <ele>1181.2844238281</ele>
        <time>2010-05-22T09:22:23Z</time>
      </trkpt>
      <trkpt lat="44.49862" lon="6.45226">
        <ele>1180.287109375</ele>
        <time>2010-05-22T09:22:25Z</time>
      </trkpt>
      <trkpt lat="44.49854" lon="6.45205">
        <ele>1193.193359375</ele>
        <time>2010-05-22T09:22:34Z</time>
      </trkpt>
      <trkpt lat="44.49848" lon="6.45197">
        <ele>1194.3977050781</ele>
        <time>2010-05-22T09:22:41Z</time>
      </trkpt>
      <trkpt lat="44.49847" lon="6.45197">
        <ele>1193.4459228516</ele>
        <time>2010-05-22T09:22:42Z</time>
      </trkpt>
      <trkpt lat="44.49841" lon="6.45194">
        <ele>1189.9779052734</ele>
        <time>2010-05-22T09:22:46Z</time>
      </trkpt>
      <trkpt lat="44.49834" lon="6.45179">
        <ele>1192.3825683594</ele>
        <time>2010-05-22T09:22:54Z</time>
      </trkpt>
      <trkpt lat="44.49829" lon="6.45168">
        <ele>1195.7955322266</ele>
        <time>2010-05-22T09:23:00Z</time>
      </trkpt>
      <trkpt lat="44.49828" lon="6.45153">
        <ele>1205.3165283203</ele>
        <time>2010-05-22T09:23:06Z</time>
      </trkpt>
      <trkpt lat="44.49825" lon="6.45153">
        <ele>1203.9129638672</ele>
        <time>2010-05-22T09:23:08Z</time>
      </trkpt>
      <trkpt lat="44.49818" lon="6.45143">
        <ele>1206.4661865234</ele>
        <time>2010-05-22T09:23:14Z</time>
      </trkpt>
      <trkpt lat="44.49811" lon="6.45134">
        <ele>1207.1115722656</ele>
        <time>2010-05-22T09:23:20Z</time>
      </trkpt>
      <trkpt lat="44.49809" lon="6.45132">
        <ele>1206.3854980469</ele>
        <time>2010-05-22T09:23:22Z</time>
      </trkpt>
      <trkpt lat="44.49802" lon="6.45123">
        <ele>1207.9664306641</ele>
        <time>2010-05-22T09:23:29Z</time>
      </trkpt>
      <trkpt lat="44.49797" lon="6.45121">
        <ele>1206.9234619141</ele>
        <time>2010-05-22T09:23:33Z</time>
      </trkpt>
      <trkpt lat="44.49786" lon="6.45107">
        <ele>1206.1593017578</ele>
        <time>2010-05-22T09:23:42Z</time>
      </trkpt>
      <trkpt lat="44.49778" lon="6.45096">
        <ele>1205.4577636719</ele>
        <time>2010-05-22T09:23:49Z</time>
      </trkpt>
      <trkpt lat="44.49772" lon="6.45084">
        <ele>1207.8181152344</ele>
        <time>2010-05-22T09:23:56Z</time>
      </trkpt>
      <trkpt lat="44.49767" lon="6.45075">
        <ele>1209.7249755859</ele>
        <time>2010-05-22T09:24:01Z</time>
      </trkpt>
      <trkpt lat="44.4976" lon="6.45065">
        <ele>1209.7827148438</ele>
        <time>2010-05-22T09:24:08Z</time>
      </trkpt>
      <trkpt lat="44.49754" lon="6.45057">
        <ele>1208.3801269531</ele>
        <time>2010-05-22T09:24:14Z</time>
      </trkpt>
      <trkpt lat="44.49749" lon="6.45048">
        <ele>1210.5461425781</ele>
        <time>2010-05-22T09:24:20Z</time>
      </trkpt>
      <trkpt lat="44.49746" lon="6.45039">
        <ele>1214.6707763672</ele>
        <time>2010-05-22T09:24:26Z</time>
      </trkpt>
      <trkpt lat="44.49739" lon="6.45029">
        <ele>1217.6989746094</ele>
        <time>2010-05-22T09:24:33Z</time>
      </trkpt>
      <trkpt lat="44.49733" lon="6.45023">
        <ele>1218.0454101562</ele>
        <time>2010-05-22T09:24:39Z</time>
      </trkpt>
      <trkpt lat="44.49731" lon="6.45022">
        <ele>1217.51953125</ele>
        <time>2010-05-22T09:24:40Z</time>
      </trkpt>
      <trkpt lat="44.49723" lon="6.4501">
        <ele>1218.6984863281</ele>
        <time>2010-05-22T09:24:48Z</time>
      </trkpt>
      <trkpt lat="44.49718" lon="6.45006">
        <ele>1219.3510742188</ele>
        <time>2010-05-22T09:24:55Z</time>
      </trkpt>
      <trkpt lat="44.49713" lon="6.45">
        <ele>1220.1141357422</ele>
        <time>2010-05-22T09:25:00Z</time>
      </trkpt>
      <trkpt lat="44.49704" lon="6.44995">
        <ele>1218.9544677734</ele>
        <time>2010-05-22T09:25:06Z</time>
      </trkpt>
      <trkpt lat="44.49698" lon="6.44985">
        <ele>1219.1893310547</ele>
        <time>2010-05-22T09:25:13Z</time>
      </trkpt>
      <trkpt lat="44.49698" lon="6.4498">
        <ele>1219.7478027344</ele>
        <time>2010-05-22T09:25:15Z</time>
      </trkpt>
      <trkpt lat="44.49691" lon="6.44969">
        <ele>1220.9700927734</ele>
        <time>2010-05-22T09:25:22Z</time>
      </trkpt>
      <trkpt lat="44.49691" lon="6.44968">
        <ele>1221.1931152344</ele>
        <time>2010-05-22T09:25:23Z</time>
      </trkpt>
      <trkpt lat="44.49685" lon="6.44966">
        <ele>1221.4561767578</ele>
        <time>2010-05-22T09:25:27Z</time>
      </trkpt>
      <trkpt lat="44.49671" lon="6.44954">
        <ele>1221.9949951172</ele>
        <time>2010-05-22T09:25:36Z</time>
      </trkpt>
      <trkpt lat="44.49667" lon="6.44951">
        <ele>1221.5891113281</ele>
        <time>2010-05-22T09:25:39Z</time>
      </trkpt>
      <trkpt lat="44.49665" lon="6.44948">
        <ele>1221.6672363281</ele>
        <time>2010-05-22T09:25:41Z</time>
      </trkpt>
      <trkpt lat="44.49664" lon="6.44949">
        <ele>1221.5251464844</ele>
        <time>2010-05-22T09:25:43Z</time>
      </trkpt>
      <trkpt lat="44.49667" lon="6.44957">
        <ele>1221.1690673828</ele>
        <time>2010-05-22T09:25:50Z</time>
      </trkpt>
      <trkpt lat="44.49669" lon="6.4496">
        <ele>1221.0567626953</ele>
        <time>2010-05-22T09:26:02Z</time>
      </trkpt>
      <trkpt lat="44.49669" lon="6.44969">
        <ele>1220.2972412109</ele>
        <time>2010-05-22T09:26:13Z</time>
      </trkpt>
      <trkpt lat="44.49668" lon="6.44971">
        <ele>1220.0709228516</ele>
        <time>2010-05-22T09:26:32Z</time>
      </trkpt>
      <trkpt lat="44.49667" lon="6.44965">
        <ele>1220.5382080078</ele>
        <time>2010-05-22T09:26:54Z</time>
      </trkpt>
      <trkpt lat="44.49664" lon="6.44964">
        <ele>1220.5681152344</ele>
        <time>2010-05-22T09:27:10Z</time>
      </trkpt>
      <trkpt lat="44.49663" lon="6.44963">
        <ele>1220.5606689453</ele>
        <time>2010-05-22T09:27:21Z</time>
      </trkpt>
      <trkpt lat="44.49659" lon="6.44952">
        <ele>1221.0493164062</ele>
        <time>2010-05-22T09:28:41Z</time>
      </trkpt>
      <trkpt lat="44.49661" lon="6.44945">
        <ele>1221.5239257812</ele>
        <time>2010-05-22T09:28:48Z</time>
      </trkpt>
      <trkpt lat="44.4966" lon="6.44942">
        <ele>1222.3063964844</ele>
        <time>2010-05-22T09:28:53Z</time>
      </trkpt>
      <trkpt lat="44.49657" lon="6.44936">
        <ele>1224.0632324219</ele>
        <time>2010-05-22T09:28:58Z</time>
      </trkpt>
      <trkpt lat="44.49651" lon="6.4493">
        <ele>1224.7459716797</ele>
        <time>2010-05-22T09:29:04Z</time>
      </trkpt>
      <trkpt lat="44.49644" lon="6.44919">
        <ele>1226.0191650391</ele>
        <time>2010-05-22T09:29:13Z</time>
      </trkpt>
      <trkpt lat="44.4964" lon="6.44919">
        <ele>1224.8334960938</ele>
        <time>2010-05-22T09:29:19Z</time>
      </trkpt>
      <trkpt lat="44.49633" lon="6.44917">
        <ele>1223.8013916016</ele>
        <time>2010-05-22T09:29:25Z</time>
      </trkpt>
      <trkpt lat="44.49621" lon="6.44911">
        <ele>1222.6307373047</ele>
        <time>2010-05-22T09:29:32Z</time>
      </trkpt>
      <trkpt lat="44.49615" lon="6.44894">
        <ele>1221.7998046875</ele>
        <time>2010-05-22T09:29:40Z</time>
      </trkpt>
      <trkpt lat="44.49615" lon="6.44887">
        <ele>1223.0256347656</ele>
        <time>2010-05-22T09:29:43Z</time>
      </trkpt>
      <trkpt lat="44.49619" lon="6.44877">
        <ele>1228.470703125</ele>
        <time>2010-05-22T09:29:50Z</time>
      </trkpt>
      <trkpt lat="44.49619" lon="6.44875">
        <ele>1228.7728271484</ele>
        <time>2010-05-22T09:29:56Z</time>
      </trkpt>
      <trkpt lat="44.49618" lon="6.44871">
        <ele>1229.6157226562</ele>
        <time>2010-05-22T09:29:59Z</time>
      </trkpt>
      <trkpt lat="44.49612" lon="6.44853">
        <ele>1233.0467529297</ele>
        <time>2010-05-22T09:30:08Z</time>
      </trkpt>
      <trkpt lat="44.49604" lon="6.44848">
        <ele>1232.0694580078</ele>
        <time>2010-05-22T09:30:15Z</time>
      </trkpt>
      <trkpt lat="44.49596" lon="6.44846">
        <ele>1230.4035644531</ele>
        <time>2010-05-22T09:30:21Z</time>
      </trkpt>
      <trkpt lat="44.49589" lon="6.44844">
        <ele>1228.9415283203</ele>
        <time>2010-05-22T09:30:26Z</time>
      </trkpt>
      <trkpt lat="44.49582" lon="6.44828">
        <ele>1231.8287353516</ele>
        <time>2010-05-22T09:30:33Z</time>
      </trkpt>
      <trkpt lat="44.49575" lon="6.44813">
        <ele>1236.021484375</ele>
        <time>2010-05-22T09:30:40Z</time>
      </trkpt>
      <trkpt lat="44.49569" lon="6.44799">
        <ele>1239.0329589844</ele>
        <time>2010-05-22T09:30:47Z</time>
      </trkpt>
      <trkpt lat="44.49564" lon="6.44785">
        <ele>1240.8317871094</ele>
        <time>2010-05-22T09:30:54Z</time>
      </trkpt>
      <trkpt lat="44.49558" lon="6.44776">
        <ele>1240.3273925781</ele>
        <time>2010-05-22T09:31:01Z</time>
      </trkpt>
      <trkpt lat="44.49558" lon="6.44772">
        <ele>1241.5085449219</ele>
        <time>2010-05-22T09:31:04Z</time>
      </trkpt>
      <trkpt lat="44.49561" lon="6.44771">
        <ele>1242.7984619141</ele>
        <time>2010-05-22T09:31:07Z</time>
      </trkpt>
      <trkpt lat="44.49578" lon="6.44775">
        <ele>1248.2934570312</ele>
        <time>2010-05-22T09:31:15Z</time>
      </trkpt>
      <trkpt lat="44.49591" lon="6.44784">
        <ele>1250.1750488281</ele>
        <time>2010-05-22T09:31:23Z</time>
      </trkpt>
      <trkpt lat="44.49601" lon="6.44788">
        <ele>1253.798828125</ele>
        <time>2010-05-22T09:31:30Z</time>
      </trkpt>
      <trkpt lat="44.49609" lon="6.44789">
        <ele>1257.783203125</ele>
        <time>2010-05-22T09:31:36Z</time>
      </trkpt>
      <trkpt lat="44.49618" lon="6.44796">
        <ele>1258.7593994141</ele>
        <time>2010-05-22T09:31:42Z</time>
      </trkpt>
      <trkpt lat="44.49625" lon="6.448">
        <ele>1260.2524414062</ele>
        <time>2010-05-22T09:31:47Z</time>
      </trkpt>
      <trkpt lat="44.49631" lon="6.44811">
        <ele>1258.6966552734</ele>
        <time>2010-05-22T09:31:52Z</time>
      </trkpt>
      <trkpt lat="44.49638" lon="6.44819">
        <ele>1258.5350341797</ele>
        <time>2010-05-22T09:32:00Z</time>
      </trkpt>
      <trkpt lat="44.49646" lon="6.44824">
        <ele>1258.5908203125</ele>
        <time>2010-05-22T09:32:06Z</time>
      </trkpt>
      <trkpt lat="44.49659" lon="6.44825">
        <ele>1260.2270507812</ele>
        <time>2010-05-22T09:32:12Z</time>
      </trkpt>
      <trkpt lat="44.49672" lon="6.44823">
        <ele>1263.3342285156</ele>
        <time>2010-05-22T09:32:20Z</time>
      </trkpt>
      <trkpt lat="44.49688" lon="6.4482">
        <ele>1267.0764160156</ele>
        <time>2010-05-22T09:32:27Z</time>
      </trkpt>
      <trkpt lat="44.497" lon="6.44822">
        <ele>1268.0247802734</ele>
        <time>2010-05-22T09:32:34Z</time>
      </trkpt>
      <trkpt lat="44.49708" lon="6.4483">
        <ele>1266.37890625</ele>
        <time>2010-05-22T09:32:40Z</time>
      </trkpt>
      <trkpt lat="44.4972" lon="6.44825">
        <ele>1268.8267822266</ele>
        <time>2010-05-22T09:32:47Z</time>
      </trkpt>
      <trkpt lat="44.49729" lon="6.4482">
        <ele>1271.2352294922</ele>
        <time>2010-05-22T09:32:55Z</time>
      </trkpt>
      <trkpt lat="44.49734" lon="6.44818">
        <ele>1272.4921875</ele>
        <time>2010-05-22T09:33:01Z</time>
      </trkpt>
      <trkpt lat="44.49739" lon="6.44819">
        <ele>1272.7221679688</ele>
        <time>2010-05-22T09:33:05Z</time>
      </trkpt>
      <trkpt lat="44.49747" lon="6.44827">
        <ele>1271.5476074219</ele>
        <time>2010-05-22T09:33:11Z</time>
      </trkpt>
      <trkpt lat="44.49757" lon="6.44835">
        <ele>1274.8099365234</ele>
        <time>2010-05-22T09:33:17Z</time>
      </trkpt>
      <trkpt lat="44.4977" lon="6.44844">
        <ele>1280.6258544922</ele>
        <time>2010-05-22T09:33:24Z</time>
      </trkpt>
      <trkpt lat="44.49773" lon="6.44848">
        <ele>1281.7673339844</ele>
        <time>2010-05-22T09:33:27Z</time>
      </trkpt>
      <trkpt lat="44.4978" lon="6.4486">
        <ele>1282.5452880859</ele>
        <time>2010-05-22T09:33:34Z</time>
      </trkpt>
      <trkpt lat="44.49788" lon="6.4487">
        <ele>1289.4489746094</ele>
        <time>2010-05-22T09:33:42Z</time>
      </trkpt>
      <trkpt lat="44.49791" lon="6.44878">
        <ele>1290.8850097656</ele>
        <time>2010-05-22T09:33:50Z</time>
      </trkpt>
      <trkpt lat="44.49794" lon="6.44898">
        <ele>1289.7816162109</ele>
        <time>2010-05-22T09:34:00Z</time>
      </trkpt>
      <trkpt lat="44.49794" lon="6.44901">
        <ele>1289.3513183594</ele>
        <time>2010-05-22T09:34:01Z</time>
      </trkpt>
      <trkpt lat="44.49802" lon="6.44915">
        <ele>1293.3905029297</ele>
        <time>2010-05-22T09:34:08Z</time>
      </trkpt>
      <trkpt lat="44.49809" lon="6.4493">
        <ele>1293.6362304688</ele>
        <time>2010-05-22T09:34:16Z</time>
      </trkpt>
      <trkpt lat="44.49817" lon="6.44941">
        <ele>1294.8885498047</ele>
        <time>2010-05-22T09:34:24Z</time>
      </trkpt>
      <trkpt lat="44.49823" lon="6.44948">
        <ele>1295.7952880859</ele>
        <time>2010-05-22T09:34:31Z</time>
      </trkpt>
      <trkpt lat="44.4983" lon="6.44957">
        <ele>1297.1396484375</ele>
        <time>2010-05-22T09:34:38Z</time>
      </trkpt>
      <trkpt lat="44.49833" lon="6.4496">
        <ele>1297.6196289062</ele>
        <time>2010-05-22T09:34:41Z</time>
      </trkpt>
      <trkpt lat="44.49838" lon="6.44975">
        <ele>1297.4321289062</ele>
        <time>2010-05-22T09:34:49Z</time>
      </trkpt>
      <trkpt lat="44.49844" lon="6.44992">
        <ele>1296.9841308594</ele>
        <time>2010-05-22T09:34:58Z</time>
      </trkpt>
      <trkpt lat="44.4985" lon="6.45002">
        <ele>1298.830078125</ele>
        <time>2010-05-22T09:35:05Z</time>
      </trkpt>
      <trkpt lat="44.49856" lon="6.45011">
        <ele>1300.5056152344</ele>
        <time>2010-05-22T09:35:12Z</time>
      </trkpt>
      <trkpt lat="44.49865" lon="6.45019">
        <ele>1302.7147216797</ele>
        <time>2010-05-22T09:35:18Z</time>
      </trkpt>
      <trkpt lat="44.49875" lon="6.45029">
        <ele>1302.4312744141</ele>
        <time>2010-05-22T09:35:26Z</time>
      </trkpt>
      <trkpt lat="44.49882" lon="6.45032">
        <ele>1303.1343994141</ele>
        <time>2010-05-22T09:35:33Z</time>
      </trkpt>
      <trkpt lat="44.49889" lon="6.45028">
        <ele>1306.7628173828</ele>
        <time>2010-05-22T09:35:40Z</time>
      </trkpt>
      <trkpt lat="44.49894" lon="6.45022">
        <ele>1309.8552246094</ele>
        <time>2010-05-22T09:35:47Z</time>
      </trkpt>
      <trkpt lat="44.49895" lon="6.45021">
        <ele>1310.3218994141</ele>
        <time>2010-05-22T09:35:48Z</time>
      </trkpt>
      <trkpt lat="44.499" lon="6.45017">
        <ele>1312.79296875</ele>
        <time>2010-05-22T09:35:52Z</time>
      </trkpt>
      <trkpt lat="44.49912" lon="6.4501">
        <ele>1317.4764404297</ele>
        <time>2010-05-22T09:36:01Z</time>
      </trkpt>
      <trkpt lat="44.49919" lon="6.45007">
        <ele>1319.3009033203</ele>
        <time>2010-05-22T09:36:07Z</time>
      </trkpt>
      <trkpt lat="44.49929" lon="6.45006">
        <ele>1318.0375976562</ele>
        <time>2010-05-22T09:36:15Z</time>
      </trkpt>
      <trkpt lat="44.4994" lon="6.45003">
        <ele>1317.7918701172</ele>
        <time>2010-05-22T09:36:21Z</time>
      </trkpt>
      <trkpt lat="44.49951" lon="6.44997">
        <ele>1317.3006591797</ele>
        <time>2010-05-22T09:36:27Z</time>
      </trkpt>
      <trkpt lat="44.49961" lon="6.4499">
        <ele>1317.064453125</ele>
        <time>2010-05-22T09:36:33Z</time>
      </trkpt>
      <trkpt lat="44.4997" lon="6.4498">
        <ele>1317.4967041016</ele>
        <time>2010-05-22T09:36:40Z</time>
      </trkpt>
      <trkpt lat="44.49979" lon="6.44968">
        <ele>1318.8896484375</ele>
        <time>2010-05-22T09:36:47Z</time>
      </trkpt>
      <trkpt lat="44.49984" lon="6.44957">
        <ele>1321.7156982422</ele>
        <time>2010-05-22T09:36:53Z</time>
      </trkpt>
      <trkpt lat="44.49989" lon="6.44947">
        <ele>1323.1317138672</ele>
        <time>2010-05-22T09:36:58Z</time>
      </trkpt>
      <trkpt lat="44.49999" lon="6.44931">
        <ele>1321.1467285156</ele>
        <time>2010-05-22T09:37:07Z</time>
      </trkpt>
      <trkpt lat="44.50005" lon="6.44915">
        <ele>1319.9128417969</ele>
        <time>2010-05-22T09:37:15Z</time>
      </trkpt>
      <trkpt lat="44.5001" lon="6.44901">
        <ele>1317.6817626953</ele>
        <time>2010-05-22T09:37:22Z</time>
      </trkpt>
      <trkpt lat="44.50013" lon="6.44884">
        <ele>1316.6580810547</ele>
        <time>2010-05-22T09:37:31Z</time>
      </trkpt>
      <trkpt lat="44.50013" lon="6.44868">
        <ele>1319.4747314453</ele>
        <time>2010-05-22T09:37:39Z</time>
      </trkpt>
      <trkpt lat="44.5001" lon="6.44853">
        <ele>1324.2362060547</ele>
        <time>2010-05-22T09:37:45Z</time>
      </trkpt>
      <trkpt lat="44.50009" lon="6.44838">
        <ele>1327.3980712891</ele>
        <time>2010-05-22T09:37:52Z</time>
      </trkpt>
      <trkpt lat="44.5001" lon="6.44823">
        <ele>1327.7275390625</ele>
        <time>2010-05-22T09:37:59Z</time>
      </trkpt>
      <trkpt lat="44.50012" lon="6.44802">
        <ele>1327.541015625</ele>
        <time>2010-05-22T09:38:08Z</time>
      </trkpt>
      <trkpt lat="44.5001" lon="6.44787">
        <ele>1328.6159667969</ele>
        <time>2010-05-22T09:38:16Z</time>
      </trkpt>
      <trkpt lat="44.50009" lon="6.44769">
        <ele>1329.7828369141</ele>
        <time>2010-05-22T09:38:23Z</time>
      </trkpt>
      <trkpt lat="44.5001" lon="6.4474">
        <ele>1331.3536376953</ele>
        <time>2010-05-22T09:38:34Z</time>
      </trkpt>
      <trkpt lat="44.50012" lon="6.44717">
        <ele>1331.3321533203</ele>
        <time>2010-05-22T09:38:43Z</time>
      </trkpt>
      <trkpt lat="44.50013" lon="6.44699">
        <ele>1329.8809814453</ele>
        <time>2010-05-22T09:38:51Z</time>
      </trkpt>
      <trkpt lat="44.50015" lon="6.44674">
        <ele>1330</ele>
        <time>2010-05-22T09:39:01Z</time>
      </trkpt>
      <trkpt lat="44.50014" lon="6.44651">
        <ele>1333.2971191406</ele>
        <time>2010-05-22T09:39:11Z</time>
      </trkpt>
      <trkpt lat="44.50012" lon="6.44632">
        <ele>1336.6668701172</ele>
        <time>2010-05-22T09:39:19Z</time>
      </trkpt>
      <trkpt lat="44.50012" lon="6.44617">
        <ele>1338.2478027344</ele>
        <time>2010-05-22T09:39:25Z</time>
      </trkpt>
      <trkpt lat="44.50012" lon="6.44598">
        <ele>1340.8833007812</ele>
        <time>2010-05-22T09:39:33Z</time>
      </trkpt>
      <trkpt lat="44.50013" lon="6.44577">
        <ele>1342.2789306641</ele>
        <time>2010-05-22T09:39:41Z</time>
      </trkpt>
      <trkpt lat="44.50014" lon="6.44551">
        <ele>1345.0435791016</ele>
        <time>2010-05-22T09:39:52Z</time>
      </trkpt>
      <trkpt lat="44.50014" lon="6.44537">
        <ele>1346.8875732422</ele>
        <time>2010-05-22T09:39:58Z</time>
      </trkpt>
      <trkpt lat="44.50013" lon="6.44515">
        <ele>1350.1770019531</ele>
        <time>2010-05-22T09:40:08Z</time>
      </trkpt>
      <trkpt lat="44.50014" lon="6.44501">
        <ele>1350.0344238281</ele>
        <time>2010-05-22T09:40:14Z</time>
      </trkpt>
      <trkpt lat="44.50022" lon="6.44482">
        <ele>1351.2458496094</ele>
        <time>2010-05-22T09:40:23Z</time>
      </trkpt>
      <trkpt lat="44.50031" lon="6.44469">
        <ele>1354.1469726562</ele>
        <time>2010-05-22T09:40:30Z</time>
      </trkpt>
      <trkpt lat="44.50039" lon="6.44458">
        <ele>1360.6519775391</ele>
        <time>2010-05-22T09:40:36Z</time>
      </trkpt>
      <trkpt lat="44.50037" lon="6.44447">
        <ele>1366.53515625</ele>
        <time>2010-05-22T09:40:44Z</time>
      </trkpt>
      <trkpt lat="44.50024" lon="6.4444">
        <ele>1369.0989990234</ele>
        <time>2010-05-22T09:40:53Z</time>
      </trkpt>
      <trkpt lat="44.50017" lon="6.44443">
        <ele>1369.1126708984</ele>
        <time>2010-05-22T09:40:58Z</time>
      </trkpt>
      <trkpt lat="44.50014" lon="6.44454">
        <ele>1365.6529541016</ele>
        <time>2010-05-22T09:41:04Z</time>
      </trkpt>
      <trkpt lat="44.50012" lon="6.44467">
        <ele>1361.4060058594</ele>
        <time>2010-05-22T09:41:10Z</time>
      </trkpt>
      <trkpt lat="44.5001" lon="6.44482">
        <ele>1357.4689941406</ele>
        <time>2010-05-22T09:41:17Z</time>
      </trkpt>
      <trkpt lat="44.50004" lon="6.44496">
        <ele>1357.8692626953</ele>
        <time>2010-05-22T09:41:24Z</time>
      </trkpt>
      <trkpt lat="44.50004" lon="6.44509">
        <ele>1356.9051513672</ele>
        <time>2010-05-22T09:41:30Z</time>
      </trkpt>
      <trkpt lat="44.49998" lon="6.44526">
        <ele>1360.7825927734</ele>
        <time>2010-05-22T09:41:38Z</time>
      </trkpt>
      <trkpt lat="44.49993" lon="6.44542">
        <ele>1362.7036132812</ele>
        <time>2010-05-22T09:41:45Z</time>
      </trkpt>
      <trkpt lat="44.49993" lon="6.44557">
        <ele>1361.3264160156</ele>
        <time>2010-05-22T09:41:52Z</time>
      </trkpt>
      <trkpt lat="44.4999" lon="6.44571">
        <ele>1361.2371826172</ele>
        <time>2010-05-22T09:41:59Z</time>
      </trkpt>
      <trkpt lat="44.49988" lon="6.44586">
        <ele>1360.9053955078</ele>
        <time>2010-05-22T09:42:06Z</time>
      </trkpt>
      <trkpt lat="44.49988" lon="6.44594">
        <ele>1359.7467041016</ele>
        <time>2010-05-22T09:42:10Z</time>
      </trkpt>
      <trkpt lat="44.49983" lon="6.44609">
        <ele>1362.1671142578</ele>
        <time>2010-05-22T09:42:17Z</time>
      </trkpt>
      <trkpt lat="44.4998" lon="6.44622">
        <ele>1363.0889892578</ele>
        <time>2010-05-22T09:42:23Z</time>
      </trkpt>
      <trkpt lat="44.49977" lon="6.44641">
        <ele>1362.8262939453</ele>
        <time>2010-05-22T09:42:31Z</time>
      </trkpt>
      <trkpt lat="44.49974" lon="6.44657">
        <ele>1363.9644775391</ele>
        <time>2010-05-22T09:42:38Z</time>
      </trkpt>
      <trkpt lat="44.49971" lon="6.44672">
        <ele>1364.0444335938</ele>
        <time>2010-05-22T09:42:45Z</time>
      </trkpt>
      <trkpt lat="44.49964" lon="6.44688">
        <ele>1369.3590087891</ele>
        <time>2010-05-22T09:42:52Z</time>
      </trkpt>
      <trkpt lat="44.49963" lon="6.44705">
        <ele>1368.3864746094</ele>
        <time>2010-05-22T09:43:00Z</time>
      </trkpt>
      <trkpt lat="44.49958" lon="6.44721">
        <ele>1372.3878173828</ele>
        <time>2010-05-22T09:43:08Z</time>
      </trkpt>
      <trkpt lat="44.49955" lon="6.44739">
        <ele>1373.6541748047</ele>
        <time>2010-05-22T09:43:16Z</time>
      </trkpt>
      <trkpt lat="44.49949" lon="6.44754">
        <ele>1377.8289794922</ele>
        <time>2010-05-22T09:43:24Z</time>
      </trkpt>
      <trkpt lat="44.49946" lon="6.44773">
        <ele>1378.9360351562</ele>
        <time>2010-05-22T09:43:32Z</time>
      </trkpt>
      <trkpt lat="44.49945" lon="6.44776">
        <ele>1379.3770751953</ele>
        <time>2010-05-22T09:43:33Z</time>
      </trkpt>
      <trkpt lat="44.49944" lon="6.44791">
        <ele>1379.2012939453</ele>
        <time>2010-05-22T09:43:41Z</time>
      </trkpt>
      <trkpt lat="44.4994" lon="6.44809">
        <ele>1378.587890625</ele>
        <time>2010-05-22T09:43:50Z</time>
      </trkpt>
      <trkpt lat="44.49933" lon="6.4482">
        <ele>1378.4583740234</ele>
        <time>2010-05-22T09:43:56Z</time>
      </trkpt>
      <trkpt lat="44.49927" lon="6.44824">
        <ele>1379.2445068359</ele>
        <time>2010-05-22T09:44:00Z</time>
      </trkpt>
      <trkpt lat="44.49917" lon="6.44817">
        <ele>1383.4047851562</ele>
        <time>2010-05-22T09:44:08Z</time>
      </trkpt>
      <trkpt lat="44.49915" lon="6.44801">
        <ele>1386.5861816406</ele>
        <time>2010-05-22T09:44:16Z</time>
      </trkpt>
      <trkpt lat="44.4992" lon="6.44781">
        <ele>1388.3479003906</ele>
        <time>2010-05-22T09:44:25Z</time>
      </trkpt>
      <trkpt lat="44.49924" lon="6.44766">
        <ele>1389.2784423828</ele>
        <time>2010-05-22T09:44:32Z</time>
      </trkpt>
      <trkpt lat="44.49924" lon="6.44765">
        <ele>1389.3181152344</ele>
        <time>2010-05-22T09:44:33Z</time>
      </trkpt>
      <trkpt lat="44.49924" lon="6.44752">
        <ele>1391.4327392578</ele>
        <time>2010-05-22T09:44:40Z</time>
      </trkpt>
      <trkpt lat="44.49924" lon="6.44734">
        <ele>1393.9854736328</ele>
        <time>2010-05-22T09:44:49Z</time>
      </trkpt>
      <trkpt lat="44.49924" lon="6.44721">
        <ele>1396.2908935547</ele>
        <time>2010-05-22T09:44:56Z</time>
      </trkpt>
      <trkpt lat="44.49923" lon="6.447">
        <ele>1399.6199951172</ele>
        <time>2010-05-22T09:45:05Z</time>
      </trkpt>
      <trkpt lat="44.49925" lon="6.44687">
        <ele>1400.9409179688</ele>
        <time>2010-05-22T09:45:11Z</time>
      </trkpt>
      <trkpt lat="44.49929" lon="6.44674">
        <ele>1401.3422851562</ele>
        <time>2010-05-22T09:45:18Z</time>
      </trkpt>
      <trkpt lat="44.49931" lon="6.44658">
        <ele>1402.4090576172</ele>
        <time>2010-05-22T09:45:26Z</time>
      </trkpt>
      <trkpt lat="44.49933" lon="6.44639">
        <ele>1404.3536376953</ele>
        <time>2010-05-22T09:45:35Z</time>
      </trkpt>
      <trkpt lat="44.49933" lon="6.44625">
        <ele>1406.0076904297</ele>
        <time>2010-05-22T09:45:42Z</time>
      </trkpt>
      <trkpt lat="44.49933" lon="6.44608">
        <ele>1407.8818359375</ele>
        <time>2010-05-22T09:45:50Z</time>
      </trkpt>
      <trkpt lat="44.49931" lon="6.44589">
        <ele>1410.0069580078</ele>
        <time>2010-05-22T09:46:00Z</time>
      </trkpt>
      <trkpt lat="44.49928" lon="6.44571">
        <ele>1412.2175292969</ele>
        <time>2010-05-22T09:46:08Z</time>
      </trkpt>
      <trkpt lat="44.49925" lon="6.44556">
        <ele>1414.5246582031</ele>
        <time>2010-05-22T09:46:15Z</time>
      </trkpt>
      <trkpt lat="44.49922" lon="6.44541">
        <ele>1417.3178710938</ele>
        <time>2010-05-22T09:46:22Z</time>
      </trkpt>
      <trkpt lat="44.49921" lon="6.44528">
        <ele>1418.2661132812</ele>
        <time>2010-05-22T09:46:29Z</time>
      </trkpt>
      <trkpt lat="44.4992" lon="6.44517">
        <ele>1418.3057861328</ele>
        <time>2010-05-22T09:46:35Z</time>
      </trkpt>
      <trkpt lat="44.49921" lon="6.44503">
        <ele>1417.3140869141</ele>
        <time>2010-05-22T09:46:42Z</time>
      </trkpt>
      <trkpt lat="44.49924" lon="6.44484">
        <ele>1415.2548828125</ele>
        <time>2010-05-22T09:46:49Z</time>
      </trkpt>
      <trkpt lat="44.49927" lon="6.44464">
        <ele>1413.9342041016</ele>
        <time>2010-05-22T09:46:58Z</time>
      </trkpt>
      <trkpt lat="44.49927" lon="6.4446">
        <ele>1414.0598144531</ele>
        <time>2010-05-22T09:47:00Z</time>
      </trkpt>
      <trkpt lat="44.49928" lon="6.44455">
        <ele>1413.6763916016</ele>
        <time>2010-05-22T09:47:02Z</time>
      </trkpt>
      <trkpt lat="44.49929" lon="6.44437">
        <ele>1413.9260253906</ele>
        <time>2010-05-22T09:47:10Z</time>
      </trkpt>
      <trkpt lat="44.49928" lon="6.44422">
        <ele>1414.4757080078</ele>
        <time>2010-05-22T09:47:17Z</time>
      </trkpt>
      <trkpt lat="44.49928" lon="6.44405">
        <ele>1416.3579101562</ele>
        <time>2010-05-22T09:47:24Z</time>
      </trkpt>
      <trkpt lat="44.49931" lon="6.44386">
        <ele>1418.6239013672</ele>
        <time>2010-05-22T09:47:32Z</time>
      </trkpt>
      <trkpt lat="44.49933" lon="6.44372">
        <ele>1420.9864501953</ele>
        <time>2010-05-22T09:47:38Z</time>
      </trkpt>
      <trkpt lat="44.49935" lon="6.44353">
        <ele>1426.7583007812</ele>
        <time>2010-05-22T09:47:46Z</time>
      </trkpt>
      <trkpt lat="44.49934" lon="6.44335">
        <ele>1435.5325927734</ele>
        <time>2010-05-22T09:47:53Z</time>
      </trkpt>
      <trkpt lat="44.49939" lon="6.44319">
        <ele>1440.2230224609</ele>
        <time>2010-05-22T09:47:59Z</time>
      </trkpt>
      <trkpt lat="44.49953" lon="6.44306">
        <ele>1441.9553222656</ele>
        <time>2010-05-22T09:48:07Z</time>
      </trkpt>
      <trkpt lat="44.49962" lon="6.44304">
        <ele>1440.5223388672</ele>
        <time>2010-05-22T09:48:13Z</time>
      </trkpt>
      <trkpt lat="44.49973" lon="6.44301">
        <ele>1438.9620361328</ele>
        <time>2010-05-22T09:48:20Z</time>
      </trkpt>
      <trkpt lat="44.49974" lon="6.443">
        <ele>1438.8068847656</ele>
        <time>2010-05-22T09:48:21Z</time>
      </trkpt>
      <trkpt lat="44.4999" lon="6.44288">
        <ele>1439.2576904297</ele>
        <time>2010-05-22T09:48:28Z</time>
      </trkpt>
      <trkpt lat="44.50007" lon="6.44276">
        <ele>1441.8897705078</ele>
        <time>2010-05-22T09:48:35Z</time>
      </trkpt>
      <trkpt lat="44.50018" lon="6.44276">
        <ele>1441.0144042969</ele>
        <time>2010-05-22T09:48:40Z</time>
      </trkpt>
      <trkpt lat="44.50032" lon="6.44285">
        <ele>1437.7819824219</ele>
        <time>2010-05-22T09:48:45Z</time>
      </trkpt>
      <trkpt lat="44.50052" lon="6.44289">
        <ele>1437.5966796875</ele>
        <time>2010-05-22T09:48:50Z</time>
      </trkpt>
      <trkpt lat="44.50067" lon="6.44281">
        <ele>1439.5102539062</ele>
        <time>2010-05-22T09:48:55Z</time>
      </trkpt>
      <trkpt lat="44.50079" lon="6.4427">
        <ele>1441.4736328125</ele>
        <time>2010-05-22T09:49:00Z</time>
      </trkpt>
      <trkpt lat="44.501" lon="6.44258">
        <ele>1440.7301025391</ele>
        <time>2010-05-22T09:49:07Z</time>
      </trkpt>
      <trkpt lat="44.50123" lon="6.44247">
        <ele>1441.3737792969</ele>
        <time>2010-05-22T09:49:15Z</time>
      </trkpt>
      <trkpt lat="44.50134" lon="6.44242">
        <ele>1443.0753173828</ele>
        <time>2010-05-22T09:49:21Z</time>
      </trkpt>
      <trkpt lat="44.50148" lon="6.44238">
        <ele>1444.51953125</ele>
        <time>2010-05-22T09:49:26Z</time>
      </trkpt>
      <trkpt lat="44.50162" lon="6.44232">
        <ele>1447.4720458984</ele>
        <time>2010-05-22T09:49:32Z</time>
      </trkpt>
      <trkpt lat="44.50174" lon="6.44226">
        <ele>1450.6826171875</ele>
        <time>2010-05-22T09:49:38Z</time>
      </trkpt>
      <trkpt lat="44.50188" lon="6.44221">
        <ele>1454.2037353516</ele>
        <time>2010-05-22T09:49:44Z</time>
      </trkpt>
      <trkpt lat="44.50201" lon="6.44218">
        <ele>1456.8438720703</ele>
        <time>2010-05-22T09:49:50Z</time>
      </trkpt>
      <trkpt lat="44.50214" lon="6.44215">
        <ele>1459.6387939453</ele>
        <time>2010-05-22T09:49:56Z</time>
      </trkpt>
      <trkpt lat="44.50225" lon="6.44217">
        <ele>1459.5958251953</ele>
        <time>2010-05-22T09:50:01Z</time>
      </trkpt>
      <trkpt lat="44.50235" lon="6.44225">
        <ele>1455.7066650391</ele>
        <time>2010-05-22T09:50:06Z</time>
      </trkpt>
      <trkpt lat="44.50247" lon="6.44226">
        <ele>1454.6036376953</ele>
        <time>2010-05-22T09:50:11Z</time>
      </trkpt>
      <trkpt lat="44.5026" lon="6.44216">
        <ele>1453.4439697266</ele>
        <time>2010-05-22T09:50:18Z</time>
      </trkpt>
      <trkpt lat="44.50266" lon="6.44202">
        <ele>1454.7145996094</ele>
        <time>2010-05-22T09:50:24Z</time>
      </trkpt>
      <trkpt lat="44.50271" lon="6.4419">
        <ele>1455.6027832031</ele>
        <time>2010-05-22T09:50:30Z</time>
      </trkpt>
      <trkpt lat="44.50279" lon="6.44174">
        <ele>1456.3227539062</ele>
        <time>2010-05-22T09:50:38Z</time>
      </trkpt>
      <trkpt lat="44.5028" lon="6.44173">
        <ele>1456.3564453125</ele>
        <time>2010-05-22T09:50:39Z</time>
      </trkpt>
      <trkpt lat="44.50285" lon="6.44161">
        <ele>1457.3778076172</ele>
        <time>2010-05-22T09:50:45Z</time>
      </trkpt>
      <trkpt lat="44.50287" lon="6.44158">
        <ele>1457.0739746094</ele>
        <time>2010-05-22T09:50:47Z</time>
      </trkpt>
      <trkpt lat="44.50291" lon="6.44155">
        <ele>1455.9702148438</ele>
        <time>2010-05-22T09:50:53Z</time>
      </trkpt>
      <trkpt lat="44.50302" lon="6.44147">
        <ele>1453.4227294922</ele>
        <time>2010-05-22T09:51:00Z</time>
      </trkpt>
      <trkpt lat="44.50315" lon="6.44138">
        <ele>1449.6358642578</ele>
        <time>2010-05-22T09:51:07Z</time>
      </trkpt>
      <trkpt lat="44.50322" lon="6.44124">
        <ele>1451.1956787109</ele>
        <time>2010-05-22T09:51:14Z</time>
      </trkpt>
      <trkpt lat="44.50324" lon="6.44111">
        <ele>1454.5465087891</ele>
        <time>2010-05-22T09:51:20Z</time>
      </trkpt>
      <trkpt lat="44.50331" lon="6.44097">
        <ele>1456.3566894531</ele>
        <time>2010-05-22T09:51:27Z</time>
      </trkpt>
      <trkpt lat="44.50338" lon="6.4408">
        <ele>1459.6942138672</ele>
        <time>2010-05-22T09:51:35Z</time>
      </trkpt>
      <trkpt lat="44.50343" lon="6.44068">
        <ele>1462.2564697266</ele>
        <time>2010-05-22T09:51:41Z</time>
      </trkpt>
      <trkpt lat="44.5035" lon="6.44049">
        <ele>1466.4031982422</ele>
        <time>2010-05-22T09:51:49Z</time>
      </trkpt>
      <trkpt lat="44.50356" lon="6.44041">
        <ele>1467.2493896484</ele>
        <time>2010-05-22T09:51:54Z</time>
      </trkpt>
      <trkpt lat="44.50357" lon="6.44038">
        <ele>1467.5172119141</ele>
        <time>2010-05-22T09:51:55Z</time>
      </trkpt>
      <trkpt lat="44.50367" lon="6.44027">
        <ele>1468.0093994141</ele>
        <time>2010-05-22T09:52:01Z</time>
      </trkpt>
      <trkpt lat="44.50376" lon="6.44015">
        <ele>1468.3918457031</ele>
        <time>2010-05-22T09:52:08Z</time>
      </trkpt>
      <trkpt lat="44.50385" lon="6.44005">
        <ele>1468.2805175781</ele>
        <time>2010-05-22T09:52:14Z</time>
      </trkpt>
      <trkpt lat="44.50393" lon="6.43997">
        <ele>1467.5764160156</ele>
        <time>2010-05-22T09:52:19Z</time>
      </trkpt>
      <trkpt lat="44.50399" lon="6.43986">
        <ele>1467.8297119141</ele>
        <time>2010-05-22T09:52:24Z</time>
      </trkpt>
      <trkpt lat="44.50407" lon="6.43968">
        <ele>1467.4147949219</ele>
        <time>2010-05-22T09:52:31Z</time>
      </trkpt>
      <trkpt lat="44.5041" lon="6.43955">
        <ele>1467.3177490234</ele>
        <time>2010-05-22T09:52:37Z</time>
      </trkpt>
      <trkpt lat="44.5041" lon="6.43954">
        <ele>1467.2867431641</ele>
        <time>2010-05-22T09:52:45Z</time>
      </trkpt>
      <trkpt lat="44.50412" lon="6.43953">
        <ele>1466.388671875</ele>
        <time>2010-05-22T09:53:56Z</time>
      </trkpt>
      <trkpt lat="44.50409" lon="6.43957">
        <ele>1467.3737792969</ele>
        <time>2010-05-22T09:54:20Z</time>
      </trkpt>
      <trkpt lat="44.50404" lon="6.43962">
        <ele>1469.0205078125</ele>
        <time>2010-05-22T09:55:17Z</time>
      </trkpt>
      <trkpt lat="44.5041" lon="6.4396">
        <ele>1467.0559082031</ele>
        <time>2010-05-22T09:55:26Z</time>
      </trkpt>
      <trkpt lat="44.50411" lon="6.43955">
        <ele>1466.9057617188</ele>
        <time>2010-05-22T09:56:05Z</time>
      </trkpt>
      <trkpt lat="44.50407" lon="6.43955">
        <ele>1468.3572998047</ele>
        <time>2010-05-22T09:56:42Z</time>
      </trkpt>
      <trkpt lat="44.5041" lon="6.43959">
        <ele>1466.9459228516</ele>
        <time>2010-05-22T09:57:17Z</time>
      </trkpt>
      <trkpt lat="44.50411" lon="6.43951">
        <ele>1467.1070556641</ele>
        <time>2010-05-22T09:58:31Z</time>
      </trkpt>
      <trkpt lat="44.50408" lon="6.43953">
        <ele>1468.2316894531</ele>
        <time>2010-05-22T09:59:03Z</time>
      </trkpt>
      <trkpt lat="44.50409" lon="6.43953">
        <ele>1467.6077880859</ele>
        <time>2010-05-22T09:59:28Z</time>
      </trkpt>
      <trkpt lat="44.5041" lon="6.4395">
        <ele>1467.4893798828</ele>
        <time>2010-05-22T09:59:30Z</time>
      </trkpt>
      <trkpt lat="44.50414" lon="6.43934">
        <ele>1466.4942626953</ele>
        <time>2010-05-22T09:59:38Z</time>
      </trkpt>
      <trkpt lat="44.50414" lon="6.4392">
        <ele>1466.6644287109</ele>
        <time>2010-05-22T09:59:44Z</time>
      </trkpt>
      <trkpt lat="44.50412" lon="6.43908">
        <ele>1466.6745605469</ele>
        <time>2010-05-22T09:59:50Z</time>
      </trkpt>
      <trkpt lat="44.50409" lon="6.43895">
        <ele>1467.6392822266</ele>
        <time>2010-05-22T09:59:56Z</time>
      </trkpt>
      <trkpt lat="44.50406" lon="6.43882">
        <ele>1468.0344238281</ele>
        <time>2010-05-22T10:00:02Z</time>
      </trkpt>
      <trkpt lat="44.50406" lon="6.43879">
        <ele>1468.056640625</ele>
        <time>2010-05-22T10:00:03Z</time>
      </trkpt>
      <trkpt lat="44.50402" lon="6.43865">
        <ele>1468.9813232422</ele>
        <time>2010-05-22T10:00:10Z</time>
      </trkpt>
      <trkpt lat="44.50402" lon="6.43862">
        <ele>1469.2127685547</ele>
        <time>2010-05-22T10:00:12Z</time>
      </trkpt>
      <trkpt lat="44.50396" lon="6.43854">
        <ele>1472.4702148438</ele>
        <time>2010-05-22T10:00:17Z</time>
      </trkpt>
      <trkpt lat="44.50389" lon="6.43835">
        <ele>1474.7725830078</ele>
        <time>2010-05-22T10:00:26Z</time>
      </trkpt>
      <trkpt lat="44.50387" lon="6.43819">
        <ele>1475.978515625</ele>
        <time>2010-05-22T10:00:34Z</time>
      </trkpt>
      <trkpt lat="44.50385" lon="6.43802">
        <ele>1476.7963867188</ele>
        <time>2010-05-22T10:00:41Z</time>
      </trkpt>
      <trkpt lat="44.50384" lon="6.43791">
        <ele>1476.9559326172</ele>
        <time>2010-05-22T10:00:46Z</time>
      </trkpt>
      <trkpt lat="44.50383" lon="6.43776">
        <ele>1476.4510498047</ele>
        <time>2010-05-22T10:00:52Z</time>
      </trkpt>
      <trkpt lat="44.50382" lon="6.43761">
        <ele>1478.0272216797</ele>
        <time>2010-05-22T10:00:59Z</time>
      </trkpt>
      <trkpt lat="44.50381" lon="6.4375">
        <ele>1479.0684814453</ele>
        <time>2010-05-22T10:01:06Z</time>
      </trkpt>
      <trkpt lat="44.50384" lon="6.43744">
        <ele>1477.6756591797</ele>
        <time>2010-05-22T10:01:17Z</time>
      </trkpt>
      <trkpt lat="44.50384" lon="6.43745">
        <ele>1477.6617431641</ele>
        <time>2010-05-22T10:01:18Z</time>
      </trkpt>
      <trkpt lat="44.50384" lon="6.43743">
        <ele>1477.7120361328</ele>
        <time>2010-05-22T10:01:26Z</time>
      </trkpt>
      <trkpt lat="44.50382" lon="6.43738">
        <ele>1479.1341552734</ele>
        <time>2010-05-22T10:01:29Z</time>
      </trkpt>
      <trkpt lat="44.50381" lon="6.43721">
        <ele>1479.9074707031</ele>
        <time>2010-05-22T10:01:36Z</time>
      </trkpt>
      <trkpt lat="44.50385" lon="6.43716">
        <ele>1478.3962402344</ele>
        <time>2010-05-22T10:01:41Z</time>
      </trkpt>
      <trkpt lat="44.50385" lon="6.4371">
        <ele>1478.5029296875</ele>
        <time>2010-05-22T10:01:51Z</time>
      </trkpt>
      <trkpt lat="44.50378" lon="6.43693">
        <ele>1483.9040527344</ele>
        <time>2010-05-22T10:01:59Z</time>
      </trkpt>
      <trkpt lat="44.50374" lon="6.43685">
        <ele>1486.2554931641</ele>
        <time>2010-05-22T10:02:04Z</time>
      </trkpt>
      <trkpt lat="44.50372" lon="6.43672">
        <ele>1487.9749755859</ele>
        <time>2010-05-22T10:02:11Z</time>
      </trkpt>
      <trkpt lat="44.50368" lon="6.43656">
        <ele>1489.6418457031</ele>
        <time>2010-05-22T10:02:18Z</time>
      </trkpt>
      <trkpt lat="44.50367" lon="6.43642">
        <ele>1490.6082763672</ele>
        <time>2010-05-22T10:02:24Z</time>
      </trkpt>
      <trkpt lat="44.50365" lon="6.4364">
        <ele>1491.1202392578</ele>
        <time>2010-05-22T10:02:25Z</time>
      </trkpt>
      <trkpt lat="44.50361" lon="6.43624">
        <ele>1493.1174316406</ele>
        <time>2010-05-22T10:02:32Z</time>
      </trkpt>
      <trkpt lat="44.5036" lon="6.43622">
        <ele>1493.6784667969</ele>
        <time>2010-05-22T10:02:33Z</time>
      </trkpt>
      <trkpt lat="44.50353" lon="6.43603">
        <ele>1497.0469970703</ele>
        <time>2010-05-22T10:02:42Z</time>
      </trkpt>
      <trkpt lat="44.5035" lon="6.43585">
        <ele>1498.8734130859</ele>
        <time>2010-05-22T10:02:49Z</time>
      </trkpt>
      <trkpt lat="44.50349" lon="6.43581">
        <ele>1499.3978271484</ele>
        <time>2010-05-22T10:02:52Z</time>
      </trkpt>
      <trkpt lat="44.50348" lon="6.43567">
        <ele>1499.1268310547</ele>
        <time>2010-05-22T10:02:58Z</time>
      </trkpt>
      <trkpt lat="44.5035" lon="6.43551">
        <ele>1497.7570800781</ele>
        <time>2010-05-22T10:03:04Z</time>
      </trkpt>
      <trkpt lat="44.50356" lon="6.43533">
        <ele>1495.0792236328</ele>
        <time>2010-05-22T10:03:11Z</time>
      </trkpt>
      <trkpt lat="44.50354" lon="6.43522">
        <ele>1495.2645263672</ele>
        <time>2010-05-22T10:03:15Z</time>
      </trkpt>
      <trkpt lat="44.50346" lon="6.43517">
        <ele>1497.9141845703</ele>
        <time>2010-05-22T10:03:21Z</time>
      </trkpt>
      <trkpt lat="44.50342" lon="6.43525">
        <ele>1499.5748291016</ele>
        <time>2010-05-22T10:03:25Z</time>
      </trkpt>
      <trkpt lat="44.50337" lon="6.43548">
        <ele>1503.0174560547</ele>
        <time>2010-05-22T10:03:34Z</time>
      </trkpt>
      <trkpt lat="44.50336" lon="6.43562">
        <ele>1504.4831542969</ele>
        <time>2010-05-22T10:03:40Z</time>
      </trkpt>
      <trkpt lat="44.50336" lon="6.43585">
        <ele>1506.2476806641</ele>
        <time>2010-05-22T10:03:49Z</time>
      </trkpt>
      <trkpt lat="44.50337" lon="6.43605">
        <ele>1505.2249755859</ele>
        <time>2010-05-22T10:03:57Z</time>
      </trkpt>
      <trkpt lat="44.50336" lon="6.43627">
        <ele>1505.1051025391</ele>
        <time>2010-05-22T10:04:06Z</time>
      </trkpt>
      <trkpt lat="44.50335" lon="6.43642">
        <ele>1504.9621582031</ele>
        <time>2010-05-22T10:04:12Z</time>
      </trkpt>
      <trkpt lat="44.50333" lon="6.43658">
        <ele>1505.2883300781</ele>
        <time>2010-05-22T10:04:19Z</time>
      </trkpt>
      <trkpt lat="44.50333" lon="6.43672">
        <ele>1505.2739257812</ele>
        <time>2010-05-22T10:04:25Z</time>
      </trkpt>
      <trkpt lat="44.5033" lon="6.43692">
        <ele>1506.1802978516</ele>
        <time>2010-05-22T10:04:34Z</time>
      </trkpt>
      <trkpt lat="44.50327" lon="6.43709">
        <ele>1508.013671875</ele>
        <time>2010-05-22T10:04:41Z</time>
      </trkpt>
      <trkpt lat="44.50327" lon="6.43719">
        <ele>1508.6408691406</ele>
        <time>2010-05-22T10:04:47Z</time>
      </trkpt>
      <trkpt lat="44.50325" lon="6.43733">
        <ele>1509.7088623047</ele>
        <time>2010-05-22T10:04:54Z</time>
      </trkpt>
      <trkpt lat="44.50324" lon="6.43746">
        <ele>1510.6589355469</ele>
        <time>2010-05-22T10:05:00Z</time>
      </trkpt>
      <trkpt lat="44.50323" lon="6.43763">
        <ele>1510.6965332031</ele>
        <time>2010-05-22T10:05:07Z</time>
      </trkpt>
      <trkpt lat="44.50323" lon="6.43773">
        <ele>1510.3055419922</ele>
        <time>2010-05-22T10:05:12Z</time>
      </trkpt>
      <trkpt lat="44.50323" lon="6.43789">
        <ele>1511.00390625</ele>
        <time>2010-05-22T10:05:19Z</time>
      </trkpt>
      <trkpt lat="44.50318" lon="6.43807">
        <ele>1514.3232421875</ele>
        <time>2010-05-22T10:05:28Z</time>
      </trkpt>
      <trkpt lat="44.50316" lon="6.43819">
        <ele>1516.1884765625</ele>
        <time>2010-05-22T10:05:34Z</time>
      </trkpt>
      <trkpt lat="44.50312" lon="6.43836">
        <ele>1518.8325195312</ele>
        <time>2010-05-22T10:05:42Z</time>
      </trkpt>
      <trkpt lat="44.50307" lon="6.43849">
        <ele>1520.3774414062</ele>
        <time>2010-05-22T10:05:48Z</time>
      </trkpt>
      <trkpt lat="44.50297" lon="6.43854">
        <ele>1523.0522460938</ele>
        <time>2010-05-22T10:05:54Z</time>
      </trkpt>
      <trkpt lat="44.50291" lon="6.43848">
        <ele>1525.2631835938</ele>
        <time>2010-05-22T10:05:59Z</time>
      </trkpt>
      <trkpt lat="44.50293" lon="6.43829">
        <ele>1525.5119628906</ele>
        <time>2010-05-22T10:06:07Z</time>
      </trkpt>
      <trkpt lat="44.50295" lon="6.43813">
        <ele>1524.1105957031</ele>
        <time>2010-05-22T10:06:15Z</time>
      </trkpt>
      <trkpt lat="44.50298" lon="6.43797">
        <ele>1522.0891113281</ele>
        <time>2010-05-22T10:06:22Z</time>
      </trkpt>
      <trkpt lat="44.50298" lon="6.43782">
        <ele>1521.4265136719</ele>
        <time>2010-05-22T10:06:29Z</time>
      </trkpt>
      <trkpt lat="44.50294" lon="6.43765">
        <ele>1524.0688476562</ele>
        <time>2010-05-22T10:06:37Z</time>
      </trkpt>
      <trkpt lat="44.50294" lon="6.4375">
        <ele>1525.6662597656</ele>
        <time>2010-05-22T10:06:44Z</time>
      </trkpt>
      <trkpt lat="44.5029" lon="6.4374">
        <ele>1528.5512695312</ele>
        <time>2010-05-22T10:06:49Z</time>
      </trkpt>
      <trkpt lat="44.50285" lon="6.43728">
        <ele>1532.5056152344</ele>
        <time>2010-05-22T10:06:55Z</time>
      </trkpt>
      <trkpt lat="44.50282" lon="6.43713">
        <ele>1535.2037353516</ele>
        <time>2010-05-22T10:07:02Z</time>
      </trkpt>
      <trkpt lat="44.5028" lon="6.43696">
        <ele>1537.9769287109</ele>
        <time>2010-05-22T10:07:10Z</time>
      </trkpt>
      <trkpt lat="44.50279" lon="6.43694">
        <ele>1539.0828857422</ele>
        <time>2010-05-22T10:07:11Z</time>
      </trkpt>
      <trkpt lat="44.50275" lon="6.4368">
        <ele>1542.7797851562</ele>
        <time>2010-05-22T10:07:19Z</time>
      </trkpt>
      <trkpt lat="44.50272" lon="6.43663">
        <ele>1545.24609375</ele>
        <time>2010-05-22T10:07:27Z</time>
      </trkpt>
      <trkpt lat="44.50272" lon="6.43661">
        <ele>1545.5600585938</ele>
        <time>2010-05-22T10:07:28Z</time>
      </trkpt>
      <trkpt lat="44.50271" lon="6.43643">
        <ele>1546.1726074219</ele>
        <time>2010-05-22T10:07:36Z</time>
      </trkpt>
      <trkpt lat="44.50271" lon="6.4364">
        <ele>1546.4683837891</ele>
        <time>2010-05-22T10:07:37Z</time>
      </trkpt>
      <trkpt lat="44.5027" lon="6.43633">
        <ele>1546.2205810547</ele>
        <time>2010-05-22T10:07:41Z</time>
      </trkpt>
      <trkpt lat="44.50271" lon="6.43616">
        <ele>1544.4276123047</ele>
        <time>2010-05-22T10:07:48Z</time>
      </trkpt>
      <trkpt lat="44.50274" lon="6.43603">
        <ele>1542.7237548828</ele>
        <time>2010-05-22T10:07:54Z</time>
      </trkpt>
      <trkpt lat="44.50271" lon="6.43585">
        <ele>1544.0634765625</ele>
        <time>2010-05-22T10:08:03Z</time>
      </trkpt>
      <trkpt lat="44.50269" lon="6.43571">
        <ele>1544.3973388672</ele>
        <time>2010-05-22T10:08:10Z</time>
      </trkpt>
      <trkpt lat="44.50267" lon="6.43556">
        <ele>1544.5086669922</ele>
        <time>2010-05-22T10:08:17Z</time>
      </trkpt>
      <trkpt lat="44.50265" lon="6.43551">
        <ele>1544.7587890625</ele>
        <time>2010-05-22T10:08:20Z</time>
      </trkpt>
      <trkpt lat="44.50261" lon="6.43535">
        <ele>1544.8521728516</ele>
        <time>2010-05-22T10:08:27Z</time>
      </trkpt>
      <trkpt lat="44.50254" lon="6.43523">
        <ele>1545.4643554688</ele>
        <time>2010-05-22T10:08:34Z</time>
      </trkpt>
      <trkpt lat="44.50245" lon="6.4351">
        <ele>1546.3924560547</ele>
        <time>2010-05-22T10:08:42Z</time>
      </trkpt>
      <trkpt lat="44.50238" lon="6.435">
        <ele>1547.5596923828</ele>
        <time>2010-05-22T10:08:49Z</time>
      </trkpt>
      <trkpt lat="44.50227" lon="6.4349">
        <ele>1549.4239501953</ele>
        <time>2010-05-22T10:08:57Z</time>
      </trkpt>
      <trkpt lat="44.50227" lon="6.43488">
        <ele>1549.4686279297</ele>
        <time>2010-05-22T10:08:58Z</time>
      </trkpt>
      <trkpt lat="44.50217" lon="6.43477">
        <ele>1550.5260009766</ele>
        <time>2010-05-22T10:09:06Z</time>
      </trkpt>
      <trkpt lat="44.50204" lon="6.43469">
        <ele>1551.9680175781</ele>
        <time>2010-05-22T10:09:14Z</time>
      </trkpt>
      <trkpt lat="44.50194" lon="6.43456">
        <ele>1552.9594726562</ele>
        <time>2010-05-22T10:09:22Z</time>
      </trkpt>
      <trkpt lat="44.50183" lon="6.43444">
        <ele>1554.0607910156</ele>
        <time>2010-05-22T10:09:31Z</time>
      </trkpt>
      <trkpt lat="44.50171" lon="6.43434">
        <ele>1555.4105224609</ele>
        <time>2010-05-22T10:09:39Z</time>
      </trkpt>
      <trkpt lat="44.50165" lon="6.43423">
        <ele>1555.9555664062</ele>
        <time>2010-05-22T10:09:44Z</time>
      </trkpt>
      <trkpt lat="44.50156" lon="6.43414">
        <ele>1557.0334472656</ele>
        <time>2010-05-22T10:09:50Z</time>
      </trkpt>
      <trkpt lat="44.50151" lon="6.43409">
        <ele>1557.7371826172</ele>
        <time>2010-05-22T10:09:53Z</time>
      </trkpt>
      <trkpt lat="44.50142" lon="6.434">
        <ele>1559.0555419922</ele>
        <time>2010-05-22T10:10:00Z</time>
      </trkpt>
      <trkpt lat="44.50137" lon="6.43392">
        <ele>1560.2933349609</ele>
        <time>2010-05-22T10:10:05Z</time>
      </trkpt>
      <trkpt lat="44.5013" lon="6.43386">
        <ele>1562.5286865234</ele>
        <time>2010-05-22T10:10:10Z</time>
      </trkpt>
      <trkpt lat="44.50124" lon="6.43368">
        <ele>1563.1026611328</ele>
        <time>2010-05-22T10:10:17Z</time>
      </trkpt>
      <trkpt lat="44.50118" lon="6.43358">
        <ele>1563.8641357422</ele>
        <time>2010-05-22T10:10:23Z</time>
      </trkpt>
      <trkpt lat="44.50116" lon="6.43354">
        <ele>1564.0532226562</ele>
        <time>2010-05-22T10:10:25Z</time>
      </trkpt>
      <trkpt lat="44.50114" lon="6.43349">
        <ele>1564.2631835938</ele>
        <time>2010-05-22T10:10:28Z</time>
      </trkpt>
      <trkpt lat="44.50112" lon="6.4333">
        <ele>1564.9776611328</ele>
        <time>2010-05-22T10:10:36Z</time>
      </trkpt>
      <trkpt lat="44.50109" lon="6.43314">
        <ele>1570.8933105469</ele>
        <time>2010-05-22T10:10:43Z</time>
      </trkpt>
      <trkpt lat="44.50105" lon="6.43303">
        <ele>1576.0445556641</ele>
        <time>2010-05-22T10:10:49Z</time>
      </trkpt>
      <trkpt lat="44.50101" lon="6.433">
        <ele>1578.4370117188</ele>
        <time>2010-05-22T10:10:52Z</time>
      </trkpt>
      <trkpt lat="44.50101" lon="6.43302">
        <ele>1578.2536621094</ele>
        <time>2010-05-22T10:10:56Z</time>
      </trkpt>
      <trkpt lat="44.50098" lon="6.43315">
        <ele>1575.4108886719</ele>
        <time>2010-05-22T10:11:03Z</time>
      </trkpt>
      <trkpt lat="44.501" lon="6.43329">
        <ele>1570.9771728516</ele>
        <time>2010-05-22T10:11:10Z</time>
      </trkpt>
      <trkpt lat="44.50102" lon="6.43346">
        <ele>1569.5834960938</ele>
        <time>2010-05-22T10:11:18Z</time>
      </trkpt>
      <trkpt lat="44.50101" lon="6.43364">
        <ele>1571.4697265625</ele>
        <time>2010-05-22T10:11:26Z</time>
      </trkpt>
      <trkpt lat="44.50104" lon="6.4338">
        <ele>1572.9288330078</ele>
        <time>2010-05-22T10:11:34Z</time>
      </trkpt>
      <trkpt lat="44.50107" lon="6.43398">
        <ele>1574.3521728516</ele>
        <time>2010-05-22T10:11:43Z</time>
      </trkpt>
      <trkpt lat="44.50111" lon="6.43416">
        <ele>1575.98046875</ele>
        <time>2010-05-22T10:11:52Z</time>
      </trkpt>
      <trkpt lat="44.50115" lon="6.4343">
        <ele>1575.8431396484</ele>
        <time>2010-05-22T10:11:59Z</time>
      </trkpt>
      <trkpt lat="44.50119" lon="6.4345">
        <ele>1576.9669189453</ele>
        <time>2010-05-22T10:12:08Z</time>
      </trkpt>
      <trkpt lat="44.50122" lon="6.43467">
        <ele>1577.7257080078</ele>
        <time>2010-05-22T10:12:16Z</time>
      </trkpt>
      <trkpt lat="44.50126" lon="6.43485">
        <ele>1579.1163330078</ele>
        <time>2010-05-22T10:12:24Z</time>
      </trkpt>
      <trkpt lat="44.50129" lon="6.43503">
        <ele>1581.0902099609</ele>
        <time>2010-05-22T10:12:32Z</time>
      </trkpt>
      <trkpt lat="44.5013" lon="6.43518">
        <ele>1582.0653076172</ele>
        <time>2010-05-22T10:12:38Z</time>
      </trkpt>
      <trkpt lat="44.50131" lon="6.43535">
        <ele>1583.9211425781</ele>
        <time>2010-05-22T10:12:46Z</time>
      </trkpt>
      <trkpt lat="44.50131" lon="6.43549">
        <ele>1586.3621826172</ele>
        <time>2010-05-22T10:12:52Z</time>
      </trkpt>
      <trkpt lat="44.50132" lon="6.43568">
        <ele>1588.4603271484</ele>
        <time>2010-05-22T10:13:00Z</time>
      </trkpt>
      <trkpt lat="44.50132" lon="6.43586">
        <ele>1590.3583984375</ele>
        <time>2010-05-22T10:13:08Z</time>
      </trkpt>
      <trkpt lat="44.50134" lon="6.43601">
        <ele>1590.4875488281</ele>
        <time>2010-05-22T10:13:14Z</time>
      </trkpt>
      <trkpt lat="44.50133" lon="6.43622">
        <ele>1591.3430175781</ele>
        <time>2010-05-22T10:13:22Z</time>
      </trkpt>
      <trkpt lat="44.50132" lon="6.43636">
        <ele>1591.7100830078</ele>
        <time>2010-05-22T10:13:27Z</time>
      </trkpt>
      <trkpt lat="44.50123" lon="6.43646">
        <ele>1593.0103759766</ele>
        <time>2010-05-22T10:13:33Z</time>
      </trkpt>
      <trkpt lat="44.50108" lon="6.43646">
        <ele>1596.4779052734</ele>
        <time>2010-05-22T10:13:41Z</time>
      </trkpt>
      <trkpt lat="44.50103" lon="6.43641">
        <ele>1598.2547607422</ele>
        <time>2010-05-22T10:13:45Z</time>
      </trkpt>
      <trkpt lat="44.50095" lon="6.43626">
        <ele>1600.7602539062</ele>
        <time>2010-05-22T10:13:52Z</time>
      </trkpt>
      <trkpt lat="44.50094" lon="6.4362">
        <ele>1601.4503173828</ele>
        <time>2010-05-22T10:13:57Z</time>
      </trkpt>
      <trkpt lat="44.50096" lon="6.43617">
        <ele>1601.3061523438</ele>
        <time>2010-05-22T10:14:13Z</time>
      </trkpt>
      <trkpt lat="44.50099" lon="6.43615">
        <ele>1600.9663085938</ele>
        <time>2010-05-22T10:14:32Z</time>
      </trkpt>
      <trkpt lat="44.50101" lon="6.43622">
        <ele>1599.9809570312</ele>
        <time>2010-05-22T10:15:45Z</time>
      </trkpt>
      <trkpt lat="44.50106" lon="6.43617">
        <ele>1599.4555664062</ele>
        <time>2010-05-22T10:16:23Z</time>
      </trkpt>
      <trkpt lat="44.50101" lon="6.43617">
        <ele>1600.2830810547</ele>
        <time>2010-05-22T10:16:29Z</time>
      </trkpt>
      <trkpt lat="44.50098" lon="6.43618">
        <ele>1600.9559326172</ele>
        <time>2010-05-22T10:16:50Z</time>
      </trkpt>
      <trkpt lat="44.50097" lon="6.43619">
        <ele>1600.9593505859</ele>
        <time>2010-05-22T10:17:04Z</time>
      </trkpt>
      <trkpt lat="44.50097" lon="6.43617">
        <ele>1601.2305908203</ele>
        <time>2010-05-22T10:17:38Z</time>
      </trkpt>
      <trkpt lat="44.50098" lon="6.43614">
        <ele>1601.0932617188</ele>
        <time>2010-05-22T10:17:47Z</time>
      </trkpt>
      <trkpt lat="44.50096" lon="6.43608">
        <ele>1601.6278076172</ele>
        <time>2010-05-22T10:17:53Z</time>
      </trkpt>
      <trkpt lat="44.50093" lon="6.43597">
        <ele>1601.490234375</ele>
        <time>2010-05-22T10:18:00Z</time>
      </trkpt>
      <trkpt lat="44.50088" lon="6.43587">
        <ele>1602.1942138672</ele>
        <time>2010-05-22T10:18:06Z</time>
      </trkpt>
      <trkpt lat="44.50084" lon="6.43577">
        <ele>1602.5408935547</ele>
        <time>2010-05-22T10:18:12Z</time>
      </trkpt>
      <trkpt lat="44.50076" lon="6.43565">
        <ele>1603.7868652344</ele>
        <time>2010-05-22T10:18:20Z</time>
      </trkpt>
      <trkpt lat="44.5007" lon="6.43556">
        <ele>1604.8395996094</ele>
        <time>2010-05-22T10:18:26Z</time>
      </trkpt>
      <trkpt lat="44.50069" lon="6.43554">
        <ele>1604.9312744141</ele>
        <time>2010-05-22T10:18:27Z</time>
      </trkpt>
      <trkpt lat="44.50063" lon="6.43543">
        <ele>1606.2606201172</ele>
        <time>2010-05-22T10:18:34Z</time>
      </trkpt>
      <trkpt lat="44.50049" lon="6.43532">
        <ele>1610.0250244141</ele>
        <time>2010-05-22T10:18:43Z</time>
      </trkpt>
      <trkpt lat="44.50041" lon="6.43516">
        <ele>1612.8686523438</ele>
        <time>2010-05-22T10:18:51Z</time>
      </trkpt>
      <trkpt lat="44.50035" lon="6.43503">
        <ele>1615.1466064453</ele>
        <time>2010-05-22T10:18:58Z</time>
      </trkpt>
      <trkpt lat="44.50032" lon="6.4349">
        <ele>1616.1157226562</ele>
        <time>2010-05-22T10:19:05Z</time>
      </trkpt>
      <trkpt lat="44.50027" lon="6.43476">
        <ele>1617.3446044922</ele>
        <time>2010-05-22T10:19:12Z</time>
      </trkpt>
      <trkpt lat="44.50025" lon="6.43467">
        <ele>1617.5200195312</ele>
        <time>2010-05-22T10:19:16Z</time>
      </trkpt>
      <trkpt lat="44.50022" lon="6.43455">
        <ele>1617.7392578125</ele>
        <time>2010-05-22T10:19:21Z</time>
      </trkpt>
      <trkpt lat="44.50021" lon="6.43447">
        <ele>1617.5920410156</ele>
        <time>2010-05-22T10:19:24Z</time>
      </trkpt>
      <trkpt lat="44.50017" lon="6.43429">
        <ele>1617.7008056641</ele>
        <time>2010-05-22T10:19:32Z</time>
      </trkpt>
      <trkpt lat="44.50014" lon="6.4342">
        <ele>1618.0441894531</ele>
        <time>2010-05-22T10:19:37Z</time>
      </trkpt>
      <trkpt lat="44.5001" lon="6.43409">
        <ele>1618.9024658203</ele>
        <time>2010-05-22T10:19:44Z</time>
      </trkpt>
      <trkpt lat="44.50006" lon="6.43397">
        <ele>1619.5067138672</ele>
        <time>2010-05-22T10:19:51Z</time>
      </trkpt>
      <trkpt lat="44.5" lon="6.43382">
        <ele>1620.4714355469</ele>
        <time>2010-05-22T10:19:58Z</time>
      </trkpt>
      <trkpt lat="44.49995" lon="6.43366">
        <ele>1620.8492431641</ele>
        <time>2010-05-22T10:20:06Z</time>
      </trkpt>
      <trkpt lat="44.49991" lon="6.43352">
        <ele>1620.4896240234</ele>
        <time>2010-05-22T10:20:13Z</time>
      </trkpt>
      <trkpt lat="44.49989" lon="6.43347">
        <ele>1620.5858154297</ele>
        <time>2010-05-22T10:20:15Z</time>
      </trkpt>
      <trkpt lat="44.49986" lon="6.43331">
        <ele>1619.8531494141</ele>
        <time>2010-05-22T10:20:22Z</time>
      </trkpt>
      <trkpt lat="44.4998" lon="6.43318">
        <ele>1619.9713134766</ele>
        <time>2010-05-22T10:20:28Z</time>
      </trkpt>
      <trkpt lat="44.49974" lon="6.43307">
        <ele>1619.8308105469</ele>
        <time>2010-05-22T10:20:34Z</time>
      </trkpt>
      <trkpt lat="44.49963" lon="6.43288">
        <ele>1624.1768798828</ele>
        <time>2010-05-22T10:20:43Z</time>
      </trkpt>
      <trkpt lat="44.49955" lon="6.43274">
        <ele>1627.6271972656</ele>
        <time>2010-05-22T10:20:50Z</time>
      </trkpt>
      <trkpt lat="44.49948" lon="6.43262">
        <ele>1630.8732910156</ele>
        <time>2010-05-22T10:20:57Z</time>
      </trkpt>
      <trkpt lat="44.4994" lon="6.4325">
        <ele>1632.7674560547</ele>
        <time>2010-05-22T10:21:04Z</time>
      </trkpt>
      <trkpt lat="44.49932" lon="6.43238">
        <ele>1632.8031005859</ele>
        <time>2010-05-22T10:21:12Z</time>
      </trkpt>
      <trkpt lat="44.49921" lon="6.43224">
        <ele>1631.0278320312</ele>
        <time>2010-05-22T10:21:21Z</time>
      </trkpt>
      <trkpt lat="44.4992" lon="6.43223">
        <ele>1630.8280029297</ele>
        <time>2010-05-22T10:21:22Z</time>
      </trkpt>
      <trkpt lat="44.49909" lon="6.43214">
        <ele>1628.4676513672</ele>
        <time>2010-05-22T10:21:30Z</time>
      </trkpt>
      <trkpt lat="44.49904" lon="6.43217">
        <ele>1627.7551269531</ele>
        <time>2010-05-22T10:21:35Z</time>
      </trkpt>
      <trkpt lat="44.49904" lon="6.43227">
        <ele>1628.5791015625</ele>
        <time>2010-05-22T10:21:40Z</time>
      </trkpt>
      <trkpt lat="44.49905" lon="6.43231">
        <ele>1629.0670166016</ele>
        <time>2010-05-22T10:21:42Z</time>
      </trkpt>
      <trkpt lat="44.49908" lon="6.43245">
        <ele>1630.3275146484</ele>
        <time>2010-05-22T10:21:50Z</time>
      </trkpt>
      <trkpt lat="44.4991" lon="6.43259">
        <ele>1631.0563964844</ele>
        <time>2010-05-22T10:21:57Z</time>
      </trkpt>
      <trkpt lat="44.49912" lon="6.43266">
        <ele>1631.2178955078</ele>
        <time>2010-05-22T10:22:01Z</time>
      </trkpt>
      <trkpt lat="44.49915" lon="6.43275">
        <ele>1631.1931152344</ele>
        <time>2010-05-22T10:22:05Z</time>
      </trkpt>
      <trkpt lat="44.49916" lon="6.43295">
        <ele>1631.6647949219</ele>
        <time>2010-05-22T10:22:12Z</time>
      </trkpt>
      <trkpt lat="44.49916" lon="6.43314">
        <ele>1633.8186035156</ele>
        <time>2010-05-22T10:22:20Z</time>
      </trkpt>
      <trkpt lat="44.49916" lon="6.43329">
        <ele>1637.1948242188</ele>
        <time>2010-05-22T10:22:26Z</time>
      </trkpt>
      <trkpt lat="44.49913" lon="6.43347">
        <ele>1640.0706787109</ele>
        <time>2010-05-22T10:22:33Z</time>
      </trkpt>
      <trkpt lat="44.49912" lon="6.43361">
        <ele>1641.8634033203</ele>
        <time>2010-05-22T10:22:39Z</time>
      </trkpt>
      <trkpt lat="44.49905" lon="6.43376">
        <ele>1643.9645996094</ele>
        <time>2010-05-22T10:22:47Z</time>
      </trkpt>
      <trkpt lat="44.49905" lon="6.43384">
        <ele>1644.4317626953</ele>
        <time>2010-05-22T10:22:50Z</time>
      </trkpt>
      <trkpt lat="44.49903" lon="6.43398">
        <ele>1645.6704101562</ele>
        <time>2010-05-22T10:22:57Z</time>
      </trkpt>
      <trkpt lat="44.49901" lon="6.43401">
        <ele>1646.1544189453</ele>
        <time>2010-05-22T10:22:59Z</time>
      </trkpt>
      <trkpt lat="44.49902" lon="6.43412">
        <ele>1646.8513183594</ele>
        <time>2010-05-22T10:23:03Z</time>
      </trkpt>
      <trkpt lat="44.49902" lon="6.43426">
        <ele>1647.3233642578</ele>
        <time>2010-05-22T10:23:07Z</time>
      </trkpt>
      <trkpt lat="44.49896" lon="6.4345">
        <ele>1647.8250732422</ele>
        <time>2010-05-22T10:23:14Z</time>
      </trkpt>
      <trkpt lat="44.4989" lon="6.43466">
        <ele>1647.3787841797</ele>
        <time>2010-05-22T10:23:20Z</time>
      </trkpt>
      <trkpt lat="44.49878" lon="6.43476">
        <ele>1648.3403320312</ele>
        <time>2010-05-22T10:23:27Z</time>
      </trkpt>
      <trkpt lat="44.49868" lon="6.43481">
        <ele>1649.2384033203</ele>
        <time>2010-05-22T10:23:33Z</time>
      </trkpt>
      <trkpt lat="44.49856" lon="6.43473">
        <ele>1651.4862060547</ele>
        <time>2010-05-22T10:23:40Z</time>
      </trkpt>
      <trkpt lat="44.49855" lon="6.43471">
        <ele>1651.7490234375</ele>
        <time>2010-05-22T10:23:41Z</time>
      </trkpt>
      <trkpt lat="44.49852" lon="6.43451">
        <ele>1653.7103271484</ele>
        <time>2010-05-22T10:23:50Z</time>
      </trkpt>
      <trkpt lat="44.49851" lon="6.43433">
        <ele>1654.7092285156</ele>
        <time>2010-05-22T10:24:00Z</time>
      </trkpt>
      <trkpt lat="44.49851" lon="6.4342">
        <ele>1655.1317138672</ele>
        <time>2010-05-22T10:24:09Z</time>
      </trkpt>
      <trkpt lat="44.4985" lon="6.43409">
        <ele>1655.4645996094</ele>
        <time>2010-05-22T10:24:15Z</time>
      </trkpt>
      <trkpt lat="44.49846" lon="6.43401">
        <ele>1656.3709716797</ele>
        <time>2010-05-22T10:24:21Z</time>
      </trkpt>
      <trkpt lat="44.49841" lon="6.43392">
        <ele>1657.3597412109</ele>
        <time>2010-05-22T10:24:29Z</time>
      </trkpt>
      <trkpt lat="44.49839" lon="6.4339">
        <ele>1657.6893310547</ele>
        <time>2010-05-22T10:24:31Z</time>
      </trkpt>
      <trkpt lat="44.49836" lon="6.4338">
        <ele>1658.6895751953</ele>
        <time>2010-05-22T10:24:40Z</time>
      </trkpt>
      <trkpt lat="44.49834" lon="6.43371">
        <ele>1659.5445556641</ele>
        <time>2010-05-22T10:24:47Z</time>
      </trkpt>
      <trkpt lat="44.49834" lon="6.4337">
        <ele>1659.6031494141</ele>
        <time>2010-05-22T10:24:48Z</time>
      </trkpt>
      <trkpt lat="44.49833" lon="6.43358">
        <ele>1659.6691894531</ele>
        <time>2010-05-22T10:24:55Z</time>
      </trkpt>
      <trkpt lat="44.49826" lon="6.43346">
        <ele>1658.9976806641</ele>
        <time>2010-05-22T10:25:02Z</time>
      </trkpt>
      <trkpt lat="44.49825" lon="6.43337">
        <ele>1658.306640625</ele>
        <time>2010-05-22T10:25:07Z</time>
      </trkpt>
      <trkpt lat="44.49821" lon="6.4333">
        <ele>1656.3682861328</ele>
        <time>2010-05-22T10:25:11Z</time>
      </trkpt>
      <trkpt lat="44.49818" lon="6.43323">
        <ele>1652.7061767578</ele>
        <time>2010-05-22T10:25:15Z</time>
      </trkpt>
      <trkpt lat="44.49812" lon="6.43324">
        <ele>1653.3675537109</ele>
        <time>2010-05-22T10:25:21Z</time>
      </trkpt>
      <trkpt lat="44.4981" lon="6.4333">
        <ele>1657.5727539062</ele>
        <time>2010-05-22T10:25:25Z</time>
      </trkpt>
      <trkpt lat="44.49803" lon="6.43348">
        <ele>1660.9752197266</ele>
        <time>2010-05-22T10:25:35Z</time>
      </trkpt>
      <trkpt lat="44.498" lon="6.43358">
        <ele>1662.0164794922</ele>
        <time>2010-05-22T10:25:42Z</time>
      </trkpt>
      <trkpt lat="44.49796" lon="6.43369">
        <ele>1663.5169677734</ele>
        <time>2010-05-22T10:25:49Z</time>
      </trkpt>
      <trkpt lat="44.49789" lon="6.43378">
        <ele>1665.4001464844</ele>
        <time>2010-05-22T10:25:56Z</time>
      </trkpt>
      <trkpt lat="44.49786" lon="6.43388">
        <ele>1667.4329833984</ele>
        <time>2010-05-22T10:26:03Z</time>
      </trkpt>
      <trkpt lat="44.49785" lon="6.43389">
        <ele>1667.734375</ele>
        <time>2010-05-22T10:26:04Z</time>
      </trkpt>
      <trkpt lat="44.4978" lon="6.43398">
        <ele>1670.1105957031</ele>
        <time>2010-05-22T10:26:11Z</time>
      </trkpt>
      <trkpt lat="44.49774" lon="6.43409">
        <ele>1673.8686523438</ele>
        <time>2010-05-22T10:26:18Z</time>
      </trkpt>
      <trkpt lat="44.49771" lon="6.43422">
        <ele>1677.2924804688</ele>
        <time>2010-05-22T10:26:25Z</time>
      </trkpt>
      <trkpt lat="44.4977" lon="6.43434">
        <ele>1680.2513427734</ele>
        <time>2010-05-22T10:26:33Z</time>
      </trkpt>
      <trkpt lat="44.49768" lon="6.43439">
        <ele>1681.5880126953</ele>
        <time>2010-05-22T10:26:40Z</time>
      </trkpt>
      <trkpt lat="44.49769" lon="6.43447">
        <ele>1682.4584960938</ele>
        <time>2010-05-22T10:26:44Z</time>
      </trkpt>
      <trkpt lat="44.4977" lon="6.43457">
        <ele>1681.6058349609</ele>
        <time>2010-05-22T10:26:50Z</time>
      </trkpt>
      <trkpt lat="44.4977" lon="6.4347">
        <ele>1680.7918701172</ele>
        <time>2010-05-22T10:26:58Z</time>
      </trkpt>
      <trkpt lat="44.49767" lon="6.43477">
        <ele>1681.3797607422</ele>
        <time>2010-05-22T10:27:02Z</time>
      </trkpt>
      <trkpt lat="44.49762" lon="6.43478">
        <ele>1683.1977539062</ele>
        <time>2010-05-22T10:27:06Z</time>
      </trkpt>
      <trkpt lat="44.4976" lon="6.43474">
        <ele>1684.2795410156</ele>
        <time>2010-05-22T10:27:10Z</time>
      </trkpt>
      <trkpt lat="44.49753" lon="6.43466">
        <ele>1686.9061279297</ele>
        <time>2010-05-22T10:27:16Z</time>
      </trkpt>
      <trkpt lat="44.4975" lon="6.43463">
        <ele>1688.0675048828</ele>
        <time>2010-05-22T10:27:20Z</time>
      </trkpt>
      <trkpt lat="44.49746" lon="6.43459">
        <ele>1688.9938964844</ele>
        <time>2010-05-22T10:27:27Z</time>
      </trkpt>
      <trkpt lat="44.49741" lon="6.43448">
        <ele>1690.3182373047</ele>
        <time>2010-05-22T10:27:37Z</time>
      </trkpt>
      <trkpt lat="44.49737" lon="6.43438">
        <ele>1690.0615234375</ele>
        <time>2010-05-22T10:27:44Z</time>
      </trkpt>
      <trkpt lat="44.49737" lon="6.43433">
        <ele>1689.0582275391</ele>
        <time>2010-05-22T10:27:47Z</time>
      </trkpt>
      <trkpt lat="44.49731" lon="6.43421">
        <ele>1687.9437255859</ele>
        <time>2010-05-22T10:27:56Z</time>
      </trkpt>
      <trkpt lat="44.49725" lon="6.43412">
        <ele>1687.2397460938</ele>
        <time>2010-05-22T10:28:03Z</time>
      </trkpt>
      <trkpt lat="44.49719" lon="6.43404">
        <ele>1687.2775878906</ele>
        <time>2010-05-22T10:28:09Z</time>
      </trkpt>
      <trkpt lat="44.49714" lon="6.43393">
        <ele>1686.1613769531</ele>
        <time>2010-05-22T10:28:15Z</time>
      </trkpt>
      <trkpt lat="44.49711" lon="6.43384">
        <ele>1684.4095458984</ele>
        <time>2010-05-22T10:28:20Z</time>
      </trkpt>
      <trkpt lat="44.49703" lon="6.43362">
        <ele>1679.4718017578</ele>
        <time>2010-05-22T10:28:32Z</time>
      </trkpt>
      <trkpt lat="44.497" lon="6.43359">
        <ele>1678.9140625</ele>
        <time>2010-05-22T10:28:35Z</time>
      </trkpt>
      <trkpt lat="44.49695" lon="6.43361">
        <ele>1680.7899169922</ele>
        <time>2010-05-22T10:28:41Z</time>
      </trkpt>
      <trkpt lat="44.49691" lon="6.43365">
        <ele>1684.1278076172</ele>
        <time>2010-05-22T10:28:45Z</time>
      </trkpt>
      <trkpt lat="44.4969" lon="6.43371">
        <ele>1686.8000488281</ele>
        <time>2010-05-22T10:28:50Z</time>
      </trkpt>
      <trkpt lat="44.4969" lon="6.43382">
        <ele>1690.0852050781</ele>
        <time>2010-05-22T10:28:57Z</time>
      </trkpt>
      <trkpt lat="44.49688" lon="6.43386">
        <ele>1691.9559326172</ele>
        <time>2010-05-22T10:28:59Z</time>
      </trkpt>
      <trkpt lat="44.49685" lon="6.43396">
        <ele>1695.958984375</ele>
        <time>2010-05-22T10:29:05Z</time>
      </trkpt>
      <trkpt lat="44.49681" lon="6.43408">
        <ele>1700.5231933594</ele>
        <time>2010-05-22T10:29:12Z</time>
      </trkpt>
      <trkpt lat="44.4968" lon="6.43426">
        <ele>1704.2990722656</ele>
        <time>2010-05-22T10:29:22Z</time>
      </trkpt>
      <trkpt lat="44.49678" lon="6.43435">
        <ele>1705.8146972656</ele>
        <time>2010-05-22T10:29:28Z</time>
      </trkpt>
      <trkpt lat="44.49676" lon="6.4345">
        <ele>1706.9979248047</ele>
        <time>2010-05-22T10:29:37Z</time>
      </trkpt>
      <trkpt lat="44.49676" lon="6.43462">
        <ele>1706.4184570312</ele>
        <time>2010-05-22T10:29:44Z</time>
      </trkpt>
      <trkpt lat="44.49676" lon="6.43469">
        <ele>1706.1060791016</ele>
        <time>2010-05-22T10:29:49Z</time>
      </trkpt>
      <trkpt lat="44.49674" lon="6.43471">
        <ele>1706.4364013672</ele>
        <time>2010-05-22T10:30:04Z</time>
      </trkpt>
      <trkpt lat="44.49671" lon="6.4347">
        <ele>1707.2247314453</ele>
        <time>2010-05-22T10:30:12Z</time>
      </trkpt>
      <trkpt lat="44.49669" lon="6.43472">
        <ele>1707.5638427734</ele>
        <time>2010-05-22T10:30:21Z</time>
      </trkpt>
      <trkpt lat="44.49667" lon="6.43478">
        <ele>1707.6115722656</ele>
        <time>2010-05-22T10:30:29Z</time>
      </trkpt>
      <trkpt lat="44.49659" lon="6.43481">
        <ele>1709.8138427734</ele>
        <time>2010-05-22T10:31:15Z</time>
      </trkpt>
      <trkpt lat="44.49666" lon="6.4348">
        <ele>1707.5583496094</ele>
        <time>2010-05-22T10:31:57Z</time>
      </trkpt>
      <trkpt lat="44.49672" lon="6.43478">
        <ele>1706.5101318359</ele>
        <time>2010-05-22T10:32:08Z</time>
      </trkpt>
      <trkpt lat="44.49671" lon="6.43479">
        <ele>1706.6896972656</ele>
        <time>2010-05-22T10:32:48Z</time>
      </trkpt>
      <trkpt lat="44.49668" lon="6.4348">
        <ele>1707.1280517578</ele>
        <time>2010-05-22T10:33:00Z</time>
      </trkpt>
      <trkpt lat="44.49665" lon="6.43481">
        <ele>1707.91015625</ele>
        <time>2010-05-22T10:33:43Z</time>
      </trkpt>
      <trkpt lat="44.49665" lon="6.43477">
        <ele>1708.2321777344</ele>
        <time>2010-05-22T10:34:07Z</time>
      </trkpt>
      <trkpt lat="44.49665" lon="6.4347">
        <ele>1708.9468994141</ele>
        <time>2010-05-22T10:34:14Z</time>
      </trkpt>
      <trkpt lat="44.49661" lon="6.4347">
        <ele>1710.2823486328</ele>
        <time>2010-05-22T10:34:22Z</time>
      </trkpt>
      <trkpt lat="44.49662" lon="6.4347">
        <ele>1710.021484375</ele>
        <time>2010-05-22T10:34:29Z</time>
      </trkpt>
      <trkpt lat="44.49662" lon="6.43467">
        <ele>1710.0866699219</ele>
        <time>2010-05-22T10:34:40Z</time>
      </trkpt>
      <trkpt lat="44.49661" lon="6.43476">
        <ele>1709.7600097656</ele>
        <time>2010-05-22T10:35:04Z</time>
      </trkpt>
      <trkpt lat="44.4966" lon="6.43471">
        <ele>1710.5261230469</ele>
        <time>2010-05-22T10:36:36Z</time>
      </trkpt>
      <trkpt lat="44.49662" lon="6.43468">
        <ele>1710.2927246094</ele>
        <time>2010-05-22T10:36:44Z</time>
      </trkpt>
      <trkpt lat="44.49664" lon="6.43469">
        <ele>1709.2969970703</ele>
        <time>2010-05-22T10:36:58Z</time>
      </trkpt>
      <trkpt lat="44.49661" lon="6.43476">
        <ele>1709.9066162109</ele>
        <time>2010-05-22T10:37:04Z</time>
      </trkpt>
      <trkpt lat="44.4966" lon="6.43478">
        <ele>1710.0120849609</ele>
        <time>2010-05-22T10:37:20Z</time>
      </trkpt>
      <trkpt lat="44.49657" lon="6.43487">
        <ele>1709.6960449219</ele>
        <time>2010-05-22T10:37:32Z</time>
      </trkpt>
      <trkpt lat="44.49656" lon="6.43489">
        <ele>1709.8272705078</ele>
        <time>2010-05-22T10:37:42Z</time>
      </trkpt>
      <trkpt lat="44.49651" lon="6.43493">
        <ele>1710.1007080078</ele>
        <time>2010-05-22T10:37:50Z</time>
      </trkpt>
      <trkpt lat="44.49661" lon="6.4348">
        <ele>1709.365234375</ele>
        <time>2010-05-22T10:38:00Z</time>
      </trkpt>
      <trkpt lat="44.49657" lon="6.43474">
        <ele>1711.4799804688</ele>
        <time>2010-05-22T10:39:02Z</time>
      </trkpt>
      <trkpt lat="44.49658" lon="6.43471">
        <ele>1711.6145019531</ele>
        <time>2010-05-22T10:39:35Z</time>
      </trkpt>
      <trkpt lat="44.49653" lon="6.4347">
        <ele>1713.6057128906</ele>
        <time>2010-05-22T10:40:18Z</time>
      </trkpt>
      <trkpt lat="44.49657" lon="6.43475">
        <ele>1711.375</ele>
        <time>2010-05-22T10:40:26Z</time>
      </trkpt>
      <trkpt lat="44.49661" lon="6.43473">
        <ele>1710.0537109375</ele>
        <time>2010-05-22T10:40:38Z</time>
      </trkpt>
      <trkpt lat="44.49661" lon="6.43466">
        <ele>1710.57421875</ele>
        <time>2010-05-22T10:40:45Z</time>
      </trkpt>
      <trkpt lat="44.4966" lon="6.43463">
        <ele>1711.0856933594</ele>
        <time>2010-05-22T10:40:47Z</time>
      </trkpt>
      <trkpt lat="44.49657" lon="6.43452">
        <ele>1713.4066162109</ele>
        <time>2010-05-22T10:40:55Z</time>
      </trkpt>
      <trkpt lat="44.49655" lon="6.43449">
        <ele>1714.4125976562</ele>
        <time>2010-05-22T10:41:02Z</time>
      </trkpt>
      <trkpt lat="44.49651" lon="6.43438">
        <ele>1716.0678710938</ele>
        <time>2010-05-22T10:41:10Z</time>
      </trkpt>
      <trkpt lat="44.49649" lon="6.43429">
        <ele>1716.3784179688</ele>
        <time>2010-05-22T10:41:19Z</time>
      </trkpt>
      <trkpt lat="44.49646" lon="6.4342">
        <ele>1717.0751953125</ele>
        <time>2010-05-22T10:41:27Z</time>
      </trkpt>
      <trkpt lat="44.49643" lon="6.43413">
        <ele>1717.50390625</ele>
        <time>2010-05-22T10:41:33Z</time>
      </trkpt>
      <trkpt lat="44.49638" lon="6.43405">
        <ele>1718.3903808594</ele>
        <time>2010-05-22T10:41:42Z</time>
      </trkpt>
      <trkpt lat="44.49635" lon="6.43399">
        <ele>1718.6059570312</ele>
        <time>2010-05-22T10:41:47Z</time>
      </trkpt>
      <trkpt lat="44.49632" lon="6.43387">
        <ele>1717.8151855469</ele>
        <time>2010-05-22T10:41:54Z</time>
      </trkpt>
      <trkpt lat="44.49631" lon="6.4338">
        <ele>1716.4758300781</ele>
        <time>2010-05-22T10:42:00Z</time>
      </trkpt>
      <trkpt lat="44.4963" lon="6.43378">
        <ele>1716.3542480469</ele>
        <time>2010-05-22T10:42:02Z</time>
      </trkpt>
      <trkpt lat="44.49625" lon="6.43371">
        <ele>1717.4613037109</ele>
        <time>2010-05-22T10:42:10Z</time>
      </trkpt>
      <trkpt lat="44.49621" lon="6.43372">
        <ele>1719.9387207031</ele>
        <time>2010-05-22T10:42:18Z</time>
      </trkpt>
      <trkpt lat="44.49622" lon="6.4338">
        <ele>1721.6229248047</ele>
        <time>2010-05-22T10:42:26Z</time>
      </trkpt>
      <trkpt lat="44.49621" lon="6.43383">
        <ele>1722.6416015625</ele>
        <time>2010-05-22T10:42:31Z</time>
      </trkpt>
      <trkpt lat="44.49618" lon="6.4339">
        <ele>1725.70703125</ele>
        <time>2010-05-22T10:42:38Z</time>
      </trkpt>
      <trkpt lat="44.49614" lon="6.43388">
        <ele>1727.4754638672</ele>
        <time>2010-05-22T10:42:44Z</time>
      </trkpt>
      <trkpt lat="44.4961" lon="6.43382">
        <ele>1728.3579101562</ele>
        <time>2010-05-22T10:42:49Z</time>
      </trkpt>
      <trkpt lat="44.49608" lon="6.4337">
        <ele>1727.6743164062</ele>
        <time>2010-05-22T10:42:59Z</time>
      </trkpt>
      <trkpt lat="44.49604" lon="6.43364">
        <ele>1729.2043457031</ele>
        <time>2010-05-22T10:43:08Z</time>
      </trkpt>
      <trkpt lat="44.496" lon="6.43357">
        <ele>1730.7082519531</ele>
        <time>2010-05-22T10:43:15Z</time>
      </trkpt>
      <trkpt lat="44.49596" lon="6.43351">
        <ele>1732.7001953125</ele>
        <time>2010-05-22T10:43:20Z</time>
      </trkpt>
      <trkpt lat="44.49594" lon="6.43347">
        <ele>1732.8864746094</ele>
        <time>2010-05-22T10:43:27Z</time>
      </trkpt>
      <trkpt lat="44.49588" lon="6.43337">
        <ele>1736.9068603516</ele>
        <time>2010-05-22T10:43:36Z</time>
      </trkpt>
      <trkpt lat="44.49586" lon="6.43332">
        <ele>1737.791015625</ele>
        <time>2010-05-22T10:43:41Z</time>
      </trkpt>
      <trkpt lat="44.49584" lon="6.43326">
        <ele>1738.2736816406</ele>
        <time>2010-05-22T10:43:47Z</time>
      </trkpt>
      <trkpt lat="44.4958" lon="6.43321">
        <ele>1739.5953369141</ele>
        <time>2010-05-22T10:43:53Z</time>
      </trkpt>
      <trkpt lat="44.49575" lon="6.4331">
        <ele>1740.4895019531</ele>
        <time>2010-05-22T10:44:01Z</time>
      </trkpt>
      <trkpt lat="44.49575" lon="6.43298">
        <ele>1738.0726318359</ele>
        <time>2010-05-22T10:44:09Z</time>
      </trkpt>
      <trkpt lat="44.49575" lon="6.43296">
        <ele>1737.6297607422</ele>
        <time>2010-05-22T10:44:11Z</time>
      </trkpt>
      <trkpt lat="44.49568" lon="6.43285">
        <ele>1739.3703613281</ele>
        <time>2010-05-22T10:44:21Z</time>
      </trkpt>
      <trkpt lat="44.49564" lon="6.43279">
        <ele>1740.4689941406</ele>
        <time>2010-05-22T10:44:28Z</time>
      </trkpt>
      <trkpt lat="44.49559" lon="6.43273">
        <ele>1741.3497314453</ele>
        <time>2010-05-22T10:44:35Z</time>
      </trkpt>
      <trkpt lat="44.49553" lon="6.43267">
        <ele>1739.3507080078</ele>
        <time>2010-05-22T10:44:44Z</time>
      </trkpt>
      <trkpt lat="44.49546" lon="6.43263">
        <ele>1733.4168701172</ele>
        <time>2010-05-22T10:44:53Z</time>
      </trkpt>
      <trkpt lat="44.49543" lon="6.43263">
        <ele>1731.9345703125</ele>
        <time>2010-05-22T10:44:57Z</time>
      </trkpt>
      <trkpt lat="44.4954" lon="6.43259">
        <ele>1727.9844970703</ele>
        <time>2010-05-22T10:45:06Z</time>
      </trkpt>
      <trkpt lat="44.49537" lon="6.43264">
        <ele>1728.1201171875</ele>
        <time>2010-05-22T10:45:13Z</time>
      </trkpt>
      <trkpt lat="44.49536" lon="6.43265">
        <ele>1728.2528076172</ele>
        <time>2010-05-22T10:45:14Z</time>
      </trkpt>
      <trkpt lat="44.49527" lon="6.43283">
        <ele>1734.5715332031</ele>
        <time>2010-05-22T10:45:20Z</time>
      </trkpt>
      <trkpt lat="44.49519" lon="6.43299">
        <ele>1740.9552001953</ele>
        <time>2010-05-22T10:45:24Z</time>
      </trkpt>
      <trkpt lat="44.4951" lon="6.43305">
        <ele>1742.1180419922</ele>
        <time>2010-05-22T10:45:29Z</time>
      </trkpt>
      <trkpt lat="44.49501" lon="6.43304">
        <ele>1739.3352050781</ele>
        <time>2010-05-22T10:45:34Z</time>
      </trkpt>
      <trkpt lat="44.49497" lon="6.43304">
        <ele>1739.076171875</ele>
        <time>2010-05-22T10:45:41Z</time>
      </trkpt>
      <trkpt lat="44.49492" lon="6.43305">
        <ele>1739.9033203125</ele>
        <time>2010-05-22T10:45:45Z</time>
      </trkpt>
      <trkpt lat="44.49485" lon="6.43305">
        <ele>1739.71875</ele>
        <time>2010-05-22T10:45:50Z</time>
      </trkpt>
      <trkpt lat="44.49478" lon="6.43306">
        <ele>1740.0231933594</ele>
        <time>2010-05-22T10:45:57Z</time>
      </trkpt>
      <trkpt lat="44.49469" lon="6.43309">
        <ele>1744.7362060547</ele>
        <time>2010-05-22T10:46:04Z</time>
      </trkpt>
      <trkpt lat="44.49458" lon="6.43308">
        <ele>1750.6291503906</ele>
        <time>2010-05-22T10:46:12Z</time>
      </trkpt>
      <trkpt lat="44.49452" lon="6.43312">
        <ele>1756.3374023438</ele>
        <time>2010-05-22T10:46:18Z</time>
      </trkpt>
      <trkpt lat="44.49447" lon="6.43315">
        <ele>1759.8612060547</ele>
        <time>2010-05-22T10:46:24Z</time>
      </trkpt>
      <trkpt lat="44.49445" lon="6.43312">
        <ele>1760.072265625</ele>
        <time>2010-05-22T10:46:28Z</time>
      </trkpt>
      <trkpt lat="44.49442" lon="6.4331">
        <ele>1761.3997802734</ele>
        <time>2010-05-22T10:46:32Z</time>
      </trkpt>
      <trkpt lat="44.49439" lon="6.43305">
        <ele>1761.5441894531</ele>
        <time>2010-05-22T10:46:36Z</time>
      </trkpt>
      <trkpt lat="44.49434" lon="6.43298">
        <ele>1764.7835693359</ele>
        <time>2010-05-22T10:46:42Z</time>
      </trkpt>
      <trkpt lat="44.49431" lon="6.43294">
        <ele>1766.2906494141</ele>
        <time>2010-05-22T10:46:45Z</time>
      </trkpt>
      <trkpt lat="44.49429" lon="6.43291">
        <ele>1767.2960205078</ele>
        <time>2010-05-22T10:46:48Z</time>
      </trkpt>
      <trkpt lat="44.49423" lon="6.4329">
        <ele>1771.5198974609</ele>
        <time>2010-05-22T10:46:56Z</time>
      </trkpt>
      <trkpt lat="44.49416" lon="6.43286">
        <ele>1775.7945556641</ele>
        <time>2010-05-22T10:47:03Z</time>
      </trkpt>
      <trkpt lat="44.49409" lon="6.43282">
        <ele>1779.9688720703</ele>
        <time>2010-05-22T10:47:08Z</time>
      </trkpt>
      <trkpt lat="44.49401" lon="6.4328">
        <ele>1784.9425048828</ele>
        <time>2010-05-22T10:47:15Z</time>
      </trkpt>
      <trkpt lat="44.49398" lon="6.43282">
        <ele>1787.0251464844</ele>
        <time>2010-05-22T10:47:21Z</time>
      </trkpt>
      <trkpt lat="44.49394" lon="6.43282">
        <ele>1789.1636962891</ele>
        <time>2010-05-22T10:47:27Z</time>
      </trkpt>
      <trkpt lat="44.49396" lon="6.43287">
        <ele>1788.7176513672</ele>
        <time>2010-05-22T10:47:34Z</time>
      </trkpt>
      <trkpt lat="44.49399" lon="6.4329">
        <ele>1787.1082763672</ele>
        <time>2010-05-22T10:47:38Z</time>
      </trkpt>
      <trkpt lat="44.494" lon="6.43292">
        <ele>1786.3232421875</ele>
        <time>2010-05-22T10:47:44Z</time>
      </trkpt>
      <trkpt lat="44.49403" lon="6.43295">
        <ele>1784.8793945312</ele>
        <time>2010-05-22T10:47:49Z</time>
      </trkpt>
      <trkpt lat="44.49408" lon="6.43296">
        <ele>1781.6163330078</ele>
        <time>2010-05-22T10:47:55Z</time>
      </trkpt>
      <trkpt lat="44.4941" lon="6.43302">
        <ele>1780.9091796875</ele>
        <time>2010-05-22T10:48:01Z</time>
      </trkpt>
      <trkpt lat="44.49406" lon="6.43305">
        <ele>1783.5609130859</ele>
        <time>2010-05-22T10:48:06Z</time>
      </trkpt>
      <trkpt lat="44.49404" lon="6.43304">
        <ele>1785.0163574219</ele>
        <time>2010-05-22T10:48:09Z</time>
      </trkpt>
      <trkpt lat="44.49399" lon="6.43298">
        <ele>1787.6495361328</ele>
        <time>2010-05-22T10:48:17Z</time>
      </trkpt>
      <trkpt lat="44.49397" lon="6.43294">
        <ele>1788.6971435547</ele>
        <time>2010-05-22T10:48:26Z</time>
      </trkpt>
      <trkpt lat="44.49396" lon="6.43294">
        <ele>1789.1755371094</ele>
        <time>2010-05-22T10:48:28Z</time>
      </trkpt>
      <trkpt lat="44.4939" lon="6.43298">
        <ele>1793.1776123047</ele>
        <time>2010-05-22T10:48:35Z</time>
      </trkpt>
      <trkpt lat="44.49382" lon="6.43292">
        <ele>1797.4848632812</ele>
        <time>2010-05-22T10:48:43Z</time>
      </trkpt>
      <trkpt lat="44.49374" lon="6.43288">
        <ele>1802.2387695312</ele>
        <time>2010-05-22T10:48:50Z</time>
      </trkpt>
      <trkpt lat="44.49371" lon="6.43284">
        <ele>1804.1064453125</ele>
        <time>2010-05-22T10:48:56Z</time>
      </trkpt>
      <trkpt lat="44.49371" lon="6.43277">
        <ele>1804.4592285156</ele>
        <time>2010-05-22T10:49:01Z</time>
      </trkpt>
      <trkpt lat="44.49369" lon="6.43272">
        <ele>1805.0543212891</ele>
        <time>2010-05-22T10:49:07Z</time>
      </trkpt>
      <trkpt lat="44.4937" lon="6.43268">
        <ele>1804.1271972656</ele>
        <time>2010-05-22T10:49:12Z</time>
      </trkpt>
      <trkpt lat="44.49374" lon="6.43263">
        <ele>1801.0573730469</ele>
        <time>2010-05-22T10:49:18Z</time>
      </trkpt>
      <trkpt lat="44.49373" lon="6.4326">
        <ele>1801.3519287109</ele>
        <time>2010-05-22T10:49:20Z</time>
      </trkpt>
      <trkpt lat="44.49374" lon="6.43255">
        <ele>1799.8447265625</ele>
        <time>2010-05-22T10:49:27Z</time>
      </trkpt>
      <trkpt lat="44.49374" lon="6.43248">
        <ele>1799.7181396484</ele>
        <time>2010-05-22T10:49:34Z</time>
      </trkpt>
      <trkpt lat="44.49374" lon="6.43245">
        <ele>1799.1411132812</ele>
        <time>2010-05-22T10:49:38Z</time>
      </trkpt>
      <trkpt lat="44.49375" lon="6.43239">
        <ele>1798.1483154297</ele>
        <time>2010-05-22T10:49:43Z</time>
      </trkpt>
      <trkpt lat="44.49374" lon="6.43232">
        <ele>1797.9571533203</ele>
        <time>2010-05-22T10:49:50Z</time>
      </trkpt>
      <trkpt lat="44.49375" lon="6.43224">
        <ele>1796.8050537109</ele>
        <time>2010-05-22T10:49:56Z</time>
      </trkpt>
      <trkpt lat="44.49373" lon="6.43214">
        <ele>1796.5297851562</ele>
        <time>2010-05-22T10:50:02Z</time>
      </trkpt>
      <trkpt lat="44.49373" lon="6.4321">
        <ele>1796.2435302734</ele>
        <time>2010-05-22T10:50:05Z</time>
      </trkpt>
      <trkpt lat="44.49368" lon="6.43207">
        <ele>1798.5297851562</ele>
        <time>2010-05-22T10:50:09Z</time>
      </trkpt>
      <trkpt lat="44.49364" lon="6.43203">
        <ele>1800.2087402344</ele>
        <time>2010-05-22T10:50:16Z</time>
      </trkpt>
      <trkpt lat="44.49365" lon="6.43194">
        <ele>1798.5623779297</ele>
        <time>2010-05-22T10:50:28Z</time>
      </trkpt>
      <trkpt lat="44.49358" lon="6.43189">
        <ele>1802.7053222656</ele>
        <time>2010-05-22T10:50:35Z</time>
      </trkpt>
      <trkpt lat="44.49355" lon="6.43185">
        <ele>1804.0922851562</ele>
        <time>2010-05-22T10:50:41Z</time>
      </trkpt>
      <trkpt lat="44.49354" lon="6.43181">
        <ele>1803.8568115234</ele>
        <time>2010-05-22T10:50:47Z</time>
      </trkpt>
      <trkpt lat="44.49352" lon="6.43178">
        <ele>1804.2670898438</ele>
        <time>2010-05-22T10:50:53Z</time>
      </trkpt>
      <trkpt lat="44.49354" lon="6.43173">
        <ele>1802.6190185547</ele>
        <time>2010-05-22T10:51:03Z</time>
      </trkpt>
      <trkpt lat="44.49351" lon="6.43169">
        <ele>1803.4176025391</ele>
        <time>2010-05-22T10:51:08Z</time>
      </trkpt>
      <trkpt lat="44.49347" lon="6.43161">
        <ele>1803.8713378906</ele>
        <time>2010-05-22T10:51:20Z</time>
      </trkpt>
      <trkpt lat="44.49347" lon="6.43159">
        <ele>1804.0499267578</ele>
        <time>2010-05-22T10:51:21Z</time>
      </trkpt>
      <trkpt lat="44.4934" lon="6.43157">
        <ele>1806.7141113281</ele>
        <time>2010-05-22T10:51:26Z</time>
      </trkpt>
      <trkpt lat="44.49337" lon="6.43156">
        <ele>1808.2385253906</ele>
        <time>2010-05-22T10:51:32Z</time>
      </trkpt>
      <trkpt lat="44.49337" lon="6.43155">
        <ele>1808.0067138672</ele>
        <time>2010-05-22T10:51:39Z</time>
      </trkpt>
      <trkpt lat="44.49342" lon="6.43157">
        <ele>1805.9278564453</ele>
        <time>2010-05-22T10:52:17Z</time>
      </trkpt>
      <trkpt lat="44.4934" lon="6.43157">
        <ele>1806.8205566406</ele>
        <time>2010-05-22T10:52:20Z</time>
      </trkpt>
      <trkpt lat="44.49335" lon="6.43154">
        <ele>1809.0487060547</ele>
        <time>2010-05-22T10:52:26Z</time>
      </trkpt>
      <trkpt lat="44.49333" lon="6.4315">
        <ele>1809.3862304688</ele>
        <time>2010-05-22T10:52:31Z</time>
      </trkpt>
      <trkpt lat="44.49328" lon="6.43142">
        <ele>1812.0960693359</ele>
        <time>2010-05-22T10:52:38Z</time>
      </trkpt>
      <trkpt lat="44.49325" lon="6.43138">
        <ele>1813.8995361328</ele>
        <time>2010-05-22T10:52:43Z</time>
      </trkpt>
      <trkpt lat="44.49323" lon="6.43131">
        <ele>1813.2369384766</ele>
        <time>2010-05-22T10:52:48Z</time>
      </trkpt>
      <trkpt lat="44.49323" lon="6.43127">
        <ele>1812.7983398438</ele>
        <time>2010-05-22T10:52:52Z</time>
      </trkpt>
      <trkpt lat="44.4932" lon="6.43121">
        <ele>1813.4482421875</ele>
        <time>2010-05-22T10:52:56Z</time>
      </trkpt>
      <trkpt lat="44.49315" lon="6.43116">
        <ele>1815.5823974609</ele>
        <time>2010-05-22T10:53:01Z</time>
      </trkpt>
      <trkpt lat="44.49311" lon="6.43111">
        <ele>1817.1260986328</ele>
        <time>2010-05-22T10:53:06Z</time>
      </trkpt>
      <trkpt lat="44.49308" lon="6.43107">
        <ele>1818.3570556641</ele>
        <time>2010-05-22T10:53:11Z</time>
      </trkpt>
      <trkpt lat="44.49305" lon="6.43101">
        <ele>1819.1812744141</ele>
        <time>2010-05-22T10:53:17Z</time>
      </trkpt>
      <trkpt lat="44.49302" lon="6.43098">
        <ele>1820.1817626953</ele>
        <time>2010-05-22T10:53:21Z</time>
      </trkpt>
      <trkpt lat="44.49299" lon="6.43091">
        <ele>1820.7100830078</ele>
        <time>2010-05-22T10:53:27Z</time>
      </trkpt>
      <trkpt lat="44.49296" lon="6.43087">
        <ele>1822.15234375</ele>
        <time>2010-05-22T10:53:31Z</time>
      </trkpt>
      <trkpt lat="44.49294" lon="6.43082">
        <ele>1821.9519042969</ele>
        <time>2010-05-22T10:53:36Z</time>
      </trkpt>
      <trkpt lat="44.49291" lon="6.43077">
        <ele>1821.5561523438</ele>
        <time>2010-05-22T10:53:41Z</time>
      </trkpt>
      <trkpt lat="44.49289" lon="6.43077">
        <ele>1823.1915283203</ele>
        <time>2010-05-22T10:53:54Z</time>
      </trkpt>
      <trkpt lat="44.49282" lon="6.43074">
        <ele>1826.7346191406</ele>
        <time>2010-05-22T10:54:02Z</time>
      </trkpt>
      <trkpt lat="44.4928" lon="6.43062">
        <ele>1823.4545898438</ele>
        <time>2010-05-22T10:54:30Z</time>
      </trkpt>
      <trkpt lat="44.49274" lon="6.43056">
        <ele>1824.3933105469</ele>
        <time>2010-05-22T10:54:37Z</time>
      </trkpt>
      <trkpt lat="44.49269" lon="6.43051">
        <ele>1824.9768066406</ele>
        <time>2010-05-22T10:54:42Z</time>
      </trkpt>
      <trkpt lat="44.49267" lon="6.43052">
        <ele>1826.6124267578</ele>
        <time>2010-05-22T10:54:46Z</time>
      </trkpt>
      <trkpt lat="44.49258" lon="6.43048">
        <ele>1830.6046142578</ele>
        <time>2010-05-22T10:54:56Z</time>
      </trkpt>
      <trkpt lat="44.49253" lon="6.43043">
        <ele>1832.0512695312</ele>
        <time>2010-05-22T10:55:02Z</time>
      </trkpt>
      <trkpt lat="44.4925" lon="6.43041">
        <ele>1833.1059570312</ele>
        <time>2010-05-22T10:55:07Z</time>
      </trkpt>
      <trkpt lat="44.49248" lon="6.4304">
        <ele>1834.3994140625</ele>
        <time>2010-05-22T10:55:11Z</time>
      </trkpt>
      <trkpt lat="44.49245" lon="6.43036">
        <ele>1835.3111572266</ele>
        <time>2010-05-22T10:55:18Z</time>
      </trkpt>
      <trkpt lat="44.49241" lon="6.4303">
        <ele>1835.7725830078</ele>
        <time>2010-05-22T10:55:25Z</time>
      </trkpt>
      <trkpt lat="44.49235" lon="6.43025">
        <ele>1838.3946533203</ele>
        <time>2010-05-22T10:55:34Z</time>
      </trkpt>
      <trkpt lat="44.49232" lon="6.43024">
        <ele>1840.6605224609</ele>
        <time>2010-05-22T10:55:37Z</time>
      </trkpt>
      <trkpt lat="44.49228" lon="6.43019">
        <ele>1841.7053222656</ele>
        <time>2010-05-22T10:55:42Z</time>
      </trkpt>
      <trkpt lat="44.49225" lon="6.43018">
        <ele>1844.0653076172</ele>
        <time>2010-05-22T10:55:47Z</time>
      </trkpt>
      <trkpt lat="44.49223" lon="6.43017">
        <ele>1845.5075683594</ele>
        <time>2010-05-22T10:55:51Z</time>
      </trkpt>
      <trkpt lat="44.49222" lon="6.43006">
        <ele>1843.572265625</ele>
        <time>2010-05-22T10:56:03Z</time>
      </trkpt>
      <trkpt lat="44.49218" lon="6.43001">
        <ele>1845.240234375</ele>
        <time>2010-05-22T10:56:13Z</time>
      </trkpt>
      <trkpt lat="44.49215" lon="6.43">
        <ele>1847.4114990234</ele>
        <time>2010-05-22T10:56:20Z</time>
      </trkpt>
      <trkpt lat="44.49207" lon="6.42998">
        <ele>1852.7172851562</ele>
        <time>2010-05-22T10:56:31Z</time>
      </trkpt>
      <trkpt lat="44.49202" lon="6.42993">
        <ele>1855.0491943359</ele>
        <time>2010-05-22T10:56:39Z</time>
      </trkpt>
      <trkpt lat="44.492" lon="6.42986">
        <ele>1855.4069824219</ele>
        <time>2010-05-22T10:56:46Z</time>
      </trkpt>
      <trkpt lat="44.49192" lon="6.42974">
        <ele>1859.6108398438</ele>
        <time>2010-05-22T10:57:08Z</time>
      </trkpt>
      <trkpt lat="44.49197" lon="6.42963">
        <ele>1853.1651611328</ele>
        <time>2010-05-22T10:57:24Z</time>
      </trkpt>
      <trkpt lat="44.49194" lon="6.42961">
        <ele>1854.8239746094</ele>
        <time>2010-05-22T10:57:56Z</time>
      </trkpt>
      <trkpt lat="44.49191" lon="6.4296">
        <ele>1856.6787109375</ele>
        <time>2010-05-22T10:57:59Z</time>
      </trkpt>
      <trkpt lat="44.49189" lon="6.42957">
        <ele>1857.3570556641</ele>
        <time>2010-05-22T10:58:05Z</time>
      </trkpt>
      <trkpt lat="44.49187" lon="6.42951">
        <ele>1856.7722167969</ele>
        <time>2010-05-22T10:58:11Z</time>
      </trkpt>
      <trkpt lat="44.49184" lon="6.42947">
        <ele>1858.1877441406</ele>
        <time>2010-05-22T10:58:17Z</time>
      </trkpt>
      <trkpt lat="44.49178" lon="6.42944">
        <ele>1863.2637939453</ele>
        <time>2010-05-22T10:58:23Z</time>
      </trkpt>
      <trkpt lat="44.49172" lon="6.42939">
        <ele>1867.7485351562</ele>
        <time>2010-05-22T10:58:40Z</time>
      </trkpt>
      <trkpt lat="44.49168" lon="6.42932">
        <ele>1870.7469482422</ele>
        <time>2010-05-22T10:58:46Z</time>
      </trkpt>
      <trkpt lat="44.49163" lon="6.42929">
        <ele>1872.8016357422</ele>
        <time>2010-05-22T10:58:52Z</time>
      </trkpt>
      <trkpt lat="44.49158" lon="6.42925">
        <ele>1874.2133789062</ele>
        <time>2010-05-22T10:58:58Z</time>
      </trkpt>
      <trkpt lat="44.49158" lon="6.4292">
        <ele>1874.3071289062</ele>
        <time>2010-05-22T10:59:00Z</time>
      </trkpt>
      <trkpt lat="44.49157" lon="6.42912">
        <ele>1874.3189697266</ele>
        <time>2010-05-22T10:59:03Z</time>
      </trkpt>
      <trkpt lat="44.49155" lon="6.42909">
        <ele>1874.9267578125</ele>
        <time>2010-05-22T10:59:11Z</time>
      </trkpt>
      <trkpt lat="44.49163" lon="6.42916">
        <ele>1871.7718505859</ele>
        <time>2010-05-22T10:59:22Z</time>
      </trkpt>
      <trkpt lat="44.49163" lon="6.42923">
        <ele>1872.3833007812</ele>
        <time>2010-05-22T10:59:30Z</time>
      </trkpt>
      <trkpt lat="44.49164" lon="6.42928">
        <ele>1872.3001708984</ele>
        <time>2010-05-22T10:59:34Z</time>
      </trkpt>
      <trkpt lat="44.49165" lon="6.42933">
        <ele>1872.4389648438</ele>
        <time>2010-05-22T10:59:40Z</time>
      </trkpt>
      <trkpt lat="44.49168" lon="6.4294">
        <ele>1871.0211181641</ele>
        <time>2010-05-22T10:59:49Z</time>
      </trkpt>
      <trkpt lat="44.49169" lon="6.42946">
        <ele>1871.1000976562</ele>
        <time>2010-05-22T10:59:55Z</time>
      </trkpt>
      <trkpt lat="44.49169" lon="6.42959">
        <ele>1872.9781494141</ele>
        <time>2010-05-22T11:00:09Z</time>
      </trkpt>
      <trkpt lat="44.49167" lon="6.42961">
        <ele>1874.6149902344</ele>
        <time>2010-05-22T11:00:14Z</time>
      </trkpt>
      <trkpt lat="44.49159" lon="6.42957">
        <ele>1876.9556884766</ele>
        <time>2010-05-22T11:00:22Z</time>
      </trkpt>
      <trkpt lat="44.49157" lon="6.42957">
        <ele>1877.9163818359</ele>
        <time>2010-05-22T11:00:25Z</time>
      </trkpt>
      <trkpt lat="44.49155" lon="6.42955">
        <ele>1878.2496337891</ele>
        <time>2010-05-22T11:00:33Z</time>
      </trkpt>
      <trkpt lat="44.49152" lon="6.42951">
        <ele>1878.1968994141</ele>
        <time>2010-05-22T11:00:39Z</time>
      </trkpt>
      <trkpt lat="44.49149" lon="6.42947">
        <ele>1878.0045166016</ele>
        <time>2010-05-22T11:00:43Z</time>
      </trkpt>
      <trkpt lat="44.49147" lon="6.42945">
        <ele>1878.0311279297</ele>
        <time>2010-05-22T11:00:49Z</time>
      </trkpt>
      <trkpt lat="44.4915" lon="6.42935">
        <ele>1877.4959716797</ele>
        <time>2010-05-22T11:00:56Z</time>
      </trkpt>
      <trkpt lat="44.49147" lon="6.42932">
        <ele>1878.6439208984</ele>
        <time>2010-05-22T11:01:02Z</time>
      </trkpt>
      <trkpt lat="44.49144" lon="6.42927">
        <ele>1880.048828125</ele>
        <time>2010-05-22T11:01:08Z</time>
      </trkpt>
      <trkpt lat="44.49142" lon="6.42923">
        <ele>1880.9920654297</ele>
        <time>2010-05-22T11:01:14Z</time>
      </trkpt>
      <trkpt lat="44.49141" lon="6.42915">
        <ele>1882.1215820312</ele>
        <time>2010-05-22T11:01:21Z</time>
      </trkpt>
      <trkpt lat="44.49136" lon="6.42911">
        <ele>1884.2573242188</ele>
        <time>2010-05-22T11:01:27Z</time>
      </trkpt>
      <trkpt lat="44.49136" lon="6.42907">
        <ele>1884.2874755859</ele>
        <time>2010-05-22T11:01:36Z</time>
      </trkpt>
      <trkpt lat="44.49129" lon="6.42907">
        <ele>1888.4282226562</ele>
        <time>2010-05-22T11:02:17Z</time>
      </trkpt>
      <trkpt lat="44.49125" lon="6.42901">
        <ele>1890.5930175781</ele>
        <time>2010-05-22T11:02:24Z</time>
      </trkpt>
      <trkpt lat="44.49122" lon="6.42893">
        <ele>1892.8502197266</ele>
        <time>2010-05-22T11:02:36Z</time>
      </trkpt>
      <trkpt lat="44.4912" lon="6.42885">
        <ele>1895.1086425781</ele>
        <time>2010-05-22T11:02:45Z</time>
      </trkpt>
      <trkpt lat="44.49115" lon="6.42883">
        <ele>1898.4597167969</ele>
        <time>2010-05-22T11:02:52Z</time>
      </trkpt>
      <trkpt lat="44.49113" lon="6.42881">
        <ele>1899.8968505859</ele>
        <time>2010-05-22T11:02:58Z</time>
      </trkpt>
      <trkpt lat="44.49113" lon="6.42877">
        <ele>1900.3236083984</ele>
        <time>2010-05-22T11:03:04Z</time>
      </trkpt>
      <trkpt lat="44.49111" lon="6.42872">
        <ele>1901.5457763672</ele>
        <time>2010-05-22T11:03:09Z</time>
      </trkpt>
      <trkpt lat="44.49107" lon="6.42869">
        <ele>1903.9881591797</ele>
        <time>2010-05-22T11:03:15Z</time>
      </trkpt>
      <trkpt lat="44.49108" lon="6.42865">
        <ele>1903.6307373047</ele>
        <time>2010-05-22T11:03:23Z</time>
      </trkpt>
      <trkpt lat="44.49109" lon="6.42864">
        <ele>1902.9716796875</ele>
        <time>2010-05-22T11:03:24Z</time>
      </trkpt>
      <trkpt lat="44.4911" lon="6.42859">
        <ele>1901.8382568359</ele>
        <time>2010-05-22T11:03:31Z</time>
      </trkpt>
      <trkpt lat="44.49116" lon="6.42854">
        <ele>1897.4552001953</ele>
        <time>2010-05-22T11:03:37Z</time>
      </trkpt>
      <trkpt lat="44.49116" lon="6.42841">
        <ele>1895.0573730469</ele>
        <time>2010-05-22T11:03:46Z</time>
      </trkpt>
      <trkpt lat="44.49115" lon="6.42838">
        <ele>1894.9594726562</ele>
        <time>2010-05-22T11:03:52Z</time>
      </trkpt>
      <trkpt lat="44.49113" lon="6.42831">
        <ele>1894.4814453125</ele>
        <time>2010-05-22T11:03:58Z</time>
      </trkpt>
      <trkpt lat="44.49113" lon="6.4282">
        <ele>1890.8316650391</ele>
        <time>2010-05-22T11:04:05Z</time>
      </trkpt>
      <trkpt lat="44.49112" lon="6.42818">
        <ele>1890.7047119141</ele>
        <time>2010-05-22T11:04:06Z</time>
      </trkpt>
      <trkpt lat="44.49109" lon="6.42814">
        <ele>1890.4106445312</ele>
        <time>2010-05-22T11:04:10Z</time>
      </trkpt>
      <trkpt lat="44.49105" lon="6.4281">
        <ele>1890.8237304688</ele>
        <time>2010-05-22T11:04:14Z</time>
      </trkpt>
      <trkpt lat="44.49104" lon="6.42801">
        <ele>1887.6312255859</ele>
        <time>2010-05-22T11:04:21Z</time>
      </trkpt>
      <trkpt lat="44.491" lon="6.428">
        <ele>1888.5101318359</ele>
        <time>2010-05-22T11:04:26Z</time>
      </trkpt>
      <trkpt lat="44.49092" lon="6.42797">
        <ele>1890.0207519531</ele>
        <time>2010-05-22T11:04:33Z</time>
      </trkpt>
      <trkpt lat="44.49088" lon="6.42794">
        <ele>1890.2817382812</ele>
        <time>2010-05-22T11:04:37Z</time>
      </trkpt>
      <trkpt lat="44.49086" lon="6.42792">
        <ele>1890.1442871094</ele>
        <time>2010-05-22T11:04:44Z</time>
      </trkpt>
      <trkpt lat="44.49081" lon="6.4279">
        <ele>1890.5615234375</ele>
        <time>2010-05-22T11:04:50Z</time>
      </trkpt>
      <trkpt lat="44.49075" lon="6.42789">
        <ele>1890.6794433594</ele>
        <time>2010-05-22T11:04:54Z</time>
      </trkpt>
      <trkpt lat="44.49072" lon="6.42782">
        <ele>1888.1353759766</ele>
        <time>2010-05-22T11:05:00Z</time>
      </trkpt>
      <trkpt lat="44.4907" lon="6.42781">
        <ele>1887.6165771484</ele>
        <time>2010-05-22T11:05:04Z</time>
      </trkpt>
      <trkpt lat="44.49063" lon="6.42784">
        <ele>1889.482421875</ele>
        <time>2010-05-22T11:05:26Z</time>
      </trkpt>
      <trkpt lat="44.49059" lon="6.42781">
        <ele>1888.8297119141</ele>
        <time>2010-05-22T11:05:32Z</time>
      </trkpt>
      <trkpt lat="44.49056" lon="6.42777">
        <ele>1887.7574462891</ele>
        <time>2010-05-22T11:05:42Z</time>
      </trkpt>
      <trkpt lat="44.49053" lon="6.42768">
        <ele>1886.4831542969</ele>
        <time>2010-05-22T11:05:50Z</time>
      </trkpt>
      <trkpt lat="44.49052" lon="6.42765">
        <ele>1886.1871337891</ele>
        <time>2010-05-22T11:05:54Z</time>
      </trkpt>
      <trkpt lat="44.4905" lon="6.4276">
        <ele>1886.4970703125</ele>
        <time>2010-05-22T11:06:02Z</time>
      </trkpt>
      <trkpt lat="44.49047" lon="6.42753">
        <ele>1886.9304199219</ele>
        <time>2010-05-22T11:06:11Z</time>
      </trkpt>
      <trkpt lat="44.49043" lon="6.42749">
        <ele>1888.4100341797</ele>
        <time>2010-05-22T11:06:18Z</time>
      </trkpt>
      <trkpt lat="44.4904" lon="6.42747">
        <ele>1890.8771972656</ele>
        <time>2010-05-22T11:06:23Z</time>
      </trkpt>
      <trkpt lat="44.49034" lon="6.42745">
        <ele>1895.6015625</ele>
        <time>2010-05-22T11:06:28Z</time>
      </trkpt>
      <trkpt lat="44.49027" lon="6.42739">
        <ele>1900.2100830078</ele>
        <time>2010-05-22T11:06:36Z</time>
      </trkpt>
      <trkpt lat="44.49019" lon="6.42733">
        <ele>1904.6831054688</ele>
        <time>2010-05-22T11:06:45Z</time>
      </trkpt>
      <trkpt lat="44.49019" lon="6.42731">
        <ele>1904.0725097656</ele>
        <time>2010-05-22T11:06:50Z</time>
      </trkpt>
      <trkpt lat="44.49016" lon="6.42731">
        <ele>1906.6772460938</ele>
        <time>2010-05-22T11:06:56Z</time>
      </trkpt>
      <trkpt lat="44.49014" lon="6.42728">
        <ele>1908.3492431641</ele>
        <time>2010-05-22T11:07:01Z</time>
      </trkpt>
      <trkpt lat="44.49009" lon="6.42725">
        <ele>1911.8302001953</ele>
        <time>2010-05-22T11:07:07Z</time>
      </trkpt>
      <trkpt lat="44.49004" lon="6.42725">
        <ele>1916.7149658203</ele>
        <time>2010-05-22T11:07:12Z</time>
      </trkpt>
      <trkpt lat="44.49" lon="6.42724">
        <ele>1920.6823730469</ele>
        <time>2010-05-22T11:07:19Z</time>
      </trkpt>
      <trkpt lat="44.48997" lon="6.4272">
        <ele>1921.3703613281</ele>
        <time>2010-05-22T11:07:27Z</time>
      </trkpt>
      <trkpt lat="44.48994" lon="6.42711">
        <ele>1923.0594482422</ele>
        <time>2010-05-22T11:07:38Z</time>
      </trkpt>
      <trkpt lat="44.48993" lon="6.42706">
        <ele>1923.4165039062</ele>
        <time>2010-05-22T11:07:44Z</time>
      </trkpt>
      <trkpt lat="44.48991" lon="6.427">
        <ele>1924.1684570312</ele>
        <time>2010-05-22T11:07:50Z</time>
      </trkpt>
      <trkpt lat="44.48989" lon="6.42697">
        <ele>1925.0782470703</ele>
        <time>2010-05-22T11:07:54Z</time>
      </trkpt>
      <trkpt lat="44.48988" lon="6.42688">
        <ele>1925.2840576172</ele>
        <time>2010-05-22T11:08:03Z</time>
      </trkpt>
      <trkpt lat="44.48991" lon="6.42679">
        <ele>1923.9276123047</ele>
        <time>2010-05-22T11:08:10Z</time>
      </trkpt>
      <trkpt lat="44.48992" lon="6.42678">
        <ele>1923.1420898438</ele>
        <time>2010-05-22T11:08:12Z</time>
      </trkpt>
      <trkpt lat="44.48994" lon="6.42669">
        <ele>1921.4981689453</ele>
        <time>2010-05-22T11:08:19Z</time>
      </trkpt>
      <trkpt lat="44.48994" lon="6.42664">
        <ele>1921.7451171875</ele>
        <time>2010-05-22T11:08:25Z</time>
      </trkpt>
      <trkpt lat="44.48994" lon="6.4266">
        <ele>1922.3355712891</ele>
        <time>2010-05-22T11:08:29Z</time>
      </trkpt>
      <trkpt lat="44.48994" lon="6.42658">
        <ele>1922.5462646484</ele>
        <time>2010-05-22T11:08:36Z</time>
      </trkpt>
      <trkpt lat="44.48984" lon="6.42656">
        <ele>1930.2142333984</ele>
        <time>2010-05-22T11:09:26Z</time>
      </trkpt>
      <trkpt lat="44.48997" lon="6.42663">
        <ele>1919.5093994141</ele>
        <time>2010-05-22T11:10:18Z</time>
      </trkpt>
      <trkpt lat="44.48997" lon="6.42654">
        <ele>1920.5269775391</ele>
        <time>2010-05-22T11:10:25Z</time>
      </trkpt>
      <trkpt lat="44.48994" lon="6.42642">
        <ele>1923.9411621094</ele>
        <time>2010-05-22T11:11:23Z</time>
      </trkpt>
      <trkpt lat="44.48993" lon="6.42639">
        <ele>1924.5632324219</ele>
        <time>2010-05-22T11:11:28Z</time>
      </trkpt>
      <trkpt lat="44.48995" lon="6.42633">
        <ele>1924.1906738281</ele>
        <time>2010-05-22T11:11:35Z</time>
      </trkpt>
      <trkpt lat="44.48996" lon="6.42631">
        <ele>1923.8243408203</ele>
        <time>2010-05-22T11:11:37Z</time>
      </trkpt>
      <trkpt lat="44.48997" lon="6.42623">
        <ele>1923.6655273438</ele>
        <time>2010-05-22T11:11:44Z</time>
      </trkpt>
      <trkpt lat="44.48998" lon="6.42618">
        <ele>1923.4901123047</ele>
        <time>2010-05-22T11:11:53Z</time>
      </trkpt>
      <trkpt lat="44.49003" lon="6.42609">
        <ele>1920.4842529297</ele>
        <time>2010-05-22T11:12:01Z</time>
      </trkpt>
      <trkpt lat="44.49006" lon="6.42608">
        <ele>1917.7221679688</ele>
        <time>2010-05-22T11:12:03Z</time>
      </trkpt>
      <trkpt lat="44.49007" lon="6.42601">
        <ele>1918.546875</ele>
        <time>2010-05-22T11:12:11Z</time>
      </trkpt>
      <trkpt lat="44.49008" lon="6.42595">
        <ele>1918.4415283203</ele>
        <time>2010-05-22T11:12:17Z</time>
      </trkpt>
      <trkpt lat="44.49009" lon="6.42594">
        <ele>1917.6975097656</ele>
        <time>2010-05-22T11:12:22Z</time>
      </trkpt>
      <trkpt lat="44.49012" lon="6.4259">
        <ele>1915.3809814453</ele>
        <time>2010-05-22T11:12:31Z</time>
      </trkpt>
      <trkpt lat="44.49012" lon="6.42585">
        <ele>1917.1791992188</ele>
        <time>2010-05-22T11:12:39Z</time>
      </trkpt>
      <trkpt lat="44.49014" lon="6.42579">
        <ele>1914.9097900391</ele>
        <time>2010-05-22T11:12:47Z</time>
      </trkpt>
      <trkpt lat="44.49023" lon="6.4257">
        <ele>1904.6104736328</ele>
        <time>2010-05-22T11:12:55Z</time>
      </trkpt>
      <trkpt lat="44.49026" lon="6.42562">
        <ele>1901.35546875</ele>
        <time>2010-05-22T11:13:00Z</time>
      </trkpt>
      <trkpt lat="44.49028" lon="6.42551">
        <ele>1899.8125</ele>
        <time>2010-05-22T11:13:08Z</time>
      </trkpt>
      <trkpt lat="44.49028" lon="6.42544">
        <ele>1899.3385009766</ele>
        <time>2010-05-22T11:13:14Z</time>
      </trkpt>
      <trkpt lat="44.49029" lon="6.42534">
        <ele>1897.7777099609</ele>
        <time>2010-05-22T11:13:23Z</time>
      </trkpt>
      <trkpt lat="44.49029" lon="6.4253">
        <ele>1897.2729492188</ele>
        <time>2010-05-22T11:13:28Z</time>
      </trkpt>
      <trkpt lat="44.49028" lon="6.42529">
        <ele>1898.2554931641</ele>
        <time>2010-05-22T11:13:33Z</time>
      </trkpt>
      <trkpt lat="44.49026" lon="6.42519">
        <ele>1899.0013427734</ele>
        <time>2010-05-22T11:13:37Z</time>
      </trkpt>
      <trkpt lat="44.49022" lon="6.42501">
        <ele>1900.3699951172</ele>
        <time>2010-05-22T11:13:43Z</time>
      </trkpt>
      <trkpt lat="44.49023" lon="6.42498">
        <ele>1898.9725341797</ele>
        <time>2010-05-22T11:13:49Z</time>
      </trkpt>
      <trkpt lat="44.49024" lon="6.42492">
        <ele>1897.4346923828</ele>
        <time>2010-05-22T11:13:54Z</time>
      </trkpt>
      <trkpt lat="44.49026" lon="6.42481">
        <ele>1895.1284179688</ele>
        <time>2010-05-22T11:14:09Z</time>
      </trkpt>
      <trkpt lat="44.49023" lon="6.42475">
        <ele>1896.6112060547</ele>
        <time>2010-05-22T11:14:17Z</time>
      </trkpt>
      <trkpt lat="44.4902" lon="6.42471">
        <ele>1898.2341308594</ele>
        <time>2010-05-22T11:14:22Z</time>
      </trkpt>
      <trkpt lat="44.4902" lon="6.42468">
        <ele>1897.7432861328</ele>
        <time>2010-05-22T11:14:27Z</time>
      </trkpt>
      <trkpt lat="44.49023" lon="6.42463">
        <ele>1895.5289306641</ele>
        <time>2010-05-22T11:14:31Z</time>
      </trkpt>
      <trkpt lat="44.49022" lon="6.42451">
        <ele>1895.4185791016</ele>
        <time>2010-05-22T11:14:39Z</time>
      </trkpt>
      <trkpt lat="44.49022" lon="6.42443">
        <ele>1895.0056152344</ele>
        <time>2010-05-22T11:14:45Z</time>
      </trkpt>
      <trkpt lat="44.49023" lon="6.42438">
        <ele>1894.2915039062</ele>
        <time>2010-05-22T11:14:49Z</time>
      </trkpt>
      <trkpt lat="44.49022" lon="6.42435">
        <ele>1895.2819824219</ele>
        <time>2010-05-22T11:14:51Z</time>
      </trkpt>
      <trkpt lat="44.49027" lon="6.42424">
        <ele>1891.4522705078</ele>
        <time>2010-05-22T11:15:00Z</time>
      </trkpt>
      <trkpt lat="44.49025" lon="6.42418">
        <ele>1893.1636962891</ele>
        <time>2010-05-22T11:15:06Z</time>
      </trkpt>
      <trkpt lat="44.49025" lon="6.42413">
        <ele>1893.2048339844</ele>
        <time>2010-05-22T11:15:11Z</time>
      </trkpt>
      <trkpt lat="44.49026" lon="6.42408">
        <ele>1892.6143798828</ele>
        <time>2010-05-22T11:15:17Z</time>
      </trkpt>
      <trkpt lat="44.49025" lon="6.424">
        <ele>1894.7463378906</ele>
        <time>2010-05-22T11:15:24Z</time>
      </trkpt>
      <trkpt lat="44.49029" lon="6.42395">
        <ele>1891.7685546875</ele>
        <time>2010-05-22T11:15:29Z</time>
      </trkpt>
      <trkpt lat="44.49033" lon="6.42392">
        <ele>1888.8751220703</ele>
        <time>2010-05-22T11:15:35Z</time>
      </trkpt>
      <trkpt lat="44.49035" lon="6.42383">
        <ele>1887.6235351562</ele>
        <time>2010-05-22T11:15:43Z</time>
      </trkpt>
      <trkpt lat="44.49029" lon="6.4238">
        <ele>1893.09765625</ele>
        <time>2010-05-22T11:15:50Z</time>
      </trkpt>
      <trkpt lat="44.49029" lon="6.42364">
        <ele>1895.2390136719</ele>
        <time>2010-05-22T11:16:03Z</time>
      </trkpt>
      <trkpt lat="44.49025" lon="6.42355">
        <ele>1899.7532958984</ele>
        <time>2010-05-22T11:16:13Z</time>
      </trkpt>
      <trkpt lat="44.49024" lon="6.42348">
        <ele>1900.6114501953</ele>
        <time>2010-05-22T11:16:17Z</time>
      </trkpt>
      <trkpt lat="44.49024" lon="6.4233">
        <ele>1901.1215820312</ele>
        <time>2010-05-22T11:16:42Z</time>
      </trkpt>
      <trkpt lat="44.49026" lon="6.42316">
        <ele>1900.4395751953</ele>
        <time>2010-05-22T11:16:55Z</time>
      </trkpt>
      <trkpt lat="44.49026" lon="6.42309">
        <ele>1900.7977294922</ele>
        <time>2010-05-22T11:17:00Z</time>
      </trkpt>
      <trkpt lat="44.49026" lon="6.423">
        <ele>1900.6827392578</ele>
        <time>2010-05-22T11:17:11Z</time>
      </trkpt>
      <trkpt lat="44.49024" lon="6.42294">
        <ele>1901.3784179688</ele>
        <time>2010-05-22T11:17:17Z</time>
      </trkpt>
      <trkpt lat="44.49022" lon="6.42291">
        <ele>1902.1961669922</ele>
        <time>2010-05-22T11:17:21Z</time>
      </trkpt>
      <trkpt lat="44.49023" lon="6.42287">
        <ele>1901.6942138672</ele>
        <time>2010-05-22T11:17:25Z</time>
      </trkpt>
      <trkpt lat="44.49027" lon="6.42281">
        <ele>1900.3054199219</ele>
        <time>2010-05-22T11:17:31Z</time>
      </trkpt>
      <trkpt lat="44.49028" lon="6.42275">
        <ele>1899.4560546875</ele>
        <time>2010-05-22T11:17:36Z</time>
      </trkpt>
      <trkpt lat="44.49029" lon="6.42272">
        <ele>1899.1356201172</ele>
        <time>2010-05-22T11:17:38Z</time>
      </trkpt>
      <trkpt lat="44.49024" lon="6.42264">
        <ele>1901.0064697266</ele>
        <time>2010-05-22T11:17:45Z</time>
      </trkpt>
      <trkpt lat="44.49026" lon="6.42257">
        <ele>1900.2803955078</ele>
        <time>2010-05-22T11:17:49Z</time>
      </trkpt>
      <trkpt lat="44.4903" lon="6.42251">
        <ele>1898.7150878906</ele>
        <time>2010-05-22T11:17:55Z</time>
      </trkpt>
      <trkpt lat="44.49025" lon="6.42244">
        <ele>1900.3834228516</ele>
        <time>2010-05-22T11:18:04Z</time>
      </trkpt>
      <trkpt lat="44.49027" lon="6.42232">
        <ele>1900.0577392578</ele>
        <time>2010-05-22T11:18:11Z</time>
      </trkpt>
      <trkpt lat="44.4903" lon="6.42222">
        <ele>1898.416015625</ele>
        <time>2010-05-22T11:18:16Z</time>
      </trkpt>
      <trkpt lat="44.4903" lon="6.42207">
        <ele>1894.390625</ele>
        <time>2010-05-22T11:18:25Z</time>
      </trkpt>
      <trkpt lat="44.49028" lon="6.42202">
        <ele>1894.1823730469</ele>
        <time>2010-05-22T11:18:32Z</time>
      </trkpt>
      <trkpt lat="44.4903" lon="6.42206">
        <ele>1893.9627685547</ele>
        <time>2010-05-22T11:18:43Z</time>
      </trkpt>
      <trkpt lat="44.4903" lon="6.42204">
        <ele>1893.7385253906</ele>
        <time>2010-05-22T11:18:48Z</time>
      </trkpt>
      <trkpt lat="44.49026" lon="6.42203">
        <ele>1894.7359619141</ele>
        <time>2010-05-22T11:18:54Z</time>
      </trkpt>
      <trkpt lat="44.49014" lon="6.42197">
        <ele>1895.5010986328</ele>
        <time>2010-05-22T11:19:00Z</time>
      </trkpt>
      <trkpt lat="44.49005" lon="6.42198">
        <ele>1897.4730224609</ele>
        <time>2010-05-22T11:19:06Z</time>
      </trkpt>
      <trkpt lat="44.49002" lon="6.422">
        <ele>1898.4769287109</ele>
        <time>2010-05-22T11:19:11Z</time>
      </trkpt>
      <trkpt lat="44.49001" lon="6.422">
        <ele>1898.6036376953</ele>
        <time>2010-05-22T11:19:45Z</time>
      </trkpt>
      <trkpt lat="44.48996" lon="6.42198">
        <ele>1898.7796630859</ele>
        <time>2010-05-22T11:19:49Z</time>
      </trkpt>
      <trkpt lat="44.48997" lon="6.42191">
        <ele>1897.3518066406</ele>
        <time>2010-05-22T11:20:25Z</time>
      </trkpt>
      <trkpt lat="44.48992" lon="6.42189">
        <ele>1897.2041015625</ele>
        <time>2010-05-22T11:20:44Z</time>
      </trkpt>
      <trkpt lat="44.48981" lon="6.42185">
        <ele>1897.0837402344</ele>
        <time>2010-05-22T11:20:51Z</time>
      </trkpt>
      <trkpt lat="44.48967" lon="6.42179">
        <ele>1897.0285644531</ele>
        <time>2010-05-22T11:20:56Z</time>
      </trkpt>
      <trkpt lat="44.4896" lon="6.42179">
        <ele>1897.2943115234</ele>
        <time>2010-05-22T11:21:01Z</time>
      </trkpt>
      <trkpt lat="44.4896" lon="6.42185">
        <ele>1897.9107666016</ele>
        <time>2010-05-22T11:21:18Z</time>
      </trkpt>
      <trkpt lat="44.48959" lon="6.42188">
        <ele>1898.3231201172</ele>
        <time>2010-05-22T11:21:22Z</time>
      </trkpt>
      <trkpt lat="44.48958" lon="6.4219">
        <ele>1898.4987792969</ele>
        <time>2010-05-22T11:21:29Z</time>
      </trkpt>
      <trkpt lat="44.48951" lon="6.42192">
        <ele>1898.7829589844</ele>
        <time>2010-05-22T11:22:06Z</time>
      </trkpt>
      <trkpt lat="44.48958" lon="6.42191">
        <ele>1898.5948486328</ele>
        <time>2010-05-22T11:22:25Z</time>
      </trkpt>
      <trkpt lat="44.48953" lon="6.42201">
        <ele>1900.1248779297</ele>
        <time>2010-05-22T11:22:47Z</time>
      </trkpt>
      <trkpt lat="44.48952" lon="6.422">
        <ele>1899.9642333984</ele>
        <time>2010-05-22T11:22:58Z</time>
      </trkpt>
      <trkpt lat="44.48957" lon="6.42198">
        <ele>1899.7454833984</ele>
        <time>2010-05-22T11:23:24Z</time>
      </trkpt>
      <trkpt lat="44.48954" lon="6.42194">
        <ele>1898.9647216797</ele>
        <time>2010-05-22T11:23:45Z</time>
      </trkpt>
      <trkpt lat="44.48951" lon="6.42197">
        <ele>1899.4350585938</ele>
        <time>2010-05-22T11:23:53Z</time>
      </trkpt>
      <trkpt lat="44.48939" lon="6.42205">
        <ele>1900.3026123047</ele>
        <time>2010-05-22T11:24:01Z</time>
      </trkpt>
      <trkpt lat="44.4893" lon="6.42209">
        <ele>1900.5805664062</ele>
        <time>2010-05-22T11:24:10Z</time>
      </trkpt>
      <trkpt lat="44.48924" lon="6.4221">
        <ele>1900.4353027344</ele>
        <time>2010-05-22T11:24:16Z</time>
      </trkpt>
      <trkpt lat="44.48916" lon="6.42211">
        <ele>1900.4426269531</ele>
        <time>2010-05-22T11:24:23Z</time>
      </trkpt>
      <trkpt lat="44.48909" lon="6.42211">
        <ele>1902.8081054688</ele>
        <time>2010-05-22T11:24:29Z</time>
      </trkpt>
      <trkpt lat="44.48896" lon="6.42211">
        <ele>1906.986328125</ele>
        <time>2010-05-22T11:24:38Z</time>
      </trkpt>
      <trkpt lat="44.4889" lon="6.42206">
        <ele>1908.630859375</ele>
        <time>2010-05-22T11:24:45Z</time>
      </trkpt>
      <trkpt lat="44.48886" lon="6.42204">
        <ele>1908.5805664062</ele>
        <time>2010-05-22T11:24:50Z</time>
      </trkpt>
      <trkpt lat="44.48883" lon="6.42202">
        <ele>1908.3922119141</ele>
        <time>2010-05-22T11:24:54Z</time>
      </trkpt>
      <trkpt lat="44.48883" lon="6.42195">
        <ele>1907.8006591797</ele>
        <time>2010-05-22T11:25:05Z</time>
      </trkpt>
      <trkpt lat="44.48878" lon="6.42188">
        <ele>1906.9078369141</ele>
        <time>2010-05-22T11:25:12Z</time>
      </trkpt>
      <trkpt lat="44.48875" lon="6.42182">
        <ele>1906.2058105469</ele>
        <time>2010-05-22T11:25:18Z</time>
      </trkpt>
      <trkpt lat="44.48869" lon="6.4218">
        <ele>1905.6856689453</ele>
        <time>2010-05-22T11:25:24Z</time>
      </trkpt>
      <trkpt lat="44.48864" lon="6.42179">
        <ele>1905.4436035156</ele>
        <time>2010-05-22T11:25:32Z</time>
      </trkpt>
      <trkpt lat="44.4886" lon="6.42177">
        <ele>1905.1680908203</ele>
        <time>2010-05-22T11:25:41Z</time>
      </trkpt>
      <trkpt lat="44.48857" lon="6.42175">
        <ele>1905.2875976562</ele>
        <time>2010-05-22T11:25:55Z</time>
      </trkpt>
      <trkpt lat="44.48849" lon="6.42167">
        <ele>1904.9350585938</ele>
        <time>2010-05-22T11:26:14Z</time>
      </trkpt>
      <trkpt lat="44.48844" lon="6.42167">
        <ele>1905.2026367188</ele>
        <time>2010-05-22T11:26:18Z</time>
      </trkpt>
      <trkpt lat="44.48838" lon="6.42164">
        <ele>1905.0522460938</ele>
        <time>2010-05-22T11:26:24Z</time>
      </trkpt>
      <trkpt lat="44.48833" lon="6.42162">
        <ele>1904.9368896484</ele>
        <time>2010-05-22T11:26:29Z</time>
      </trkpt>
      <trkpt lat="44.48827" lon="6.42163">
        <ele>1906.2756347656</ele>
        <time>2010-05-22T11:26:38Z</time>
      </trkpt>
      <trkpt lat="44.4882" lon="6.42164">
        <ele>1907.4727783203</ele>
        <time>2010-05-22T11:26:45Z</time>
      </trkpt>
      <trkpt lat="44.48817" lon="6.42169">
        <ele>1909.6242675781</ele>
        <time>2010-05-22T11:26:55Z</time>
      </trkpt>
      <trkpt lat="44.48812" lon="6.42167">
        <ele>1909.9002685547</ele>
        <time>2010-05-22T11:27:03Z</time>
      </trkpt>
      <trkpt lat="44.48808" lon="6.42165">
        <ele>1910.1160888672</ele>
        <time>2010-05-22T11:27:07Z</time>
      </trkpt>
      <trkpt lat="44.48807" lon="6.42165">
        <ele>1910.1418457031</ele>
        <time>2010-05-22T11:27:14Z</time>
      </trkpt>
      <trkpt lat="44.48804" lon="6.42162">
        <ele>1909.6740722656</ele>
        <time>2010-05-22T11:27:20Z</time>
      </trkpt>
      <trkpt lat="44.48811" lon="6.42155">
        <ele>1906.6683349609</ele>
        <time>2010-05-22T11:27:42Z</time>
      </trkpt>
      <trkpt lat="44.48801" lon="6.42153">
        <ele>1907.0880126953</ele>
        <time>2010-05-22T11:28:08Z</time>
      </trkpt>
      <trkpt lat="44.48802" lon="6.42156">
        <ele>1908.0366210938</ele>
        <time>2010-05-22T11:28:24Z</time>
      </trkpt>
      <trkpt lat="44.48798" lon="6.42155">
        <ele>1908.4353027344</ele>
        <time>2010-05-22T11:28:31Z</time>
      </trkpt>
      <trkpt lat="44.48783" lon="6.42153">
        <ele>1909.2922363281</ele>
        <time>2010-05-22T11:28:39Z</time>
      </trkpt>
      <trkpt lat="44.48768" lon="6.42156">
        <ele>1911.2189941406</ele>
        <time>2010-05-22T11:28:44Z</time>
      </trkpt>
      <trkpt lat="44.48756" lon="6.42157">
        <ele>1912.0224609375</ele>
        <time>2010-05-22T11:28:48Z</time>
      </trkpt>
      <trkpt lat="44.48742" lon="6.42155">
        <ele>1910.4953613281</ele>
        <time>2010-05-22T11:28:55Z</time>
      </trkpt>
      <trkpt lat="44.48727" lon="6.42153">
        <ele>1908.6524658203</ele>
        <time>2010-05-22T11:29:01Z</time>
      </trkpt>
      <trkpt lat="44.48703" lon="6.42153">
        <ele>1910.0537109375</ele>
        <time>2010-05-22T11:29:09Z</time>
      </trkpt>
      <trkpt lat="44.48687" lon="6.42152">
        <ele>1910.5598144531</ele>
        <time>2010-05-22T11:29:16Z</time>
      </trkpt>
      <trkpt lat="44.48674" lon="6.42153">
        <ele>1911.5262451172</ele>
        <time>2010-05-22T11:29:22Z</time>
      </trkpt>
      <trkpt lat="44.48661" lon="6.42143">
        <ele>1909.6844482422</ele>
        <time>2010-05-22T11:29:28Z</time>
      </trkpt>
      <trkpt lat="44.48653" lon="6.42141">
        <ele>1908.8502197266</ele>
        <time>2010-05-22T11:29:32Z</time>
      </trkpt>
      <trkpt lat="44.48644" lon="6.42144">
        <ele>1909.3171386719</ele>
        <time>2010-05-22T11:29:38Z</time>
      </trkpt>
      <trkpt lat="44.48632" lon="6.42149">
        <ele>1909.9110107422</ele>
        <time>2010-05-22T11:29:46Z</time>
      </trkpt>
      <trkpt lat="44.48618" lon="6.42149">
        <ele>1909.5505371094</ele>
        <time>2010-05-22T11:29:53Z</time>
      </trkpt>
      <trkpt lat="44.48599" lon="6.42155">
        <ele>1909.7583007812</ele>
        <time>2010-05-22T11:30:01Z</time>
      </trkpt>
      <trkpt lat="44.48583" lon="6.42162">
        <ele>1910.7838134766</ele>
        <time>2010-05-22T11:30:08Z</time>
      </trkpt>
      <trkpt lat="44.48573" lon="6.42165">
        <ele>1911.6115722656</ele>
        <time>2010-05-22T11:30:13Z</time>
      </trkpt>
      <trkpt lat="44.4856" lon="6.42172">
        <ele>1913.3572998047</ele>
        <time>2010-05-22T11:30:19Z</time>
      </trkpt>
      <trkpt lat="44.48544" lon="6.42174">
        <ele>1914.4705810547</ele>
        <time>2010-05-22T11:30:26Z</time>
      </trkpt>
      <trkpt lat="44.48528" lon="6.42176">
        <ele>1915.3990478516</ele>
        <time>2010-05-22T11:30:32Z</time>
      </trkpt>
      <trkpt lat="44.4852" lon="6.42177">
        <ele>1915.5583496094</ele>
        <time>2010-05-22T11:30:36Z</time>
      </trkpt>
      <trkpt lat="44.48507" lon="6.42178">
        <ele>1915.8106689453</ele>
        <time>2010-05-22T11:30:45Z</time>
      </trkpt>
      <trkpt lat="44.48494" lon="6.42178">
        <ele>1916.0936279297</ele>
        <time>2010-05-22T11:30:52Z</time>
      </trkpt>
      <trkpt lat="44.48478" lon="6.42184">
        <ele>1917.8854980469</ele>
        <time>2010-05-22T11:31:00Z</time>
      </trkpt>
      <trkpt lat="44.4846" lon="6.42188">
        <ele>1919.4591064453</ele>
        <time>2010-05-22T11:31:08Z</time>
      </trkpt>
      <trkpt lat="44.48443" lon="6.42191">
        <ele>1920.6304931641</ele>
        <time>2010-05-22T11:31:15Z</time>
      </trkpt>
      <trkpt lat="44.48421" lon="6.42191">
        <ele>1920.8559570312</ele>
        <time>2010-05-22T11:31:20Z</time>
      </trkpt>
      <trkpt lat="44.48403" lon="6.42191">
        <ele>1920.8598632812</ele>
        <time>2010-05-22T11:31:26Z</time>
      </trkpt>
      <trkpt lat="44.48387" lon="6.42192">
        <ele>1920.9113769531</ele>
        <time>2010-05-22T11:31:32Z</time>
      </trkpt>
      <trkpt lat="44.48382" lon="6.42194">
        <ele>1920.9697265625</ele>
        <time>2010-05-22T11:31:37Z</time>
      </trkpt>
      <trkpt lat="44.48375" lon="6.42203">
        <ele>1921.1618652344</ele>
        <time>2010-05-22T11:31:44Z</time>
      </trkpt>
      <trkpt lat="44.48363" lon="6.42213">
        <ele>1921.0568847656</ele>
        <time>2010-05-22T11:31:49Z</time>
      </trkpt>
      <trkpt lat="44.48355" lon="6.42218">
        <ele>1920.7973632812</ele>
        <time>2010-05-22T11:31:53Z</time>
      </trkpt>
      <trkpt lat="44.48355" lon="6.42227">
        <ele>1920.9031982422</ele>
        <time>2010-05-22T11:31:58Z</time>
      </trkpt>
      <trkpt lat="44.48358" lon="6.42233">
        <ele>1921.2292480469</ele>
        <time>2010-05-22T11:32:04Z</time>
      </trkpt>
      <trkpt lat="44.48362" lon="6.42235">
        <ele>1921.5043945312</ele>
        <time>2010-05-22T11:32:30Z</time>
      </trkpt>
      <trkpt lat="44.48363" lon="6.42235">
        <ele>1921.5438232422</ele>
        <time>2010-05-22T11:32:35Z</time>
      </trkpt>
      <trkpt lat="44.48354" lon="6.42213">
        <ele>1920.7287597656</ele>
        <time>2010-05-22T11:33:01Z</time>
      </trkpt>
      <trkpt lat="44.48352" lon="6.42212">
        <ele>1920.673828125</ele>
        <time>2010-05-22T11:33:08Z</time>
      </trkpt>
      <trkpt lat="44.48357" lon="6.42217">
        <ele>1920.8660888672</ele>
        <time>2010-05-22T11:34:44Z</time>
      </trkpt>
      <trkpt lat="44.48368" lon="6.42225">
        <ele>1921.3481445312</ele>
        <time>2010-05-22T11:35:03Z</time>
      </trkpt>
      <trkpt lat="44.48369" lon="6.42218">
        <ele>1921.2456054688</ele>
        <time>2010-05-22T11:35:15Z</time>
      </trkpt>
      <trkpt lat="44.48361" lon="6.42215">
        <ele>1921.0025634766</ele>
        <time>2010-05-22T11:35:39Z</time>
      </trkpt>
      <trkpt lat="44.48357" lon="6.42213">
        <ele>1920.8660888672</ele>
        <time>2010-05-22T11:35:51Z</time>
      </trkpt>
      <trkpt lat="44.4835" lon="6.42207">
        <ele>1920.6052246094</ele>
        <time>2010-05-22T11:36:04Z</time>
      </trkpt>
      <trkpt lat="44.48357" lon="6.4222">
        <ele>1920.8660888672</ele>
        <time>2010-05-22T11:36:24Z</time>
      </trkpt>
      <trkpt lat="44.48352" lon="6.42216">
        <ele>1920.66015625</ele>
        <time>2010-05-22T11:39:02Z</time>
      </trkpt>
      <trkpt lat="44.4836" lon="6.42227">
        <ele>1921.1011962891</ele>
        <time>2010-05-22T11:39:14Z</time>
      </trkpt>
      <trkpt lat="44.48367" lon="6.42226">
        <ele>1921.3361816406</ele>
        <time>2010-05-22T11:39:31Z</time>
      </trkpt>
      <trkpt lat="44.48358" lon="6.42225">
        <ele>1920.9716796875</ele>
        <time>2010-05-22T11:41:17Z</time>
      </trkpt>
      <trkpt lat="44.48361" lon="6.42223">
        <ele>1921.0267333984</ele>
        <time>2010-05-22T11:41:39Z</time>
      </trkpt>
      <trkpt lat="44.48361" lon="6.42224">
        <ele>1921.0786132812</ele>
        <time>2010-05-22T11:41:45Z</time>
      </trkpt>
      <trkpt lat="44.48353" lon="6.42223">
        <ele>1920.7119140625</ele>
        <time>2010-05-22T11:41:55Z</time>
      </trkpt>
      <trkpt lat="44.48361" lon="6.42234">
        <ele>1921.4226074219</ele>
        <time>2010-05-22T11:42:16Z</time>
      </trkpt>
      <trkpt lat="44.48368" lon="6.42243">
        <ele>1921.9678955078</ele>
        <time>2010-05-22T11:42:44Z</time>
      </trkpt>
      <trkpt lat="44.48368" lon="6.42241">
        <ele>1921.9334716797</ele>
        <time>2010-05-22T11:42:57Z</time>
      </trkpt>
      <trkpt lat="44.48367" lon="6.42238">
        <ele>1921.791015625</ele>
        <time>2010-05-22T11:43:06Z</time>
      </trkpt>
      <trkpt lat="44.48367" lon="6.42238">
        <ele>1921.7550048828</ele>
        <time>2010-05-22T11:43:17Z</time>
      </trkpt>
      <trkpt lat="44.48365" lon="6.42236">
        <ele>1921.6279296875</ele>
        <time>2010-05-22T11:43:34Z</time>
      </trkpt>
      <trkpt lat="44.48362" lon="6.42233">
        <ele>1921.3928222656</ele>
        <time>2010-05-22T11:43:45Z</time>
      </trkpt>
      <trkpt lat="44.48363" lon="6.42233">
        <ele>1921.4545898438</ele>
        <time>2010-05-22T11:44:03Z</time>
      </trkpt>
      <trkpt lat="44.48362" lon="6.42233">
        <ele>1921.4339599609</ele>
        <time>2010-05-22T11:44:27Z</time>
      </trkpt>
      <trkpt lat="44.48362" lon="6.42233">
        <ele>1921.4116210938</ele>
        <time>2010-05-22T11:44:44Z</time>
      </trkpt>
      <trkpt lat="44.48361" lon="6.42233">
        <ele>1921.3807373047</ele>
        <time>2010-05-22T11:44:54Z</time>
      </trkpt>
      <trkpt lat="44.48354" lon="6.42231">
        <ele>1920.9653320312</ele>
        <time>2010-05-22T11:45:22Z</time>
      </trkpt>
      <trkpt lat="44.48353" lon="6.42229">
        <ele>1920.8878173828</ele>
        <time>2010-05-22T11:45:41Z</time>
      </trkpt>
      <trkpt lat="44.48354" lon="6.42232">
        <ele>1921.0150146484</ele>
        <time>2010-05-22T11:46:06Z</time>
      </trkpt>
      <trkpt lat="44.48363" lon="6.42237">
        <ele>1921.5729980469</ele>
        <time>2010-05-22T11:48:36Z</time>
      </trkpt>
      <trkpt lat="44.48362" lon="6.42236">
        <ele>1921.5404052734</ele>
        <time>2010-05-22T11:48:57Z</time>
      </trkpt>
      <trkpt lat="44.48363" lon="6.42236">
        <ele>1921.5764160156</ele>
        <time>2010-05-22T11:49:36Z</time>
      </trkpt>
      <trkpt lat="44.48363" lon="6.42234">
        <ele>1921.4665527344</ele>
        <time>2010-05-22T11:50:09Z</time>
      </trkpt>
      <trkpt lat="44.48373" lon="6.42242">
        <ele>1922.1395263672</ele>
        <time>2010-05-22T11:50:54Z</time>
      </trkpt>
      <trkpt lat="44.48362" lon="6.42234">
        <ele>1921.4460449219</ele>
        <time>2010-05-22T11:51:35Z</time>
      </trkpt>
      <trkpt lat="44.48356" lon="6.42228">
        <ele>1920.9919433594</ele>
        <time>2010-05-22T11:51:58Z</time>
      </trkpt>
      <trkpt lat="44.48364" lon="6.42237">
        <ele>1921.6417236328</ele>
        <time>2010-05-22T11:52:18Z</time>
      </trkpt>
      <trkpt lat="44.48358" lon="6.42233">
        <ele>1921.2307128906</ele>
        <time>2010-05-22T11:54:28Z</time>
      </trkpt>
      <trkpt lat="44.48363" lon="6.42238">
        <ele>1921.6383056641</ele>
        <time>2010-05-22T11:54:59Z</time>
      </trkpt>
      <trkpt lat="44.48362" lon="6.42236">
        <ele>1921.5163574219</ele>
        <time>2010-05-22T11:55:20Z</time>
      </trkpt>
      <trkpt lat="44.48359" lon="6.42233">
        <ele>1921.255859375</ele>
        <time>2010-05-22T11:55:38Z</time>
      </trkpt>
      <trkpt lat="44.4836" lon="6.42234">
        <ele>1921.3811035156</ele>
        <time>2010-05-22T11:57:07Z</time>
      </trkpt>
      <trkpt lat="44.48362" lon="6.42236">
        <ele>1921.5249023438</ele>
        <time>2010-05-22T11:57:25Z</time>
      </trkpt>
      <trkpt lat="44.48357" lon="6.4223">
        <ele>1921.0905761719</ele>
        <time>2010-05-22T11:57:53Z</time>
      </trkpt>
      <trkpt lat="44.48357" lon="6.4223">
        <ele>1921.1022949219</ele>
        <time>2010-05-22T11:58:05Z</time>
      </trkpt>
      <trkpt lat="44.48358" lon="6.42231">
        <ele>1921.1589355469</ele>
        <time>2010-05-22T11:58:35Z</time>
      </trkpt>
      <trkpt lat="44.4836" lon="6.42234">
        <ele>1921.3911132812</ele>
        <time>2010-05-22T11:59:09Z</time>
      </trkpt>
      <trkpt lat="44.4837" lon="6.42243">
        <ele>1922.0502929688</ele>
        <time>2010-05-22T11:59:41Z</time>
      </trkpt>
      <trkpt lat="44.48368" lon="6.42241">
        <ele>1921.9541015625</ele>
        <time>2010-05-22T11:59:56Z</time>
      </trkpt>
      <trkpt lat="44.48366" lon="6.4224">
        <ele>1921.8236083984</ele>
        <time>2010-05-22T12:00:25Z</time>
      </trkpt>
      <trkpt lat="44.48365" lon="6.42239">
        <ele>1921.7601318359</ele>
        <time>2010-05-22T12:00:37Z</time>
      </trkpt>
      <trkpt lat="44.48363" lon="6.42236">
        <ele>1921.5747070312</ele>
        <time>2010-05-22T12:01:47Z</time>
      </trkpt>
      <trkpt lat="44.48358" lon="6.42231">
        <ele>1921.1468505859</ele>
        <time>2010-05-22T12:02:02Z</time>
      </trkpt>
      <trkpt lat="44.48365" lon="6.42239">
        <ele>1921.7309570312</ele>
        <time>2010-05-22T12:02:34Z</time>
      </trkpt>
      <trkpt lat="44.48366" lon="6.4224">
        <ele>1921.8236083984</ele>
        <time>2010-05-22T12:03:07Z</time>
      </trkpt>
      <trkpt lat="44.48363" lon="6.42237">
        <ele>1921.607421875</ele>
        <time>2010-05-22T12:03:29Z</time>
      </trkpt>
      <trkpt lat="44.48358" lon="6.42228">
        <ele>1921.0727539062</ele>
        <time>2010-05-22T12:03:47Z</time>
      </trkpt>
      <trkpt lat="44.48355" lon="6.42225">
        <ele>1920.8752441406</ele>
        <time>2010-05-22T12:04:06Z</time>
      </trkpt>
      <trkpt lat="44.48358" lon="6.42228">
        <ele>1921.0804443359</ele>
        <time>2010-05-22T12:04:37Z</time>
      </trkpt>
      <trkpt lat="44.48365" lon="6.42235">
        <ele>1921.5764160156</ele>
        <time>2010-05-22T12:06:13Z</time>
      </trkpt>
      <trkpt lat="44.48368" lon="6.42233">
        <ele>1921.6262207031</ele>
        <time>2010-05-22T12:06:40Z</time>
      </trkpt>
      <trkpt lat="44.48376" lon="6.42229">
        <ele>1921.7807617188</ele>
        <time>2010-05-22T12:06:55Z</time>
      </trkpt>
      <trkpt lat="44.48381" lon="6.42226">
        <ele>1921.8751220703</ele>
        <time>2010-05-22T12:07:07Z</time>
      </trkpt>
      <trkpt lat="44.48382" lon="6.42227">
        <ele>1921.9370117188</ele>
        <time>2010-05-22T12:07:29Z</time>
      </trkpt>
      <trkpt lat="44.48379" lon="6.42229">
        <ele>1921.8889160156</ele>
        <time>2010-05-22T12:07:43Z</time>
      </trkpt>
      <trkpt lat="44.48376" lon="6.4223">
        <ele>1921.8150634766</ele>
        <time>2010-05-22T12:08:10Z</time>
      </trkpt>
      <trkpt lat="44.48375" lon="6.42231">
        <ele>1921.8031005859</ele>
        <time>2010-05-22T12:08:23Z</time>
      </trkpt>
      <trkpt lat="44.48374" lon="6.42231">
        <ele>1921.7824707031</ele>
        <time>2010-05-22T12:08:38Z</time>
      </trkpt>
      <trkpt lat="44.48372" lon="6.42232">
        <ele>1921.7567138672</ele>
        <time>2010-05-22T12:09:00Z</time>
      </trkpt>
      <trkpt lat="44.48371" lon="6.42235">
        <ele>1921.8065185547</ele>
        <time>2010-05-22T12:10:27Z</time>
      </trkpt>
      <trkpt lat="44.4837" lon="6.42234">
        <ele>1921.7154541016</ele>
        <time>2010-05-22T12:16:50Z</time>
      </trkpt>
      <trkpt lat="44.48367" lon="6.42238">
        <ele>1921.7944335938</ele>
        <time>2010-05-22T12:16:59Z</time>
      </trkpt>
      <trkpt lat="44.48365" lon="6.42239">
        <ele>1921.7532958984</ele>
        <time>2010-05-22T12:18:59Z</time>
      </trkpt>
      <trkpt lat="44.48362" lon="6.42243">
        <ele>1921.7841796875</ele>
        <time>2010-05-22T12:19:08Z</time>
      </trkpt>
      <trkpt lat="44.48365" lon="6.42248">
        <ele>1922.0690917969</ele>
        <time>2010-05-22T12:19:15Z</time>
      </trkpt>
      <trkpt lat="44.48368" lon="6.42252">
        <ele>1922.2822265625</ele>
        <time>2010-05-22T12:19:22Z</time>
      </trkpt>
      <trkpt lat="44.48374" lon="6.42261">
        <ele>1922.6339111328</ele>
        <time>2010-05-22T12:19:30Z</time>
      </trkpt>
      <trkpt lat="44.48374" lon="6.42262">
        <ele>1922.6796875</ele>
        <time>2010-05-22T12:19:31Z</time>
      </trkpt>
      <trkpt lat="44.48381" lon="6.42271">
        <ele>1923.228515625</ele>
        <time>2010-05-22T12:19:40Z</time>
      </trkpt>
      <trkpt lat="44.48384" lon="6.42272">
        <ele>1923.4565429688</ele>
        <time>2010-05-22T12:19:48Z</time>
      </trkpt>
      <trkpt lat="44.48391" lon="6.42277">
        <ele>1924.1284179688</ele>
        <time>2010-05-22T12:19:56Z</time>
      </trkpt>
      <trkpt lat="44.48394" lon="6.42287">
        <ele>1924.7824707031</ele>
        <time>2010-05-22T12:20:04Z</time>
      </trkpt>
      <trkpt lat="44.48397" lon="6.42297">
        <ele>1925.4945068359</ele>
        <time>2010-05-22T12:20:13Z</time>
      </trkpt>
      <trkpt lat="44.48394" lon="6.42307">
        <ele>1925.6787109375</ele>
        <time>2010-05-22T12:20:21Z</time>
      </trkpt>
      <trkpt lat="44.48394" lon="6.42312">
        <ele>1926.0250244141</ele>
        <time>2010-05-22T12:20:28Z</time>
      </trkpt>
      <trkpt lat="44.48389" lon="6.42321">
        <ele>1926.1644287109</ele>
        <time>2010-05-22T12:20:38Z</time>
      </trkpt>
      <trkpt lat="44.48387" lon="6.42329">
        <ele>1926.6066894531</ele>
        <time>2010-05-22T12:20:44Z</time>
      </trkpt>
      <trkpt lat="44.48385" lon="6.42334">
        <ele>1926.9924316406</ele>
        <time>2010-05-22T12:20:48Z</time>
      </trkpt>
      <trkpt lat="44.48384" lon="6.42345">
        <ele>1928.4676513672</ele>
        <time>2010-05-22T12:20:56Z</time>
      </trkpt>
      <trkpt lat="44.48384" lon="6.42355">
        <ele>1929.724609375</ele>
        <time>2010-05-22T12:21:03Z</time>
      </trkpt>
      <trkpt lat="44.48385" lon="6.4236">
        <ele>1930.6112060547</ele>
        <time>2010-05-22T12:21:08Z</time>
      </trkpt>
      <trkpt lat="44.48383" lon="6.42371">
        <ele>1931.9189453125</ele>
        <time>2010-05-22T12:21:17Z</time>
      </trkpt>
      <trkpt lat="44.48377" lon="6.42381">
        <ele>1932.9626464844</ele>
        <time>2010-05-22T12:21:26Z</time>
      </trkpt>
      <trkpt lat="44.48377" lon="6.4239">
        <ele>1934.2684326172</ele>
        <time>2010-05-22T12:21:35Z</time>
      </trkpt>
      <trkpt lat="44.48375" lon="6.42397">
        <ele>1934.9404296875</ele>
        <time>2010-05-22T12:21:43Z</time>
      </trkpt>
      <trkpt lat="44.48369" lon="6.42403">
        <ele>1935.2137451172</ele>
        <time>2010-05-22T12:21:50Z</time>
      </trkpt>
      <trkpt lat="44.48365" lon="6.42407">
        <ele>1935.2485351562</ele>
        <time>2010-05-22T12:21:54Z</time>
      </trkpt>
      <trkpt lat="44.48357" lon="6.42419">
        <ele>1935.4632568359</ele>
        <time>2010-05-22T12:22:06Z</time>
      </trkpt>
      <trkpt lat="44.48352" lon="6.42427">
        <ele>1935.4476318359</ele>
        <time>2010-05-22T12:22:15Z</time>
      </trkpt>
      <trkpt lat="44.48347" lon="6.42432">
        <ele>1935.5322265625</ele>
        <time>2010-05-22T12:22:22Z</time>
      </trkpt>
      <trkpt lat="44.48347" lon="6.42437">
        <ele>1936.4909667969</ele>
        <time>2010-05-22T12:22:27Z</time>
      </trkpt>
      <trkpt lat="44.48341" lon="6.42443">
        <ele>1936.8001708984</ele>
        <time>2010-05-22T12:22:35Z</time>
      </trkpt>
      <trkpt lat="44.48336" lon="6.42448">
        <ele>1937.2996826172</ele>
        <time>2010-05-22T12:22:43Z</time>
      </trkpt>
      <trkpt lat="44.4833" lon="6.42452">
        <ele>1936.7404785156</ele>
        <time>2010-05-22T12:22:53Z</time>
      </trkpt>
      <trkpt lat="44.48329" lon="6.42455">
        <ele>1937.3112792969</ele>
        <time>2010-05-22T12:22:58Z</time>
      </trkpt>
      <trkpt lat="44.48328" lon="6.42461">
        <ele>1938.5853271484</ele>
        <time>2010-05-22T12:23:04Z</time>
      </trkpt>
      <trkpt lat="44.48326" lon="6.42464">
        <ele>1938.982421875</ele>
        <time>2010-05-22T12:23:10Z</time>
      </trkpt>
      <trkpt lat="44.48322" lon="6.42467">
        <ele>1938.7778320312</ele>
        <time>2010-05-22T12:23:16Z</time>
      </trkpt>
      <trkpt lat="44.4832" lon="6.42469">
        <ele>1939.0336914062</ele>
        <time>2010-05-22T12:23:22Z</time>
      </trkpt>
      <trkpt lat="44.48311" lon="6.42469">
        <ele>1937.1068115234</ele>
        <time>2010-05-22T12:23:30Z</time>
      </trkpt>
      <trkpt lat="44.48308" lon="6.4247">
        <ele>1936.6727294922</ele>
        <time>2010-05-22T12:23:33Z</time>
      </trkpt>
      <trkpt lat="44.48306" lon="6.42472">
        <ele>1936.9752197266</ele>
        <time>2010-05-22T12:23:37Z</time>
      </trkpt>
      <trkpt lat="44.48299" lon="6.42478">
        <ele>1938.1804199219</ele>
        <time>2010-05-22T12:23:47Z</time>
      </trkpt>
      <trkpt lat="44.48297" lon="6.4248">
        <ele>1938.7977294922</ele>
        <time>2010-05-22T12:23:52Z</time>
      </trkpt>
      <trkpt lat="44.48291" lon="6.42487">
        <ele>1940.3317871094</ele>
        <time>2010-05-22T12:24:03Z</time>
      </trkpt>
      <trkpt lat="44.48289" lon="6.42491">
        <ele>1941.7586669922</ele>
        <time>2010-05-22T12:24:09Z</time>
      </trkpt>
      <trkpt lat="44.48285" lon="6.42494">
        <ele>1942.5770263672</ele>
        <time>2010-05-22T12:24:16Z</time>
      </trkpt>
      <trkpt lat="44.48279" lon="6.42491">
        <ele>1941.0197753906</ele>
        <time>2010-05-22T12:24:23Z</time>
      </trkpt>
      <trkpt lat="44.48272" lon="6.42493">
        <ele>1941.5864257812</ele>
        <time>2010-05-22T12:24:31Z</time>
      </trkpt>
      <trkpt lat="44.48269" lon="6.42499">
        <ele>1943.7666015625</ele>
        <time>2010-05-22T12:24:37Z</time>
      </trkpt>
      <trkpt lat="44.48269" lon="6.42502">
        <ele>1944.6484375</ele>
        <time>2010-05-22T12:24:39Z</time>
      </trkpt>
      <trkpt lat="44.48266" lon="6.42511">
        <ele>1947.2906494141</ele>
        <time>2010-05-22T12:24:50Z</time>
      </trkpt>
      <trkpt lat="44.48264" lon="6.42514">
        <ele>1948.2734375</ele>
        <time>2010-05-22T12:24:57Z</time>
      </trkpt>
      <trkpt lat="44.48261" lon="6.42518">
        <ele>1949.6507568359</ele>
        <time>2010-05-22T12:25:05Z</time>
      </trkpt>
      <trkpt lat="44.48258" lon="6.42522">
        <ele>1950.8304443359</ele>
        <time>2010-05-22T12:25:11Z</time>
      </trkpt>
      <trkpt lat="44.48253" lon="6.42526">
        <ele>1952.4669189453</ele>
        <time>2010-05-22T12:25:22Z</time>
      </trkpt>
      <trkpt lat="44.48248" lon="6.42532">
        <ele>1954.5662841797</ele>
        <time>2010-05-22T12:25:31Z</time>
      </trkpt>
      <trkpt lat="44.48244" lon="6.42535">
        <ele>1955.7901611328</ele>
        <time>2010-05-22T12:25:35Z</time>
      </trkpt>
      <trkpt lat="44.48241" lon="6.42539">
        <ele>1957.3540039062</ele>
        <time>2010-05-22T12:25:40Z</time>
      </trkpt>
      <trkpt lat="44.48241" lon="6.42541">
        <ele>1957.8020019531</ele>
        <time>2010-05-22T12:25:41Z</time>
      </trkpt>
      <trkpt lat="44.48243" lon="6.42551">
        <ele>1961.0103759766</ele>
        <time>2010-05-22T12:25:47Z</time>
      </trkpt>
      <trkpt lat="44.48241" lon="6.42557">
        <ele>1963.2740478516</ele>
        <time>2010-05-22T12:25:54Z</time>
      </trkpt>
      <trkpt lat="44.48236" lon="6.42558">
        <ele>1963.9302978516</ele>
        <time>2010-05-22T12:26:02Z</time>
      </trkpt>
      <trkpt lat="44.48233" lon="6.4256">
        <ele>1965.2536621094</ele>
        <time>2010-05-22T12:26:09Z</time>
      </trkpt>
      <trkpt lat="44.4823" lon="6.42566">
        <ele>1967.8688964844</ele>
        <time>2010-05-22T12:26:16Z</time>
      </trkpt>
      <trkpt lat="44.48227" lon="6.42567">
        <ele>1968.1165771484</ele>
        <time>2010-05-22T12:26:23Z</time>
      </trkpt>
      <trkpt lat="44.48222" lon="6.42567">
        <ele>1968.2143554688</ele>
        <time>2010-05-22T12:26:30Z</time>
      </trkpt>
      <trkpt lat="44.4822" lon="6.42573">
        <ele>1970.0230712891</ele>
        <time>2010-05-22T12:26:36Z</time>
      </trkpt>
      <trkpt lat="44.48217" lon="6.42577">
        <ele>1971.173828125</ele>
        <time>2010-05-22T12:26:44Z</time>
      </trkpt>
      <trkpt lat="44.48212" lon="6.42578">
        <ele>1970.5992431641</ele>
        <time>2010-05-22T12:26:50Z</time>
      </trkpt>
      <trkpt lat="44.48208" lon="6.42577">
        <ele>1969.8305664062</ele>
        <time>2010-05-22T12:26:55Z</time>
      </trkpt>
      <trkpt lat="44.48206" lon="6.4258">
        <ele>1970.6557617188</ele>
        <time>2010-05-22T12:26:59Z</time>
      </trkpt>
      <trkpt lat="44.48203" lon="6.42591">
        <ele>1974.0460205078</ele>
        <time>2010-05-22T12:27:12Z</time>
      </trkpt>
      <trkpt lat="44.48198" lon="6.42592">
        <ele>1973.8358154297</ele>
        <time>2010-05-22T12:27:17Z</time>
      </trkpt>
      <trkpt lat="44.48194" lon="6.42596">
        <ele>1974.6652832031</ele>
        <time>2010-05-22T12:27:24Z</time>
      </trkpt>
      <trkpt lat="44.4819" lon="6.426">
        <ele>1975.9527587891</ele>
        <time>2010-05-22T12:27:29Z</time>
      </trkpt>
      <trkpt lat="44.48187" lon="6.42604">
        <ele>1977.3775634766</ele>
        <time>2010-05-22T12:27:36Z</time>
      </trkpt>
      <trkpt lat="44.48183" lon="6.42604">
        <ele>1977.3947753906</ele>
        <time>2010-05-22T12:27:44Z</time>
      </trkpt>
      <trkpt lat="44.4818" lon="6.42606">
        <ele>1978.0985107422</ele>
        <time>2010-05-22T12:27:50Z</time>
      </trkpt>
      <trkpt lat="44.48177" lon="6.42607">
        <ele>1978.4761962891</ele>
        <time>2010-05-22T12:27:57Z</time>
      </trkpt>
      <trkpt lat="44.48174" lon="6.42609">
        <ele>1979.4031982422</ele>
        <time>2010-05-22T12:28:02Z</time>
      </trkpt>
      <trkpt lat="44.48169" lon="6.42613">
        <ele>1980.8132324219</ele>
        <time>2010-05-22T12:28:07Z</time>
      </trkpt>
      <trkpt lat="44.48165" lon="6.42615">
        <ele>1982.2795410156</ele>
        <time>2010-05-22T12:28:13Z</time>
      </trkpt>
      <trkpt lat="44.4816" lon="6.42616">
        <ele>1982.8957519531</ele>
        <time>2010-05-22T12:28:22Z</time>
      </trkpt>
      <trkpt lat="44.48156" lon="6.42618">
        <ele>1984.4561767578</ele>
        <time>2010-05-22T12:28:30Z</time>
      </trkpt>
      <trkpt lat="44.48153" lon="6.42619">
        <ele>1985.1685791016</ele>
        <time>2010-05-22T12:28:36Z</time>
      </trkpt>
      <trkpt lat="44.48151" lon="6.42619">
        <ele>1985.2028808594</ele>
        <time>2010-05-22T12:28:43Z</time>
      </trkpt>
      <trkpt lat="44.48146" lon="6.42621">
        <ele>1986.8731689453</ele>
        <time>2010-05-22T12:28:50Z</time>
      </trkpt>
      <trkpt lat="44.48141" lon="6.42623">
        <ele>1988.1828613281</ele>
        <time>2010-05-22T12:28:57Z</time>
      </trkpt>
      <trkpt lat="44.48135" lon="6.42624">
        <ele>1989.4526367188</ele>
        <time>2010-05-22T12:29:06Z</time>
      </trkpt>
      <trkpt lat="44.48131" lon="6.42622">
        <ele>1989.2946777344</ele>
        <time>2010-05-22T12:29:12Z</time>
      </trkpt>
      <trkpt lat="44.48127" lon="6.42622">
        <ele>1989.9768066406</ele>
        <time>2010-05-22T12:29:18Z</time>
      </trkpt>
      <trkpt lat="44.48124" lon="6.42621">
        <ele>1989.57421875</ele>
        <time>2010-05-22T12:29:24Z</time>
      </trkpt>
      <trkpt lat="44.48121" lon="6.42619">
        <ele>1989.2474365234</ele>
        <time>2010-05-22T12:29:30Z</time>
      </trkpt>
      <trkpt lat="44.4812" lon="6.42619">
        <ele>1989.6293945312</ele>
        <time>2010-05-22T12:29:36Z</time>
      </trkpt>
      <trkpt lat="44.48117" lon="6.42616">
        <ele>1988.5690917969</ele>
        <time>2010-05-22T12:29:47Z</time>
      </trkpt>
      <trkpt lat="44.48111" lon="6.42622">
        <ele>1992.4223632812</ele>
        <time>2010-05-22T12:29:54Z</time>
      </trkpt>
      <trkpt lat="44.48106" lon="6.42624">
        <ele>1993.5732421875</ele>
        <time>2010-05-22T12:30:02Z</time>
      </trkpt>
      <trkpt lat="44.48101" lon="6.42624">
        <ele>1994.2177734375</ele>
        <time>2010-05-22T12:30:12Z</time>
      </trkpt>
      <trkpt lat="44.48098" lon="6.42624">
        <ele>1994.4544677734</ele>
        <time>2010-05-22T12:30:17Z</time>
      </trkpt>
      <trkpt lat="44.48093" lon="6.42625">
        <ele>1994.8951416016</ele>
        <time>2010-05-22T12:30:25Z</time>
      </trkpt>
      <trkpt lat="44.48089" lon="6.42626">
        <ele>1995.8411865234</ele>
        <time>2010-05-22T12:30:31Z</time>
      </trkpt>
      <trkpt lat="44.48087" lon="6.42628">
        <ele>1996.9605712891</ele>
        <time>2010-05-22T12:30:37Z</time>
      </trkpt>
      <trkpt lat="44.48082" lon="6.42629">
        <ele>1998.0161132812</ele>
        <time>2010-05-22T12:30:45Z</time>
      </trkpt>
      <trkpt lat="44.48082" lon="6.42628">
        <ele>1997.6041259766</ele>
        <time>2010-05-22T12:30:53Z</time>
      </trkpt>
      <trkpt lat="44.4808" lon="6.42632">
        <ele>1999.9868164062</ele>
        <time>2010-05-22T12:31:07Z</time>
      </trkpt>
      <trkpt lat="44.48082" lon="6.42634">
        <ele>2000.5910644531</ele>
        <time>2010-05-22T12:31:13Z</time>
      </trkpt>
      <trkpt lat="44.48083" lon="6.42636">
        <ele>2001.41015625</ele>
        <time>2010-05-22T12:31:19Z</time>
      </trkpt>
      <trkpt lat="44.48085" lon="6.42636">
        <ele>2001.4338378906</ele>
        <time>2010-05-22T12:31:26Z</time>
      </trkpt>
      <trkpt lat="44.48087" lon="6.42636">
        <ele>2001.380859375</ele>
        <time>2010-05-22T12:31:35Z</time>
      </trkpt>
      <trkpt lat="44.4809" lon="6.42638">
        <ele>2002.1586914062</ele>
        <time>2010-05-22T12:31:42Z</time>
      </trkpt>
      <trkpt lat="44.48093" lon="6.4264">
        <ele>2002.6821289062</ele>
        <time>2010-05-22T12:31:50Z</time>
      </trkpt>
      <trkpt lat="44.48095" lon="6.42644">
        <ele>2003.6357421875</ele>
        <time>2010-05-22T12:31:58Z</time>
      </trkpt>
      <trkpt lat="44.48098" lon="6.42648">
        <ele>2004.4000244141</ele>
        <time>2010-05-22T12:32:06Z</time>
      </trkpt>
      <trkpt lat="44.48104" lon="6.42652">
        <ele>2004.9552001953</ele>
        <time>2010-05-22T12:32:14Z</time>
      </trkpt>
      <trkpt lat="44.48106" lon="6.42654">
        <ele>2005.3937988281</ele>
        <time>2010-05-22T12:32:20Z</time>
      </trkpt>
      <trkpt lat="44.48108" lon="6.42658">
        <ele>2006.1505126953</ele>
        <time>2010-05-22T12:32:27Z</time>
      </trkpt>
      <trkpt lat="44.48108" lon="6.4266">
        <ele>2006.8004150391</ele>
        <time>2010-05-22T12:32:33Z</time>
      </trkpt>
      <trkpt lat="44.48108" lon="6.42662">
        <ele>2007.2468261719</ele>
        <time>2010-05-22T12:32:43Z</time>
      </trkpt>
      <trkpt lat="44.48109" lon="6.42665">
        <ele>2007.9176025391</ele>
        <time>2010-05-22T12:32:51Z</time>
      </trkpt>
      <trkpt lat="44.48111" lon="6.42669">
        <ele>2008.6065673828</ele>
        <time>2010-05-22T12:32:58Z</time>
      </trkpt>
      <trkpt lat="44.4811" lon="6.42675">
        <ele>2009.8822021484</ele>
        <time>2010-05-22T12:33:08Z</time>
      </trkpt>
      <trkpt lat="44.48109" lon="6.42683">
        <ele>2011.9306640625</ele>
        <time>2010-05-22T12:33:18Z</time>
      </trkpt>
      <trkpt lat="44.48109" lon="6.42692">
        <ele>2013.7902832031</ele>
        <time>2010-05-22T12:33:28Z</time>
      </trkpt>
      <trkpt lat="44.48109" lon="6.42701">
        <ele>2015.7863769531</ele>
        <time>2010-05-22T12:33:37Z</time>
      </trkpt>
      <trkpt lat="44.4811" lon="6.42706">
        <ele>2016.7193603516</ele>
        <time>2010-05-22T12:33:43Z</time>
      </trkpt>
      <trkpt lat="44.48116" lon="6.42713">
        <ele>2017.9396972656</ele>
        <time>2010-05-22T12:33:52Z</time>
      </trkpt>
      <trkpt lat="44.48112" lon="6.42717">
        <ele>2018.8489990234</ele>
        <time>2010-05-22T12:33:57Z</time>
      </trkpt>
      <trkpt lat="44.48109" lon="6.42727">
        <ele>2020.9901123047</ele>
        <time>2010-05-22T12:34:06Z</time>
      </trkpt>
      <trkpt lat="44.48109" lon="6.42734">
        <ele>2022.1162109375</ele>
        <time>2010-05-22T12:34:14Z</time>
      </trkpt>
      <trkpt lat="44.48114" lon="6.42741">
        <ele>2022.5579833984</ele>
        <time>2010-05-22T12:34:22Z</time>
      </trkpt>
      <trkpt lat="44.48119" lon="6.42743">
        <ele>2022.5174560547</ele>
        <time>2010-05-22T12:34:27Z</time>
      </trkpt>
      <trkpt lat="44.48125" lon="6.42743">
        <ele>2022.2517089844</ele>
        <time>2010-05-22T12:34:34Z</time>
      </trkpt>
      <trkpt lat="44.48123" lon="6.42743">
        <ele>2022.3703613281</ele>
        <time>2010-05-22T12:34:54Z</time>
      </trkpt>
      <trkpt lat="44.48124" lon="6.4274">
        <ele>2021.9880371094</ele>
        <time>2010-05-22T12:37:02Z</time>
      </trkpt>
      <trkpt lat="44.48127" lon="6.42743">
        <ele>2022.1043701172</ele>
        <time>2010-05-22T12:37:08Z</time>
      </trkpt>
      <trkpt lat="44.48135" lon="6.42748">
        <ele>2022.1571044922</ele>
        <time>2010-05-22T12:37:18Z</time>
      </trkpt>
      <trkpt lat="44.48138" lon="6.42746">
        <ele>2021.7972412109</ele>
        <time>2010-05-22T12:37:21Z</time>
      </trkpt>
      <trkpt lat="44.48144" lon="6.42745">
        <ele>2021.8203125</ele>
        <time>2010-05-22T12:37:25Z</time>
      </trkpt>
      <trkpt lat="44.48146" lon="6.42745">
        <ele>2021.9187011719</ele>
        <time>2010-05-22T12:37:27Z</time>
      </trkpt>
      <trkpt lat="44.48151" lon="6.42744">
        <ele>2022.0837402344</ele>
        <time>2010-05-22T12:37:31Z</time>
      </trkpt>
      <trkpt lat="44.48161" lon="6.42744">
        <ele>2022.5338134766</ele>
        <time>2010-05-22T12:37:40Z</time>
      </trkpt>
      <trkpt lat="44.4817" lon="6.42741">
        <ele>2023.1722412109</ele>
        <time>2010-05-22T12:37:49Z</time>
      </trkpt>
      <trkpt lat="44.48173" lon="6.42741">
        <ele>2023.6066894531</ele>
        <time>2010-05-22T12:37:52Z</time>
      </trkpt>
      <trkpt lat="44.48174" lon="6.42749">
        <ele>2023.7747802734</ele>
        <time>2010-05-22T12:37:59Z</time>
      </trkpt>
      <trkpt lat="44.48173" lon="6.4276">
        <ele>2023.2091064453</ele>
        <time>2010-05-22T12:38:07Z</time>
      </trkpt>
      <trkpt lat="44.48172" lon="6.42762">
        <ele>2023.0773925781</ele>
        <time>2010-05-22T12:38:08Z</time>
      </trkpt>
      <trkpt lat="44.48169" lon="6.42767">
        <ele>2022.5548095703</ele>
        <time>2010-05-22T12:38:12Z</time>
      </trkpt>
      <trkpt lat="44.48164" lon="6.42772">
        <ele>2022.2641601562</ele>
        <time>2010-05-22T12:38:19Z</time>
      </trkpt>
      <trkpt lat="44.48159" lon="6.4278">
        <ele>2022.3393554688</ele>
        <time>2010-05-22T12:38:27Z</time>
      </trkpt>
      <trkpt lat="44.48162" lon="6.42785">
        <ele>2022.2288818359</ele>
        <time>2010-05-22T12:38:33Z</time>
      </trkpt>
      <trkpt lat="44.48165" lon="6.42795">
        <ele>2022.154296875</ele>
        <time>2010-05-22T12:38:41Z</time>
      </trkpt>
      <trkpt lat="44.48166" lon="6.42801">
        <ele>2022.0372314453</ele>
        <time>2010-05-22T12:38:48Z</time>
      </trkpt>
      <trkpt lat="44.48164" lon="6.42806">
        <ele>2022.2730712891</ele>
        <time>2010-05-22T12:38:54Z</time>
      </trkpt>
      <trkpt lat="44.48161" lon="6.42811">
        <ele>2022.5958251953</ele>
        <time>2010-05-22T12:39:01Z</time>
      </trkpt>
      <trkpt lat="44.48156" lon="6.42818">
        <ele>2023.2248535156</ele>
        <time>2010-05-22T12:39:07Z</time>
      </trkpt>
      <trkpt lat="44.48147" lon="6.42823">
        <ele>2024.7785644531</ele>
        <time>2010-05-22T12:39:15Z</time>
      </trkpt>
      <trkpt lat="44.48144" lon="6.42825">
        <ele>2025.5032958984</ele>
        <time>2010-05-22T12:39:22Z</time>
      </trkpt>
      <trkpt lat="44.48141" lon="6.42827">
        <ele>2026.2119140625</ele>
        <time>2010-05-22T12:39:45Z</time>
      </trkpt>
      <trkpt lat="44.4814" lon="6.42829">
        <ele>2026.458984375</ele>
        <time>2010-05-22T12:39:53Z</time>
      </trkpt>
      <trkpt lat="44.4814" lon="6.42833">
        <ele>2026.7276611328</ele>
        <time>2010-05-22T12:40:02Z</time>
      </trkpt>
      <trkpt lat="44.4814" lon="6.42836">
        <ele>2027.0697021484</ele>
        <time>2010-05-22T12:40:07Z</time>
      </trkpt>
      <trkpt lat="44.48141" lon="6.42844">
        <ele>2027.1374511719</ele>
        <time>2010-05-22T12:40:16Z</time>
      </trkpt>
      <trkpt lat="44.48141" lon="6.4285">
        <ele>2027.5172119141</ele>
        <time>2010-05-22T12:40:24Z</time>
      </trkpt>
      <trkpt lat="44.48141" lon="6.42854">
        <ele>2027.8813476562</ele>
        <time>2010-05-22T12:40:34Z</time>
      </trkpt>
      <trkpt lat="44.4814" lon="6.42856">
        <ele>2028.3610839844</ele>
        <time>2010-05-22T12:40:40Z</time>
      </trkpt>
      <trkpt lat="44.48137" lon="6.42857">
        <ele>2029.1331787109</ele>
        <time>2010-05-22T12:40:45Z</time>
      </trkpt>
      <trkpt lat="44.48135" lon="6.42858">
        <ele>2029.9951171875</ele>
        <time>2010-05-22T12:40:54Z</time>
      </trkpt>
      <trkpt lat="44.48132" lon="6.42859">
        <ele>2030.9339599609</ele>
        <time>2010-05-22T12:41:02Z</time>
      </trkpt>
      <trkpt lat="44.48132" lon="6.42859">
        <ele>2030.9166259766</ele>
        <time>2010-05-22T12:41:14Z</time>
      </trkpt>
      <trkpt lat="44.48131" lon="6.4286">
        <ele>2031.1252441406</ele>
        <time>2010-05-22T12:41:20Z</time>
      </trkpt>
      <trkpt lat="44.48132" lon="6.4286">
        <ele>2030.9204101562</ele>
        <time>2010-05-22T12:41:28Z</time>
      </trkpt>
      <trkpt lat="44.48134" lon="6.42862">
        <ele>2030.2744140625</ele>
        <time>2010-05-22T12:41:58Z</time>
      </trkpt>
      <trkpt lat="44.48132" lon="6.42863">
        <ele>2030.5753173828</ele>
        <time>2010-05-22T12:42:05Z</time>
      </trkpt>
      <trkpt lat="44.48132" lon="6.42864">
        <ele>2030.5018310547</ele>
        <time>2010-05-22T12:42:13Z</time>
      </trkpt>
      <trkpt lat="44.4813" lon="6.42865">
        <ele>2030.8314208984</ele>
        <time>2010-05-22T12:42:19Z</time>
      </trkpt>
      <trkpt lat="44.4813" lon="6.42866">
        <ele>2030.8909912109</ele>
        <time>2010-05-22T12:42:24Z</time>
      </trkpt>
      <trkpt lat="44.48127" lon="6.42868">
        <ele>2031.1641845703</ele>
        <time>2010-05-22T12:42:30Z</time>
      </trkpt>
      <trkpt lat="44.48126" lon="6.42869">
        <ele>2031.4066162109</ele>
        <time>2010-05-22T12:42:38Z</time>
      </trkpt>
      <trkpt lat="44.48125" lon="6.42869">
        <ele>2031.6417236328</ele>
        <time>2010-05-22T12:42:53Z</time>
      </trkpt>
      <trkpt lat="44.48127" lon="6.42867">
        <ele>2031.3460693359</ele>
        <time>2010-05-22T12:43:04Z</time>
      </trkpt>
      <trkpt lat="44.48131" lon="6.42866">
        <ele>2030.5393066406</ele>
        <time>2010-05-22T12:43:25Z</time>
      </trkpt>
      <trkpt lat="44.4813" lon="6.42868">
        <ele>2030.5489501953</ele>
        <time>2010-05-22T12:43:35Z</time>
      </trkpt>
      <trkpt lat="44.48128" lon="6.42871">
        <ele>2030.4923095703</ele>
        <time>2010-05-22T12:43:42Z</time>
      </trkpt>
      <trkpt lat="44.48127" lon="6.42872">
        <ele>2030.8048095703</ele>
        <time>2010-05-22T12:43:49Z</time>
      </trkpt>
      <trkpt lat="44.48124" lon="6.4287">
        <ele>2031.8909912109</ele>
        <time>2010-05-22T12:44:03Z</time>
      </trkpt>
      <trkpt lat="44.48118" lon="6.42871">
        <ele>2033.2668457031</ele>
        <time>2010-05-22T12:44:33Z</time>
      </trkpt>
      <trkpt lat="44.48115" lon="6.42871">
        <ele>2034.0649414062</ele>
        <time>2010-05-22T12:44:41Z</time>
      </trkpt>
      <trkpt lat="44.48118" lon="6.42874">
        <ele>2032.8245849609</ele>
        <time>2010-05-22T12:45:10Z</time>
      </trkpt>
      <trkpt lat="44.48116" lon="6.42872">
        <ele>2033.5933837891</ele>
        <time>2010-05-22T12:45:40Z</time>
      </trkpt>
      <trkpt lat="44.48113" lon="6.42879">
        <ele>2033.3974609375</ele>
        <time>2010-05-22T12:46:29Z</time>
      </trkpt>
      <trkpt lat="44.48113" lon="6.42879">
        <ele>2033.3890380859</ele>
        <time>2010-05-22T12:46:40Z</time>
      </trkpt>
      <trkpt lat="44.48113" lon="6.42873">
        <ele>2034.3526611328</ele>
        <time>2010-05-22T12:47:35Z</time>
      </trkpt>
      <trkpt lat="44.48113" lon="6.42869">
        <ele>2035.0625</ele>
        <time>2010-05-22T12:48:03Z</time>
      </trkpt>
      <trkpt lat="44.48113" lon="6.42869">
        <ele>2035.0330810547</ele>
        <time>2010-05-22T12:48:42Z</time>
      </trkpt>
      <trkpt lat="44.48112" lon="6.42867">
        <ele>2035.8204345703</ele>
        <time>2010-05-22T12:48:55Z</time>
      </trkpt>
      <trkpt lat="44.4811" lon="6.42864">
        <ele>2036.6782226562</ele>
        <time>2010-05-22T12:49:09Z</time>
      </trkpt>
      <trkpt lat="44.4811" lon="6.42865">
        <ele>2036.6988525391</ele>
        <time>2010-05-22T12:49:25Z</time>
      </trkpt>
      <trkpt lat="44.48111" lon="6.42863">
        <ele>2036.6730957031</ele>
        <time>2010-05-22T12:49:38Z</time>
      </trkpt>
      <trkpt lat="44.48117" lon="6.42862">
        <ele>2035.1696777344</ele>
        <time>2010-05-22T12:51:31Z</time>
      </trkpt>
      <trkpt lat="44.48116" lon="6.42863">
        <ele>2035.1715087891</ele>
        <time>2010-05-22T12:51:43Z</time>
      </trkpt>
      <trkpt lat="44.48117" lon="6.42866">
        <ele>2034.4106445312</ele>
        <time>2010-05-22T12:51:51Z</time>
      </trkpt>
      <trkpt lat="44.48119" lon="6.42868">
        <ele>2033.6409912109</ele>
        <time>2010-05-22T12:52:05Z</time>
      </trkpt>
      <trkpt lat="44.48125" lon="6.42868">
        <ele>2031.8264160156</ele>
        <time>2010-05-22T12:52:42Z</time>
      </trkpt>
      <trkpt lat="44.48125" lon="6.42871">
        <ele>2031.4390869141</ele>
        <time>2010-05-22T12:53:10Z</time>
      </trkpt>
      <trkpt lat="44.48124" lon="6.42875">
        <ele>2031.0922851562</ele>
        <time>2010-05-22T12:53:18Z</time>
      </trkpt>
      <trkpt lat="44.48121" lon="6.42879">
        <ele>2031.1540527344</ele>
        <time>2010-05-22T12:53:26Z</time>
      </trkpt>
      <trkpt lat="44.48119" lon="6.42884">
        <ele>2030.7397460938</ele>
        <time>2010-05-22T12:53:34Z</time>
      </trkpt>
      <trkpt lat="44.48116" lon="6.42892">
        <ele>2030.2177734375</ele>
        <time>2010-05-22T12:53:43Z</time>
      </trkpt>
      <trkpt lat="44.48112" lon="6.42897">
        <ele>2030.3771972656</ele>
        <time>2010-05-22T12:53:51Z</time>
      </trkpt>
      <trkpt lat="44.48109" lon="6.42899">
        <ele>2031.0352783203</ele>
        <time>2010-05-22T12:53:59Z</time>
      </trkpt>
      <trkpt lat="44.48109" lon="6.42901">
        <ele>2031.1458740234</ele>
        <time>2010-05-22T12:54:04Z</time>
      </trkpt>
      <trkpt lat="44.48108" lon="6.42905">
        <ele>2030.9935302734</ele>
        <time>2010-05-22T12:54:10Z</time>
      </trkpt>
      <trkpt lat="44.48109" lon="6.42907">
        <ele>2029.7528076172</ele>
        <time>2010-05-22T12:54:16Z</time>
      </trkpt>
      <trkpt lat="44.48109" lon="6.4291">
        <ele>2029.5067138672</ele>
        <time>2010-05-22T12:54:25Z</time>
      </trkpt>
      <trkpt lat="44.48109" lon="6.4291">
        <ele>2029.4034423828</ele>
        <time>2010-05-22T12:54:31Z</time>
      </trkpt>
      <trkpt lat="44.48108" lon="6.4291">
        <ele>2029.8891601562</ele>
        <time>2010-05-22T12:54:41Z</time>
      </trkpt>
      <trkpt lat="44.48107" lon="6.4291">
        <ele>2030.7623291016</ele>
        <time>2010-05-22T12:54:48Z</time>
      </trkpt>
      <trkpt lat="44.48105" lon="6.42913">
        <ele>2031.3510742188</ele>
        <time>2010-05-22T12:54:55Z</time>
      </trkpt>
      <trkpt lat="44.48104" lon="6.42918">
        <ele>2031.5458984375</ele>
        <time>2010-05-22T12:55:03Z</time>
      </trkpt>
      <trkpt lat="44.48104" lon="6.4292">
        <ele>2031.2468261719</ele>
        <time>2010-05-22T12:55:10Z</time>
      </trkpt>
      <trkpt lat="44.48104" lon="6.42922">
        <ele>2030.9169921875</ele>
        <time>2010-05-22T12:55:17Z</time>
      </trkpt>
      <trkpt lat="44.48101" lon="6.42927">
        <ele>2032.0098876953</ele>
        <time>2010-05-22T12:55:23Z</time>
      </trkpt>
      <trkpt lat="44.48099" lon="6.4293">
        <ele>2032.7263183594</ele>
        <time>2010-05-22T12:55:31Z</time>
      </trkpt>
      <trkpt lat="44.48099" lon="6.42933">
        <ele>2032.3640136719</ele>
        <time>2010-05-22T12:55:38Z</time>
      </trkpt>
      <trkpt lat="44.48096" lon="6.42934">
        <ele>2034.2535400391</ele>
        <time>2010-05-22T12:55:47Z</time>
      </trkpt>
      <trkpt lat="44.48089" lon="6.42935">
        <ele>2039.1818847656</ele>
        <time>2010-05-22T12:55:55Z</time>
      </trkpt>
      <trkpt lat="44.48084" lon="6.42937">
        <ele>2042.3869628906</ele>
        <time>2010-05-22T12:56:03Z</time>
      </trkpt>
      <trkpt lat="44.48082" lon="6.4294">
        <ele>2043.4921875</ele>
        <time>2010-05-22T12:56:12Z</time>
      </trkpt>
      <trkpt lat="44.4808" lon="6.42942">
        <ele>2044.3170166016</ele>
        <time>2010-05-22T12:56:19Z</time>
      </trkpt>
      <trkpt lat="44.48079" lon="6.42942">
        <ele>2044.5361328125</ele>
        <time>2010-05-22T12:56:27Z</time>
      </trkpt>
      <trkpt lat="44.48077" lon="6.42944">
        <ele>2045.8480224609</ele>
        <time>2010-05-22T12:56:35Z</time>
      </trkpt>
      <trkpt lat="44.48075" lon="6.42948">
        <ele>2045.3061523438</ele>
        <time>2010-05-22T12:56:43Z</time>
      </trkpt>
      <trkpt lat="44.48072" lon="6.42949">
        <ele>2046.2497558594</ele>
        <time>2010-05-22T12:56:48Z</time>
      </trkpt>
      <trkpt lat="44.48071" lon="6.4295">
        <ele>2046.8846435547</ele>
        <time>2010-05-22T12:56:56Z</time>
      </trkpt>
      <trkpt lat="44.48069" lon="6.42953">
        <ele>2046.6046142578</ele>
        <time>2010-05-22T12:57:03Z</time>
      </trkpt>
      <trkpt lat="44.48066" lon="6.42956">
        <ele>2047.2263183594</ele>
        <time>2010-05-22T12:57:11Z</time>
      </trkpt>
      <trkpt lat="44.48063" lon="6.42962">
        <ele>2045.8303222656</ele>
        <time>2010-05-22T12:57:19Z</time>
      </trkpt>
      <trkpt lat="44.48061" lon="6.42968">
        <ele>2044.3282470703</ele>
        <time>2010-05-22T12:57:26Z</time>
      </trkpt>
      <trkpt lat="44.48058" lon="6.42975">
        <ele>2042.9271240234</ele>
        <time>2010-05-22T12:57:34Z</time>
      </trkpt>
      <trkpt lat="44.48056" lon="6.42979">
        <ele>2042.5001220703</ele>
        <time>2010-05-22T12:57:41Z</time>
      </trkpt>
      <trkpt lat="44.48051" lon="6.42985">
        <ele>2042.7012939453</ele>
        <time>2010-05-22T12:57:50Z</time>
      </trkpt>
      <trkpt lat="44.48049" lon="6.42989">
        <ele>2042.3647460938</ele>
        <time>2010-05-22T12:57:56Z</time>
      </trkpt>
      <trkpt lat="44.48046" lon="6.42995">
        <ele>2041.7470703125</ele>
        <time>2010-05-22T12:58:02Z</time>
      </trkpt>
      <trkpt lat="44.48047" lon="6.42999">
        <ele>2040.0093994141</ele>
        <time>2010-05-22T12:58:09Z</time>
      </trkpt>
      <trkpt lat="44.48045" lon="6.43004">
        <ele>2039.3172607422</ele>
        <time>2010-05-22T12:58:17Z</time>
      </trkpt>
      <trkpt lat="44.48045" lon="6.43011">
        <ele>2037.3686523438</ele>
        <time>2010-05-22T12:58:25Z</time>
      </trkpt>
      <trkpt lat="44.48046" lon="6.43017">
        <ele>2034.7259521484</ele>
        <time>2010-05-22T12:58:33Z</time>
      </trkpt>
      <trkpt lat="44.48045" lon="6.43026">
        <ele>2032.720703125</ele>
        <time>2010-05-22T12:58:42Z</time>
      </trkpt>
      <trkpt lat="44.48042" lon="6.43028">
        <ele>2033.2783203125</ele>
        <time>2010-05-22T12:58:48Z</time>
      </trkpt>
      <trkpt lat="44.48042" lon="6.43029">
        <ele>2032.9840087891</ele>
        <time>2010-05-22T12:58:59Z</time>
      </trkpt>
      <trkpt lat="44.48042" lon="6.43031">
        <ele>2032.7354736328</ele>
        <time>2010-05-22T12:59:06Z</time>
      </trkpt>
      <trkpt lat="44.48041" lon="6.43034">
        <ele>2033.0883789062</ele>
        <time>2010-05-22T12:59:11Z</time>
      </trkpt>
      <trkpt lat="44.48039" lon="6.43042">
        <ele>2032.8657226562</ele>
        <time>2010-05-22T12:59:19Z</time>
      </trkpt>
      <trkpt lat="44.48037" lon="6.43048">
        <ele>2033.3153076172</ele>
        <time>2010-05-22T12:59:28Z</time>
      </trkpt>
      <trkpt lat="44.48035" lon="6.43053">
        <ele>2034.0086669922</ele>
        <time>2010-05-22T12:59:35Z</time>
      </trkpt>
      <trkpt lat="44.48034" lon="6.43057">
        <ele>2034.7573242188</ele>
        <time>2010-05-22T12:59:43Z</time>
      </trkpt>
      <trkpt lat="44.48033" lon="6.43062">
        <ele>2033.8288574219</ele>
        <time>2010-05-22T12:59:49Z</time>
      </trkpt>
      <trkpt lat="44.4803" lon="6.43065">
        <ele>2034.9632568359</ele>
        <time>2010-05-22T12:59:56Z</time>
      </trkpt>
      <trkpt lat="44.4803" lon="6.43067">
        <ele>2034.6575927734</ele>
        <time>2010-05-22T13:00:02Z</time>
      </trkpt>
      <trkpt lat="44.4803" lon="6.43069">
        <ele>2033.5567626953</ele>
        <time>2010-05-22T13:00:10Z</time>
      </trkpt>
      <trkpt lat="44.48031" lon="6.43073">
        <ele>2032.1612548828</ele>
        <time>2010-05-22T13:00:17Z</time>
      </trkpt>
      <trkpt lat="44.4803" lon="6.43075">
        <ele>2032.7580566406</ele>
        <time>2010-05-22T13:00:25Z</time>
      </trkpt>
      <trkpt lat="44.48032" lon="6.43078">
        <ele>2030.3266601562</ele>
        <time>2010-05-22T13:00:53Z</time>
      </trkpt>
      <trkpt lat="44.48032" lon="6.43079">
        <ele>2029.9881591797</ele>
        <time>2010-05-22T13:01:01Z</time>
      </trkpt>
      <trkpt lat="44.48029" lon="6.43079">
        <ele>2032.2962646484</ele>
        <time>2010-05-22T13:01:10Z</time>
      </trkpt>
      <trkpt lat="44.48029" lon="6.4308">
        <ele>2032.0773925781</ele>
        <time>2010-05-22T13:01:18Z</time>
      </trkpt>
      <trkpt lat="44.48027" lon="6.43081">
        <ele>2033.1380615234</ele>
        <time>2010-05-22T13:01:26Z</time>
      </trkpt>
      <trkpt lat="44.48025" lon="6.43082">
        <ele>2033.8126220703</ele>
        <time>2010-05-22T13:01:38Z</time>
      </trkpt>
      <trkpt lat="44.48024" lon="6.43081">
        <ele>2034.7001953125</ele>
        <time>2010-05-22T13:01:48Z</time>
      </trkpt>
      <trkpt lat="44.48029" lon="6.4308">
        <ele>2031.9923095703</ele>
        <time>2010-05-22T13:02:00Z</time>
      </trkpt>
      <trkpt lat="44.48029" lon="6.43082">
        <ele>2031.8532714844</ele>
        <time>2010-05-22T13:02:17Z</time>
      </trkpt>
      <trkpt lat="44.48029" lon="6.43082">
        <ele>2031.3477783203</ele>
        <time>2010-05-22T13:02:24Z</time>
      </trkpt>
      <trkpt lat="44.48033" lon="6.43084">
        <ele>2028.1904296875</ele>
        <time>2010-05-22T13:02:34Z</time>
      </trkpt>
      <trkpt lat="44.48031" lon="6.43086">
        <ele>2028.8712158203</ele>
        <time>2010-05-22T13:02:41Z</time>
      </trkpt>
      <trkpt lat="44.4803" lon="6.43087">
        <ele>2029.7169189453</ele>
        <time>2010-05-22T13:02:47Z</time>
      </trkpt>
      <trkpt lat="44.48028" lon="6.43089">
        <ele>2030.4752197266</ele>
        <time>2010-05-22T13:02:53Z</time>
      </trkpt>
      <trkpt lat="44.48029" lon="6.43093">
        <ele>2029.3768310547</ele>
        <time>2010-05-22T13:03:01Z</time>
      </trkpt>
      <trkpt lat="44.48027" lon="6.43096">
        <ele>2029.5485839844</ele>
        <time>2010-05-22T13:03:08Z</time>
      </trkpt>
      <trkpt lat="44.48026" lon="6.43096">
        <ele>2030.15625</ele>
        <time>2010-05-22T13:03:18Z</time>
      </trkpt>
      <trkpt lat="44.48026" lon="6.43095">
        <ele>2030.5614013672</ele>
        <time>2010-05-22T13:03:31Z</time>
      </trkpt>
      <trkpt lat="44.48026" lon="6.43096">
        <ele>2030.6265869141</ele>
        <time>2010-05-22T13:03:40Z</time>
      </trkpt>
      <trkpt lat="44.48026" lon="6.43098">
        <ele>2030.0155029297</ele>
        <time>2010-05-22T13:03:47Z</time>
      </trkpt>
      <trkpt lat="44.48024" lon="6.43102">
        <ele>2030.4172363281</ele>
        <time>2010-05-22T13:03:52Z</time>
      </trkpt>
      <trkpt lat="44.4802" lon="6.43105">
        <ele>2031.9862060547</ele>
        <time>2010-05-22T13:04:00Z</time>
      </trkpt>
      <trkpt lat="44.48018" lon="6.43103">
        <ele>2033.7371826172</ele>
        <time>2010-05-22T13:04:16Z</time>
      </trkpt>
      <trkpt lat="44.48015" lon="6.431">
        <ele>2035.5704345703</ele>
        <time>2010-05-22T13:04:35Z</time>
      </trkpt>
      <trkpt lat="44.48016" lon="6.43103">
        <ele>2034.7121582031</ele>
        <time>2010-05-22T13:04:49Z</time>
      </trkpt>
      <trkpt lat="44.48016" lon="6.43108">
        <ele>2033.2839355469</ele>
        <time>2010-05-22T13:04:56Z</time>
      </trkpt>
      <trkpt lat="44.48017" lon="6.4311">
        <ele>2032.6007080078</ele>
        <time>2010-05-22T13:05:03Z</time>
      </trkpt>
      <trkpt lat="44.48017" lon="6.43113">
        <ele>2031.9096679688</ele>
        <time>2010-05-22T13:05:10Z</time>
      </trkpt>
      <trkpt lat="44.48018" lon="6.43118">
        <ele>2030.3515625</ele>
        <time>2010-05-22T13:05:18Z</time>
      </trkpt>
      <trkpt lat="44.48015" lon="6.43119">
        <ele>2031.5593261719</ele>
        <time>2010-05-22T13:05:26Z</time>
      </trkpt>
      <trkpt lat="44.48015" lon="6.43119">
        <ele>2031.4998779297</ele>
        <time>2010-05-22T13:05:32Z</time>
      </trkpt>
      <trkpt lat="44.48014" lon="6.43118">
        <ele>2031.9627685547</ele>
        <time>2010-05-22T13:05:40Z</time>
      </trkpt>
      <trkpt lat="44.48012" lon="6.43119">
        <ele>2033.1711425781</ele>
        <time>2010-05-22T13:06:06Z</time>
      </trkpt>
      <trkpt lat="44.48013" lon="6.4312">
        <ele>2032.3776855469</ele>
        <time>2010-05-22T13:06:13Z</time>
      </trkpt>
      <trkpt lat="44.48012" lon="6.4312">
        <ele>2032.5922851562</ele>
        <time>2010-05-22T13:06:19Z</time>
      </trkpt>
      <trkpt lat="44.48011" lon="6.43121">
        <ele>2033.0505371094</ele>
        <time>2010-05-22T13:06:24Z</time>
      </trkpt>
      <trkpt lat="44.48009" lon="6.43124">
        <ele>2033.6639404297</ele>
        <time>2010-05-22T13:06:32Z</time>
      </trkpt>
      <trkpt lat="44.48009" lon="6.43129">
        <ele>2032.1076660156</ele>
        <time>2010-05-22T13:06:41Z</time>
      </trkpt>
      <trkpt lat="44.48008" lon="6.43135">
        <ele>2030.9500732422</ele>
        <time>2010-05-22T13:06:50Z</time>
      </trkpt>
      <trkpt lat="44.48008" lon="6.43137">
        <ele>2030.4072265625</ele>
        <time>2010-05-22T13:06:57Z</time>
      </trkpt>
      <trkpt lat="44.48005" lon="6.43137">
        <ele>2032.2305908203</ele>
        <time>2010-05-22T13:07:05Z</time>
      </trkpt>
      <trkpt lat="44.48005" lon="6.43138">
        <ele>2032.0725097656</ele>
        <time>2010-05-22T13:07:11Z</time>
      </trkpt>
      <trkpt lat="44.48" lon="6.43138">
        <ele>2034.2014160156</ele>
        <time>2010-05-22T13:07:18Z</time>
      </trkpt>
      <trkpt lat="44.47998" lon="6.43142">
        <ele>2034.9224853516</ele>
        <time>2010-05-22T13:07:25Z</time>
      </trkpt>
      <trkpt lat="44.47994" lon="6.43143">
        <ele>2037.9288330078</ele>
        <time>2010-05-22T13:07:31Z</time>
      </trkpt>
      <trkpt lat="44.4799" lon="6.43145">
        <ele>2040.5092773438</ele>
        <time>2010-05-22T13:07:38Z</time>
      </trkpt>
      <trkpt lat="44.47988" lon="6.43148">
        <ele>2040.8956298828</ele>
        <time>2010-05-22T13:07:46Z</time>
      </trkpt>
      <trkpt lat="44.47989" lon="6.43151">
        <ele>2038.9942626953</ele>
        <time>2010-05-22T13:07:53Z</time>
      </trkpt>
      <trkpt lat="44.47985" lon="6.43156">
        <ele>2039.6322021484</ele>
        <time>2010-05-22T13:08:01Z</time>
      </trkpt>
      <trkpt lat="44.47984" lon="6.43157">
        <ele>2040.73828125</ele>
        <time>2010-05-22T13:08:08Z</time>
      </trkpt>
      <trkpt lat="44.47983" lon="6.43162">
        <ele>2038.8970947266</ele>
        <time>2010-05-22T13:08:21Z</time>
      </trkpt>
      <trkpt lat="44.4798" lon="6.43165">
        <ele>2038.9820556641</ele>
        <time>2010-05-22T13:08:28Z</time>
      </trkpt>
      <trkpt lat="44.47978" lon="6.43167">
        <ele>2039.5208740234</ele>
        <time>2010-05-22T13:08:36Z</time>
      </trkpt>
      <trkpt lat="44.47973" lon="6.43168">
        <ele>2041.6442871094</ele>
        <time>2010-05-22T13:08:42Z</time>
      </trkpt>
      <trkpt lat="44.47971" lon="6.43172">
        <ele>2041.2150878906</ele>
        <time>2010-05-22T13:08:50Z</time>
      </trkpt>
      <trkpt lat="44.47971" lon="6.43171">
        <ele>2041.9069824219</ele>
        <time>2010-05-22T13:08:56Z</time>
      </trkpt>
      <trkpt lat="44.47971" lon="6.43173">
        <ele>2041.06640625</ele>
        <time>2010-05-22T13:09:05Z</time>
      </trkpt>
      <trkpt lat="44.47969" lon="6.43175">
        <ele>2041.2770996094</ele>
        <time>2010-05-22T13:09:19Z</time>
      </trkpt>
      <trkpt lat="44.4797" lon="6.43185">
        <ele>2035.5289306641</ele>
        <time>2010-05-22T13:09:36Z</time>
      </trkpt>
      <trkpt lat="44.47964" lon="6.43184">
        <ele>2039.88671875</ele>
        <time>2010-05-22T13:09:47Z</time>
      </trkpt>
      <trkpt lat="44.47967" lon="6.43186">
        <ele>2037.5037841797</ele>
        <time>2010-05-22T13:09:54Z</time>
      </trkpt>
      <trkpt lat="44.4797" lon="6.43186">
        <ele>2035.658203125</ele>
        <time>2010-05-22T13:10:07Z</time>
      </trkpt>
      <trkpt lat="44.47966" lon="6.43183">
        <ele>2039.08203125</ele>
        <time>2010-05-22T13:10:15Z</time>
      </trkpt>
      <trkpt lat="44.47966" lon="6.43186">
        <ele>2038.0802001953</ele>
        <time>2010-05-22T13:10:20Z</time>
      </trkpt>
      <trkpt lat="44.47968" lon="6.43188">
        <ele>2035.3272705078</ele>
        <time>2010-05-22T13:10:29Z</time>
      </trkpt>
      <trkpt lat="44.47968" lon="6.43191">
        <ele>2034.5012207031</ele>
        <time>2010-05-22T13:10:36Z</time>
      </trkpt>
      <trkpt lat="44.47968" lon="6.43194">
        <ele>2032.8021240234</ele>
        <time>2010-05-22T13:10:42Z</time>
      </trkpt>
      <trkpt lat="44.4797" lon="6.43199">
        <ele>2029.7801513672</ele>
        <time>2010-05-22T13:10:53Z</time>
      </trkpt>
      <trkpt lat="44.47967" lon="6.43201">
        <ele>2030.8797607422</ele>
        <time>2010-05-22T13:11:06Z</time>
      </trkpt>
      <trkpt lat="44.47965" lon="6.43204">
        <ele>2030.59765625</ele>
        <time>2010-05-22T13:11:13Z</time>
      </trkpt>
      <trkpt lat="44.47963" lon="6.43206">
        <ele>2031.2816162109</ele>
        <time>2010-05-22T13:11:19Z</time>
      </trkpt>
      <trkpt lat="44.47958" lon="6.43208">
        <ele>2033.3178710938</ele>
        <time>2010-05-22T13:11:24Z</time>
      </trkpt>
      <trkpt lat="44.47954" lon="6.43211">
        <ele>2034.3350830078</ele>
        <time>2010-05-22T13:11:31Z</time>
      </trkpt>
      <trkpt lat="44.47951" lon="6.43216">
        <ele>2034.0552978516</ele>
        <time>2010-05-22T13:11:38Z</time>
      </trkpt>
      <trkpt lat="44.4795" lon="6.43218">
        <ele>2033.88671875</ele>
        <time>2010-05-22T13:11:47Z</time>
      </trkpt>
      <trkpt lat="44.47949" lon="6.43218">
        <ele>2034.5472412109</ele>
        <time>2010-05-22T13:11:58Z</time>
      </trkpt>
      <trkpt lat="44.47947" lon="6.43219">
        <ele>2034.9438476562</ele>
        <time>2010-05-22T13:12:12Z</time>
      </trkpt>
      <trkpt lat="44.47949" lon="6.43219">
        <ele>2033.896484375</ele>
        <time>2010-05-22T13:12:51Z</time>
      </trkpt>
      <trkpt lat="44.47961" lon="6.43224">
        <ele>2025.2479248047</ele>
        <time>2010-05-22T13:13:17Z</time>
      </trkpt>
      <trkpt lat="44.4796" lon="6.43222">
        <ele>2026.4982910156</ele>
        <time>2010-05-22T13:13:30Z</time>
      </trkpt>
      <trkpt lat="44.47953" lon="6.4322">
        <ele>2031.2025146484</ele>
        <time>2010-05-22T13:13:38Z</time>
      </trkpt>
      <trkpt lat="44.47952" lon="6.43219">
        <ele>2032.1422119141</ele>
        <time>2010-05-22T13:13:56Z</time>
      </trkpt>
      <trkpt lat="44.47945" lon="6.43219">
        <ele>2035.9912109375</ele>
        <time>2010-05-22T13:14:47Z</time>
      </trkpt>
      <trkpt lat="44.47942" lon="6.43214">
        <ele>2040.7780761719</ele>
        <time>2010-05-22T13:15:07Z</time>
      </trkpt>
      <trkpt lat="44.47942" lon="6.43212">
        <ele>2041.3576660156</ele>
        <time>2010-05-22T13:15:25Z</time>
      </trkpt>
      <trkpt lat="44.47944" lon="6.43217">
        <ele>2037.9177246094</ele>
        <time>2010-05-22T13:15:34Z</time>
      </trkpt>
      <trkpt lat="44.47944" lon="6.43219">
        <ele>2037.0379638672</ele>
        <time>2010-05-22T13:15:40Z</time>
      </trkpt>
      <trkpt lat="44.47943" lon="6.4322">
        <ele>2037.3001708984</ele>
        <time>2010-05-22T13:15:47Z</time>
      </trkpt>
      <trkpt lat="44.47942" lon="6.43222">
        <ele>2037.3400878906</ele>
        <time>2010-05-22T13:15:52Z</time>
      </trkpt>
      <trkpt lat="44.47941" lon="6.43223">
        <ele>2037.6195068359</ele>
        <time>2010-05-22T13:15:58Z</time>
      </trkpt>
      <trkpt lat="44.4794" lon="6.43225">
        <ele>2038.1915283203</ele>
        <time>2010-05-22T13:16:04Z</time>
      </trkpt>
      <trkpt lat="44.47945" lon="6.43228">
        <ele>2032.8759765625</ele>
        <time>2010-05-22T13:16:13Z</time>
      </trkpt>
      <trkpt lat="44.47944" lon="6.4323">
        <ele>2032.806640625</ele>
        <time>2010-05-22T13:16:18Z</time>
      </trkpt>
      <trkpt lat="44.47942" lon="6.43232">
        <ele>2034.3288574219</ele>
        <time>2010-05-22T13:16:28Z</time>
      </trkpt>
      <trkpt lat="44.47941" lon="6.43234">
        <ele>2034.6116943359</ele>
        <time>2010-05-22T13:16:36Z</time>
      </trkpt>
      <trkpt lat="44.47943" lon="6.43237">
        <ele>2031.8200683594</ele>
        <time>2010-05-22T13:16:43Z</time>
      </trkpt>
      <trkpt lat="44.47942" lon="6.43238">
        <ele>2031.875</ele>
        <time>2010-05-22T13:16:51Z</time>
      </trkpt>
      <trkpt lat="44.47943" lon="6.43238">
        <ele>2031.6708984375</ele>
        <time>2010-05-22T13:16:57Z</time>
      </trkpt>
      <trkpt lat="44.47942" lon="6.43239">
        <ele>2032.3791503906</ele>
        <time>2010-05-22T13:17:04Z</time>
      </trkpt>
      <trkpt lat="44.47942" lon="6.43243">
        <ele>2030.3206787109</ele>
        <time>2010-05-22T13:17:10Z</time>
      </trkpt>
      <trkpt lat="44.47943" lon="6.43247">
        <ele>2028.0578613281</ele>
        <time>2010-05-22T13:17:18Z</time>
      </trkpt>
      <trkpt lat="44.47943" lon="6.4325">
        <ele>2026.9343261719</ele>
        <time>2010-05-22T13:17:23Z</time>
      </trkpt>
      <trkpt lat="44.47944" lon="6.4326">
        <ele>2024.5272216797</ele>
        <time>2010-05-22T13:17:29Z</time>
      </trkpt>
      <trkpt lat="44.47944" lon="6.43268">
        <ele>2022.80859375</ele>
        <time>2010-05-22T13:17:35Z</time>
      </trkpt>
      <trkpt lat="44.47943" lon="6.43269">
        <ele>2023.0548095703</ele>
        <time>2010-05-22T13:17:36Z</time>
      </trkpt>
      <trkpt lat="44.47942" lon="6.43278">
        <ele>2022.2900390625</ele>
        <time>2010-05-22T13:17:45Z</time>
      </trkpt>
      <trkpt lat="44.47943" lon="6.43283">
        <ele>2020.1656494141</ele>
        <time>2010-05-22T13:17:52Z</time>
      </trkpt>
      <trkpt lat="44.47943" lon="6.43289">
        <ele>2019.2766113281</ele>
        <time>2010-05-22T13:17:59Z</time>
      </trkpt>
      <trkpt lat="44.47942" lon="6.4329">
        <ele>2019.9663085938</ele>
        <time>2010-05-22T13:18:05Z</time>
      </trkpt>
      <trkpt lat="44.4795" lon="6.43291">
        <ele>2012.4309082031</ele>
        <time>2010-05-22T13:18:17Z</time>
      </trkpt>
      <trkpt lat="44.47948" lon="6.43291">
        <ele>2013.8428955078</ele>
        <time>2010-05-22T13:18:23Z</time>
      </trkpt>
      <trkpt lat="44.47945" lon="6.43293">
        <ele>2015.5955810547</ele>
        <time>2010-05-22T13:18:30Z</time>
      </trkpt>
      <trkpt lat="44.47939" lon="6.43293">
        <ele>2022.3725585938</ele>
        <time>2010-05-22T13:18:35Z</time>
      </trkpt>
      <trkpt lat="44.47935" lon="6.43294">
        <ele>2027.1295166016</ele>
        <time>2010-05-22T13:18:41Z</time>
      </trkpt>
      <trkpt lat="44.47935" lon="6.43295">
        <ele>2026.3251953125</ele>
        <time>2010-05-22T13:18:47Z</time>
      </trkpt>
      <trkpt lat="44.47937" lon="6.43296">
        <ele>2024.3430175781</ele>
        <time>2010-05-22T13:18:55Z</time>
      </trkpt>
      <trkpt lat="44.47934" lon="6.43298">
        <ele>2027.0278320312</ele>
        <time>2010-05-22T13:19:02Z</time>
      </trkpt>
      <trkpt lat="44.47937" lon="6.43299">
        <ele>2023.9715576172</ele>
        <time>2010-05-22T13:19:09Z</time>
      </trkpt>
      <trkpt lat="44.47926" lon="6.43304">
        <ele>2036.4278564453</ele>
        <time>2010-05-22T13:20:00Z</time>
      </trkpt>
      <trkpt lat="44.47926" lon="6.43304">
        <ele>2035.8944091797</ele>
        <time>2010-05-22T13:20:25Z</time>
      </trkpt>
      <trkpt lat="44.47924" lon="6.43307">
        <ele>2037.1943359375</ele>
        <time>2010-05-22T13:20:38Z</time>
      </trkpt>
      <trkpt lat="44.47923" lon="6.43308">
        <ele>2038.8100585938</ele>
        <time>2010-05-22T13:20:52Z</time>
      </trkpt>
      <trkpt lat="44.47921" lon="6.43308">
        <ele>2040.8059082031</ele>
        <time>2010-05-22T13:20:59Z</time>
      </trkpt>
      <trkpt lat="44.4792" lon="6.43308">
        <ele>2042.6998291016</ele>
        <time>2010-05-22T13:21:05Z</time>
      </trkpt>
      <trkpt lat="44.47916" lon="6.43309">
        <ele>2046.6481933594</ele>
        <time>2010-05-22T13:21:18Z</time>
      </trkpt>
      <trkpt lat="44.47915" lon="6.43316">
        <ele>2048.1687011719</ele>
        <time>2010-05-22T13:21:34Z</time>
      </trkpt>
      <trkpt lat="44.47919" lon="6.4332">
        <ele>2041.3284912109</ele>
        <time>2010-05-22T13:21:50Z</time>
      </trkpt>
      <trkpt lat="44.47917" lon="6.43319">
        <ele>2043.8547363281</ele>
        <time>2010-05-22T13:21:56Z</time>
      </trkpt>
      <trkpt lat="44.47918" lon="6.43319">
        <ele>2042.5158691406</ele>
        <time>2010-05-22T13:22:03Z</time>
      </trkpt>
      <trkpt lat="44.47927" lon="6.43322">
        <ele>2030.9787597656</ele>
        <time>2010-05-22T13:22:11Z</time>
      </trkpt>
      <trkpt lat="44.47924" lon="6.43322">
        <ele>2034.3341064453</ele>
        <time>2010-05-22T13:22:27Z</time>
      </trkpt>
      <trkpt lat="44.47923" lon="6.43323">
        <ele>2035.6617431641</ele>
        <time>2010-05-22T13:22:37Z</time>
      </trkpt>
      <trkpt lat="44.47918" lon="6.43322">
        <ele>2041.8594970703</ele>
        <time>2010-05-22T13:22:46Z</time>
      </trkpt>
      <trkpt lat="44.47921" lon="6.43327">
        <ele>2037.9061279297</ele>
        <time>2010-05-22T13:22:57Z</time>
      </trkpt>
      <trkpt lat="44.47926" lon="6.4333">
        <ele>2030.5552978516</ele>
        <time>2010-05-22T13:23:03Z</time>
      </trkpt>
      <trkpt lat="44.47923" lon="6.43331">
        <ele>2034.4682617188</ele>
        <time>2010-05-22T13:23:14Z</time>
      </trkpt>
      <trkpt lat="44.47924" lon="6.43332">
        <ele>2031.7446289062</ele>
        <time>2010-05-22T13:23:22Z</time>
      </trkpt>
      <trkpt lat="44.47924" lon="6.43334">
        <ele>2031.2924804688</ele>
        <time>2010-05-22T13:23:29Z</time>
      </trkpt>
      <trkpt lat="44.47922" lon="6.43337">
        <ele>2034.1546630859</ele>
        <time>2010-05-22T13:23:36Z</time>
      </trkpt>
      <trkpt lat="44.47921" lon="6.43341">
        <ele>2033.7124023438</ele>
        <time>2010-05-22T13:23:42Z</time>
      </trkpt>
      <trkpt lat="44.47921" lon="6.43346">
        <ele>2032.6871337891</ele>
        <time>2010-05-22T13:23:49Z</time>
      </trkpt>
      <trkpt lat="44.47917" lon="6.43348">
        <ele>2038.2266845703</ele>
        <time>2010-05-22T13:23:55Z</time>
      </trkpt>
      <trkpt lat="44.47915" lon="6.4335">
        <ele>2039.7528076172</ele>
        <time>2010-05-22T13:24:03Z</time>
      </trkpt>
      <trkpt lat="44.4791" lon="6.43355">
        <ele>2043.6882324219</ele>
        <time>2010-05-22T13:24:20Z</time>
      </trkpt>
      <trkpt lat="44.47908" lon="6.43359">
        <ele>2044.1644287109</ele>
        <time>2010-05-22T13:24:26Z</time>
      </trkpt>
      <trkpt lat="44.47904" lon="6.43363">
        <ele>2045.3243408203</ele>
        <time>2010-05-22T13:24:32Z</time>
      </trkpt>
      <trkpt lat="44.47899" lon="6.43367">
        <ele>2047.5959472656</ele>
        <time>2010-05-22T13:24:40Z</time>
      </trkpt>
      <trkpt lat="44.47897" lon="6.43367">
        <ele>2049.4758300781</ele>
        <time>2010-05-22T13:24:46Z</time>
      </trkpt>
      <trkpt lat="44.47893" lon="6.43369">
        <ele>2051.9389648438</ele>
        <time>2010-05-22T13:24:54Z</time>
      </trkpt>
      <trkpt lat="44.47894" lon="6.43372">
        <ele>2049.3859863281</ele>
        <time>2010-05-22T13:25:03Z</time>
      </trkpt>
      <trkpt lat="44.47895" lon="6.43376">
        <ele>2046.0426025391</ele>
        <time>2010-05-22T13:25:11Z</time>
      </trkpt>
      <trkpt lat="44.47896" lon="6.43379">
        <ele>2043.6131591797</ele>
        <time>2010-05-22T13:25:16Z</time>
      </trkpt>
      <trkpt lat="44.47898" lon="6.43383">
        <ele>2038.9338378906</ele>
        <time>2010-05-22T13:25:23Z</time>
      </trkpt>
      <trkpt lat="44.479" lon="6.43386">
        <ele>2035.8270263672</ele>
        <time>2010-05-22T13:25:30Z</time>
      </trkpt>
      <trkpt lat="44.47897" lon="6.43389">
        <ele>2036.8326416016</ele>
        <time>2010-05-22T13:25:36Z</time>
      </trkpt>
      <trkpt lat="44.47892" lon="6.43393">
        <ele>2040.2235107422</ele>
        <time>2010-05-22T13:25:42Z</time>
      </trkpt>
      <trkpt lat="44.47893" lon="6.43398">
        <ele>2038.5551757812</ele>
        <time>2010-05-22T13:25:48Z</time>
      </trkpt>
      <trkpt lat="44.47894" lon="6.43402">
        <ele>2037.0418701172</ele>
        <time>2010-05-22T13:25:53Z</time>
      </trkpt>
      <trkpt lat="44.47896" lon="6.43402">
        <ele>2035.0281982422</ele>
        <time>2010-05-22T13:26:00Z</time>
      </trkpt>
      <trkpt lat="44.47897" lon="6.434">
        <ele>2034.8795166016</ele>
        <time>2010-05-22T13:26:07Z</time>
      </trkpt>
      <trkpt lat="44.47894" lon="6.43402">
        <ele>2036.6479492188</ele>
        <time>2010-05-22T13:26:14Z</time>
      </trkpt>
      <trkpt lat="44.47852" lon="6.43388">
        <ele>2072.1442871094</ele>
        <time>2010-05-22T13:30:42Z</time>
      </trkpt>
      <trkpt lat="44.47852" lon="6.43386">
        <ele>2074.6281738281</ele>
        <time>2010-05-22T13:30:49Z</time>
      </trkpt>
      <trkpt lat="44.47849" lon="6.43381">
        <ele>2082.4682617188</ele>
        <time>2010-05-22T13:30:59Z</time>
      </trkpt>
      <trkpt lat="44.47846" lon="6.43376">
        <ele>2089.7978515625</ele>
        <time>2010-05-22T13:31:16Z</time>
      </trkpt>
      <trkpt lat="44.47839" lon="6.43374">
        <ele>2099.6901855469</ele>
        <time>2010-05-22T13:32:16Z</time>
      </trkpt>
      <trkpt lat="44.47844" lon="6.43378">
        <ele>2091.0043945312</ele>
        <time>2010-05-22T13:32:25Z</time>
      </trkpt>
      <trkpt lat="44.4784" lon="6.43381">
        <ele>2092.4025878906</ele>
        <time>2010-05-22T13:32:30Z</time>
      </trkpt>
      <trkpt lat="44.47836" lon="6.43385">
        <ele>2094.5749511719</ele>
        <time>2010-05-22T13:32:36Z</time>
      </trkpt>
      <trkpt lat="44.47835" lon="6.4339">
        <ele>2092.2478027344</ele>
        <time>2010-05-22T13:32:42Z</time>
      </trkpt>
      <trkpt lat="44.47844" lon="6.43398">
        <ele>2078.4240722656</ele>
        <time>2010-05-22T13:32:52Z</time>
      </trkpt>
      <trkpt lat="44.47847" lon="6.43402">
        <ele>2074.2346191406</ele>
        <time>2010-05-22T13:32:59Z</time>
      </trkpt>
      <trkpt lat="44.47849" lon="6.43405">
        <ele>2071.0190429688</ele>
        <time>2010-05-22T13:33:06Z</time>
      </trkpt>
      <trkpt lat="44.47848" lon="6.43409">
        <ele>2071.4267578125</ele>
        <time>2010-05-22T13:33:12Z</time>
      </trkpt>
      <trkpt lat="44.47847" lon="6.43411">
        <ele>2072.0927734375</ele>
        <time>2010-05-22T13:33:17Z</time>
      </trkpt>
      <trkpt lat="44.47848" lon="6.43416">
        <ele>2069.3427734375</ele>
        <time>2010-05-22T13:33:34Z</time>
      </trkpt>
      <trkpt lat="44.47857" lon="6.4342">
        <ele>2060.5834960938</ele>
        <time>2010-05-22T13:33:46Z</time>
      </trkpt>
      <trkpt lat="44.47857" lon="6.43424">
        <ele>2059.0993652344</ele>
        <time>2010-05-22T13:33:53Z</time>
      </trkpt>
      <trkpt lat="44.4786" lon="6.43427">
        <ele>2055.7746582031</ele>
        <time>2010-05-22T13:34:04Z</time>
      </trkpt>
      <trkpt lat="44.47866" lon="6.43433">
        <ele>2050.5798339844</ele>
        <time>2010-05-22T13:34:14Z</time>
      </trkpt>
      <trkpt lat="44.47868" lon="6.43436">
        <ele>2048.2260742188</ele>
        <time>2010-05-22T13:34:19Z</time>
      </trkpt>
      <trkpt lat="44.47874" lon="6.43433">
        <ele>2043.7946777344</ele>
        <time>2010-05-22T13:35:09Z</time>
      </trkpt>
      <trkpt lat="44.47874" lon="6.43436">
        <ele>2043.1531982422</ele>
        <time>2010-05-22T13:35:13Z</time>
      </trkpt>
      <trkpt lat="44.47881" lon="6.4344">
        <ele>2036.7587890625</ele>
        <time>2010-05-22T13:35:22Z</time>
      </trkpt>
      <trkpt lat="44.4788" lon="6.43441">
        <ele>2037.4969482422</ele>
        <time>2010-05-22T13:35:27Z</time>
      </trkpt>
      <trkpt lat="44.47877" lon="6.43444">
        <ele>2038.83203125</ele>
        <time>2010-05-22T13:35:34Z</time>
      </trkpt>
      <trkpt lat="44.47876" lon="6.43447">
        <ele>2038.8621826172</ele>
        <time>2010-05-22T13:35:40Z</time>
      </trkpt>
      <trkpt lat="44.47873" lon="6.4345">
        <ele>2041.5460205078</ele>
        <time>2010-05-22T13:35:48Z</time>
      </trkpt>
      <trkpt lat="44.47869" lon="6.43454">
        <ele>2043.4193115234</ele>
        <time>2010-05-22T13:35:59Z</time>
      </trkpt>
      <trkpt lat="44.4787" lon="6.43457">
        <ele>2042.5887451172</ele>
        <time>2010-05-22T13:36:12Z</time>
      </trkpt>
      <trkpt lat="44.47867" lon="6.43458">
        <ele>2044.9819335938</ele>
        <time>2010-05-22T13:36:21Z</time>
      </trkpt>
      <trkpt lat="44.47869" lon="6.4346">
        <ele>2042.9361572266</ele>
        <time>2010-05-22T13:36:27Z</time>
      </trkpt>
      <trkpt lat="44.47873" lon="6.43463">
        <ele>2038.4434814453</ele>
        <time>2010-05-22T13:36:37Z</time>
      </trkpt>
      <trkpt lat="44.47874" lon="6.43466">
        <ele>2036.8271484375</ele>
        <time>2010-05-22T13:36:46Z</time>
      </trkpt>
      <trkpt lat="44.47876" lon="6.43466">
        <ele>2035.3327636719</ele>
        <time>2010-05-22T13:36:47Z</time>
      </trkpt>
      <trkpt lat="44.47879" lon="6.43472">
        <ele>2031.3270263672</ele>
        <time>2010-05-22T13:36:54Z</time>
      </trkpt>
      <trkpt lat="44.47876" lon="6.43474">
        <ele>2033.9278564453</ele>
        <time>2010-05-22T13:36:57Z</time>
      </trkpt>
      <trkpt lat="44.4787" lon="6.43479">
        <ele>2038.9577636719</ele>
        <time>2010-05-22T13:37:04Z</time>
      </trkpt>
      <trkpt lat="44.47867" lon="6.43484">
        <ele>2041.1248779297</ele>
        <time>2010-05-22T13:37:11Z</time>
      </trkpt>
      <trkpt lat="44.47862" lon="6.43486">
        <ele>2044.9527587891</ele>
        <time>2010-05-22T13:37:18Z</time>
      </trkpt>
      <trkpt lat="44.4786" lon="6.43491">
        <ele>2045.9417724609</ele>
        <time>2010-05-22T13:37:24Z</time>
      </trkpt>
      <trkpt lat="44.47858" lon="6.43494">
        <ele>2046.9638671875</ele>
        <time>2010-05-22T13:37:30Z</time>
      </trkpt>
      <trkpt lat="44.47858" lon="6.43496">
        <ele>2046.6614990234</ele>
        <time>2010-05-22T13:37:36Z</time>
      </trkpt>
      <trkpt lat="44.4786" lon="6.43497">
        <ele>2045.3051757812</ele>
        <time>2010-05-22T13:37:44Z</time>
      </trkpt>
      <trkpt lat="44.47863" lon="6.43497">
        <ele>2043.0733642578</ele>
        <time>2010-05-22T13:37:51Z</time>
      </trkpt>
      <trkpt lat="44.47863" lon="6.43498">
        <ele>2042.6217041016</ele>
        <time>2010-05-22T13:38:00Z</time>
      </trkpt>
      <trkpt lat="44.47862" lon="6.43499">
        <ele>2043.1501464844</ele>
        <time>2010-05-22T13:38:10Z</time>
      </trkpt>
      <trkpt lat="44.47862" lon="6.435">
        <ele>2043.4196777344</ele>
        <time>2010-05-22T13:38:27Z</time>
      </trkpt>
      <trkpt lat="44.47862" lon="6.43501">
        <ele>2043.2700195312</ele>
        <time>2010-05-22T13:38:34Z</time>
      </trkpt>
      <trkpt lat="44.4786" lon="6.43503">
        <ele>2044.095703125</ele>
        <time>2010-05-22T13:38:42Z</time>
      </trkpt>
      <trkpt lat="44.47859" lon="6.43507">
        <ele>2044.6468505859</ele>
        <time>2010-05-22T13:38:50Z</time>
      </trkpt>
      <trkpt lat="44.47861" lon="6.43509">
        <ele>2042.4222412109</ele>
        <time>2010-05-22T13:38:57Z</time>
      </trkpt>
      <trkpt lat="44.47863" lon="6.43511">
        <ele>2040.7769775391</ele>
        <time>2010-05-22T13:39:03Z</time>
      </trkpt>
      <trkpt lat="44.47865" lon="6.43514">
        <ele>2038.7322998047</ele>
        <time>2010-05-22T13:39:10Z</time>
      </trkpt>
      <trkpt lat="44.47863" lon="6.43515">
        <ele>2040.2708740234</ele>
        <time>2010-05-22T13:39:17Z</time>
      </trkpt>
      <trkpt lat="44.47863" lon="6.43515">
        <ele>2040.5050048828</ele>
        <time>2010-05-22T13:39:20Z</time>
      </trkpt>
      <trkpt lat="44.47863" lon="6.43516">
        <ele>2039.7198486328</ele>
        <time>2010-05-22T13:39:27Z</time>
      </trkpt>
      <trkpt lat="44.47859" lon="6.43516">
        <ele>2043.4273681641</ele>
        <time>2010-05-22T13:39:37Z</time>
      </trkpt>
      <trkpt lat="44.47857" lon="6.43515">
        <ele>2045.2611083984</ele>
        <time>2010-05-22T13:39:44Z</time>
      </trkpt>
      <trkpt lat="44.47857" lon="6.43518">
        <ele>2044.4312744141</ele>
        <time>2010-05-22T13:39:50Z</time>
      </trkpt>
      <trkpt lat="44.47857" lon="6.43521">
        <ele>2043.7897949219</ele>
        <time>2010-05-22T13:39:58Z</time>
      </trkpt>
      <trkpt lat="44.47857" lon="6.43523">
        <ele>2043.4700927734</ele>
        <time>2010-05-22T13:40:03Z</time>
      </trkpt>
      <trkpt lat="44.4786" lon="6.43523">
        <ele>2041.73828125</ele>
        <time>2010-05-22T13:40:10Z</time>
      </trkpt>
      <trkpt lat="44.47861" lon="6.43526">
        <ele>2040.1984863281</ele>
        <time>2010-05-22T13:40:18Z</time>
      </trkpt>
      <trkpt lat="44.47861" lon="6.43531">
        <ele>2039.1546630859</ele>
        <time>2010-05-22T13:40:30Z</time>
      </trkpt>
      <trkpt lat="44.47861" lon="6.43532">
        <ele>2039.5780029297</ele>
        <time>2010-05-22T13:40:38Z</time>
      </trkpt>
      <trkpt lat="44.4786" lon="6.43533">
        <ele>2039.9989013672</ele>
        <time>2010-05-22T13:40:44Z</time>
      </trkpt>
      <trkpt lat="44.4786" lon="6.43531">
        <ele>2040.48828125</ele>
        <time>2010-05-22T13:40:50Z</time>
      </trkpt>
      <trkpt lat="44.47861" lon="6.43532">
        <ele>2039.2420654297</ele>
        <time>2010-05-22T13:40:58Z</time>
      </trkpt>
      <trkpt lat="44.47863" lon="6.43536">
        <ele>2037.3736572266</ele>
        <time>2010-05-22T13:41:06Z</time>
      </trkpt>
      <trkpt lat="44.47863" lon="6.43541">
        <ele>2036.5102539062</ele>
        <time>2010-05-22T13:41:14Z</time>
      </trkpt>
      <trkpt lat="44.4786" lon="6.43546">
        <ele>2037.7532958984</ele>
        <time>2010-05-22T13:41:22Z</time>
      </trkpt>
      <trkpt lat="44.47861" lon="6.43546">
        <ele>2037.0395507812</ele>
        <time>2010-05-22T13:41:26Z</time>
      </trkpt>
      <trkpt lat="44.4786" lon="6.43547">
        <ele>2037.1591796875</ele>
        <time>2010-05-22T13:41:33Z</time>
      </trkpt>
      <trkpt lat="44.47858" lon="6.43547">
        <ele>2039.1944580078</ele>
        <time>2010-05-22T13:41:40Z</time>
      </trkpt>
      <trkpt lat="44.47858" lon="6.43548">
        <ele>2039.2224121094</ele>
        <time>2010-05-22T13:41:49Z</time>
      </trkpt>
      <trkpt lat="44.47858" lon="6.43551">
        <ele>2038.7412109375</ele>
        <time>2010-05-22T13:41:55Z</time>
      </trkpt>
      <trkpt lat="44.4786" lon="6.43555">
        <ele>2036.4261474609</ele>
        <time>2010-05-22T13:42:04Z</time>
      </trkpt>
      <trkpt lat="44.47862" lon="6.43554">
        <ele>2034.6805419922</ele>
        <time>2010-05-22T13:42:33Z</time>
      </trkpt>
      <trkpt lat="44.47862" lon="6.4355">
        <ele>2035.4404296875</ele>
        <time>2010-05-22T13:42:40Z</time>
      </trkpt>
      <trkpt lat="44.47862" lon="6.43554">
        <ele>2034.72265625</ele>
        <time>2010-05-22T13:42:46Z</time>
      </trkpt>
      <trkpt lat="44.47861" lon="6.43557">
        <ele>2035.01953125</ele>
        <time>2010-05-22T13:42:50Z</time>
      </trkpt>
      <trkpt lat="44.47863" lon="6.43557">
        <ele>2034.1528320312</ele>
        <time>2010-05-22T13:42:56Z</time>
      </trkpt>
      <trkpt lat="44.47863" lon="6.43556">
        <ele>2033.3787841797</ele>
        <time>2010-05-22T13:43:04Z</time>
      </trkpt>
      <trkpt lat="44.47864" lon="6.43556">
        <ele>2033.2257080078</ele>
        <time>2010-05-22T13:43:11Z</time>
      </trkpt>
      <trkpt lat="44.47863" lon="6.4356">
        <ele>2034.6311035156</ele>
        <time>2010-05-22T13:43:18Z</time>
      </trkpt>
      <trkpt lat="44.47858" lon="6.43569">
        <ele>2040.5798339844</ele>
        <time>2010-05-22T13:43:50Z</time>
      </trkpt>
      <trkpt lat="44.47856" lon="6.43567">
        <ele>2041.8692626953</ele>
        <time>2010-05-22T13:43:59Z</time>
      </trkpt>
      <trkpt lat="44.47853" lon="6.43568">
        <ele>2043.8094482422</ele>
        <time>2010-05-22T13:44:05Z</time>
      </trkpt>
      <trkpt lat="44.47856" lon="6.43568">
        <ele>2041.6793212891</ele>
        <time>2010-05-22T13:44:14Z</time>
      </trkpt>
      <trkpt lat="44.47861" lon="6.43567">
        <ele>2037.2393798828</ele>
        <time>2010-05-22T13:44:25Z</time>
      </trkpt>
      <trkpt lat="44.47862" lon="6.4357">
        <ele>2037.1798095703</ele>
        <time>2010-05-22T13:44:32Z</time>
      </trkpt>
      <trkpt lat="44.47861" lon="6.43574">
        <ele>2038.7808837891</ele>
        <time>2010-05-22T13:44:43Z</time>
      </trkpt>
      <trkpt lat="44.47859" lon="6.43577">
        <ele>2040.9920654297</ele>
        <time>2010-05-22T13:44:58Z</time>
      </trkpt>
      <trkpt lat="44.4786" lon="6.43582">
        <ele>2041.4676513672</ele>
        <time>2010-05-22T13:45:09Z</time>
      </trkpt>
      <trkpt lat="44.47863" lon="6.43585">
        <ele>2040.3687744141</ele>
        <time>2010-05-22T13:45:16Z</time>
      </trkpt>
      <trkpt lat="44.47863" lon="6.43586">
        <ele>2040.3004150391</ele>
        <time>2010-05-22T13:45:24Z</time>
      </trkpt>
      <trkpt lat="44.47863" lon="6.43589">
        <ele>2041.1564941406</ele>
        <time>2010-05-22T13:45:31Z</time>
      </trkpt>
      <trkpt lat="44.47862" lon="6.4359">
        <ele>2042.5532226562</ele>
        <time>2010-05-22T13:45:37Z</time>
      </trkpt>
      <trkpt lat="44.4786" lon="6.43594">
        <ele>2045.2235107422</ele>
        <time>2010-05-22T13:45:47Z</time>
      </trkpt>
      <trkpt lat="44.47858" lon="6.43601">
        <ele>2048.994140625</ele>
        <time>2010-05-22T13:45:58Z</time>
      </trkpt>
      <trkpt lat="44.47859" lon="6.43599">
        <ele>2047.4279785156</ele>
        <time>2010-05-22T13:46:08Z</time>
      </trkpt>
      <trkpt lat="44.47859" lon="6.436">
        <ele>2047.5344238281</ele>
        <time>2010-05-22T13:46:09Z</time>
      </trkpt>
      <trkpt lat="44.47859" lon="6.43601">
        <ele>2047.8386230469</ele>
        <time>2010-05-22T13:46:15Z</time>
      </trkpt>
      <trkpt lat="44.47859" lon="6.43602">
        <ele>2048.3862304688</ele>
        <time>2010-05-22T13:46:24Z</time>
      </trkpt>
      <trkpt lat="44.47859" lon="6.43602">
        <ele>2048.61328125</ele>
        <time>2010-05-22T13:46:32Z</time>
      </trkpt>
      <trkpt lat="44.47866" lon="6.43604">
        <ele>2044.4798583984</ele>
        <time>2010-05-22T13:46:40Z</time>
      </trkpt>
      <trkpt lat="44.47862" lon="6.43604">
        <ele>2047.3360595703</ele>
        <time>2010-05-22T13:46:48Z</time>
      </trkpt>
      <trkpt lat="44.47859" lon="6.43606">
        <ele>2049.5119628906</ele>
        <time>2010-05-22T13:46:56Z</time>
      </trkpt>
      <trkpt lat="44.47863" lon="6.43604">
        <ele>2046.228515625</ele>
        <time>2010-05-22T13:47:05Z</time>
      </trkpt>
      <trkpt lat="44.47862" lon="6.43607">
        <ele>2048.0949707031</ele>
        <time>2010-05-22T13:47:12Z</time>
      </trkpt>
      <trkpt lat="44.47861" lon="6.43611">
        <ele>2050.1130371094</ele>
        <time>2010-05-22T13:47:21Z</time>
      </trkpt>
      <trkpt lat="44.47861" lon="6.43611">
        <ele>2050.3557128906</ele>
        <time>2010-05-22T13:47:29Z</time>
      </trkpt>
      <trkpt lat="44.47861" lon="6.43613">
        <ele>2050.7231445312</ele>
        <time>2010-05-22T13:47:40Z</time>
      </trkpt>
      <trkpt lat="44.47861" lon="6.43616">
        <ele>2051.9304199219</ele>
        <time>2010-05-22T13:47:48Z</time>
      </trkpt>
      <trkpt lat="44.47863" lon="6.43616">
        <ele>2050.8400878906</ele>
        <time>2010-05-22T13:47:56Z</time>
      </trkpt>
      <trkpt lat="44.47863" lon="6.43619">
        <ele>2052.0349121094</ele>
        <time>2010-05-22T13:48:02Z</time>
      </trkpt>
      <trkpt lat="44.47865" lon="6.4362">
        <ele>2051.0849609375</ele>
        <time>2010-05-22T13:48:10Z</time>
      </trkpt>
      <trkpt lat="44.47867" lon="6.43621">
        <ele>2050.7229003906</ele>
        <time>2010-05-22T13:48:16Z</time>
      </trkpt>
      <trkpt lat="44.47869" lon="6.43623">
        <ele>2050.2810058594</ele>
        <time>2010-05-22T13:48:24Z</time>
      </trkpt>
      <trkpt lat="44.47872" lon="6.43622">
        <ele>2048.7878417969</ele>
        <time>2010-05-22T13:48:32Z</time>
      </trkpt>
      <trkpt lat="44.47868" lon="6.43627">
        <ele>2052.7468261719</ele>
        <time>2010-05-22T13:48:37Z</time>
      </trkpt>
      <trkpt lat="44.47864" lon="6.43633">
        <ele>2057.0383300781</ele>
        <time>2010-05-22T13:48:45Z</time>
      </trkpt>
      <trkpt lat="44.47866" lon="6.43637">
        <ele>2058.0668945312</ele>
        <time>2010-05-22T13:48:54Z</time>
      </trkpt>
      <trkpt lat="44.47866" lon="6.43638">
        <ele>2058.3234863281</ele>
        <time>2010-05-22T13:49:00Z</time>
      </trkpt>
      <trkpt lat="44.47868" lon="6.43639">
        <ele>2058.0314941406</ele>
        <time>2010-05-22T13:49:05Z</time>
      </trkpt>
      <trkpt lat="44.47872" lon="6.43637">
        <ele>2055.8762207031</ele>
        <time>2010-05-22T13:49:14Z</time>
      </trkpt>
      <trkpt lat="44.47876" lon="6.4364">
        <ele>2056.5505371094</ele>
        <time>2010-05-22T13:49:24Z</time>
      </trkpt>
      <trkpt lat="44.47878" lon="6.4364">
        <ele>2055.9650878906</ele>
        <time>2010-05-22T13:49:32Z</time>
      </trkpt>
      <trkpt lat="44.4788" lon="6.43632">
        <ele>2050.9250488281</ele>
        <time>2010-05-22T13:49:40Z</time>
      </trkpt>
      <trkpt lat="44.47883" lon="6.43634">
        <ele>2050.7980957031</ele>
        <time>2010-05-22T13:49:47Z</time>
      </trkpt>
      <trkpt lat="44.47886" lon="6.43635">
        <ele>2050.8725585938</ele>
        <time>2010-05-22T13:49:53Z</time>
      </trkpt>
      <trkpt lat="44.47884" lon="6.43637">
        <ele>2052.27734375</ele>
        <time>2010-05-22T13:50:01Z</time>
      </trkpt>
      <trkpt lat="44.47884" lon="6.43641">
        <ele>2055.244140625</ele>
        <time>2010-05-22T13:50:14Z</time>
      </trkpt>
      <trkpt lat="44.47886" lon="6.43643">
        <ele>2056.4633789062</ele>
        <time>2010-05-22T13:50:20Z</time>
      </trkpt>
      <trkpt lat="44.47884" lon="6.43648">
        <ele>2062.3078613281</ele>
        <time>2010-05-22T13:50:26Z</time>
      </trkpt>
      <trkpt lat="44.47887" lon="6.43649">
        <ele>2062.8796386719</ele>
        <time>2010-05-22T13:50:34Z</time>
      </trkpt>
      <trkpt lat="44.4789" lon="6.43649">
        <ele>2061.8022460938</ele>
        <time>2010-05-22T13:50:41Z</time>
      </trkpt>
      <trkpt lat="44.47894" lon="6.43647">
        <ele>2058.0324707031</ele>
        <time>2010-05-22T13:50:48Z</time>
      </trkpt>
      <trkpt lat="44.479" lon="6.43649">
        <ele>2057.2224121094</ele>
        <time>2010-05-22T13:50:56Z</time>
      </trkpt>
      <trkpt lat="44.47902" lon="6.43649">
        <ele>2056.8857421875</ele>
        <time>2010-05-22T13:51:02Z</time>
      </trkpt>
      <trkpt lat="44.47902" lon="6.43651">
        <ele>2058.3278808594</ele>
        <time>2010-05-22T13:51:08Z</time>
      </trkpt>
      <trkpt lat="44.47904" lon="6.43648">
        <ele>2054.6884765625</ele>
        <time>2010-05-22T13:51:16Z</time>
      </trkpt>
      <trkpt lat="44.47907" lon="6.43645">
        <ele>2050.7746582031</ele>
        <time>2010-05-22T13:51:22Z</time>
      </trkpt>
      <trkpt lat="44.47912" lon="6.43649">
        <ele>2052.2646484375</ele>
        <time>2010-05-22T13:51:30Z</time>
      </trkpt>
      <trkpt lat="44.47914" lon="6.43655">
        <ele>2057.8334960938</ele>
        <time>2010-05-22T13:51:36Z</time>
      </trkpt>
      <trkpt lat="44.47917" lon="6.43658">
        <ele>2059.3981933594</ele>
        <time>2010-05-22T13:51:42Z</time>
      </trkpt>
      <trkpt lat="44.47921" lon="6.43661">
        <ele>2060.0163574219</ele>
        <time>2010-05-22T13:51:50Z</time>
      </trkpt>
      <trkpt lat="44.47923" lon="6.43664">
        <ele>2060.9116210938</ele>
        <time>2010-05-22T13:52:02Z</time>
      </trkpt>
      <trkpt lat="44.47924" lon="6.43667">
        <ele>2062.7272949219</ele>
        <time>2010-05-22T13:52:09Z</time>
      </trkpt>
      <trkpt lat="44.47926" lon="6.43665">
        <ele>2059.7270507812</ele>
        <time>2010-05-22T13:52:17Z</time>
      </trkpt>
      <trkpt lat="44.47927" lon="6.43666">
        <ele>2060.3395996094</ele>
        <time>2010-05-22T13:52:24Z</time>
      </trkpt>
      <trkpt lat="44.47928" lon="6.43668">
        <ele>2060.7270507812</ele>
        <time>2010-05-22T13:52:32Z</time>
      </trkpt>
      <trkpt lat="44.47929" lon="6.43672">
        <ele>2062.0144042969</ele>
        <time>2010-05-22T13:52:39Z</time>
      </trkpt>
      <trkpt lat="44.4793" lon="6.43672">
        <ele>2062.0659179688</ele>
        <time>2010-05-22T13:52:47Z</time>
      </trkpt>
      <trkpt lat="44.47934" lon="6.43674">
        <ele>2060.6967773438</ele>
        <time>2010-05-22T13:52:56Z</time>
      </trkpt>
      <trkpt lat="44.47936" lon="6.43676">
        <ele>2059.7265625</ele>
        <time>2010-05-22T13:53:03Z</time>
      </trkpt>
      <trkpt lat="44.47942" lon="6.4368">
        <ele>2057.6513671875</ele>
        <time>2010-05-22T13:53:11Z</time>
      </trkpt>
      <trkpt lat="44.47943" lon="6.43681">
        <ele>2057.4763183594</ele>
        <time>2010-05-22T13:53:17Z</time>
      </trkpt>
      <trkpt lat="44.47944" lon="6.43684">
        <ele>2057.8894042969</ele>
        <time>2010-05-22T13:53:24Z</time>
      </trkpt>
      <trkpt lat="44.47947" lon="6.43686">
        <ele>2056.6994628906</ele>
        <time>2010-05-22T13:53:31Z</time>
      </trkpt>
      <trkpt lat="44.47948" lon="6.43688">
        <ele>2056.4497070312</ele>
        <time>2010-05-22T13:53:38Z</time>
      </trkpt>
      <trkpt lat="44.4795" lon="6.43688">
        <ele>2054.7907714844</ele>
        <time>2010-05-22T13:53:46Z</time>
      </trkpt>
      <trkpt lat="44.47954" lon="6.43691">
        <ele>2052.9248046875</ele>
        <time>2010-05-22T13:53:57Z</time>
      </trkpt>
      <trkpt lat="44.47956" lon="6.43694">
        <ele>2052.4167480469</ele>
        <time>2010-05-22T13:54:03Z</time>
      </trkpt>
      <trkpt lat="44.47957" lon="6.43698">
        <ele>2054.7653808594</ele>
        <time>2010-05-22T13:54:09Z</time>
      </trkpt>
      <trkpt lat="44.47958" lon="6.43701">
        <ele>2055.4755859375</ele>
        <time>2010-05-22T13:54:16Z</time>
      </trkpt>
      <trkpt lat="44.47961" lon="6.43702">
        <ele>2053.3391113281</ele>
        <time>2010-05-22T13:54:22Z</time>
      </trkpt>
      <trkpt lat="44.47964" lon="6.43704">
        <ele>2052.1196289062</ele>
        <time>2010-05-22T13:54:29Z</time>
      </trkpt>
      <trkpt lat="44.47966" lon="6.43707">
        <ele>2053.6384277344</ele>
        <time>2010-05-22T13:54:37Z</time>
      </trkpt>
      <trkpt lat="44.47964" lon="6.43708">
        <ele>2055.9189453125</ele>
        <time>2010-05-22T13:54:52Z</time>
      </trkpt>
      <trkpt lat="44.47964" lon="6.43709">
        <ele>2056.748046875</ele>
        <time>2010-05-22T13:55:06Z</time>
      </trkpt>
      <trkpt lat="44.47964" lon="6.4371">
        <ele>2057.4956054688</ele>
        <time>2010-05-22T13:55:14Z</time>
      </trkpt>
      <trkpt lat="44.47964" lon="6.43714">
        <ele>2060.4484863281</ele>
        <time>2010-05-22T13:55:24Z</time>
      </trkpt>
      <trkpt lat="44.47963" lon="6.43715">
        <ele>2062.0114746094</ele>
        <time>2010-05-22T13:55:31Z</time>
      </trkpt>
      <trkpt lat="44.47968" lon="6.43718">
        <ele>2060.2868652344</ele>
        <time>2010-05-22T13:55:42Z</time>
      </trkpt>
      <trkpt lat="44.47967" lon="6.43721">
        <ele>2063.5085449219</ele>
        <time>2010-05-22T13:55:48Z</time>
      </trkpt>
      <trkpt lat="44.47971" lon="6.43719">
        <ele>2058.4318847656</ele>
        <time>2010-05-22T13:55:57Z</time>
      </trkpt>
      <trkpt lat="44.47976" lon="6.43712">
        <ele>2045.0390625</ele>
        <time>2010-05-22T13:56:11Z</time>
      </trkpt>
      <trkpt lat="44.47971" lon="6.4371">
        <ele>2050.4609375</ele>
        <time>2010-05-22T13:56:21Z</time>
      </trkpt>
      <trkpt lat="44.4797" lon="6.43713">
        <ele>2054.40625</ele>
        <time>2010-05-22T13:56:28Z</time>
      </trkpt>
      <trkpt lat="44.47968" lon="6.43714">
        <ele>2057.5834960938</ele>
        <time>2010-05-22T13:56:39Z</time>
      </trkpt>
      <trkpt lat="44.47967" lon="6.43715">
        <ele>2058.7175292969</ele>
        <time>2010-05-22T13:56:49Z</time>
      </trkpt>
      <trkpt lat="44.47967" lon="6.43714">
        <ele>2057.5708007812</ele>
        <time>2010-05-22T13:57:01Z</time>
      </trkpt>
      <trkpt lat="44.47963" lon="6.43714">
        <ele>2060.7810058594</ele>
        <time>2010-05-22T13:57:12Z</time>
      </trkpt>
      <trkpt lat="44.47967" lon="6.43715">
        <ele>2058.5512695312</ele>
        <time>2010-05-22T13:57:22Z</time>
      </trkpt>
      <trkpt lat="44.47968" lon="6.43716">
        <ele>2058.2507324219</ele>
        <time>2010-05-22T13:57:30Z</time>
      </trkpt>
      <trkpt lat="44.47968" lon="6.43717">
        <ele>2059.3469238281</ele>
        <time>2010-05-22T13:57:40Z</time>
      </trkpt>
      <trkpt lat="44.47968" lon="6.43719">
        <ele>2060.2709960938</ele>
        <time>2010-05-22T13:57:48Z</time>
      </trkpt>
      <trkpt lat="44.47968" lon="6.43721">
        <ele>2062.8718261719</ele>
        <time>2010-05-22T13:57:57Z</time>
      </trkpt>
      <trkpt lat="44.47966" lon="6.43724">
        <ele>2066.1359863281</ele>
        <time>2010-05-22T13:58:05Z</time>
      </trkpt>
      <trkpt lat="44.47965" lon="6.43726">
        <ele>2067.2739257812</ele>
        <time>2010-05-22T13:58:11Z</time>
      </trkpt>
      <trkpt lat="44.47961" lon="6.43731">
        <ele>2072.5129394531</ele>
        <time>2010-05-22T13:58:19Z</time>
      </trkpt>
      <trkpt lat="44.47959" lon="6.43736">
        <ele>2076.2062988281</ele>
        <time>2010-05-22T13:58:27Z</time>
      </trkpt>
      <trkpt lat="44.47956" lon="6.43741">
        <ele>2080.541015625</ele>
        <time>2010-05-22T13:58:34Z</time>
      </trkpt>
      <trkpt lat="44.47955" lon="6.4375">
        <ele>2085.6889648438</ele>
        <time>2010-05-22T13:58:43Z</time>
      </trkpt>
      <trkpt lat="44.47955" lon="6.43754">
        <ele>2085.1999511719</ele>
        <time>2010-05-22T13:58:49Z</time>
      </trkpt>
      <trkpt lat="44.47951" lon="6.43762">
        <ele>2087.7124023438</ele>
        <time>2010-05-22T13:58:58Z</time>
      </trkpt>
      <trkpt lat="44.47949" lon="6.43768">
        <ele>2089.2875976562</ele>
        <time>2010-05-22T13:59:07Z</time>
      </trkpt>
      <trkpt lat="44.47948" lon="6.43772">
        <ele>2089.2456054688</ele>
        <time>2010-05-22T13:59:13Z</time>
      </trkpt>
      <trkpt lat="44.47947" lon="6.43777">
        <ele>2089.9284667969</ele>
        <time>2010-05-22T13:59:20Z</time>
      </trkpt>
      <trkpt lat="44.47946" lon="6.43782">
        <ele>2090.7209472656</ele>
        <time>2010-05-22T13:59:25Z</time>
      </trkpt>
      <trkpt lat="44.47944" lon="6.43786">
        <ele>2092.6257324219</ele>
        <time>2010-05-22T13:59:32Z</time>
      </trkpt>
      <trkpt lat="44.47943" lon="6.43787">
        <ele>2092.7780761719</ele>
        <time>2010-05-22T13:59:39Z</time>
      </trkpt>
      <trkpt lat="44.47943" lon="6.43793">
        <ele>2092.2951660156</ele>
        <time>2010-05-22T13:59:47Z</time>
      </trkpt>
      <trkpt lat="44.47944" lon="6.43794">
        <ele>2091.8857421875</ele>
        <time>2010-05-22T13:59:52Z</time>
      </trkpt>
      <trkpt lat="44.47943" lon="6.43797">
        <ele>2092.3046875</ele>
        <time>2010-05-22T13:59:59Z</time>
      </trkpt>
      <trkpt lat="44.47942" lon="6.43802">
        <ele>2092.0798339844</ele>
        <time>2010-05-22T14:00:08Z</time>
      </trkpt>
      <trkpt lat="44.47944" lon="6.43805">
        <ele>2091.1391601562</ele>
        <time>2010-05-22T14:00:14Z</time>
      </trkpt>
      <trkpt lat="44.47943" lon="6.43809">
        <ele>2091.1303710938</ele>
        <time>2010-05-22T14:00:22Z</time>
      </trkpt>
      <trkpt lat="44.47945" lon="6.43816">
        <ele>2089.1474609375</ele>
        <time>2010-05-22T14:00:29Z</time>
      </trkpt>
      <trkpt lat="44.47945" lon="6.43821">
        <ele>2088.1357421875</ele>
        <time>2010-05-22T14:00:36Z</time>
      </trkpt>
      <trkpt lat="44.47946" lon="6.43829">
        <ele>2086.8942871094</ele>
        <time>2010-05-22T14:00:44Z</time>
      </trkpt>
      <trkpt lat="44.47948" lon="6.43834">
        <ele>2083.3413085938</ele>
        <time>2010-05-22T14:00:50Z</time>
      </trkpt>
      <trkpt lat="44.47951" lon="6.43841">
        <ele>2080.1484375</ele>
        <time>2010-05-22T14:00:58Z</time>
      </trkpt>
      <trkpt lat="44.47951" lon="6.43847">
        <ele>2080.0336914062</ele>
        <time>2010-05-22T14:01:05Z</time>
      </trkpt>
      <trkpt lat="44.47952" lon="6.4385">
        <ele>2079.5788574219</ele>
        <time>2010-05-22T14:01:12Z</time>
      </trkpt>
      <trkpt lat="44.47953" lon="6.43852">
        <ele>2077.6240234375</ele>
        <time>2010-05-22T14:01:20Z</time>
      </trkpt>
      <trkpt lat="44.47954" lon="6.43856">
        <ele>2076.8713378906</ele>
        <time>2010-05-22T14:01:27Z</time>
      </trkpt>
      <trkpt lat="44.47955" lon="6.43868">
        <ele>2076.0385742188</ele>
        <time>2010-05-22T14:01:35Z</time>
      </trkpt>
      <trkpt lat="44.47954" lon="6.43871">
        <ele>2076.1843261719</ele>
        <time>2010-05-22T14:01:37Z</time>
      </trkpt>
      <trkpt lat="44.47951" lon="6.43879">
        <ele>2078.5944824219</ele>
        <time>2010-05-22T14:01:45Z</time>
      </trkpt>
      <trkpt lat="44.47952" lon="6.43881">
        <ele>2077.4831542969</ele>
        <time>2010-05-22T14:01:51Z</time>
      </trkpt>
      <trkpt lat="44.47947" lon="6.43884">
        <ele>2081.4658203125</ele>
        <time>2010-05-22T14:01:58Z</time>
      </trkpt>
      <trkpt lat="44.47941" lon="6.43886">
        <ele>2084.2180175781</ele>
        <time>2010-05-22T14:02:05Z</time>
      </trkpt>
      <trkpt lat="44.47939" lon="6.43887">
        <ele>2084.6064453125</ele>
        <time>2010-05-22T14:02:06Z</time>
      </trkpt>
      <trkpt lat="44.47936" lon="6.43893">
        <ele>2084.6752929688</ele>
        <time>2010-05-22T14:02:10Z</time>
      </trkpt>
      <trkpt lat="44.47932" lon="6.43896">
        <ele>2085.138671875</ele>
        <time>2010-05-22T14:02:16Z</time>
      </trkpt>
      <trkpt lat="44.4793" lon="6.439">
        <ele>2085.0034179688</ele>
        <time>2010-05-22T14:02:24Z</time>
      </trkpt>
      <trkpt lat="44.47927" lon="6.43909">
        <ele>2084.3537597656</ele>
        <time>2010-05-22T14:02:32Z</time>
      </trkpt>
      <trkpt lat="44.47925" lon="6.43914">
        <ele>2083.9653320312</ele>
        <time>2010-05-22T14:02:40Z</time>
      </trkpt>
      <trkpt lat="44.47924" lon="6.43915">
        <ele>2083.9592285156</ele>
        <time>2010-05-22T14:02:45Z</time>
      </trkpt>
      <trkpt lat="44.47923" lon="6.43917">
        <ele>2083.7897949219</ele>
        <time>2010-05-22T14:02:51Z</time>
      </trkpt>
      <trkpt lat="44.4792" lon="6.43923">
        <ele>2083.28515625</ele>
        <time>2010-05-22T14:03:00Z</time>
      </trkpt>
      <trkpt lat="44.47913" lon="6.43931">
        <ele>2083.0485839844</ele>
        <time>2010-05-22T14:03:10Z</time>
      </trkpt>
      <trkpt lat="44.47905" lon="6.43936">
        <ele>2082.4765625</ele>
        <time>2010-05-22T14:03:18Z</time>
      </trkpt>
      <trkpt lat="44.47904" lon="6.43933">
        <ele>2083.0815429688</ele>
        <time>2010-05-22T14:03:27Z</time>
      </trkpt>
      <trkpt lat="44.47904" lon="6.43931">
        <ele>2083.6342773438</ele>
        <time>2010-05-22T14:04:35Z</time>
      </trkpt>
      <trkpt lat="44.47903" lon="6.4393">
        <ele>2083.8513183594</ele>
        <time>2010-05-22T14:05:05Z</time>
      </trkpt>
      <trkpt lat="44.47902" lon="6.43936">
        <ele>2082.4138183594</ele>
        <time>2010-05-22T14:07:47Z</time>
      </trkpt>
      <trkpt lat="44.47902" lon="6.43933">
        <ele>2083.2199707031</ele>
        <time>2010-05-22T14:08:31Z</time>
      </trkpt>
      <trkpt lat="44.479" lon="6.43921">
        <ele>2086.2844238281</ele>
        <time>2010-05-22T14:09:56Z</time>
      </trkpt>
      <trkpt lat="44.47899" lon="6.43918">
        <ele>2087.0583496094</ele>
        <time>2010-05-22T14:10:23Z</time>
      </trkpt>
      <trkpt lat="44.479" lon="6.43919">
        <ele>2086.7043457031</ele>
        <time>2010-05-22T14:10:46Z</time>
      </trkpt>
      <trkpt lat="44.47902" lon="6.43925">
        <ele>2085.0466308594</ele>
        <time>2010-05-22T14:11:47Z</time>
      </trkpt>
      <trkpt lat="44.47902" lon="6.43934">
        <ele>2082.8774414062</ele>
        <time>2010-05-22T14:13:49Z</time>
      </trkpt>
      <trkpt lat="44.47903" lon="6.43937">
        <ele>2082.2902832031</ele>
        <time>2010-05-22T14:14:00Z</time>
      </trkpt>
      <trkpt lat="44.47902" lon="6.43937">
        <ele>2082.3232421875</ele>
        <time>2010-05-22T14:14:13Z</time>
      </trkpt>
      <trkpt lat="44.47905" lon="6.43938">
        <ele>2082.0827636719</ele>
        <time>2010-05-22T14:14:24Z</time>
      </trkpt>
      <trkpt lat="44.47905" lon="6.43935">
        <ele>2082.5388183594</ele>
        <time>2010-05-22T14:14:35Z</time>
      </trkpt>
      <trkpt lat="44.47905" lon="6.43935">
        <ele>2082.5891113281</ele>
        <time>2010-05-22T14:14:43Z</time>
      </trkpt>
      <trkpt lat="44.47905" lon="6.43934">
        <ele>2082.7780761719</ele>
        <time>2010-05-22T14:15:07Z</time>
      </trkpt>
      <trkpt lat="44.47898" lon="6.43932">
        <ele>2083.5209960938</ele>
        <time>2010-05-22T14:15:41Z</time>
      </trkpt>
      <trkpt lat="44.47898" lon="6.43933">
        <ele>2083.4445800781</ele>
        <time>2010-05-22T14:15:52Z</time>
      </trkpt>
      <trkpt lat="44.47897" lon="6.43934">
        <ele>2083.2419433594</ele>
        <time>2010-05-22T14:15:56Z</time>
      </trkpt>
      <trkpt lat="44.47892" lon="6.43936">
        <ele>2082.7097167969</ele>
        <time>2010-05-22T14:15:59Z</time>
      </trkpt>
      <trkpt lat="44.47887" lon="6.43939">
        <ele>2081.9780273438</ele>
        <time>2010-05-22T14:16:05Z</time>
      </trkpt>
      <trkpt lat="44.47876" lon="6.43944">
        <ele>2082.103515625</ele>
        <time>2010-05-22T14:16:11Z</time>
      </trkpt>
      <trkpt lat="44.47866" lon="6.43949">
        <ele>2081.470703125</ele>
        <time>2010-05-22T14:16:17Z</time>
      </trkpt>
      <trkpt lat="44.47857" lon="6.43951">
        <ele>2081.4897460938</ele>
        <time>2010-05-22T14:16:22Z</time>
      </trkpt>
      <trkpt lat="44.47854" lon="6.43953">
        <ele>2080.7993164062</ele>
        <time>2010-05-22T14:16:23Z</time>
      </trkpt>
      <trkpt lat="44.47841" lon="6.43962">
        <ele>2077.033203125</ele>
        <time>2010-05-22T14:16:30Z</time>
      </trkpt>
      <trkpt lat="44.47833" lon="6.43969">
        <ele>2073.4821777344</ele>
        <time>2010-05-22T14:16:36Z</time>
      </trkpt>
      <trkpt lat="44.47831" lon="6.43971">
        <ele>2072.7863769531</ele>
        <time>2010-05-22T14:16:41Z</time>
      </trkpt>
      <trkpt lat="44.47833" lon="6.43976">
        <ele>2069.6716308594</ele>
        <time>2010-05-22T14:16:48Z</time>
      </trkpt>
      <trkpt lat="44.47834" lon="6.43976">
        <ele>2069.3835449219</ele>
        <time>2010-05-22T14:16:53Z</time>
      </trkpt>
      <trkpt lat="44.47834" lon="6.43977">
        <ele>2068.8874511719</ele>
        <time>2010-05-22T14:16:55Z</time>
      </trkpt>
      <trkpt lat="44.47832" lon="6.43981">
        <ele>2067.0617675781</ele>
        <time>2010-05-22T14:16:58Z</time>
      </trkpt>
      <trkpt lat="44.47824" lon="6.43987">
        <ele>2064.455078125</ele>
        <time>2010-05-22T14:17:04Z</time>
      </trkpt>
      <trkpt lat="44.47818" lon="6.43992">
        <ele>2062.171875</ele>
        <time>2010-05-22T14:17:11Z</time>
      </trkpt>
      <trkpt lat="44.47816" lon="6.43995">
        <ele>2060.986328125</ele>
        <time>2010-05-22T14:17:13Z</time>
      </trkpt>
      <trkpt lat="44.47813" lon="6.44">
        <ele>2058.5031738281</ele>
        <time>2010-05-22T14:17:17Z</time>
      </trkpt>
      <trkpt lat="44.47808" lon="6.44014">
        <ele>2052.6042480469</ele>
        <time>2010-05-22T14:17:23Z</time>
      </trkpt>
      <trkpt lat="44.47806" lon="6.44017">
        <ele>2051.9653320312</ele>
        <time>2010-05-22T14:17:27Z</time>
      </trkpt>
      <trkpt lat="44.47805" lon="6.44021">
        <ele>2050.2214355469</ele>
        <time>2010-05-22T14:17:33Z</time>
      </trkpt>
      <trkpt lat="44.478" lon="6.44028">
        <ele>2048.6887207031</ele>
        <time>2010-05-22T14:17:40Z</time>
      </trkpt>
      <trkpt lat="44.47797" lon="6.44033">
        <ele>2047.5629882812</ele>
        <time>2010-05-22T14:17:47Z</time>
      </trkpt>
      <trkpt lat="44.47795" lon="6.44039">
        <ele>2045.6162109375</ele>
        <time>2010-05-22T14:17:57Z</time>
      </trkpt>
      <trkpt lat="44.47796" lon="6.4404">
        <ele>2044.9071044922</ele>
        <time>2010-05-22T14:18:03Z</time>
      </trkpt>
      <trkpt lat="44.47797" lon="6.44037">
        <ele>2045.7020263672</ele>
        <time>2010-05-22T14:18:12Z</time>
      </trkpt>
      <trkpt lat="44.47801" lon="6.44033">
        <ele>2046.3432617188</ele>
        <time>2010-05-22T14:18:19Z</time>
      </trkpt>
      <trkpt lat="44.47807" lon="6.44032">
        <ele>2044.3258056641</ele>
        <time>2010-05-22T14:18:26Z</time>
      </trkpt>
      <trkpt lat="44.4781" lon="6.44029">
        <ele>2044.9411621094</ele>
        <time>2010-05-22T14:18:32Z</time>
      </trkpt>
      <trkpt lat="44.47815" lon="6.44025">
        <ele>2045.2171630859</ele>
        <time>2010-05-22T14:18:38Z</time>
      </trkpt>
      <trkpt lat="44.47818" lon="6.44027">
        <ele>2042.8735351562</ele>
        <time>2010-05-22T14:18:44Z</time>
      </trkpt>
      <trkpt lat="44.47823" lon="6.44025">
        <ele>2042.3272705078</ele>
        <time>2010-05-22T14:18:52Z</time>
      </trkpt>
      <trkpt lat="44.47823" lon="6.44026">
        <ele>2041.7960205078</ele>
        <time>2010-05-22T14:18:55Z</time>
      </trkpt>
      <trkpt lat="44.47828" lon="6.4403">
        <ele>2037.4230957031</ele>
        <time>2010-05-22T14:19:01Z</time>
      </trkpt>
      <trkpt lat="44.47829" lon="6.4403">
        <ele>2037.1553955078</ele>
        <time>2010-05-22T14:19:03Z</time>
      </trkpt>
      <trkpt lat="44.47831" lon="6.44033">
        <ele>2035.0202636719</ele>
        <time>2010-05-22T14:19:10Z</time>
      </trkpt>
      <trkpt lat="44.47831" lon="6.44033">
        <ele>2034.9143066406</ele>
        <time>2010-05-22T14:19:12Z</time>
      </trkpt>
      <trkpt lat="44.47824" lon="6.44039">
        <ele>2034.2017822266</ele>
        <time>2010-05-22T14:19:18Z</time>
      </trkpt>
      <trkpt lat="44.47823" lon="6.44049">
        <ele>2029.4307861328</ele>
        <time>2010-05-22T14:19:34Z</time>
      </trkpt>
      <trkpt lat="44.47817" lon="6.44055">
        <ele>2028.9853515625</ele>
        <time>2010-05-22T14:19:37Z</time>
      </trkpt>
      <trkpt lat="44.47815" lon="6.44056">
        <ele>2029.9543457031</ele>
        <time>2010-05-22T14:19:44Z</time>
      </trkpt>
      <trkpt lat="44.47813" lon="6.44058">
        <ele>2030.1036376953</ele>
        <time>2010-05-22T14:19:53Z</time>
      </trkpt>
      <trkpt lat="44.47813" lon="6.44061">
        <ele>2027.6726074219</ele>
        <time>2010-05-22T14:20:03Z</time>
      </trkpt>
      <trkpt lat="44.4781" lon="6.44066">
        <ele>2027.3833007812</ele>
        <time>2010-05-22T14:20:09Z</time>
      </trkpt>
      <trkpt lat="44.47807" lon="6.44069">
        <ele>2026.9936523438</ele>
        <time>2010-05-22T14:20:13Z</time>
      </trkpt>
      <trkpt lat="44.47804" lon="6.44076">
        <ele>2024.6326904297</ele>
        <time>2010-05-22T14:20:21Z</time>
      </trkpt>
      <trkpt lat="44.47803" lon="6.44081">
        <ele>2022.5140380859</ele>
        <time>2010-05-22T14:20:26Z</time>
      </trkpt>
      <trkpt lat="44.478" lon="6.44085">
        <ele>2021.9996337891</ele>
        <time>2010-05-22T14:20:33Z</time>
      </trkpt>
      <trkpt lat="44.47799" lon="6.44088">
        <ele>2021.4279785156</ele>
        <time>2010-05-22T14:20:38Z</time>
      </trkpt>
      <trkpt lat="44.47798" lon="6.44089">
        <ele>2021.5893554688</ele>
        <time>2010-05-22T14:20:39Z</time>
      </trkpt>
      <trkpt lat="44.47792" lon="6.441">
        <ele>2020.2624511719</ele>
        <time>2010-05-22T14:20:47Z</time>
      </trkpt>
      <trkpt lat="44.47795" lon="6.44104">
        <ele>2017.078125</ele>
        <time>2010-05-22T14:20:54Z</time>
      </trkpt>
      <trkpt lat="44.47799" lon="6.44101">
        <ele>2016.4653320312</ele>
        <time>2010-05-22T14:20:59Z</time>
      </trkpt>
      <trkpt lat="44.478" lon="6.44095">
        <ele>2018.169921875</ele>
        <time>2010-05-22T14:21:06Z</time>
      </trkpt>
      <trkpt lat="44.47802" lon="6.44094">
        <ele>2017.7562255859</ele>
        <time>2010-05-22T14:21:12Z</time>
      </trkpt>
      <trkpt lat="44.47806" lon="6.44088">
        <ele>2017.9001464844</ele>
        <time>2010-05-22T14:21:18Z</time>
      </trkpt>
      <trkpt lat="44.47807" lon="6.44085">
        <ele>2018.3795166016</ele>
        <time>2010-05-22T14:21:24Z</time>
      </trkpt>
      <trkpt lat="44.4781" lon="6.44083">
        <ele>2017.8441162109</ele>
        <time>2010-05-22T14:21:31Z</time>
      </trkpt>
      <trkpt lat="44.47813" lon="6.44077">
        <ele>2020.0300292969</ele>
        <time>2010-05-22T14:21:38Z</time>
      </trkpt>
      <trkpt lat="44.47817" lon="6.44073">
        <ele>2019.7821044922</ele>
        <time>2010-05-22T14:21:47Z</time>
      </trkpt>
      <trkpt lat="44.47818" lon="6.44069">
        <ele>2020.8143310547</ele>
        <time>2010-05-22T14:21:54Z</time>
      </trkpt>
      <trkpt lat="44.47823" lon="6.44069">
        <ele>2018.5727539062</ele>
        <time>2010-05-22T14:22:01Z</time>
      </trkpt>
      <trkpt lat="44.47828" lon="6.44067">
        <ele>2017.3034667969</ele>
        <time>2010-05-22T14:22:07Z</time>
      </trkpt>
      <trkpt lat="44.47826" lon="6.44063">
        <ele>2020.2596435547</ele>
        <time>2010-05-22T14:22:19Z</time>
      </trkpt>
      <trkpt lat="44.47829" lon="6.44062">
        <ele>2019.1588134766</ele>
        <time>2010-05-22T14:22:25Z</time>
      </trkpt>
      <trkpt lat="44.47842" lon="6.4406">
        <ele>2017.2061767578</ele>
        <time>2010-05-22T14:22:31Z</time>
      </trkpt>
      <trkpt lat="44.47865" lon="6.4406">
        <ele>2014.9310302734</ele>
        <time>2010-05-22T14:22:37Z</time>
      </trkpt>
      <trkpt lat="44.47871" lon="6.44055">
        <ele>2016.6163330078</ele>
        <time>2010-05-22T14:22:39Z</time>
      </trkpt>
      <trkpt lat="44.47882" lon="6.44058">
        <ele>2013.7335205078</ele>
        <time>2010-05-22T14:22:44Z</time>
      </trkpt>
      <trkpt lat="44.47892" lon="6.4406">
        <ele>2011.3326416016</ele>
        <time>2010-05-22T14:22:47Z</time>
      </trkpt>
      <trkpt lat="44.47904" lon="6.44061">
        <ele>2010.7142333984</ele>
        <time>2010-05-22T14:22:51Z</time>
      </trkpt>
      <trkpt lat="44.47906" lon="6.44065">
        <ele>2008.5974121094</ele>
        <time>2010-05-22T14:22:54Z</time>
      </trkpt>
      <trkpt lat="44.47894" lon="6.44073">
        <ele>2003.8803710938</ele>
        <time>2010-05-22T14:23:00Z</time>
      </trkpt>
      <trkpt lat="44.47879" lon="6.4408">
        <ele>2001.5073242188</ele>
        <time>2010-05-22T14:23:05Z</time>
      </trkpt>
      <trkpt lat="44.47858" lon="6.44094">
        <ele>1996.1694335938</ele>
        <time>2010-05-22T14:23:11Z</time>
      </trkpt>
      <trkpt lat="44.47848" lon="6.44104">
        <ele>1992.0997314453</ele>
        <time>2010-05-22T14:23:15Z</time>
      </trkpt>
      <trkpt lat="44.47847" lon="6.44108">
        <ele>1990.6900634766</ele>
        <time>2010-05-22T14:23:18Z</time>
      </trkpt>
      <trkpt lat="44.47845" lon="6.44112">
        <ele>1988.9212646484</ele>
        <time>2010-05-22T14:23:25Z</time>
      </trkpt>
      <trkpt lat="44.47844" lon="6.44115">
        <ele>1987.8977050781</ele>
        <time>2010-05-22T14:23:31Z</time>
      </trkpt>
      <trkpt lat="44.47841" lon="6.44118">
        <ele>1987.5645751953</ele>
        <time>2010-05-22T14:23:37Z</time>
      </trkpt>
      <trkpt lat="44.47837" lon="6.44128">
        <ele>1985.1761474609</ele>
        <time>2010-05-22T14:23:45Z</time>
      </trkpt>
      <trkpt lat="44.47833" lon="6.44136">
        <ele>1983.2672119141</ele>
        <time>2010-05-22T14:23:50Z</time>
      </trkpt>
      <trkpt lat="44.47831" lon="6.44144">
        <ele>1981.5594482422</ele>
        <time>2010-05-22T14:23:55Z</time>
      </trkpt>
      <trkpt lat="44.47825" lon="6.44151">
        <ele>1981.8941650391</ele>
        <time>2010-05-22T14:24:03Z</time>
      </trkpt>
      <trkpt lat="44.47821" lon="6.44157">
        <ele>1981.4997558594</ele>
        <time>2010-05-22T14:24:11Z</time>
      </trkpt>
      <trkpt lat="44.47818" lon="6.44161">
        <ele>1981.1558837891</ele>
        <time>2010-05-22T14:24:14Z</time>
      </trkpt>
      <trkpt lat="44.47808" lon="6.44171">
        <ele>1982.1099853516</ele>
        <time>2010-05-22T14:24:20Z</time>
      </trkpt>
      <trkpt lat="44.47807" lon="6.44173">
        <ele>1982.1317138672</ele>
        <time>2010-05-22T14:24:21Z</time>
      </trkpt>
      <trkpt lat="44.478" lon="6.44193">
        <ele>1976.0526123047</ele>
        <time>2010-05-22T14:24:26Z</time>
      </trkpt>
      <trkpt lat="44.47799" lon="6.44199">
        <ele>1974.404296875</ele>
        <time>2010-05-22T14:24:28Z</time>
      </trkpt>
      <trkpt lat="44.47799" lon="6.44202">
        <ele>1973.2235107422</ele>
        <time>2010-05-22T14:24:35Z</time>
      </trkpt>
      <trkpt lat="44.478" lon="6.44196">
        <ele>1975.1297607422</ele>
        <time>2010-05-22T14:24:41Z</time>
      </trkpt>
      <trkpt lat="44.47808" lon="6.44192">
        <ele>1973.7711181641</ele>
        <time>2010-05-22T14:24:51Z</time>
      </trkpt>
      <trkpt lat="44.47814" lon="6.44188">
        <ele>1972.6324462891</ele>
        <time>2010-05-22T14:25:00Z</time>
      </trkpt>
      <trkpt lat="44.4782" lon="6.44184">
        <ele>1971.1815185547</ele>
        <time>2010-05-22T14:25:08Z</time>
      </trkpt>
      <trkpt lat="44.47821" lon="6.44182">
        <ele>1970.9803466797</ele>
        <time>2010-05-22T14:25:15Z</time>
      </trkpt>
      <trkpt lat="44.47825" lon="6.44184">
        <ele>1968.4536132812</ele>
        <time>2010-05-22T14:25:20Z</time>
      </trkpt>
      <trkpt lat="44.47827" lon="6.44186">
        <ele>1966.7698974609</ele>
        <time>2010-05-22T14:25:29Z</time>
      </trkpt>
      <trkpt lat="44.4784" lon="6.44179">
        <ele>1964.6889648438</ele>
        <time>2010-05-22T14:25:34Z</time>
      </trkpt>
      <trkpt lat="44.47858" lon="6.44163">
        <ele>1964.2724609375</ele>
        <time>2010-05-22T14:25:39Z</time>
      </trkpt>
      <trkpt lat="44.47869" lon="6.44157">
        <ele>1965.2390136719</ele>
        <time>2010-05-22T14:25:43Z</time>
      </trkpt>
      <trkpt lat="44.47879" lon="6.44157">
        <ele>1964.8387451172</ele>
        <time>2010-05-22T14:25:45Z</time>
      </trkpt>
      <trkpt lat="44.47916" lon="6.44158">
        <ele>1964.2310791016</ele>
        <time>2010-05-22T14:25:51Z</time>
      </trkpt>
      <trkpt lat="44.47923" lon="6.44157">
        <ele>1964.5372314453</ele>
        <time>2010-05-22T14:25:52Z</time>
      </trkpt>
      <trkpt lat="44.47945" lon="6.4416">
        <ele>1963.8503417969</ele>
        <time>2010-05-22T14:25:55Z</time>
      </trkpt>
      <trkpt lat="44.47971" lon="6.44169">
        <ele>1957.8826904297</ele>
        <time>2010-05-22T14:26:00Z</time>
      </trkpt>
      <trkpt lat="44.47972" lon="6.44172">
        <ele>1956.2437744141</ele>
        <time>2010-05-22T14:26:02Z</time>
      </trkpt>
      <trkpt lat="44.47959" lon="6.44178">
        <ele>1953.5827636719</ele>
        <time>2010-05-22T14:26:07Z</time>
      </trkpt>
      <trkpt lat="44.47944" lon="6.44188">
        <ele>1949.3668212891</ele>
        <time>2010-05-22T14:26:10Z</time>
      </trkpt>
      <trkpt lat="44.47927" lon="6.44203">
        <ele>1943.7888183594</ele>
        <time>2010-05-22T14:26:15Z</time>
      </trkpt>
      <trkpt lat="44.4791" lon="6.44225">
        <ele>1935.1760253906</ele>
        <time>2010-05-22T14:26:20Z</time>
      </trkpt>
      <trkpt lat="44.47886" lon="6.44248">
        <ele>1928.1309814453</ele>
        <time>2010-05-22T14:26:26Z</time>
      </trkpt>
      <trkpt lat="44.47883" lon="6.44266">
        <ele>1923.0891113281</ele>
        <time>2010-05-22T14:26:29Z</time>
      </trkpt>
      <trkpt lat="44.47878" lon="6.4428">
        <ele>1919.451171875</ele>
        <time>2010-05-22T14:26:34Z</time>
      </trkpt>
      <trkpt lat="44.47866" lon="6.44298">
        <ele>1915.8118896484</ele>
        <time>2010-05-22T14:26:39Z</time>
      </trkpt>
      <trkpt lat="44.47857" lon="6.44304">
        <ele>1915.392578125</ele>
        <time>2010-05-22T14:26:43Z</time>
      </trkpt>
      <trkpt lat="44.4784" lon="6.44309">
        <ele>1916.7412109375</ele>
        <time>2010-05-22T14:26:47Z</time>
      </trkpt>
      <trkpt lat="44.47829" lon="6.44322">
        <ele>1915.6845703125</ele>
        <time>2010-05-22T14:26:51Z</time>
      </trkpt>
      <trkpt lat="44.47814" lon="6.44331">
        <ele>1918.1765136719</ele>
        <time>2010-05-22T14:26:55Z</time>
      </trkpt>
      <trkpt lat="44.47799" lon="6.44342">
        <ele>1916.6597900391</ele>
        <time>2010-05-22T14:26:59Z</time>
      </trkpt>
      <trkpt lat="44.47802" lon="6.44344">
        <ele>1914.5981445312</ele>
        <time>2010-05-22T14:27:03Z</time>
      </trkpt>
      <trkpt lat="44.47802" lon="6.44345">
        <ele>1914.2102050781</ele>
        <time>2010-05-22T14:27:12Z</time>
      </trkpt>
      <trkpt lat="44.47803" lon="6.44348">
        <ele>1912.1553955078</ele>
        <time>2010-05-22T14:27:19Z</time>
      </trkpt>
      <trkpt lat="44.47798" lon="6.44355">
        <ele>1909.5925292969</ele>
        <time>2010-05-22T14:27:26Z</time>
      </trkpt>
      <trkpt lat="44.4779" lon="6.44362">
        <ele>1908.3311767578</ele>
        <time>2010-05-22T14:27:30Z</time>
      </trkpt>
      <trkpt lat="44.47791" lon="6.44365">
        <ele>1906.4254150391</ele>
        <time>2010-05-22T14:27:35Z</time>
      </trkpt>
      <trkpt lat="44.47804" lon="6.44362">
        <ele>1903.21875</ele>
        <time>2010-05-22T14:27:41Z</time>
      </trkpt>
      <trkpt lat="44.47822" lon="6.44353">
        <ele>1903.4918212891</ele>
        <time>2010-05-22T14:27:47Z</time>
      </trkpt>
      <trkpt lat="44.47839" lon="6.44345">
        <ele>1903.5688476562</ele>
        <time>2010-05-22T14:27:51Z</time>
      </trkpt>
      <trkpt lat="44.47859" lon="6.44359">
        <ele>1893.1936035156</ele>
        <time>2010-05-22T14:27:55Z</time>
      </trkpt>
      <trkpt lat="44.47881" lon="6.4437">
        <ele>1886.3288574219</ele>
        <time>2010-05-22T14:28:00Z</time>
      </trkpt>
      <trkpt lat="44.47897" lon="6.44367">
        <ele>1884.3630371094</ele>
        <time>2010-05-22T14:28:04Z</time>
      </trkpt>
      <trkpt lat="44.47913" lon="6.44363">
        <ele>1880.6710205078</ele>
        <time>2010-05-22T14:28:07Z</time>
      </trkpt>
      <trkpt lat="44.47947" lon="6.44352">
        <ele>1880.1397705078</ele>
        <time>2010-05-22T14:28:13Z</time>
      </trkpt>
      <trkpt lat="44.47979" lon="6.44338">
        <ele>1874.3878173828</ele>
        <time>2010-05-22T14:28:18Z</time>
      </trkpt>
      <trkpt lat="44.4799" lon="6.44334">
        <ele>1869.4715576172</ele>
        <time>2010-05-22T14:28:20Z</time>
      </trkpt>
      <trkpt lat="44.48017" lon="6.4432">
        <ele>1869.0736083984</ele>
        <time>2010-05-22T14:28:25Z</time>
      </trkpt>
      <trkpt lat="44.48025" lon="6.44323">
        <ele>1865.671875</ele>
        <time>2010-05-22T14:28:26Z</time>
      </trkpt>
      <trkpt lat="44.48063" lon="6.44333">
        <ele>1858.0081787109</ele>
        <time>2010-05-22T14:28:31Z</time>
      </trkpt>
      <trkpt lat="44.48089" lon="6.44345">
        <ele>1850.2102050781</ele>
        <time>2010-05-22T14:28:35Z</time>
      </trkpt>
      <trkpt lat="44.48101" lon="6.4435">
        <ele>1846.7514648438</ele>
        <time>2010-05-22T14:28:38Z</time>
      </trkpt>
      <trkpt lat="44.48109" lon="6.44353">
        <ele>1844.6983642578</ele>
        <time>2010-05-22T14:28:40Z</time>
      </trkpt>
      <trkpt lat="44.48127" lon="6.44345">
        <ele>1850.0745849609</ele>
        <time>2010-05-22T14:28:45Z</time>
      </trkpt>
      <trkpt lat="44.48129" lon="6.44346">
        <ele>1849.9643554688</ele>
        <time>2010-05-22T14:28:47Z</time>
      </trkpt>
      <trkpt lat="44.48129" lon="6.44347">
        <ele>1849.0863037109</ele>
        <time>2010-05-22T14:28:49Z</time>
      </trkpt>
      <trkpt lat="44.48129" lon="6.44348">
        <ele>1848.5583496094</ele>
        <time>2010-05-22T14:28:55Z</time>
      </trkpt>
      <trkpt lat="44.48129" lon="6.44351">
        <ele>1846.9024658203</ele>
        <time>2010-05-22T14:28:57Z</time>
      </trkpt>
      <trkpt lat="44.48115" lon="6.44364">
        <ele>1838.7741699219</ele>
        <time>2010-05-22T14:29:03Z</time>
      </trkpt>
      <trkpt lat="44.48094" lon="6.44367">
        <ele>1840.0578613281</ele>
        <time>2010-05-22T14:29:07Z</time>
      </trkpt>
      <trkpt lat="44.48066" lon="6.4437">
        <ele>1843.9318847656</ele>
        <time>2010-05-22T14:29:12Z</time>
      </trkpt>
      <trkpt lat="44.48036" lon="6.44372">
        <ele>1847.029296875</ele>
        <time>2010-05-22T14:29:17Z</time>
      </trkpt>
      <trkpt lat="44.48023" lon="6.44375">
        <ele>1848.1295166016</ele>
        <time>2010-05-22T14:29:19Z</time>
      </trkpt>
      <trkpt lat="44.47992" lon="6.44392">
        <ele>1848.4899902344</ele>
        <time>2010-05-22T14:29:24Z</time>
      </trkpt>
      <trkpt lat="44.47963" lon="6.44423">
        <ele>1843.8696289062</ele>
        <time>2010-05-22T14:29:30Z</time>
      </trkpt>
      <trkpt lat="44.47954" lon="6.44435">
        <ele>1841.0559082031</ele>
        <time>2010-05-22T14:29:32Z</time>
      </trkpt>
      <trkpt lat="44.47938" lon="6.44457">
        <ele>1834.8933105469</ele>
        <time>2010-05-22T14:29:36Z</time>
      </trkpt>
      <trkpt lat="44.4791" lon="6.44473">
        <ele>1831.6656494141</ele>
        <time>2010-05-22T14:29:41Z</time>
      </trkpt>
      <trkpt lat="44.47884" lon="6.44474">
        <ele>1833.7717285156</ele>
        <time>2010-05-22T14:29:45Z</time>
      </trkpt>
      <trkpt lat="44.47856" lon="6.44469">
        <ele>1834.3361816406</ele>
        <time>2010-05-22T14:29:49Z</time>
      </trkpt>
      <trkpt lat="44.47821" lon="6.44485">
        <ele>1829.8023681641</ele>
        <time>2010-05-22T14:29:54Z</time>
      </trkpt>
      <trkpt lat="44.47797" lon="6.44504">
        <ele>1826.6059570312</ele>
        <time>2010-05-22T14:29:58Z</time>
      </trkpt>
      <trkpt lat="44.47786" lon="6.44516">
        <ele>1825.1538085938</ele>
        <time>2010-05-22T14:30:00Z</time>
      </trkpt>
      <trkpt lat="44.47773" lon="6.44526">
        <ele>1824.2668457031</ele>
        <time>2010-05-22T14:30:02Z</time>
      </trkpt>
      <trkpt lat="44.47757" lon="6.44548">
        <ele>1818.4473876953</ele>
        <time>2010-05-22T14:30:06Z</time>
      </trkpt>
      <trkpt lat="44.47746" lon="6.44567">
        <ele>1809.5799560547</ele>
        <time>2010-05-22T14:30:12Z</time>
      </trkpt>
      <trkpt lat="44.47743" lon="6.44574">
        <ele>1804.4083251953</ele>
        <time>2010-05-22T14:30:15Z</time>
      </trkpt>
      <trkpt lat="44.47742" lon="6.4458">
        <ele>1801.5218505859</ele>
        <time>2010-05-22T14:30:20Z</time>
      </trkpt>
      <trkpt lat="44.47742" lon="6.44585">
        <ele>1799.4007568359</ele>
        <time>2010-05-22T14:30:28Z</time>
      </trkpt>
      <trkpt lat="44.47742" lon="6.44589">
        <ele>1797.6419677734</ele>
        <time>2010-05-22T14:30:34Z</time>
      </trkpt>
      <trkpt lat="44.47736" lon="6.44583">
        <ele>1797.3791503906</ele>
        <time>2010-05-22T14:31:09Z</time>
      </trkpt>
      <trkpt lat="44.47725" lon="6.44578">
        <ele>1794.9986572266</ele>
        <time>2010-05-22T14:31:16Z</time>
      </trkpt>
      <trkpt lat="44.47729" lon="6.44577">
        <ele>1797.0268554688</ele>
        <time>2010-05-22T14:31:29Z</time>
      </trkpt>
      <trkpt lat="44.47733" lon="6.44577">
        <ele>1798.8031005859</ele>
        <time>2010-05-22T14:31:38Z</time>
      </trkpt>
      <trkpt lat="44.47736" lon="6.44578">
        <ele>1799.8461914062</ele>
        <time>2010-05-22T14:31:40Z</time>
      </trkpt>
      <trkpt lat="44.47747" lon="6.44584">
        <ele>1801.3843994141</ele>
        <time>2010-05-22T14:31:51Z</time>
      </trkpt>
      <trkpt lat="44.47747" lon="6.44584">
        <ele>1801.5552978516</ele>
        <time>2010-05-22T14:31:52Z</time>
      </trkpt>
      <trkpt lat="44.47753" lon="6.44582">
        <ele>1802.5311279297</ele>
        <time>2010-05-22T14:31:56Z</time>
      </trkpt>
      <trkpt lat="44.47758" lon="6.44578">
        <ele>1802.8881835938</ele>
        <time>2010-05-22T14:32:00Z</time>
      </trkpt>
      <trkpt lat="44.47773" lon="6.4457">
        <ele>1800.6823730469</ele>
        <time>2010-05-22T14:32:06Z</time>
      </trkpt>
      <trkpt lat="44.47779" lon="6.44554">
        <ele>1807.0726318359</ele>
        <time>2010-05-22T14:32:10Z</time>
      </trkpt>
      <trkpt lat="44.47785" lon="6.44548">
        <ele>1808.0769042969</ele>
        <time>2010-05-22T14:32:12Z</time>
      </trkpt>
      <trkpt lat="44.47798" lon="6.44538">
        <ele>1807.8966064453</ele>
        <time>2010-05-22T14:32:15Z</time>
      </trkpt>
      <trkpt lat="44.47821" lon="6.44532">
        <ele>1804.6567382812</ele>
        <time>2010-05-22T14:32:19Z</time>
      </trkpt>
      <trkpt lat="44.47839" lon="6.4453">
        <ele>1802.9617919922</ele>
        <time>2010-05-22T14:32:22Z</time>
      </trkpt>
      <trkpt lat="44.47871" lon="6.44531">
        <ele>1803.3587646484</ele>
        <time>2010-05-22T14:32:26Z</time>
      </trkpt>
      <trkpt lat="44.47896" lon="6.4454">
        <ele>1801.9675292969</ele>
        <time>2010-05-22T14:32:29Z</time>
      </trkpt>
      <trkpt lat="44.47907" lon="6.4455">
        <ele>1797.4604492188</ele>
        <time>2010-05-22T14:32:31Z</time>
      </trkpt>
      <trkpt lat="44.47923" lon="6.44564">
        <ele>1788.2901611328</ele>
        <time>2010-05-22T14:32:36Z</time>
      </trkpt>
      <trkpt lat="44.47919" lon="6.44565">
        <ele>1789.181640625</ele>
        <time>2010-05-22T14:32:38Z</time>
      </trkpt>
      <trkpt lat="44.47907" lon="6.44563">
        <ele>1790.1722412109</ele>
        <time>2010-05-22T14:32:43Z</time>
      </trkpt>
      <trkpt lat="44.47889" lon="6.44562">
        <ele>1789.5695800781</ele>
        <time>2010-05-22T14:32:46Z</time>
      </trkpt>
      <trkpt lat="44.47857" lon="6.44577">
        <ele>1782.2657470703</ele>
        <time>2010-05-22T14:32:51Z</time>
      </trkpt>
      <trkpt lat="44.47847" lon="6.44571">
        <ele>1783.7127685547</ele>
        <time>2010-05-22T14:32:55Z</time>
      </trkpt>
      <trkpt lat="44.47862" lon="6.44575">
        <ele>1783.5301513672</ele>
        <time>2010-05-22T14:32:58Z</time>
      </trkpt>
      <trkpt lat="44.47887" lon="6.44595">
        <ele>1771.859375</ele>
        <time>2010-05-22T14:33:02Z</time>
      </trkpt>
      <trkpt lat="44.47897" lon="6.44605">
        <ele>1768.0266113281</ele>
        <time>2010-05-22T14:33:04Z</time>
      </trkpt>
      <trkpt lat="44.4791" lon="6.44605">
        <ele>1767.9090576172</ele>
        <time>2010-05-22T14:33:08Z</time>
      </trkpt>
      <trkpt lat="44.47924" lon="6.44595">
        <ele>1770.4542236328</ele>
        <time>2010-05-22T14:33:11Z</time>
      </trkpt>
      <trkpt lat="44.47946" lon="6.44591">
        <ele>1764.5447998047</ele>
        <time>2010-05-22T14:33:15Z</time>
      </trkpt>
      <trkpt lat="44.47952" lon="6.44592">
        <ele>1761.9860839844</ele>
        <time>2010-05-22T14:33:16Z</time>
      </trkpt>
      <trkpt lat="44.47965" lon="6.44593">
        <ele>1756.7623291016</ele>
        <time>2010-05-22T14:33:19Z</time>
      </trkpt>
      <trkpt lat="44.48001" lon="6.44591">
        <ele>1745.5949707031</ele>
        <time>2010-05-22T14:33:24Z</time>
      </trkpt>
      <trkpt lat="44.48008" lon="6.4459">
        <ele>1744.6655273438</ele>
        <time>2010-05-22T14:33:25Z</time>
      </trkpt>
      <trkpt lat="44.48035" lon="6.44588">
        <ele>1740.2611083984</ele>
        <time>2010-05-22T14:33:29Z</time>
      </trkpt>
      <trkpt lat="44.48048" lon="6.44587">
        <ele>1736.9056396484</ele>
        <time>2010-05-22T14:33:31Z</time>
      </trkpt>
      <trkpt lat="44.48074" lon="6.44594">
        <ele>1729.2999267578</ele>
        <time>2010-05-22T14:33:35Z</time>
      </trkpt>
      <trkpt lat="44.48097" lon="6.4459">
        <ele>1730.5014648438</ele>
        <time>2010-05-22T14:33:39Z</time>
      </trkpt>
      <trkpt lat="44.48121" lon="6.44596">
        <ele>1727.7663574219</ele>
        <time>2010-05-22T14:33:44Z</time>
      </trkpt>
      <trkpt lat="44.48145" lon="6.44612">
        <ele>1719.0397949219</ele>
        <time>2010-05-22T14:33:48Z</time>
      </trkpt>
      <trkpt lat="44.48162" lon="6.44614">
        <ele>1719.2835693359</ele>
        <time>2010-05-22T14:33:51Z</time>
      </trkpt>
      <trkpt lat="44.48181" lon="6.44618">
        <ele>1718.4978027344</ele>
        <time>2010-05-22T14:33:54Z</time>
      </trkpt>
      <trkpt lat="44.48186" lon="6.4462">
        <ele>1717.8699951172</ele>
        <time>2010-05-22T14:33:58Z</time>
      </trkpt>
      <trkpt lat="44.48184" lon="6.44614">
        <ele>1719.2009277344</ele>
        <time>2010-05-22T14:34:29Z</time>
      </trkpt>
      <trkpt lat="44.48187" lon="6.44615">
        <ele>1719.1761474609</ele>
        <time>2010-05-22T14:34:33Z</time>
      </trkpt>
      <trkpt lat="44.48187" lon="6.44622">
        <ele>1717.3709716797</ele>
        <time>2010-05-22T14:34:55Z</time>
      </trkpt>
      <trkpt lat="44.48185" lon="6.44629">
        <ele>1715.8170166016</ele>
        <time>2010-05-22T14:35:06Z</time>
      </trkpt>
      <trkpt lat="44.48182" lon="6.44633">
        <ele>1714.8826904297</ele>
        <time>2010-05-22T14:35:19Z</time>
      </trkpt>
      <trkpt lat="44.48183" lon="6.44643">
        <ele>1712.3776855469</ele>
        <time>2010-05-22T14:36:01Z</time>
      </trkpt>
      <trkpt lat="44.48184" lon="6.44634">
        <ele>1714.5563964844</ele>
        <time>2010-05-22T14:36:09Z</time>
      </trkpt>
      <trkpt lat="44.48192" lon="6.44628">
        <ele>1715.9196777344</ele>
        <time>2010-05-22T14:36:18Z</time>
      </trkpt>
      <trkpt lat="44.48194" lon="6.44626">
        <ele>1716.1783447266</ele>
        <time>2010-05-22T14:36:27Z</time>
      </trkpt>
      <trkpt lat="44.48193" lon="6.4463">
        <ele>1715.1821289062</ele>
        <time>2010-05-22T14:36:36Z</time>
      </trkpt>
      <trkpt lat="44.48193" lon="6.44628">
        <ele>1715.8237304688</ele>
        <time>2010-05-22T14:36:59Z</time>
      </trkpt>
      <trkpt lat="44.48192" lon="6.44638">
        <ele>1713.3338623047</ele>
        <time>2010-05-22T14:37:20Z</time>
      </trkpt>
      <trkpt lat="44.48193" lon="6.44635">
        <ele>1713.9990234375</ele>
        <time>2010-05-22T14:37:34Z</time>
      </trkpt>
      <trkpt lat="44.48191" lon="6.44623">
        <ele>1717.0222167969</ele>
        <time>2010-05-22T14:37:52Z</time>
      </trkpt>
      <trkpt lat="44.48204" lon="6.44625">
        <ele>1716.0178222656</ele>
        <time>2010-05-22T14:38:41Z</time>
      </trkpt>
      <trkpt lat="44.48199" lon="6.44621">
        <ele>1717.4094238281</ele>
        <time>2010-05-22T14:39:28Z</time>
      </trkpt>
      <trkpt lat="44.48187" lon="6.44628">
        <ele>1715.9211425781</ele>
        <time>2010-05-22T14:39:47Z</time>
      </trkpt>
      <trkpt lat="44.48186" lon="6.44643">
        <ele>1712.3913574219</ele>
        <time>2010-05-22T14:39:52Z</time>
      </trkpt>
      <trkpt lat="44.48176" lon="6.4465">
        <ele>1711.2408447266</ele>
        <time>2010-05-22T14:39:56Z</time>
      </trkpt>
      <trkpt lat="44.48172" lon="6.4465">
        <ele>1711.3160400391</ele>
        <time>2010-05-22T14:39:57Z</time>
      </trkpt>
      <trkpt lat="44.48147" lon="6.44657">
        <ele>1709.8820800781</ele>
        <time>2010-05-22T14:40:01Z</time>
      </trkpt>
      <trkpt lat="44.48141" lon="6.44663">
        <ele>1708.6268310547</ele>
        <time>2010-05-22T14:40:05Z</time>
      </trkpt>
      <trkpt lat="44.48143" lon="6.44663">
        <ele>1708.5983886719</ele>
        <time>2010-05-22T14:40:06Z</time>
      </trkpt>
      <trkpt lat="44.48153" lon="6.44669">
        <ele>1707.2844238281</ele>
        <time>2010-05-22T14:40:10Z</time>
      </trkpt>
      <trkpt lat="44.48174" lon="6.447">
        <ele>1698.4183349609</ele>
        <time>2010-05-22T14:40:15Z</time>
      </trkpt>
      <trkpt lat="44.48194" lon="6.44702">
        <ele>1696.6896972656</ele>
        <time>2010-05-22T14:40:19Z</time>
      </trkpt>
      <trkpt lat="44.48218" lon="6.44692">
        <ele>1695.9173583984</ele>
        <time>2010-05-22T14:40:23Z</time>
      </trkpt>
      <trkpt lat="44.48225" lon="6.44692">
        <ele>1695.2313232422</ele>
        <time>2010-05-22T14:40:24Z</time>
      </trkpt>
      <trkpt lat="44.48254" lon="6.44692">
        <ele>1693.4196777344</ele>
        <time>2010-05-22T14:40:29Z</time>
      </trkpt>
      <trkpt lat="44.48274" lon="6.44683">
        <ele>1694.6177978516</ele>
        <time>2010-05-22T14:40:32Z</time>
      </trkpt>
      <trkpt lat="44.48285" lon="6.4468">
        <ele>1694.8455810547</ele>
        <time>2010-05-22T14:40:34Z</time>
      </trkpt>
      <trkpt lat="44.48293" lon="6.44683">
        <ele>1693.8116455078</ele>
        <time>2010-05-22T14:40:36Z</time>
      </trkpt>
      <trkpt lat="44.48304" lon="6.44688">
        <ele>1691.9677734375</ele>
        <time>2010-05-22T14:40:38Z</time>
      </trkpt>
      <trkpt lat="44.48328" lon="6.44689">
        <ele>1690.3253173828</ele>
        <time>2010-05-22T14:40:42Z</time>
      </trkpt>
      <trkpt lat="44.48351" lon="6.44684">
        <ele>1690.0251464844</ele>
        <time>2010-05-22T14:40:46Z</time>
      </trkpt>
      <trkpt lat="44.48375" lon="6.44684">
        <ele>1688.6934814453</ele>
        <time>2010-05-22T14:40:49Z</time>
      </trkpt>
      <trkpt lat="44.48388" lon="6.44687">
        <ele>1687.5698242188</ele>
        <time>2010-05-22T14:40:51Z</time>
      </trkpt>
      <trkpt lat="44.48424" lon="6.44693">
        <ele>1682.59375</ele>
        <time>2010-05-22T14:40:56Z</time>
      </trkpt>
      <trkpt lat="44.48439" lon="6.44698">
        <ele>1680.9870605469</ele>
        <time>2010-05-22T14:40:58Z</time>
      </trkpt>
      <trkpt lat="44.48486" lon="6.44706">
        <ele>1674.8310546875</ele>
        <time>2010-05-22T14:41:04Z</time>
      </trkpt>
      <trkpt lat="44.48532" lon="6.44726">
        <ele>1664.9674072266</ele>
        <time>2010-05-22T14:41:09Z</time>
      </trkpt>
      <trkpt lat="44.48547" lon="6.44734">
        <ele>1659.9847412109</ele>
        <time>2010-05-22T14:41:11Z</time>
      </trkpt>
      <trkpt lat="44.48563" lon="6.44745">
        <ele>1656.2807617188</ele>
        <time>2010-05-22T14:41:14Z</time>
      </trkpt>
      <trkpt lat="44.48573" lon="6.4475">
        <ele>1654.78125</ele>
        <time>2010-05-22T14:41:18Z</time>
      </trkpt>
      <trkpt lat="44.48574" lon="6.44747">
        <ele>1655.2401123047</ele>
        <time>2010-05-22T14:41:19Z</time>
      </trkpt>
      <trkpt lat="44.48584" lon="6.44722">
        <ele>1658.9556884766</ele>
        <time>2010-05-22T14:41:23Z</time>
      </trkpt>
      <trkpt lat="44.48589" lon="6.44708">
        <ele>1663.0778808594</ele>
        <time>2010-05-22T14:41:25Z</time>
      </trkpt>
      <trkpt lat="44.48617" lon="6.44709">
        <ele>1662.6898193359</ele>
        <time>2010-05-22T14:41:29Z</time>
      </trkpt>
      <trkpt lat="44.48635" lon="6.44714">
        <ele>1661.3422851562</ele>
        <time>2010-05-22T14:41:31Z</time>
      </trkpt>
      <trkpt lat="44.48656" lon="6.44725">
        <ele>1657.8122558594</ele>
        <time>2010-05-22T14:41:34Z</time>
      </trkpt>
      <trkpt lat="44.4869" lon="6.44733">
        <ele>1656.2719726562</ele>
        <time>2010-05-22T14:41:38Z</time>
      </trkpt>
      <trkpt lat="44.48715" lon="6.44758">
        <ele>1650.4055175781</ele>
        <time>2010-05-22T14:41:43Z</time>
      </trkpt>
      <trkpt lat="44.48718" lon="6.44765">
        <ele>1647.6882324219</ele>
        <time>2010-05-22T14:41:44Z</time>
      </trkpt>
      <trkpt lat="44.48726" lon="6.44787">
        <ele>1639.8956298828</ele>
        <time>2010-05-22T14:41:47Z</time>
      </trkpt>
      <trkpt lat="44.48722" lon="6.448">
        <ele>1635.8818359375</ele>
        <time>2010-05-22T14:41:51Z</time>
      </trkpt>
      <trkpt lat="44.48696" lon="6.44788">
        <ele>1639.5187988281</ele>
        <time>2010-05-22T14:41:56Z</time>
      </trkpt>
      <trkpt lat="44.4867" lon="6.4479">
        <ele>1637.2268066406</ele>
        <time>2010-05-22T14:42:00Z</time>
      </trkpt>
      <trkpt lat="44.48663" lon="6.4481">
        <ele>1631.8758544922</ele>
        <time>2010-05-22T14:42:02Z</time>
      </trkpt>
      <trkpt lat="44.48661" lon="6.44849">
        <ele>1621.3518066406</ele>
        <time>2010-05-22T14:42:07Z</time>
      </trkpt>
      <trkpt lat="44.48664" lon="6.44875">
        <ele>1615.1400146484</ele>
        <time>2010-05-22T14:42:10Z</time>
      </trkpt>
      <trkpt lat="44.48658" lon="6.44892">
        <ele>1612.279296875</ele>
        <time>2010-05-22T14:42:12Z</time>
      </trkpt>
      <trkpt lat="44.48637" lon="6.44915">
        <ele>1610.4809570312</ele>
        <time>2010-05-22T14:42:16Z</time>
      </trkpt>
      <trkpt lat="44.48628" lon="6.44925">
        <ele>1609.2194824219</ele>
        <time>2010-05-22T14:42:18Z</time>
      </trkpt>
      <trkpt lat="44.48621" lon="6.44934">
        <ele>1607.8602294922</ele>
        <time>2010-05-22T14:42:22Z</time>
      </trkpt>
      <trkpt lat="44.48623" lon="6.44932">
        <ele>1608.0445556641</ele>
        <time>2010-05-22T14:42:25Z</time>
      </trkpt>
      <trkpt lat="44.48639" lon="6.44927">
        <ele>1607.7171630859</ele>
        <time>2010-05-22T14:42:30Z</time>
      </trkpt>
      <trkpt lat="44.4865" lon="6.44922">
        <ele>1607.2032470703</ele>
        <time>2010-05-22T14:42:32Z</time>
      </trkpt>
      <trkpt lat="44.48698" lon="6.44918">
        <ele>1603.0233154297</ele>
        <time>2010-05-22T14:42:39Z</time>
      </trkpt>
      <trkpt lat="44.48718" lon="6.44917">
        <ele>1600.427734375</ele>
        <time>2010-05-22T14:42:43Z</time>
      </trkpt>
      <trkpt lat="44.48738" lon="6.44905">
        <ele>1602.0052490234</ele>
        <time>2010-05-22T14:42:47Z</time>
      </trkpt>
      <trkpt lat="44.48764" lon="6.44905">
        <ele>1599.5758056641</ele>
        <time>2010-05-22T14:42:52Z</time>
      </trkpt>
      <trkpt lat="44.4876" lon="6.4491">
        <ele>1598.2883300781</ele>
        <time>2010-05-22T14:42:57Z</time>
      </trkpt>
      <trkpt lat="44.48756" lon="6.44917">
        <ele>1596.1427001953</ele>
        <time>2010-05-22T14:43:30Z</time>
      </trkpt>
      <trkpt lat="44.48753" lon="6.44934">
        <ele>1589.4835205078</ele>
        <time>2010-05-22T14:43:35Z</time>
      </trkpt>
      <trkpt lat="44.4874" lon="6.44954">
        <ele>1585.5006103516</ele>
        <time>2010-05-22T14:43:40Z</time>
      </trkpt>
      <trkpt lat="44.48738" lon="6.44957">
        <ele>1585.2104492188</ele>
        <time>2010-05-22T14:43:41Z</time>
      </trkpt>
      <trkpt lat="44.48742" lon="6.44965">
        <ele>1582.8089599609</ele>
        <time>2010-05-22T14:43:46Z</time>
      </trkpt>
      <trkpt lat="44.48753" lon="6.44967">
        <ele>1580.6527099609</ele>
        <time>2010-05-22T14:43:59Z</time>
      </trkpt>
      <trkpt lat="44.48759" lon="6.44972">
        <ele>1578.8198242188</ele>
        <time>2010-05-22T14:44:33Z</time>
      </trkpt>
      <trkpt lat="44.48756" lon="6.44973">
        <ele>1579.0562744141</ele>
        <time>2010-05-22T14:44:44Z</time>
      </trkpt>
      <trkpt lat="44.48756" lon="6.44975">
        <ele>1578.865234375</ele>
        <time>2010-05-22T14:44:47Z</time>
      </trkpt>
      <trkpt lat="44.48748" lon="6.4497">
        <ele>1580.6763916016</ele>
        <time>2010-05-22T14:44:54Z</time>
      </trkpt>
      <trkpt lat="44.48748" lon="6.44971">
        <ele>1580.6036376953</ele>
        <time>2010-05-22T14:44:58Z</time>
      </trkpt>
      <trkpt lat="44.48741" lon="6.44969">
        <ele>1581.9453125</ele>
        <time>2010-05-22T14:45:03Z</time>
      </trkpt>
      <trkpt lat="44.48736" lon="6.44962">
        <ele>1584.2844238281</ele>
        <time>2010-05-22T14:45:13Z</time>
      </trkpt>
      <trkpt lat="44.48732" lon="6.44952">
        <ele>1587.3159179688</ele>
        <time>2010-05-22T14:45:24Z</time>
      </trkpt>
      <trkpt lat="44.48727" lon="6.44956">
        <ele>1587.3760986328</ele>
        <time>2010-05-22T14:45:36Z</time>
      </trkpt>
      <trkpt lat="44.48735" lon="6.44965">
        <ele>1583.9025878906</ele>
        <time>2010-05-22T14:45:42Z</time>
      </trkpt>
      <trkpt lat="44.48731" lon="6.44971">
        <ele>1582.9970703125</ele>
        <time>2010-05-22T14:45:55Z</time>
      </trkpt>
      <trkpt lat="44.48738" lon="6.44989">
        <ele>1579.7479248047</ele>
        <time>2010-05-22T14:46:00Z</time>
      </trkpt>
      <trkpt lat="44.4874" lon="6.44993">
        <ele>1579.1547851562</ele>
        <time>2010-05-22T14:46:01Z</time>
      </trkpt>
      <trkpt lat="44.48751" lon="6.45014">
        <ele>1576.2780761719</ele>
        <time>2010-05-22T14:46:06Z</time>
      </trkpt>
      <trkpt lat="44.48752" lon="6.4503">
        <ele>1574.197265625</ele>
        <time>2010-05-22T14:46:10Z</time>
      </trkpt>
      <trkpt lat="44.4874" lon="6.45052">
        <ele>1573.9787597656</ele>
        <time>2010-05-22T14:46:15Z</time>
      </trkpt>
      <trkpt lat="44.48734" lon="6.45064">
        <ele>1573.4274902344</ele>
        <time>2010-05-22T14:46:18Z</time>
      </trkpt>
      <trkpt lat="44.48711" lon="6.45073">
        <ele>1573.7250976562</ele>
        <time>2010-05-22T14:46:22Z</time>
      </trkpt>
      <trkpt lat="44.48703" lon="6.45089">
        <ele>1572.8461914062</ele>
        <time>2010-05-22T14:46:26Z</time>
      </trkpt>
      <trkpt lat="44.487" lon="6.45092">
        <ele>1572.7481689453</ele>
        <time>2010-05-22T14:46:28Z</time>
      </trkpt>
      <trkpt lat="44.48702" lon="6.451">
        <ele>1571.8096923828</ele>
        <time>2010-05-22T14:46:35Z</time>
      </trkpt>
      <trkpt lat="44.48702" lon="6.45107">
        <ele>1571.0954589844</ele>
        <time>2010-05-22T14:46:44Z</time>
      </trkpt>
      <trkpt lat="44.487" lon="6.45107">
        <ele>1571.1640625</ele>
        <time>2010-05-22T14:46:45Z</time>
      </trkpt>
      <trkpt lat="44.48684" lon="6.45109">
        <ele>1571.2398681641</ele>
        <time>2010-05-22T14:46:53Z</time>
      </trkpt>
      <trkpt lat="44.48672" lon="6.45112">
        <ele>1570.8824462891</ele>
        <time>2010-05-22T14:47:53Z</time>
      </trkpt>
      <trkpt lat="44.48654" lon="6.45123">
        <ele>1569.7258300781</ele>
        <time>2010-05-22T14:48:00Z</time>
      </trkpt>
      <trkpt lat="44.48639" lon="6.45135">
        <ele>1568.4683837891</ele>
        <time>2010-05-22T14:48:05Z</time>
      </trkpt>
      <trkpt lat="44.48631" lon="6.4514">
        <ele>1568.0681152344</ele>
        <time>2010-05-22T14:48:10Z</time>
      </trkpt>
      <trkpt lat="44.48616" lon="6.45147">
        <ele>1567.6868896484</ele>
        <time>2010-05-22T14:48:14Z</time>
      </trkpt>
      <trkpt lat="44.48605" lon="6.45155">
        <ele>1567.0135498047</ele>
        <time>2010-05-22T14:48:17Z</time>
      </trkpt>
      <trkpt lat="44.486" lon="6.45187">
        <ele>1562.7270507812</ele>
        <time>2010-05-22T14:48:21Z</time>
      </trkpt>
      <trkpt lat="44.48597" lon="6.45212">
        <ele>1559.2149658203</ele>
        <time>2010-05-22T14:48:25Z</time>
      </trkpt>
      <trkpt lat="44.48584" lon="6.45225">
        <ele>1558.3933105469</ele>
        <time>2010-05-22T14:48:32Z</time>
      </trkpt>
      <trkpt lat="44.48585" lon="6.45228">
        <ele>1557.6822509766</ele>
        <time>2010-05-22T14:48:37Z</time>
      </trkpt>
      <trkpt lat="44.48586" lon="6.45228">
        <ele>1557.611328125</ele>
        <time>2010-05-22T14:48:52Z</time>
      </trkpt>
      <trkpt lat="44.48575" lon="6.4522">
        <ele>1561.0520019531</ele>
        <time>2010-05-22T14:49:14Z</time>
      </trkpt>
      <trkpt lat="44.48579" lon="6.45218">
        <ele>1560.5756835938</ele>
        <time>2010-05-22T14:49:18Z</time>
      </trkpt>
      <trkpt lat="44.48583" lon="6.45207">
        <ele>1561.1968994141</ele>
        <time>2010-05-22T14:49:23Z</time>
      </trkpt>
      <trkpt lat="44.48584" lon="6.45204">
        <ele>1561.5662841797</ele>
        <time>2010-05-22T14:49:24Z</time>
      </trkpt>
      <trkpt lat="44.4859" lon="6.45187">
        <ele>1563.3276367188</ele>
        <time>2010-05-22T14:49:31Z</time>
      </trkpt>
      <trkpt lat="44.48594" lon="6.45172">
        <ele>1565.0140380859</ele>
        <time>2010-05-22T14:49:39Z</time>
      </trkpt>
      <trkpt lat="44.48597" lon="6.45166">
        <ele>1565.6772460938</ele>
        <time>2010-05-22T14:49:42Z</time>
      </trkpt>
      <trkpt lat="44.486" lon="6.45158">
        <ele>1566.8245849609</ele>
        <time>2010-05-22T14:49:46Z</time>
      </trkpt>
      <trkpt lat="44.48607" lon="6.45153">
        <ele>1567.2102050781</ele>
        <time>2010-05-22T14:49:50Z</time>
      </trkpt>
      <trkpt lat="44.48615" lon="6.45144">
        <ele>1568.0982666016</ele>
        <time>2010-05-22T14:49:56Z</time>
      </trkpt>
      <trkpt lat="44.48623" lon="6.45143">
        <ele>1567.9311523438</ele>
        <time>2010-05-22T14:50:00Z</time>
      </trkpt>
      <trkpt lat="44.48633" lon="6.45136">
        <ele>1568.5784912109</ele>
        <time>2010-05-22T14:50:06Z</time>
      </trkpt>
      <trkpt lat="44.48641" lon="6.45126">
        <ele>1569.3962402344</ele>
        <time>2010-05-22T14:50:11Z</time>
      </trkpt>
      <trkpt lat="44.48647" lon="6.45117">
        <ele>1570.3592529297</ele>
        <time>2010-05-22T14:50:17Z</time>
      </trkpt>
      <trkpt lat="44.48663" lon="6.45111">
        <ele>1571.0030517578</ele>
        <time>2010-05-22T14:50:24Z</time>
      </trkpt>
      <trkpt lat="44.48666" lon="6.4511">
        <ele>1571.1010742188</ele>
        <time>2010-05-22T14:50:27Z</time>
      </trkpt>
      <trkpt lat="44.48674" lon="6.45118">
        <ele>1570.3029785156</ele>
        <time>2010-05-22T14:50:33Z</time>
      </trkpt>
      <trkpt lat="44.48679" lon="6.45131">
        <ele>1569.1853027344</ele>
        <time>2010-05-22T14:50:52Z</time>
      </trkpt>
      <trkpt lat="44.48684" lon="6.45133">
        <ele>1569.1390380859</ele>
        <time>2010-05-22T14:51:16Z</time>
      </trkpt>
      <trkpt lat="44.48686" lon="6.45135">
        <ele>1569.0275878906</ele>
        <time>2010-05-22T14:51:34Z</time>
      </trkpt>
      <trkpt lat="44.48685" lon="6.45136">
        <ele>1568.8592529297</ele>
        <time>2010-05-22T14:51:35Z</time>
      </trkpt>
      <trkpt lat="44.48682" lon="6.45138">
        <ele>1568.6373291016</ele>
        <time>2010-05-22T14:51:37Z</time>
      </trkpt>
      <trkpt lat="44.48671" lon="6.45148">
        <ele>1566.8797607422</ele>
        <time>2010-05-22T14:51:43Z</time>
      </trkpt>
      <trkpt lat="44.48669" lon="6.45156">
        <ele>1565.5848388672</ele>
        <time>2010-05-22T14:51:45Z</time>
      </trkpt>
      <trkpt lat="44.4867" lon="6.45168">
        <ele>1564.0755615234</ele>
        <time>2010-05-22T14:51:50Z</time>
      </trkpt>
      <trkpt lat="44.48661" lon="6.45168">
        <ele>1563.5941162109</ele>
        <time>2010-05-22T14:52:17Z</time>
      </trkpt>
      <trkpt lat="44.48667" lon="6.45177">
        <ele>1562.8773193359</ele>
        <time>2010-05-22T14:52:24Z</time>
      </trkpt>
      <trkpt lat="44.48655" lon="6.45191">
        <ele>1560.5538330078</ele>
        <time>2010-05-22T14:52:28Z</time>
      </trkpt>
      <trkpt lat="44.48639" lon="6.45216">
        <ele>1555.0970458984</ele>
        <time>2010-05-22T14:52:32Z</time>
      </trkpt>
      <trkpt lat="44.48613" lon="6.45244">
        <ele>1551.2867431641</ele>
        <time>2010-05-22T14:52:38Z</time>
      </trkpt>
      <trkpt lat="44.48611" lon="6.45245">
        <ele>1551.1939697266</ele>
        <time>2010-05-22T14:52:42Z</time>
      </trkpt>
      <trkpt lat="44.48621" lon="6.45253">
        <ele>1549.0328369141</ele>
        <time>2010-05-22T14:53:01Z</time>
      </trkpt>
      <trkpt lat="44.48631" lon="6.45255">
        <ele>1548.1607666016</ele>
        <time>2010-05-22T14:53:07Z</time>
      </trkpt>
      <trkpt lat="44.4865" lon="6.45265">
        <ele>1545.6307373047</ele>
        <time>2010-05-22T14:53:11Z</time>
      </trkpt>
      <trkpt lat="44.48668" lon="6.45267">
        <ele>1544.6842041016</ele>
        <time>2010-05-22T14:53:14Z</time>
      </trkpt>
      <trkpt lat="44.4871" lon="6.45264">
        <ele>1548.421875</ele>
        <time>2010-05-22T14:53:19Z</time>
      </trkpt>
      <trkpt lat="44.48764" lon="6.45271">
        <ele>1541.7446289062</ele>
        <time>2010-05-22T14:53:25Z</time>
      </trkpt>
      <trkpt lat="44.48781" lon="6.45272">
        <ele>1537.3815917969</ele>
        <time>2010-05-22T14:53:27Z</time>
      </trkpt>
      <trkpt lat="44.48796" lon="6.45275">
        <ele>1531.2384033203</ele>
        <time>2010-05-22T14:53:29Z</time>
      </trkpt>
      <trkpt lat="44.48811" lon="6.45275">
        <ele>1526.3049316406</ele>
        <time>2010-05-22T14:53:31Z</time>
      </trkpt>
      <trkpt lat="44.48838" lon="6.45263">
        <ele>1520.8186035156</ele>
        <time>2010-05-22T14:53:35Z</time>
      </trkpt>
      <trkpt lat="44.48847" lon="6.45263">
        <ele>1518.587890625</ele>
        <time>2010-05-22T14:53:37Z</time>
      </trkpt>
      <trkpt lat="44.4887" lon="6.45247">
        <ele>1513.8278808594</ele>
        <time>2010-05-22T14:53:41Z</time>
      </trkpt>
      <trkpt lat="44.48882" lon="6.45229">
        <ele>1509.9860839844</ele>
        <time>2010-05-22T14:53:43Z</time>
      </trkpt>
      <trkpt lat="44.48888" lon="6.45206">
        <ele>1508.4201660156</ele>
        <time>2010-05-22T14:53:45Z</time>
      </trkpt>
      <trkpt lat="44.48902" lon="6.45149">
        <ele>1503.1003417969</ele>
        <time>2010-05-22T14:53:50Z</time>
      </trkpt>
      <trkpt lat="44.48902" lon="6.45102">
        <ele>1503.5314941406</ele>
        <time>2010-05-22T14:53:54Z</time>
      </trkpt>
      <trkpt lat="44.48903" lon="6.45088">
        <ele>1504.1357421875</ele>
        <time>2010-05-22T14:53:55Z</time>
      </trkpt>
      <trkpt lat="44.48903" lon="6.45049">
        <ele>1510.6856689453</ele>
        <time>2010-05-22T14:53:58Z</time>
      </trkpt>
      <trkpt lat="44.48919" lon="6.45029">
        <ele>1509.7940673828</ele>
        <time>2010-05-22T14:54:01Z</time>
      </trkpt>
      <trkpt lat="44.48944" lon="6.45026">
        <ele>1503.6586914062</ele>
        <time>2010-05-22T14:54:04Z</time>
      </trkpt>
      <trkpt lat="44.48954" lon="6.45028">
        <ele>1501.1812744141</ele>
        <time>2010-05-22T14:54:05Z</time>
      </trkpt>
      <trkpt lat="44.48969" lon="6.4503">
        <ele>1498.0090332031</ele>
        <time>2010-05-22T14:54:07Z</time>
      </trkpt>
      <trkpt lat="44.49001" lon="6.4506">
        <ele>1485.1940917969</ele>
        <time>2010-05-22T14:54:11Z</time>
      </trkpt>
      <trkpt lat="44.49018" lon="6.45088">
        <ele>1480.1135253906</ele>
        <time>2010-05-22T14:54:14Z</time>
      </trkpt>
      <trkpt lat="44.49054" lon="6.45129">
        <ele>1468.0146484375</ele>
        <time>2010-05-22T14:54:20Z</time>
      </trkpt>
      <trkpt lat="44.49059" lon="6.45133">
        <ele>1466.9167480469</ele>
        <time>2010-05-22T14:54:21Z</time>
      </trkpt>
      <trkpt lat="44.49072" lon="6.45123">
        <ele>1465.5239257812</ele>
        <time>2010-05-22T14:54:25Z</time>
      </trkpt>
      <trkpt lat="44.49076" lon="6.45102">
        <ele>1465.5465087891</ele>
        <time>2010-05-22T14:54:28Z</time>
      </trkpt>
      <trkpt lat="44.4908" lon="6.45074">
        <ele>1465.2503662109</ele>
        <time>2010-05-22T14:54:32Z</time>
      </trkpt>
      <trkpt lat="44.49092" lon="6.45081">
        <ele>1460.9720458984</ele>
        <time>2010-05-22T14:54:35Z</time>
      </trkpt>
      <trkpt lat="44.49096" lon="6.45101">
        <ele>1459.0628662109</ele>
        <time>2010-05-22T14:54:38Z</time>
      </trkpt>
      <trkpt lat="44.49093" lon="6.45133">
        <ele>1458.8414306641</ele>
        <time>2010-05-22T14:54:42Z</time>
      </trkpt>
      <trkpt lat="44.49087" lon="6.45182">
        <ele>1459.6602783203</ele>
        <time>2010-05-22T14:54:47Z</time>
      </trkpt>
      <trkpt lat="44.49087" lon="6.45184">
        <ele>1459.5908203125</ele>
        <time>2010-05-22T14:54:48Z</time>
      </trkpt>
      <trkpt lat="44.49086" lon="6.45184">
        <ele>1459.7856445312</ele>
        <time>2010-05-22T14:54:50Z</time>
      </trkpt>
      <trkpt lat="44.49098" lon="6.45172">
        <ele>1454.3848876953</ele>
        <time>2010-05-22T14:54:53Z</time>
      </trkpt>
      <trkpt lat="44.49099" lon="6.45156">
        <ele>1454.7386474609</ele>
        <time>2010-05-22T14:54:55Z</time>
      </trkpt>
      <trkpt lat="44.49104" lon="6.45138">
        <ele>1453.5852050781</ele>
        <time>2010-05-22T14:54:57Z</time>
      </trkpt>
      <trkpt lat="44.49134" lon="6.45069">
        <ele>1449.9968261719</ele>
        <time>2010-05-22T14:55:05Z</time>
      </trkpt>
      <trkpt lat="44.49139" lon="6.45054">
        <ele>1449.7611083984</ele>
        <time>2010-05-22T14:55:07Z</time>
      </trkpt>
      <trkpt lat="44.49151" lon="6.45041">
        <ele>1445.0440673828</ele>
        <time>2010-05-22T14:55:11Z</time>
      </trkpt>
      <trkpt lat="44.49153" lon="6.45042">
        <ele>1444.7526855469</ele>
        <time>2010-05-22T14:55:16Z</time>
      </trkpt>
      <trkpt lat="44.49165" lon="6.45045">
        <ele>1442.7745361328</ele>
        <time>2010-05-22T14:55:47Z</time>
      </trkpt>
      <trkpt lat="44.49165" lon="6.45045">
        <ele>1442.8309326172</ele>
        <time>2010-05-22T14:55:56Z</time>
      </trkpt>
      <trkpt lat="44.49162" lon="6.45051">
        <ele>1444.3363037109</ele>
        <time>2010-05-22T14:56:02Z</time>
      </trkpt>
      <trkpt lat="44.49157" lon="6.45069">
        <ele>1445.5031738281</ele>
        <time>2010-05-22T14:56:06Z</time>
      </trkpt>
      <trkpt lat="44.49153" lon="6.4509">
        <ele>1445.1812744141</ele>
        <time>2010-05-22T14:56:09Z</time>
      </trkpt>
      <trkpt lat="44.49146" lon="6.45127">
        <ele>1444.9381103516</ele>
        <time>2010-05-22T14:56:13Z</time>
      </trkpt>
      <trkpt lat="44.49136" lon="6.45155">
        <ele>1445.2224121094</ele>
        <time>2010-05-22T14:56:17Z</time>
      </trkpt>
      <trkpt lat="44.49138" lon="6.45165">
        <ele>1444.2816162109</ele>
        <time>2010-05-22T14:56:22Z</time>
      </trkpt>
      <trkpt lat="44.49138" lon="6.45168">
        <ele>1444.0756835938</ele>
        <time>2010-05-22T14:56:27Z</time>
      </trkpt>
      <trkpt lat="44.49139" lon="6.45168">
        <ele>1443.7814941406</ele>
        <time>2010-05-22T14:56:29Z</time>
      </trkpt>
      <trkpt lat="44.49145" lon="6.4516">
        <ele>1442.9309082031</ele>
        <time>2010-05-22T14:56:34Z</time>
      </trkpt>
      <trkpt lat="44.49148" lon="6.45148">
        <ele>1443.3115234375</ele>
        <time>2010-05-22T14:56:41Z</time>
      </trkpt>
      <trkpt lat="44.49162" lon="6.45126">
        <ele>1441.8657226562</ele>
        <time>2010-05-22T14:56:45Z</time>
      </trkpt>
      <trkpt lat="44.49173" lon="6.45099">
        <ele>1439.8233642578</ele>
        <time>2010-05-22T14:56:48Z</time>
      </trkpt>
      <trkpt lat="44.49196" lon="6.45066">
        <ele>1433.1959228516</ele>
        <time>2010-05-22T14:56:52Z</time>
      </trkpt>
      <trkpt lat="44.4924" lon="6.45034">
        <ele>1421.4245605469</ele>
        <time>2010-05-22T14:56:57Z</time>
      </trkpt>
      <trkpt lat="44.49275" lon="6.45013">
        <ele>1416.5629882812</ele>
        <time>2010-05-22T14:57:02Z</time>
      </trkpt>
      <trkpt lat="44.49287" lon="6.45005">
        <ele>1416.5798339844</ele>
        <time>2010-05-22T14:57:06Z</time>
      </trkpt>
      <trkpt lat="44.49293" lon="6.45001">
        <ele>1417.3376464844</ele>
        <time>2010-05-22T14:57:08Z</time>
      </trkpt>
      <trkpt lat="44.49299" lon="6.45">
        <ele>1418.5686035156</ele>
        <time>2010-05-22T14:57:13Z</time>
      </trkpt>
      <trkpt lat="44.49302" lon="6.45002">
        <ele>1419.1818847656</ele>
        <time>2010-05-22T14:57:15Z</time>
      </trkpt>
      <trkpt lat="44.49308" lon="6.44992">
        <ele>1414.1877441406</ele>
        <time>2010-05-22T14:57:20Z</time>
      </trkpt>
      <trkpt lat="44.49309" lon="6.44988">
        <ele>1411.5065917969</ele>
        <time>2010-05-22T14:57:21Z</time>
      </trkpt>
      <trkpt lat="44.49323" lon="6.4497">
        <ele>1400.3848876953</ele>
        <time>2010-05-22T14:57:25Z</time>
      </trkpt>
      <trkpt lat="44.49329" lon="6.44963">
        <ele>1396.9279785156</ele>
        <time>2010-05-22T14:57:27Z</time>
      </trkpt>
      <trkpt lat="44.49334" lon="6.44959">
        <ele>1394.0631103516</ele>
        <time>2010-05-22T14:57:34Z</time>
      </trkpt>
      <trkpt lat="44.49339" lon="6.44956">
        <ele>1389.6435546875</ele>
        <time>2010-05-22T14:57:43Z</time>
      </trkpt>
      <trkpt lat="44.49335" lon="6.44954">
        <ele>1390.9973144531</ele>
        <time>2010-05-22T14:57:56Z</time>
      </trkpt>
      <trkpt lat="44.49335" lon="6.44955">
        <ele>1392.0142822266</ele>
        <time>2010-05-22T14:58:03Z</time>
      </trkpt>
      <trkpt lat="44.49332" lon="6.4495">
        <ele>1390.4376220703</ele>
        <time>2010-05-22T14:58:11Z</time>
      </trkpt>
      <trkpt lat="44.49337" lon="6.4495">
        <ele>1388.0606689453</ele>
        <time>2010-05-22T14:58:20Z</time>
      </trkpt>
      <trkpt lat="44.49339" lon="6.44952">
        <ele>1387.5054931641</ele>
        <time>2010-05-22T14:58:30Z</time>
      </trkpt>
      <trkpt lat="44.49339" lon="6.4495">
        <ele>1386.6783447266</ele>
        <time>2010-05-22T14:58:48Z</time>
      </trkpt>
      <trkpt lat="44.49344" lon="6.44954">
        <ele>1385.5513916016</ele>
        <time>2010-05-22T14:58:53Z</time>
      </trkpt>
      <trkpt lat="44.49338" lon="6.44961">
        <ele>1392.7371826172</ele>
        <time>2010-05-22T14:59:00Z</time>
      </trkpt>
      <trkpt lat="44.49334" lon="6.44963">
        <ele>1396.3382568359</ele>
        <time>2010-05-22T14:59:07Z</time>
      </trkpt>
      <trkpt lat="44.49323" lon="6.44973">
        <ele>1401.8813476562</ele>
        <time>2010-05-22T14:59:11Z</time>
      </trkpt>
      <trkpt lat="44.49306" lon="6.44996">
        <ele>1417.3168945312</ele>
        <time>2010-05-22T14:59:17Z</time>
      </trkpt>
      <trkpt lat="44.49312" lon="6.45001">
        <ele>1416.6800537109</ele>
        <time>2010-05-22T14:59:22Z</time>
      </trkpt>
      <trkpt lat="44.49319" lon="6.45">
        <ele>1413.2108154297</ele>
        <time>2010-05-22T14:59:26Z</time>
      </trkpt>
      <trkpt lat="44.49323" lon="6.45011">
        <ele>1412.3922119141</ele>
        <time>2010-05-22T14:59:32Z</time>
      </trkpt>
      <trkpt lat="44.49318" lon="6.45032">
        <ele>1415.2352294922</ele>
        <time>2010-05-22T14:59:38Z</time>
      </trkpt>
      <trkpt lat="44.49303" lon="6.45054">
        <ele>1418.3459472656</ele>
        <time>2010-05-22T14:59:42Z</time>
      </trkpt>
      <trkpt lat="44.4929" lon="6.45084">
        <ele>1417.3520507812</ele>
        <time>2010-05-22T14:59:46Z</time>
      </trkpt>
      <trkpt lat="44.49263" lon="6.45126">
        <ele>1416.9715576172</ele>
        <time>2010-05-22T14:59:51Z</time>
      </trkpt>
      <trkpt lat="44.49252" lon="6.45155">
        <ele>1414.9504394531</ele>
        <time>2010-05-22T14:59:55Z</time>
      </trkpt>
      <trkpt lat="44.49258" lon="6.45185">
        <ele>1410.2990722656</ele>
        <time>2010-05-22T14:59:59Z</time>
      </trkpt>
      <trkpt lat="44.49261" lon="6.45194">
        <ele>1408.4450683594</ele>
        <time>2010-05-22T15:00:00Z</time>
      </trkpt>
      <trkpt lat="44.49273" lon="6.45215">
        <ele>1406.5694580078</ele>
        <time>2010-05-22T15:00:02Z</time>
      </trkpt>
      <trkpt lat="44.49283" lon="6.45225">
        <ele>1405.1812744141</ele>
        <time>2010-05-22T15:00:06Z</time>
      </trkpt>
      <trkpt lat="44.49284" lon="6.452">
        <ele>1405.0517578125</ele>
        <time>2010-05-22T15:00:09Z</time>
      </trkpt>
      <trkpt lat="44.49311" lon="6.4517">
        <ele>1403.4775390625</ele>
        <time>2010-05-22T15:00:14Z</time>
      </trkpt>
      <trkpt lat="44.49332" lon="6.45154">
        <ele>1399.8692626953</ele>
        <time>2010-05-22T15:00:17Z</time>
      </trkpt>
      <trkpt lat="44.49366" lon="6.45133">
        <ele>1396.2634277344</ele>
        <time>2010-05-22T15:00:21Z</time>
      </trkpt>
      <trkpt lat="44.49421" lon="6.45135">
        <ele>1381.9899902344</ele>
        <time>2010-05-22T15:00:25Z</time>
      </trkpt>
      <trkpt lat="44.49444" lon="6.45143">
        <ele>1370.5367431641</ele>
        <time>2010-05-22T15:00:27Z</time>
      </trkpt>
      <trkpt lat="44.49471" lon="6.45172">
        <ele>1364.8298339844</ele>
        <time>2010-05-22T15:00:31Z</time>
      </trkpt>
      <trkpt lat="44.49468" lon="6.45194">
        <ele>1367.5511474609</ele>
        <time>2010-05-22T15:00:33Z</time>
      </trkpt>
      <trkpt lat="44.49485" lon="6.4528">
        <ele>1364.2810058594</ele>
        <time>2010-05-22T15:00:40Z</time>
      </trkpt>
      <trkpt lat="44.49496" lon="6.45341">
        <ele>1363.7561035156</ele>
        <time>2010-05-22T15:00:45Z</time>
      </trkpt>
      <trkpt lat="44.49499" lon="6.45366">
        <ele>1363.7971191406</ele>
        <time>2010-05-22T15:00:47Z</time>
      </trkpt>
      <trkpt lat="44.49505" lon="6.45399">
        <ele>1359.9039306641</ele>
        <time>2010-05-22T15:00:50Z</time>
      </trkpt>
      <trkpt lat="44.49496" lon="6.45441">
        <ele>1358.8516845703</ele>
        <time>2010-05-22T15:00:54Z</time>
      </trkpt>
      <trkpt lat="44.4949" lon="6.45455">
        <ele>1358.7985839844</ele>
        <time>2010-05-22T15:00:56Z</time>
      </trkpt>
      <trkpt lat="44.49484" lon="6.45475">
        <ele>1357.2310791016</ele>
        <time>2010-05-22T15:00:59Z</time>
      </trkpt>
      <trkpt lat="44.49488" lon="6.45476">
        <ele>1355.4670410156</ele>
        <time>2010-05-22T15:01:02Z</time>
      </trkpt>
      <trkpt lat="44.49496" lon="6.45455">
        <ele>1356.3524169922</ele>
        <time>2010-05-22T15:01:06Z</time>
      </trkpt>
      <trkpt lat="44.49503" lon="6.45441">
        <ele>1356.4146728516</ele>
        <time>2010-05-22T15:01:08Z</time>
      </trkpt>
      <trkpt lat="44.49513" lon="6.45418">
        <ele>1354.6832275391</ele>
        <time>2010-05-22T15:01:11Z</time>
      </trkpt>
      <trkpt lat="44.49528" lon="6.45365">
        <ele>1345.4283447266</ele>
        <time>2010-05-22T15:01:16Z</time>
      </trkpt>
      <trkpt lat="44.49529" lon="6.45317">
        <ele>1339.1353759766</ele>
        <time>2010-05-22T15:01:21Z</time>
      </trkpt>
      <trkpt lat="44.49529" lon="6.45307">
        <ele>1337.4494628906</ele>
        <time>2010-05-22T15:01:22Z</time>
      </trkpt>
      <trkpt lat="44.49527" lon="6.45267">
        <ele>1340.6042480469</ele>
        <time>2010-05-22T15:01:26Z</time>
      </trkpt>
      <trkpt lat="44.49527" lon="6.45248">
        <ele>1340.5242919922</ele>
        <time>2010-05-22T15:01:29Z</time>
      </trkpt>
      <trkpt lat="44.49537" lon="6.45257">
        <ele>1332.1271972656</ele>
        <time>2010-05-22T15:01:32Z</time>
      </trkpt>
      <trkpt lat="44.4954" lon="6.45264">
        <ele>1329.8311767578</ele>
        <time>2010-05-22T15:01:33Z</time>
      </trkpt>
      <trkpt lat="44.49548" lon="6.45288">
        <ele>1321.9499511719</ele>
        <time>2010-05-22T15:01:36Z</time>
      </trkpt>
      <trkpt lat="44.49549" lon="6.45316">
        <ele>1323.8559570312</ele>
        <time>2010-05-22T15:01:39Z</time>
      </trkpt>
      <trkpt lat="44.49561" lon="6.45366">
        <ele>1319.6032714844</ele>
        <time>2010-05-22T15:01:44Z</time>
      </trkpt>
      <trkpt lat="44.49559" lon="6.45419">
        <ele>1329.0856933594</ele>
        <time>2010-05-22T15:01:49Z</time>
      </trkpt>
      <trkpt lat="44.49533" lon="6.45486">
        <ele>1340.7905273438</ele>
        <time>2010-05-22T15:01:55Z</time>
      </trkpt>
      <trkpt lat="44.49508" lon="6.4555">
        <ele>1332.9260253906</ele>
        <time>2010-05-22T15:02:01Z</time>
      </trkpt>
      <trkpt lat="44.49504" lon="6.45563">
        <ele>1330.1112060547</ele>
        <time>2010-05-22T15:02:03Z</time>
      </trkpt>
      <trkpt lat="44.4951" lon="6.45564">
        <ele>1328.7379150391</ele>
        <time>2010-05-22T15:02:07Z</time>
      </trkpt>
      <trkpt lat="44.49525" lon="6.45557">
        <ele>1328.0512695312</ele>
        <time>2010-05-22T15:02:13Z</time>
      </trkpt>
      <trkpt lat="44.49528" lon="6.45556">
        <ele>1327.7491455078</ele>
        <time>2010-05-22T15:02:14Z</time>
      </trkpt>
      <trkpt lat="44.4954" lon="6.45544">
        <ele>1326.8293457031</ele>
        <time>2010-05-22T15:02:19Z</time>
      </trkpt>
      <trkpt lat="44.49555" lon="6.45527">
        <ele>1324.4133300781</ele>
        <time>2010-05-22T15:02:23Z</time>
      </trkpt>
      <trkpt lat="44.49573" lon="6.45509">
        <ele>1315.9270019531</ele>
        <time>2010-05-22T15:02:27Z</time>
      </trkpt>
      <trkpt lat="44.4959" lon="6.45501">
        <ele>1307.7150878906</ele>
        <time>2010-05-22T15:02:31Z</time>
      </trkpt>
      <trkpt lat="44.49592" lon="6.45491">
        <ele>1307.0268554688</ele>
        <time>2010-05-22T15:02:34Z</time>
      </trkpt>
      <trkpt lat="44.49591" lon="6.45483">
        <ele>1307.9427490234</ele>
        <time>2010-05-22T15:02:35Z</time>
      </trkpt>
      <trkpt lat="44.49601" lon="6.45443">
        <ele>1301.7875976562</ele>
        <time>2010-05-22T15:02:41Z</time>
      </trkpt>
      <trkpt lat="44.49617" lon="6.45452">
        <ele>1292.3765869141</ele>
        <time>2010-05-22T15:02:44Z</time>
      </trkpt>
      <trkpt lat="44.49632" lon="6.45478">
        <ele>1289.8602294922</ele>
        <time>2010-05-22T15:02:47Z</time>
      </trkpt>
      <trkpt lat="44.49637" lon="6.45503">
        <ele>1292.1218261719</ele>
        <time>2010-05-22T15:02:49Z</time>
      </trkpt>
      <trkpt lat="44.49638" lon="6.45516">
        <ele>1294.5950927734</ele>
        <time>2010-05-22T15:02:51Z</time>
      </trkpt>
      <trkpt lat="44.4966" lon="6.45543">
        <ele>1289.2171630859</ele>
        <time>2010-05-22T15:02:55Z</time>
      </trkpt>
      <trkpt lat="44.49672" lon="6.45539">
        <ele>1284.3294677734</ele>
        <time>2010-05-22T15:02:59Z</time>
      </trkpt>
      <trkpt lat="44.49672" lon="6.45521">
        <ele>1282.654296875</ele>
        <time>2010-05-22T15:03:01Z</time>
      </trkpt>
      <trkpt lat="44.49668" lon="6.45482">
        <ele>1277.1968994141</ele>
        <time>2010-05-22T15:03:05Z</time>
      </trkpt>
      <trkpt lat="44.49662" lon="6.45455">
        <ele>1272.5317382812</ele>
        <time>2010-05-22T15:03:08Z</time>
      </trkpt>
      <trkpt lat="44.49676" lon="6.4545">
        <ele>1264.2805175781</ele>
        <time>2010-05-22T15:03:12Z</time>
      </trkpt>
      <trkpt lat="44.49688" lon="6.45464">
        <ele>1262.578125</ele>
        <time>2010-05-22T15:03:14Z</time>
      </trkpt>
      <trkpt lat="44.49691" lon="6.45471">
        <ele>1262.6535644531</ele>
        <time>2010-05-22T15:03:15Z</time>
      </trkpt>
      <trkpt lat="44.49701" lon="6.45495">
        <ele>1263.7320556641</ele>
        <time>2010-05-22T15:03:18Z</time>
      </trkpt>
      <trkpt lat="44.49712" lon="6.45515">
        <ele>1264.85546875</ele>
        <time>2010-05-22T15:03:20Z</time>
      </trkpt>
      <trkpt lat="44.49724" lon="6.45528">
        <ele>1262.1729736328</ele>
        <time>2010-05-22T15:03:24Z</time>
      </trkpt>
      <trkpt lat="44.49722" lon="6.45516">
        <ele>1260.8865966797</ele>
        <time>2010-05-22T15:03:26Z</time>
      </trkpt>
      <trkpt lat="44.49719" lon="6.45488">
        <ele>1255.5434570312</ele>
        <time>2010-05-22T15:03:29Z</time>
      </trkpt>
      <trkpt lat="44.4973" lon="6.45475">
        <ele>1248.0888671875</ele>
        <time>2010-05-22T15:03:33Z</time>
      </trkpt>
      <trkpt lat="44.49743" lon="6.45492">
        <ele>1246.6528320312</ele>
        <time>2010-05-22T15:03:35Z</time>
      </trkpt>
      <trkpt lat="44.49751" lon="6.4552">
        <ele>1248.8657226562</ele>
        <time>2010-05-22T15:03:38Z</time>
      </trkpt>
      <trkpt lat="44.49753" lon="6.45536">
        <ele>1250.7628173828</ele>
        <time>2010-05-22T15:03:40Z</time>
      </trkpt>
      <trkpt lat="44.49743" lon="6.45556">
        <ele>1255.7320556641</ele>
        <time>2010-05-22T15:03:43Z</time>
      </trkpt>
      <trkpt lat="44.49741" lon="6.4557">
        <ele>1254.1579589844</ele>
        <time>2010-05-22T15:03:47Z</time>
      </trkpt>
      <trkpt lat="44.49738" lon="6.45567">
        <ele>1255.6394042969</ele>
        <time>2010-05-22T15:03:48Z</time>
      </trkpt>
      <trkpt lat="44.49753" lon="6.45545">
        <ele>1251.3527832031</ele>
        <time>2010-05-22T15:03:52Z</time>
      </trkpt>
      <trkpt lat="44.4976" lon="6.45533">
        <ele>1248.5238037109</ele>
        <time>2010-05-22T15:03:54Z</time>
      </trkpt>
      <trkpt lat="44.49767" lon="6.45507">
        <ele>1241.9857177734</ele>
        <time>2010-05-22T15:03:59Z</time>
      </trkpt>
      <trkpt lat="44.49771" lon="6.45499">
        <ele>1239.44921875</ele>
        <time>2010-05-22T15:04:02Z</time>
      </trkpt>
      <trkpt lat="44.49783" lon="6.45524">
        <ele>1240.255859375</ele>
        <time>2010-05-22T15:04:06Z</time>
      </trkpt>
      <trkpt lat="44.49792" lon="6.45543">
        <ele>1238.5695800781</ele>
        <time>2010-05-22T15:04:10Z</time>
      </trkpt>
      <trkpt lat="44.49794" lon="6.45528">
        <ele>1236.4141845703</ele>
        <time>2010-05-22T15:04:13Z</time>
      </trkpt>
      <trkpt lat="44.49791" lon="6.45505">
        <ele>1232.4266357422</ele>
        <time>2010-05-22T15:04:16Z</time>
      </trkpt>
      <trkpt lat="44.49787" lon="6.45495">
        <ele>1231.8013916016</ele>
        <time>2010-05-22T15:04:17Z</time>
      </trkpt>
      <trkpt lat="44.49778" lon="6.4546">
        <ele>1223.3686523438</ele>
        <time>2010-05-22T15:04:22Z</time>
      </trkpt>
      <trkpt lat="44.49781" lon="6.45459">
        <ele>1221.8657226562</ele>
        <time>2010-05-22T15:04:24Z</time>
      </trkpt>
      <trkpt lat="44.49804" lon="6.455">
        <ele>1224.6943359375</ele>
        <time>2010-05-22T15:04:28Z</time>
      </trkpt>
      <trkpt lat="44.49812" lon="6.45512">
        <ele>1224.4267578125</ele>
        <time>2010-05-22T15:04:30Z</time>
      </trkpt>
      <trkpt lat="44.49821" lon="6.4553">
        <ele>1224.8021240234</ele>
        <time>2010-05-22T15:04:34Z</time>
      </trkpt>
      <trkpt lat="44.49825" lon="6.45528">
        <ele>1221.9840087891</ele>
        <time>2010-05-22T15:04:37Z</time>
      </trkpt>
      <trkpt lat="44.49835" lon="6.45532">
        <ele>1218.0373535156</ele>
        <time>2010-05-22T15:05:34Z</time>
      </trkpt>
      <trkpt lat="44.49831" lon="6.45528">
        <ele>1219.486328125</ele>
        <time>2010-05-22T15:05:43Z</time>
      </trkpt>
      <trkpt lat="44.49832" lon="6.45522">
        <ele>1217.361328125</ele>
        <time>2010-05-22T15:05:59Z</time>
      </trkpt>
      <trkpt lat="44.49834" lon="6.45523">
        <ele>1216.4278564453</ele>
        <time>2010-05-22T15:06:01Z</time>
      </trkpt>
      <trkpt lat="44.49838" lon="6.45537">
        <ele>1217.5406494141</ele>
        <time>2010-05-22T15:06:06Z</time>
      </trkpt>
      <trkpt lat="44.49831" lon="6.45558">
        <ele>1224.7485351562</ele>
        <time>2010-05-22T15:06:10Z</time>
      </trkpt>
      <trkpt lat="44.49819" lon="6.45571">
        <ele>1228.7468261719</ele>
        <time>2010-05-22T15:06:13Z</time>
      </trkpt>
      <trkpt lat="44.49795" lon="6.45595">
        <ele>1232.5361328125</ele>
        <time>2010-05-22T15:06:18Z</time>
      </trkpt>
      <trkpt lat="44.4979" lon="6.45607">
        <ele>1231.0753173828</ele>
        <time>2010-05-22T15:06:20Z</time>
      </trkpt>
      <trkpt lat="44.49775" lon="6.45628">
        <ele>1228.7016601562</ele>
        <time>2010-05-22T15:06:24Z</time>
      </trkpt>
      <trkpt lat="44.49768" lon="6.45635">
        <ele>1228.033203125</ele>
        <time>2010-05-22T15:06:26Z</time>
      </trkpt>
      <trkpt lat="44.49764" lon="6.45644">
        <ele>1225.5859375</ele>
        <time>2010-05-22T15:06:28Z</time>
      </trkpt>
      <trkpt lat="44.49747" lon="6.45663">
        <ele>1223.1821289062</ele>
        <time>2010-05-22T15:06:33Z</time>
      </trkpt>
      <trkpt lat="44.49739" lon="6.45684">
        <ele>1219.5318603516</ele>
        <time>2010-05-22T15:06:37Z</time>
      </trkpt>
      <trkpt lat="44.49731" lon="6.457">
        <ele>1217.6424560547</ele>
        <time>2010-05-22T15:06:42Z</time>
      </trkpt>
      <trkpt lat="44.49733" lon="6.45697">
        <ele>1217.8961181641</ele>
        <time>2010-05-22T15:06:47Z</time>
      </trkpt>
      <trkpt lat="44.49734" lon="6.45696">
        <ele>1217.8426513672</ele>
        <time>2010-05-22T15:06:48Z</time>
      </trkpt>
      <trkpt lat="44.49744" lon="6.45689">
        <ele>1216.0981445312</ele>
        <time>2010-05-22T15:06:53Z</time>
      </trkpt>
      <trkpt lat="44.49767" lon="6.45678">
        <ele>1211.0979003906</ele>
        <time>2010-05-22T15:06:59Z</time>
      </trkpt>
      <trkpt lat="44.4979" lon="6.45675">
        <ele>1205.177734375</ele>
        <time>2010-05-22T15:07:03Z</time>
      </trkpt>
      <trkpt lat="44.49796" lon="6.45672">
        <ele>1204.3916015625</ele>
        <time>2010-05-22T15:07:04Z</time>
      </trkpt>
      <trkpt lat="44.49813" lon="6.4566">
        <ele>1202.8372802734</ele>
        <time>2010-05-22T15:07:07Z</time>
      </trkpt>
      <trkpt lat="44.49837" lon="6.45643">
        <ele>1201.0474853516</ele>
        <time>2010-05-22T15:07:12Z</time>
      </trkpt>
      <trkpt lat="44.49854" lon="6.45633">
        <ele>1199.9720458984</ele>
        <time>2010-05-22T15:07:15Z</time>
      </trkpt>
      <trkpt lat="44.49865" lon="6.45626">
        <ele>1197.9304199219</ele>
        <time>2010-05-22T15:07:18Z</time>
      </trkpt>
      <trkpt lat="44.49884" lon="6.45619">
        <ele>1192.5494384766</ele>
        <time>2010-05-22T15:07:22Z</time>
      </trkpt>
      <trkpt lat="44.49893" lon="6.45622">
        <ele>1187.2312011719</ele>
        <time>2010-05-22T15:07:27Z</time>
      </trkpt>
      <trkpt lat="44.49884" lon="6.45633">
        <ele>1185.2637939453</ele>
        <time>2010-05-22T15:07:31Z</time>
      </trkpt>
      <trkpt lat="44.49885" lon="6.4564">
        <ele>1181.5908203125</ele>
        <time>2010-05-22T15:07:36Z</time>
      </trkpt>
      <trkpt lat="44.49886" lon="6.45643">
        <ele>1179.9029541016</ele>
        <time>2010-05-22T15:07:40Z</time>
      </trkpt>
      <trkpt lat="44.49886" lon="6.45644">
        <ele>1179.5885009766</ele>
        <time>2010-05-22T15:07:41Z</time>
      </trkpt>
      <trkpt lat="44.49872" lon="6.45651">
        <ele>1183.3664550781</ele>
        <time>2010-05-22T15:07:48Z</time>
      </trkpt>
      <trkpt lat="44.49856" lon="6.45664">
        <ele>1183.7391357422</ele>
        <time>2010-05-22T15:07:54Z</time>
      </trkpt>
      <trkpt lat="44.49842" lon="6.45684">
        <ele>1180.7755126953</ele>
        <time>2010-05-22T15:07:59Z</time>
      </trkpt>
      <trkpt lat="44.49844" lon="6.45688">
        <ele>1178.5100097656</ele>
        <time>2010-05-22T15:08:02Z</time>
      </trkpt>
      <trkpt lat="44.49852" lon="6.45697">
        <ele>1171.9212646484</ele>
        <time>2010-05-22T15:08:14Z</time>
      </trkpt>
      <trkpt lat="44.49855" lon="6.45698">
        <ele>1170.3514404297</ele>
        <time>2010-05-22T15:08:22Z</time>
      </trkpt>
      <trkpt lat="44.49854" lon="6.4569">
        <ele>1173.3264160156</ele>
        <time>2010-05-22T15:08:39Z</time>
      </trkpt>
      <trkpt lat="44.49849" lon="6.45681">
        <ele>1179.3363037109</ele>
        <time>2010-05-22T15:08:57Z</time>
      </trkpt>
      <trkpt lat="44.4987" lon="6.45687">
        <ele>1169.0880126953</ele>
        <time>2010-05-22T15:09:17Z</time>
      </trkpt>
      <trkpt lat="44.49881" lon="6.4569">
        <ele>1163.9282226562</ele>
        <time>2010-05-22T15:09:24Z</time>
      </trkpt>
      <trkpt lat="44.49879" lon="6.45691">
        <ele>1164.3289794922</ele>
        <time>2010-05-22T15:09:29Z</time>
      </trkpt>
      <trkpt lat="44.49879" lon="6.45691">
        <ele>1164.6229248047</ele>
        <time>2010-05-22T15:09:30Z</time>
      </trkpt>
      <trkpt lat="44.49883" lon="6.45679">
        <ele>1167.0504150391</ele>
        <time>2010-05-22T15:09:36Z</time>
      </trkpt>
      <trkpt lat="44.499" lon="6.45665">
        <ele>1166.8826904297</ele>
        <time>2010-05-22T15:09:41Z</time>
      </trkpt>
      <trkpt lat="44.49928" lon="6.45644">
        <ele>1165.5711669922</ele>
        <time>2010-05-22T15:09:46Z</time>
      </trkpt>
      <trkpt lat="44.49947" lon="6.45623">
        <ele>1162.7586669922</ele>
        <time>2010-05-22T15:09:49Z</time>
      </trkpt>
      <trkpt lat="44.49971" lon="6.45593">
        <ele>1156.8184814453</ele>
        <time>2010-05-22T15:09:53Z</time>
      </trkpt>
      <trkpt lat="44.49989" lon="6.45569">
        <ele>1156.1931152344</ele>
        <time>2010-05-22T15:09:57Z</time>
      </trkpt>
      <trkpt lat="44.50012" lon="6.45551">
        <ele>1154.3386230469</ele>
        <time>2010-05-22T15:10:03Z</time>
      </trkpt>
      <trkpt lat="44.50019" lon="6.45543">
        <ele>1153.3380126953</ele>
        <time>2010-05-22T15:10:07Z</time>
      </trkpt>
      <trkpt lat="44.50022" lon="6.4554">
        <ele>1152.9248046875</ele>
        <time>2010-05-22T15:10:09Z</time>
      </trkpt>
      <trkpt lat="44.50031" lon="6.4553">
        <ele>1151.6143798828</ele>
        <time>2010-05-22T15:10:14Z</time>
      </trkpt>
      <trkpt lat="44.50053" lon="6.45512">
        <ele>1146.6455078125</ele>
        <time>2010-05-22T15:10:22Z</time>
      </trkpt>
      <trkpt lat="44.50063" lon="6.45502">
        <ele>1144.4692382812</ele>
        <time>2010-05-22T15:10:25Z</time>
      </trkpt>
      <trkpt lat="44.50072" lon="6.45506">
        <ele>1143.8100585938</ele>
        <time>2010-05-22T15:10:30Z</time>
      </trkpt>
      <trkpt lat="44.50083" lon="6.45512">
        <ele>1143.2899169922</ele>
        <time>2010-05-22T15:10:36Z</time>
      </trkpt>
      <trkpt lat="44.50094" lon="6.45532">
        <ele>1144.1613769531</ele>
        <time>2010-05-22T15:10:43Z</time>
      </trkpt>
      <trkpt lat="44.50095" lon="6.45543">
        <ele>1144.7896728516</ele>
        <time>2010-05-22T15:10:46Z</time>
      </trkpt>
      <trkpt lat="44.50087" lon="6.45562">
        <ele>1146.1715087891</ele>
        <time>2010-05-22T15:10:51Z</time>
      </trkpt>
      <trkpt lat="44.50085" lon="6.45572">
        <ele>1145.6290283203</ele>
        <time>2010-05-22T15:10:57Z</time>
      </trkpt>
      <trkpt lat="44.50081" lon="6.45579">
        <ele>1145.5379638672</ele>
        <time>2010-05-22T15:11:04Z</time>
      </trkpt>
      <trkpt lat="44.50076" lon="6.45576">
        <ele>1146.2817382812</ele>
        <time>2010-05-22T15:15:06Z</time>
      </trkpt>
      <trkpt lat="44.50077" lon="6.45571">
        <ele>1146.4155273438</ele>
        <time>2010-05-22T15:15:08Z</time>
      </trkpt>
      <trkpt lat="44.50083" lon="6.45561">
        <ele>1146.6804199219</ele>
        <time>2010-05-22T15:15:12Z</time>
      </trkpt>
      <trkpt lat="44.50087" lon="6.45545">
        <ele>1145.8367919922</ele>
        <time>2010-05-22T15:15:17Z</time>
      </trkpt>
      <trkpt lat="44.50085" lon="6.45535">
        <ele>1145.3217773438</ele>
        <time>2010-05-22T15:15:21Z</time>
      </trkpt>
      <trkpt lat="44.50076" lon="6.45524">
        <ele>1145.3754882812</ele>
        <time>2010-05-22T15:15:27Z</time>
      </trkpt>
      <trkpt lat="44.50067" lon="6.45516">
        <ele>1145.5249023438</ele>
        <time>2010-05-22T15:15:32Z</time>
      </trkpt>
      <trkpt lat="44.50061" lon="6.45513">
        <ele>1145.8493652344</ele>
        <time>2010-05-22T15:15:37Z</time>
      </trkpt>
      <trkpt lat="44.50058" lon="6.45512">
        <ele>1146.0346679688</ele>
        <time>2010-05-22T15:15:41Z</time>
      </trkpt>
      <trkpt lat="44.50053" lon="6.45507">
        <ele>1146.3803710938</ele>
        <time>2010-05-22T15:15:47Z</time>
      </trkpt>
      <trkpt lat="44.50051" lon="6.45509">
        <ele>1146.8966064453</ele>
        <time>2010-05-22T15:15:53Z</time>
      </trkpt>
      <trkpt lat="44.50054" lon="6.45511">
        <ele>1146.5695800781</ele>
        <time>2010-05-22T15:16:01Z</time>
      </trkpt>
      <trkpt lat="44.50059" lon="6.45512">
        <ele>1145.9008789062</ele>
        <time>2010-05-22T15:16:04Z</time>
      </trkpt>
      <trkpt lat="44.50069" lon="6.4551">
        <ele>1144.6802978516</ele>
        <time>2010-05-22T15:16:10Z</time>
      </trkpt>
      <trkpt lat="44.50072" lon="6.45504">
        <ele>1143.7379150391</ele>
        <time>2010-05-22T15:16:23Z</time>
      </trkpt>
      <trkpt lat="44.50055" lon="6.45498">
        <ele>1144.9310302734</ele>
        <time>2010-05-22T15:18:17Z</time>
      </trkpt>
      <trkpt lat="44.50055" lon="6.45501">
        <ele>1145.3520507812</ele>
        <time>2010-05-22T15:18:30Z</time>
      </trkpt>
      <trkpt lat="44.50055" lon="6.45503">
        <ele>1145.3536376953</ele>
        <time>2010-05-22T15:18:36Z</time>
      </trkpt>
      <trkpt lat="44.50056" lon="6.455">
        <ele>1144.9532470703</ele>
        <time>2010-05-22T15:18:54Z</time>
      </trkpt>
      <trkpt lat="44.50058" lon="6.45498">
        <ele>1144.4743652344</ele>
        <time>2010-05-22T15:19:03Z</time>
      </trkpt>
      <trkpt lat="44.50059" lon="6.45495">
        <ele>1144.0726318359</ele>
        <time>2010-05-22T15:19:10Z</time>
      </trkpt>
      <trkpt lat="44.5006" lon="6.4549">
        <ele>1143.4855957031</ele>
        <time>2010-05-22T15:19:17Z</time>
      </trkpt>
      <trkpt lat="44.50056" lon="6.45503">
        <ele>1145.2674560547</ele>
        <time>2010-05-22T15:19:43Z</time>
      </trkpt>
      <trkpt lat="44.50053" lon="6.45504">
        <ele>1145.8934326172</ele>
        <time>2010-05-22T15:19:49Z</time>
      </trkpt>
      <trkpt lat="44.50053" lon="6.45503">
        <ele>1145.9349365234</ele>
        <time>2010-05-22T15:19:59Z</time>
      </trkpt>
      <trkpt lat="44.50053" lon="6.45503">
        <ele>1145.8120117188</ele>
        <time>2010-05-22T15:20:22Z</time>
      </trkpt>
      <trkpt lat="44.50053" lon="6.45502">
        <ele>1145.7297363281</ele>
        <time>2010-05-22T15:20:37Z</time>
      </trkpt>
      <trkpt lat="44.50054" lon="6.45502">
        <ele>1145.5537109375</ele>
        <time>2010-05-22T15:20:48Z</time>
      </trkpt>
      <trkpt lat="44.50053" lon="6.45502">
        <ele>1145.6931152344</ele>
        <time>2010-05-22T15:20:58Z</time>
      </trkpt>
      <trkpt lat="44.50055" lon="6.45501">
        <ele>1145.3470458984</ele>
        <time>2010-05-22T15:21:12Z</time>
      </trkpt>
      <trkpt lat="44.50051" lon="6.45503">
        <ele>1146.2009277344</ele>
        <time>2010-05-22T15:21:24Z</time>
      </trkpt>
      <trkpt lat="44.5005" lon="6.45503">
        <ele>1146.4248046875</ele>
        <time>2010-05-22T15:21:42Z</time>
      </trkpt>
      <trkpt lat="44.5005" lon="6.45506">
        <ele>1146.7357177734</ele>
        <time>2010-05-22T15:21:55Z</time>
      </trkpt>
      <trkpt lat="44.50053" lon="6.45503">
        <ele>1145.9444580078</ele>
        <time>2010-05-22T15:22:10Z</time>
      </trkpt>
      <trkpt lat="44.50056" lon="6.45504">
        <ele>1145.4373779297</ele>
        <time>2010-05-22T15:22:29Z</time>
      </trkpt>
      <trkpt lat="44.50056" lon="6.45503">
        <ele>1145.2364501953</ele>
        <time>2010-05-22T15:22:39Z</time>
      </trkpt>
      <trkpt lat="44.50053" lon="6.45505">
        <ele>1145.9520263672</ele>
        <time>2010-05-22T15:22:54Z</time>
      </trkpt>
      <trkpt lat="44.50052" lon="6.45502">
        <ele>1145.9432373047</ele>
        <time>2010-05-22T15:23:08Z</time>
      </trkpt>
      <trkpt lat="44.50052" lon="6.45506">
        <ele>1146.2941894531</ele>
        <time>2010-05-22T15:23:17Z</time>
      </trkpt>
      <trkpt lat="44.50041" lon="6.4552">
        <ele>1149.5908203125</ele>
        <time>2010-05-22T15:23:24Z</time>
      </trkpt>
      <trkpt lat="44.50024" lon="6.45539">
        <ele>1152.6192626953</ele>
        <time>2010-05-22T15:23:31Z</time>
      </trkpt>
      <trkpt lat="44.50011" lon="6.45553">
        <ele>1154.4526367188</ele>
        <time>2010-05-22T15:23:37Z</time>
      </trkpt>
      <trkpt lat="44.5" lon="6.45564">
        <ele>1155.3662109375</ele>
        <time>2010-05-22T15:23:42Z</time>
      </trkpt>
      <trkpt lat="44.49987" lon="6.45576">
        <ele>1155.9184570312</ele>
        <time>2010-05-22T15:23:48Z</time>
      </trkpt>
      <trkpt lat="44.49986" lon="6.45577">
        <ele>1155.9904785156</ele>
        <time>2010-05-22T15:23:49Z</time>
      </trkpt>
      <trkpt lat="44.49979" lon="6.45572">
        <ele>1157.1475830078</ele>
        <time>2010-05-22T15:23:54Z</time>
      </trkpt>
      <trkpt lat="44.49975" lon="6.45563">
        <ele>1158.1706542969</ele>
        <time>2010-05-22T15:23:59Z</time>
      </trkpt>
      <trkpt lat="44.49973" lon="6.45545">
        <ele>1159.3323974609</ele>
        <time>2010-05-22T15:24:08Z</time>
      </trkpt>
      <trkpt lat="44.49969" lon="6.45529">
        <ele>1160.9880371094</ele>
        <time>2010-05-22T15:24:15Z</time>
      </trkpt>
      <trkpt lat="44.49969" lon="6.45525">
        <ele>1161.0787353516</ele>
        <time>2010-05-22T15:24:17Z</time>
      </trkpt>
      <trkpt lat="44.49963" lon="6.45514">
        <ele>1163.1529541016</ele>
        <time>2010-05-22T15:24:24Z</time>
      </trkpt>
      <trkpt lat="44.49956" lon="6.455">
        <ele>1165.1529541016</ele>
        <time>2010-05-22T15:24:31Z</time>
      </trkpt>
      <trkpt lat="44.4995" lon="6.45495">
        <ele>1166.6635742188</ele>
        <time>2010-05-22T15:24:35Z</time>
      </trkpt>
      <trkpt lat="44.49943" lon="6.45483">
        <ele>1168.3704833984</ele>
        <time>2010-05-22T15:24:43Z</time>
      </trkpt>
      <trkpt lat="44.49937" lon="6.45476">
        <ele>1169.3588867188</ele>
        <time>2010-05-22T15:24:49Z</time>
      </trkpt>
      <trkpt lat="44.49928" lon="6.4547">
        <ele>1170.6688232422</ele>
        <time>2010-05-22T15:24:56Z</time>
      </trkpt>
      <trkpt lat="44.49921" lon="6.45465">
        <ele>1171.4653320312</ele>
        <time>2010-05-22T15:25:03Z</time>
      </trkpt>
      <trkpt lat="44.4992" lon="6.45465">
        <ele>1171.5872802734</ele>
        <time>2010-05-22T15:25:04Z</time>
      </trkpt>
      <trkpt lat="44.49908" lon="6.45457">
        <ele>1172.8541259766</ele>
        <time>2010-05-22T15:25:12Z</time>
      </trkpt>
      <trkpt lat="44.49905" lon="6.45455">
        <ele>1173.3450927734</ele>
        <time>2010-05-22T15:25:14Z</time>
      </trkpt>
      <trkpt lat="44.499" lon="6.45453">
        <ele>1173.9270019531</ele>
        <time>2010-05-22T15:25:18Z</time>
      </trkpt>
      <trkpt lat="44.49886" lon="6.45449">
        <ele>1176.0656738281</ele>
        <time>2010-05-22T15:25:28Z</time>
      </trkpt>
      <trkpt lat="44.49875" lon="6.45443">
        <ele>1177.3775634766</ele>
        <time>2010-05-22T15:25:35Z</time>
      </trkpt>
      <trkpt lat="44.49868" lon="6.45436">
        <ele>1177.7983398438</ele>
        <time>2010-05-22T15:25:42Z</time>
      </trkpt>
      <trkpt lat="44.49864" lon="6.45433">
        <ele>1178.1303710938</ele>
        <time>2010-05-22T15:25:46Z</time>
      </trkpt>
      <trkpt lat="44.49856" lon="6.45409">
        <ele>1178.9683837891</ele>
        <time>2010-05-22T15:25:52Z</time>
      </trkpt>
      <trkpt lat="44.49847" lon="6.45395">
        <ele>1181.5336914062</ele>
        <time>2010-05-22T15:25:59Z</time>
      </trkpt>
      <trkpt lat="44.49838" lon="6.45382">
        <ele>1183.298828125</ele>
        <time>2010-05-22T15:26:08Z</time>
      </trkpt>
      <trkpt lat="44.49831" lon="6.45371">
        <ele>1183.2935791016</ele>
        <time>2010-05-22T15:26:16Z</time>
      </trkpt>
      <trkpt lat="44.49824" lon="6.45357">
        <ele>1183.4761962891</ele>
        <time>2010-05-22T15:26:24Z</time>
      </trkpt>
      <trkpt lat="44.49823" lon="6.45355">
        <ele>1183.6171875</ele>
        <time>2010-05-22T15:26:25Z</time>
      </trkpt>
      <trkpt lat="44.49818" lon="6.45345">
        <ele>1184.5382080078</ele>
        <time>2010-05-22T15:26:32Z</time>
      </trkpt>
      <trkpt lat="44.49818" lon="6.45343">
        <ele>1184.4625244141</ele>
        <time>2010-05-22T15:26:33Z</time>
      </trkpt>
      <trkpt lat="44.49805" lon="6.45324">
        <ele>1186.6208496094</ele>
        <time>2010-05-22T15:26:41Z</time>
      </trkpt>
      <trkpt lat="44.49799" lon="6.45308">
        <ele>1186.2249755859</ele>
        <time>2010-05-22T15:26:48Z</time>
      </trkpt>
      <trkpt lat="44.49791" lon="6.45295">
        <ele>1186.8729248047</ele>
        <time>2010-05-22T15:26:55Z</time>
      </trkpt>
      <trkpt lat="44.49789" lon="6.45284">
        <ele>1186.1682128906</ele>
        <time>2010-05-22T15:27:00Z</time>
      </trkpt>
      <trkpt lat="44.49784" lon="6.45278">
        <ele>1187.0621337891</ele>
        <time>2010-05-22T15:27:04Z</time>
      </trkpt>
      <trkpt lat="44.4978" lon="6.45264">
        <ele>1187.0377197266</ele>
        <time>2010-05-22T15:27:11Z</time>
      </trkpt>
      <trkpt lat="44.49777" lon="6.45258">
        <ele>1187.037109375</ele>
        <time>2010-05-22T15:27:14Z</time>
      </trkpt>
      <trkpt lat="44.4977" lon="6.45242">
        <ele>1188.765625</ele>
        <time>2010-05-22T15:27:22Z</time>
      </trkpt>
      <trkpt lat="44.49768" lon="6.45223">
        <ele>1189.7199707031</ele>
        <time>2010-05-22T15:27:30Z</time>
      </trkpt>
      <trkpt lat="44.49761" lon="6.45202">
        <ele>1193.9356689453</ele>
        <time>2010-05-22T15:27:40Z</time>
      </trkpt>
      <trkpt lat="44.49754" lon="6.45186">
        <ele>1197.3166503906</ele>
        <time>2010-05-22T15:27:48Z</time>
      </trkpt>
      <trkpt lat="44.49742" lon="6.45174">
        <ele>1202.86328125</ele>
        <time>2010-05-22T15:27:57Z</time>
      </trkpt>
      <trkpt lat="44.49731" lon="6.45167">
        <ele>1207.68359375</ele>
        <time>2010-05-22T15:28:06Z</time>
      </trkpt>
      <trkpt lat="44.49724" lon="6.45157">
        <ele>1208.5798339844</ele>
        <time>2010-05-22T15:28:14Z</time>
      </trkpt>
      <trkpt lat="44.49718" lon="6.45145">
        <ele>1208.845703125</ele>
        <time>2010-05-22T15:28:23Z</time>
      </trkpt>
      <trkpt lat="44.49716" lon="6.45144">
        <ele>1209.5030517578</ele>
        <time>2010-05-22T15:28:25Z</time>
      </trkpt>
      <trkpt lat="44.49711" lon="6.45137">
        <ele>1211.2781982422</ele>
        <time>2010-05-22T15:28:31Z</time>
      </trkpt>
      <trkpt lat="44.49709" lon="6.45132">
        <ele>1211.7513427734</ele>
        <time>2010-05-22T15:28:33Z</time>
      </trkpt>
      <trkpt lat="44.49708" lon="6.45117">
        <ele>1210.0181884766</ele>
        <time>2010-05-22T15:28:42Z</time>
      </trkpt>
      <trkpt lat="44.49701" lon="6.451">
        <ele>1211.8179931641</ele>
        <time>2010-05-22T15:28:48Z</time>
      </trkpt>
      <trkpt lat="44.49701" lon="6.45099">
        <ele>1211.7177734375</ele>
        <time>2010-05-22T15:28:49Z</time>
      </trkpt>
      <trkpt lat="44.49698" lon="6.45085">
        <ele>1210.7791748047</ele>
        <time>2010-05-22T15:28:56Z</time>
      </trkpt>
      <trkpt lat="44.49692" lon="6.45072">
        <ele>1211.4691162109</ele>
        <time>2010-05-22T15:29:02Z</time>
      </trkpt>
      <trkpt lat="44.49685" lon="6.45057">
        <ele>1213.2465820312</ele>
        <time>2010-05-22T15:29:08Z</time>
      </trkpt>
      <trkpt lat="44.4968" lon="6.45046">
        <ele>1215.7989501953</ele>
        <time>2010-05-22T15:29:14Z</time>
      </trkpt>
      <trkpt lat="44.49677" lon="6.4504">
        <ele>1216.6643066406</ele>
        <time>2010-05-22T15:29:17Z</time>
      </trkpt>
      <trkpt lat="44.49672" lon="6.4503">
        <ele>1217.1479492188</ele>
        <time>2010-05-22T15:29:23Z</time>
      </trkpt>
      <trkpt lat="44.49665" lon="6.45013">
        <ele>1218.7408447266</ele>
        <time>2010-05-22T15:29:31Z</time>
      </trkpt>
      <trkpt lat="44.4966" lon="6.44998">
        <ele>1219.0590820312</ele>
        <time>2010-05-22T15:29:38Z</time>
      </trkpt>
      <trkpt lat="44.4966" lon="6.44982">
        <ele>1219.6478271484</ele>
        <time>2010-05-22T15:29:45Z</time>
      </trkpt>
      <trkpt lat="44.49661" lon="6.44977">
        <ele>1219.8349609375</ele>
        <time>2010-05-22T15:29:47Z</time>
      </trkpt>
      <trkpt lat="44.49665" lon="6.44957">
        <ele>1221.0139160156</ele>
        <time>2010-05-22T15:29:55Z</time>
      </trkpt>
      <trkpt lat="44.49668" lon="6.44953">
        <ele>1221.6202392578</ele>
        <time>2010-05-22T15:29:57Z</time>
      </trkpt>
      <trkpt lat="44.4967" lon="6.44935">
        <ele>1226.2777099609</ele>
        <time>2010-05-22T15:30:03Z</time>
      </trkpt>
      <trkpt lat="44.4966" lon="6.44919">
        <ele>1230.2886962891</ele>
        <time>2010-05-22T15:30:11Z</time>
      </trkpt>
      <trkpt lat="44.49659" lon="6.44918">
        <ele>1230.5327148438</ele>
        <time>2010-05-22T15:30:12Z</time>
      </trkpt>
      <trkpt lat="44.49659" lon="6.44917">
        <ele>1230.3986816406</ele>
        <time>2010-05-22T15:30:14Z</time>
      </trkpt>
      <trkpt lat="44.49651" lon="6.44916">
        <ele>1228.7623291016</ele>
        <time>2010-05-22T15:30:21Z</time>
      </trkpt>
      <trkpt lat="44.49639" lon="6.44917">
        <ele>1225.0240478516</ele>
        <time>2010-05-22T15:30:30Z</time>
      </trkpt>
      <trkpt lat="44.49633" lon="6.44917">
        <ele>1223.8013916016</ele>
        <time>2010-05-22T15:30:36Z</time>
      </trkpt>
      <trkpt lat="44.49619" lon="6.44907">
        <ele>1222.6116943359</ele>
        <time>2010-05-22T15:30:42Z</time>
      </trkpt>
      <trkpt lat="44.49612" lon="6.44895">
        <ele>1220.2736816406</ele>
        <time>2010-05-22T15:30:49Z</time>
      </trkpt>
      <trkpt lat="44.49612" lon="6.44888">
        <ele>1220.6806640625</ele>
        <time>2010-05-22T15:30:52Z</time>
      </trkpt>
      <trkpt lat="44.49617" lon="6.44881">
        <ele>1226.2751464844</ele>
        <time>2010-05-22T15:30:56Z</time>
      </trkpt>
      <trkpt lat="44.49622" lon="6.44865">
        <ele>1234.0874023438</ele>
        <time>2010-05-22T15:31:05Z</time>
      </trkpt>
      <trkpt lat="44.49622" lon="6.44863">
        <ele>1234.4239501953</ele>
        <time>2010-05-22T15:31:06Z</time>
      </trkpt>
      <trkpt lat="44.49618" lon="6.44852">
        <ele>1236.1513671875</ele>
        <time>2010-05-22T15:31:12Z</time>
      </trkpt>
      <trkpt lat="44.49615" lon="6.44849">
        <ele>1235.8325195312</ele>
        <time>2010-05-22T15:31:14Z</time>
      </trkpt>
      <trkpt lat="44.49607" lon="6.44842">
        <ele>1235.2265625</ele>
        <time>2010-05-22T15:31:22Z</time>
      </trkpt>
      <trkpt lat="44.49598" lon="6.44843">
        <ele>1232.0295410156</ele>
        <time>2010-05-22T15:31:28Z</time>
      </trkpt>
      <trkpt lat="44.49588" lon="6.44835">
        <ele>1231.2386474609</ele>
        <time>2010-05-22T15:31:35Z</time>
      </trkpt>
      <trkpt lat="44.49587" lon="6.44833">
        <ele>1231.4937744141</ele>
        <time>2010-05-22T15:31:37Z</time>
      </trkpt>
      <trkpt lat="44.49583" lon="6.44824">
        <ele>1232.7352294922</ele>
        <time>2010-05-22T15:31:43Z</time>
      </trkpt>
      <trkpt lat="44.49574" lon="6.44811">
        <ele>1236.3583984375</ele>
        <time>2010-05-22T15:31:51Z</time>
      </trkpt>
      <trkpt lat="44.49572" lon="6.4481">
        <ele>1236.6805419922</ele>
        <time>2010-05-22T15:31:52Z</time>
      </trkpt>
      <trkpt lat="44.49565" lon="6.44799">
        <ele>1238.4721679688</ele>
        <time>2010-05-22T15:32:00Z</time>
      </trkpt>
      <trkpt lat="44.49562" lon="6.44797">
        <ele>1238.4504394531</ele>
        <time>2010-05-22T15:32:03Z</time>
      </trkpt>
      <trkpt lat="44.4956" lon="6.44785">
        <ele>1239.6779785156</ele>
        <time>2010-05-22T15:32:10Z</time>
      </trkpt>
      <trkpt lat="44.49563" lon="6.44767">
        <ele>1244.8748779297</ele>
        <time>2010-05-22T15:32:17Z</time>
      </trkpt>
      <trkpt lat="44.49566" lon="6.44764">
        <ele>1246.9166259766</ele>
        <time>2010-05-22T15:32:19Z</time>
      </trkpt>
      <trkpt lat="44.49579" lon="6.44764">
        <ele>1252.5130615234</ele>
        <time>2010-05-22T15:32:26Z</time>
      </trkpt>
      <trkpt lat="44.49587" lon="6.4477">
        <ele>1254.0158691406</ele>
        <time>2010-05-22T15:32:32Z</time>
      </trkpt>
      <trkpt lat="44.49595" lon="6.44777">
        <ele>1255.1339111328</ele>
        <time>2010-05-22T15:32:39Z</time>
      </trkpt>
      <trkpt lat="44.49606" lon="6.44779">
        <ele>1259.9049072266</ele>
        <time>2010-05-22T15:32:46Z</time>
      </trkpt>
      <trkpt lat="44.49609" lon="6.44782">
        <ele>1260.4644775391</ele>
        <time>2010-05-22T15:32:50Z</time>
      </trkpt>
      <trkpt lat="44.49617" lon="6.44786">
        <ele>1262.2423095703</ele>
        <time>2010-05-22T15:32:56Z</time>
      </trkpt>
      <trkpt lat="44.49627" lon="6.44792">
        <ele>1263.8907470703</ele>
        <time>2010-05-22T15:33:03Z</time>
      </trkpt>
      <trkpt lat="44.49642" lon="6.44795">
        <ele>1268.2215576172</ele>
        <time>2010-05-22T15:33:11Z</time>
      </trkpt>
      <trkpt lat="44.49657" lon="6.44801">
        <ele>1267.9924316406</ele>
        <time>2010-05-22T15:33:19Z</time>
      </trkpt>
      <trkpt lat="44.49668" lon="6.44809">
        <ele>1267.0042724609</ele>
        <time>2010-05-22T15:33:26Z</time>
      </trkpt>
      <trkpt lat="44.49679" lon="6.44812">
        <ele>1268.0532226562</ele>
        <time>2010-05-22T15:33:32Z</time>
      </trkpt>
      <trkpt lat="44.49692" lon="6.44811">
        <ele>1270.7825927734</ele>
        <time>2010-05-22T15:33:40Z</time>
      </trkpt>
      <trkpt lat="44.497" lon="6.44813">
        <ele>1270.8265380859</ele>
        <time>2010-05-22T15:33:47Z</time>
      </trkpt>
      <trkpt lat="44.49709" lon="6.44818">
        <ele>1270.0593261719</ele>
        <time>2010-05-22T15:33:54Z</time>
      </trkpt>
      <trkpt lat="44.49721" lon="6.4482">
        <ele>1270.2349853516</ele>
        <time>2010-05-22T15:34:02Z</time>
      </trkpt>
      <trkpt lat="44.49731" lon="6.4482">
        <ele>1271.537109375</ele>
        <time>2010-05-22T15:34:08Z</time>
      </trkpt>
      <trkpt lat="44.49738" lon="6.44814">
        <ele>1273.9462890625</ele>
        <time>2010-05-22T15:34:13Z</time>
      </trkpt>
      <trkpt lat="44.49745" lon="6.44813">
        <ele>1275.2604980469</ele>
        <time>2010-05-22T15:34:19Z</time>
      </trkpt>
      <trkpt lat="44.49751" lon="6.4481">
        <ele>1277.0736083984</ele>
        <time>2010-05-22T15:34:24Z</time>
      </trkpt>
      <trkpt lat="44.49756" lon="6.44809">
        <ele>1282.3328857422</ele>
        <time>2010-05-22T15:34:29Z</time>
      </trkpt>
      <trkpt lat="44.49757" lon="6.44811">
        <ele>1282.7528076172</ele>
        <time>2010-05-22T15:34:30Z</time>
      </trkpt>
      <trkpt lat="44.49763" lon="6.44832">
        <ele>1280.1643066406</ele>
        <time>2010-05-22T15:34:38Z</time>
      </trkpt>
      <trkpt lat="44.49771" lon="6.44845">
        <ele>1281.4360351562</ele>
        <time>2010-05-22T15:34:45Z</time>
      </trkpt>
      <trkpt lat="44.4978" lon="6.44858">
        <ele>1283.5126953125</ele>
        <time>2010-05-22T15:34:53Z</time>
      </trkpt>
      <trkpt lat="44.49787" lon="6.44873">
        <ele>1287.603515625</ele>
        <time>2010-05-22T15:35:01Z</time>
      </trkpt>
      <trkpt lat="44.49791" lon="6.44888">
        <ele>1289.7905273438</ele>
        <time>2010-05-22T15:35:09Z</time>
      </trkpt>
      <trkpt lat="44.49797" lon="6.44906">
        <ele>1291.3745117188</ele>
        <time>2010-05-22T15:35:19Z</time>
      </trkpt>
      <trkpt lat="44.49805" lon="6.44919">
        <ele>1294.9527587891</ele>
        <time>2010-05-22T15:35:28Z</time>
      </trkpt>
      <trkpt lat="44.49813" lon="6.4493">
        <ele>1295.9851074219</ele>
        <time>2010-05-22T15:35:37Z</time>
      </trkpt>
      <trkpt lat="44.49818" lon="6.44937">
        <ele>1296.4573974609</ele>
        <time>2010-05-22T15:35:43Z</time>
      </trkpt>
      <trkpt lat="44.49824" lon="6.44946">
        <ele>1296.7255859375</ele>
        <time>2010-05-22T15:35:50Z</time>
      </trkpt>
      <trkpt lat="44.49829" lon="6.44954">
        <ele>1297.5880126953</ele>
        <time>2010-05-22T15:35:57Z</time>
      </trkpt>
      <trkpt lat="44.49837" lon="6.44975">
        <ele>1296.7214355469</ele>
        <time>2010-05-22T15:36:07Z</time>
      </trkpt>
      <trkpt lat="44.49843" lon="6.44995">
        <ele>1296.0743408203</ele>
        <time>2010-05-22T15:36:18Z</time>
      </trkpt>
      <trkpt lat="44.49854" lon="6.45006">
        <ele>1300.134765625</ele>
        <time>2010-05-22T15:36:28Z</time>
      </trkpt>
      <trkpt lat="44.49862" lon="6.45014">
        <ele>1303.2589111328</ele>
        <time>2010-05-22T15:36:36Z</time>
      </trkpt>
      <trkpt lat="44.49871" lon="6.45022">
        <ele>1303.5233154297</ele>
        <time>2010-05-22T15:36:43Z</time>
      </trkpt>
      <trkpt lat="44.49881" lon="6.45027">
        <ele>1304.7158203125</ele>
        <time>2010-05-22T15:36:50Z</time>
      </trkpt>
      <trkpt lat="44.49892" lon="6.45025">
        <ele>1308.5786132812</ele>
        <time>2010-05-22T15:36:57Z</time>
      </trkpt>
      <trkpt lat="44.499" lon="6.45019">
        <ele>1311.8001708984</ele>
        <time>2010-05-22T15:37:04Z</time>
      </trkpt>
      <trkpt lat="44.49908" lon="6.4501">
        <ele>1316.8697509766</ele>
        <time>2010-05-22T15:37:10Z</time>
      </trkpt>
      <trkpt lat="44.4992" lon="6.45002">
        <ele>1321.4509277344</ele>
        <time>2010-05-22T15:37:18Z</time>
      </trkpt>
      <trkpt lat="44.49931" lon="6.44996">
        <ele>1322.4066162109</ele>
        <time>2010-05-22T15:37:26Z</time>
      </trkpt>
      <trkpt lat="44.49941" lon="6.44995">
        <ele>1321.3461914062</ele>
        <time>2010-05-22T15:37:33Z</time>
      </trkpt>
      <trkpt lat="44.4995" lon="6.44989">
        <ele>1321.6165771484</ele>
        <time>2010-05-22T15:37:40Z</time>
      </trkpt>
      <trkpt lat="44.49962" lon="6.44986">
        <ele>1318.58984375</ele>
        <time>2010-05-22T15:37:47Z</time>
      </trkpt>
      <trkpt lat="44.49973" lon="6.44979">
        <ele>1316.5079345703</ele>
        <time>2010-05-22T15:37:54Z</time>
      </trkpt>
      <trkpt lat="44.49981" lon="6.44968">
        <ele>1317.8973388672</ele>
        <time>2010-05-22T15:38:02Z</time>
      </trkpt>
      <trkpt lat="44.49988" lon="6.44956">
        <ele>1320.1639404297</ele>
        <time>2010-05-22T15:38:09Z</time>
      </trkpt>
      <trkpt lat="44.49994" lon="6.44941">
        <ele>1321.9719238281</ele>
        <time>2010-05-22T15:38:18Z</time>
      </trkpt>
      <trkpt lat="44.49999" lon="6.44922">
        <ele>1323.2316894531</ele>
        <time>2010-05-22T15:38:28Z</time>
      </trkpt>
      <trkpt lat="44.50002" lon="6.44914">
        <ele>1322.76171875</ele>
        <time>2010-05-22T15:38:32Z</time>
      </trkpt>
      <trkpt lat="44.50008" lon="6.44895">
        <ele>1320.3775634766</ele>
        <time>2010-05-22T15:38:42Z</time>
      </trkpt>
      <trkpt lat="44.50009" lon="6.44877">
        <ele>1321.677734375</ele>
        <time>2010-05-22T15:38:51Z</time>
      </trkpt>
      <trkpt lat="44.50006" lon="6.44861">
        <ele>1327.3084716797</ele>
        <time>2010-05-22T15:38:59Z</time>
      </trkpt>
      <trkpt lat="44.50004" lon="6.44848">
        <ele>1330.9854736328</ele>
        <time>2010-05-22T15:39:05Z</time>
      </trkpt>
      <trkpt lat="44.50005" lon="6.44832">
        <ele>1333.1607666016</ele>
        <time>2010-05-22T15:39:12Z</time>
      </trkpt>
      <trkpt lat="44.50008" lon="6.44819">
        <ele>1330.9674072266</ele>
        <time>2010-05-22T15:39:18Z</time>
      </trkpt>
      <trkpt lat="44.50007" lon="6.44802">
        <ele>1332.1511230469</ele>
        <time>2010-05-22T15:39:26Z</time>
      </trkpt>
      <trkpt lat="44.50009" lon="6.44788">
        <ele>1329.6805419922</ele>
        <time>2010-05-22T15:39:33Z</time>
      </trkpt>
      <trkpt lat="44.50005" lon="6.44773">
        <ele>1332.4129638672</ele>
        <time>2010-05-22T15:39:40Z</time>
      </trkpt>
      <trkpt lat="44.50002" lon="6.44756">
        <ele>1336.4249267578</ele>
        <time>2010-05-22T15:39:48Z</time>
      </trkpt>
      <trkpt lat="44.50004" lon="6.4474">
        <ele>1335.9141845703</ele>
        <time>2010-05-22T15:39:55Z</time>
      </trkpt>
      <trkpt lat="44.50007" lon="6.44718">
        <ele>1334.6928710938</ele>
        <time>2010-05-22T15:40:05Z</time>
      </trkpt>
      <trkpt lat="44.5001" lon="6.44696">
        <ele>1332.1785888672</ele>
        <time>2010-05-22T15:40:15Z</time>
      </trkpt>
      <trkpt lat="44.5001" lon="6.44676">
        <ele>1333.8798828125</ele>
        <time>2010-05-22T15:40:23Z</time>
      </trkpt>
      <trkpt lat="44.5001" lon="6.4466">
        <ele>1335.5493164062</ele>
        <time>2010-05-22T15:40:30Z</time>
      </trkpt>
      <trkpt lat="44.5001" lon="6.44642">
        <ele>1337.423828125</ele>
        <time>2010-05-22T15:40:38Z</time>
      </trkpt>
      <trkpt lat="44.5001" lon="6.44629">
        <ele>1339.1971435547</ele>
        <time>2010-05-22T15:40:44Z</time>
      </trkpt>
      <trkpt lat="44.50012" lon="6.44605">
        <ele>1339.9541015625</ele>
        <time>2010-05-22T15:40:54Z</time>
      </trkpt>
      <trkpt lat="44.50013" lon="6.44587">
        <ele>1341.5987548828</ele>
        <time>2010-05-22T15:41:02Z</time>
      </trkpt>
      <trkpt lat="44.50012" lon="6.44571">
        <ele>1344.3801269531</ele>
        <time>2010-05-22T15:41:09Z</time>
      </trkpt>
      <trkpt lat="44.50013" lon="6.4455">
        <ele>1346.4343261719</ele>
        <time>2010-05-22T15:41:18Z</time>
      </trkpt>
      <trkpt lat="44.50008" lon="6.44528">
        <ele>1352.5770263672</ele>
        <time>2010-05-22T15:41:27Z</time>
      </trkpt>
      <trkpt lat="44.50008" lon="6.44512">
        <ele>1353.38671875</ele>
        <time>2010-05-22T15:41:34Z</time>
      </trkpt>
      <trkpt lat="44.50013" lon="6.44495">
        <ele>1352.2320556641</ele>
        <time>2010-05-22T15:41:42Z</time>
      </trkpt>
      <trkpt lat="44.50024" lon="6.44481">
        <ele>1350.3208007812</ele>
        <time>2010-05-22T15:41:50Z</time>
      </trkpt>
      <trkpt lat="44.50035" lon="6.4447">
        <ele>1353.8796386719</ele>
        <time>2010-05-22T15:41:58Z</time>
      </trkpt>
      <trkpt lat="44.50038" lon="6.44463">
        <ele>1357.9425048828</ele>
        <time>2010-05-22T15:42:01Z</time>
      </trkpt>
      <trkpt lat="44.50034" lon="6.4445">
        <ele>1364.5106201172</ele>
        <time>2010-05-22T15:42:09Z</time>
      </trkpt>
      <trkpt lat="44.50024" lon="6.44442">
        <ele>1367.8084716797</ele>
        <time>2010-05-22T15:42:17Z</time>
      </trkpt>
      <trkpt lat="44.50018" lon="6.44449">
        <ele>1366.6793212891</ele>
        <time>2010-05-22T15:42:23Z</time>
      </trkpt>
      <trkpt lat="44.50019" lon="6.44451">
        <ele>1365.0717773438</ele>
        <time>2010-05-22T15:42:24Z</time>
      </trkpt>
      <trkpt lat="44.50017" lon="6.44471">
        <ele>1357.3701171875</ele>
        <time>2010-05-22T15:42:32Z</time>
      </trkpt>
      <trkpt lat="44.50013" lon="6.44488">
        <ele>1354.5646972656</ele>
        <time>2010-05-22T15:42:39Z</time>
      </trkpt>
      <trkpt lat="44.50012" lon="6.445">
        <ele>1351.5080566406</ele>
        <time>2010-05-22T15:42:45Z</time>
      </trkpt>
      <trkpt lat="44.50003" lon="6.44508">
        <ele>1357.7718505859</ele>
        <time>2010-05-22T15:42:52Z</time>
      </trkpt>
      <trkpt lat="44.49999" lon="6.44517">
        <ele>1360.2341308594</ele>
        <time>2010-05-22T15:42:59Z</time>
      </trkpt>
      <trkpt lat="44.49995" lon="6.44532">
        <ele>1362.2504882812</ele>
        <time>2010-05-22T15:43:06Z</time>
      </trkpt>
      <trkpt lat="44.49993" lon="6.44548">
        <ele>1361.9930419922</ele>
        <time>2010-05-22T15:43:13Z</time>
      </trkpt>
      <trkpt lat="44.49989" lon="6.4456">
        <ele>1363.4344482422</ele>
        <time>2010-05-22T15:43:19Z</time>
      </trkpt>
      <trkpt lat="44.49984" lon="6.44576">
        <ele>1364.8969726562</ele>
        <time>2010-05-22T15:43:27Z</time>
      </trkpt>
      <trkpt lat="44.49983" lon="6.44592">
        <ele>1364.0364990234</ele>
        <time>2010-05-22T15:43:35Z</time>
      </trkpt>
      <trkpt lat="44.49981" lon="6.44602">
        <ele>1364.0828857422</ele>
        <time>2010-05-22T15:43:42Z</time>
      </trkpt>
      <trkpt lat="44.49977" lon="6.44614">
        <ele>1365.7205810547</ele>
        <time>2010-05-22T15:43:48Z</time>
      </trkpt>
      <trkpt lat="44.49977" lon="6.44626">
        <ele>1364.3764648438</ele>
        <time>2010-05-22T15:43:53Z</time>
      </trkpt>
      <trkpt lat="44.49977" lon="6.44629">
        <ele>1364.3455810547</ele>
        <time>2010-05-22T15:43:54Z</time>
      </trkpt>
      <trkpt lat="44.49972" lon="6.4465">
        <ele>1366.2211914062</ele>
        <time>2010-05-22T15:44:02Z</time>
      </trkpt>
      <trkpt lat="44.49966" lon="6.44669">
        <ele>1369.6611328125</ele>
        <time>2010-05-22T15:44:11Z</time>
      </trkpt>
      <trkpt lat="44.49965" lon="6.44683">
        <ele>1368.8303222656</ele>
        <time>2010-05-22T15:44:18Z</time>
      </trkpt>
      <trkpt lat="44.49963" lon="6.44694">
        <ele>1370.0662841797</ele>
        <time>2010-05-22T15:44:24Z</time>
      </trkpt>
      <trkpt lat="44.4996" lon="6.44707">
        <ele>1371.2989501953</ele>
        <time>2010-05-22T15:44:31Z</time>
      </trkpt>
      <trkpt lat="44.49957" lon="6.44718">
        <ele>1374.1921386719</ele>
        <time>2010-05-22T15:44:38Z</time>
      </trkpt>
      <trkpt lat="44.49953" lon="6.44722">
        <ele>1376.8907470703</ele>
        <time>2010-05-22T15:44:40Z</time>
      </trkpt>
      <trkpt lat="44.49953" lon="6.44734">
        <ele>1375.5816650391</ele>
        <time>2010-05-22T15:44:47Z</time>
      </trkpt>
      <trkpt lat="44.4995" lon="6.44746">
        <ele>1377.0900878906</ele>
        <time>2010-05-22T15:44:55Z</time>
      </trkpt>
      <trkpt lat="44.4995" lon="6.44756">
        <ele>1377.0297851562</ele>
        <time>2010-05-22T15:45:00Z</time>
      </trkpt>
      <trkpt lat="44.49945" lon="6.44774">
        <ele>1379.7908935547</ele>
        <time>2010-05-22T15:45:08Z</time>
      </trkpt>
      <trkpt lat="44.49944" lon="6.44787">
        <ele>1379.4985351562</ele>
        <time>2010-05-22T15:45:15Z</time>
      </trkpt>
      <trkpt lat="44.4994" lon="6.44804">
        <ele>1379.3057861328</ele>
        <time>2010-05-22T15:45:23Z</time>
      </trkpt>
      <trkpt lat="44.49932" lon="6.4482">
        <ele>1378.7572021484</ele>
        <time>2010-05-22T15:45:31Z</time>
      </trkpt>
      <trkpt lat="44.49925" lon="6.44825">
        <ele>1379.6922607422</ele>
        <time>2010-05-22T15:45:35Z</time>
      </trkpt>
      <trkpt lat="44.49913" lon="6.44821">
        <ele>1382.3682861328</ele>
        <time>2010-05-22T15:45:42Z</time>
      </trkpt>
      <trkpt lat="44.49909" lon="6.44807">
        <ele>1385.0030517578</ele>
        <time>2010-05-22T15:45:49Z</time>
      </trkpt>
      <trkpt lat="44.49911" lon="6.44792">
        <ele>1387.6750488281</ele>
        <time>2010-05-22T15:45:57Z</time>
      </trkpt>
      <trkpt lat="44.4992" lon="6.44772">
        <ele>1389.7978515625</ele>
        <time>2010-05-22T15:46:07Z</time>
      </trkpt>
      <trkpt lat="44.49923" lon="6.44757">
        <ele>1391.1290283203</ele>
        <time>2010-05-22T15:46:14Z</time>
      </trkpt>
      <trkpt lat="44.49921" lon="6.44739">
        <ele>1395.0555419922</ele>
        <time>2010-05-22T15:46:23Z</time>
      </trkpt>
      <trkpt lat="44.49918" lon="6.44722">
        <ele>1399.1267089844</ele>
        <time>2010-05-22T15:46:31Z</time>
      </trkpt>
      <trkpt lat="44.49918" lon="6.44706">
        <ele>1401.4425048828</ele>
        <time>2010-05-22T15:46:38Z</time>
      </trkpt>
      <trkpt lat="44.4992" lon="6.44689">
        <ele>1403.4808349609</ele>
        <time>2010-05-22T15:46:46Z</time>
      </trkpt>
      <trkpt lat="44.49926" lon="6.4467">
        <ele>1403.8708496094</ele>
        <time>2010-05-22T15:46:54Z</time>
      </trkpt>
      <trkpt lat="44.49928" lon="6.44655">
        <ele>1405.1196289062</ele>
        <time>2010-05-22T15:47:01Z</time>
      </trkpt>
      <trkpt lat="44.49929" lon="6.44636">
        <ele>1407.7185058594</ele>
        <time>2010-05-22T15:47:09Z</time>
      </trkpt>
      <trkpt lat="44.49928" lon="6.4462">
        <ele>1410.603515625</ele>
        <time>2010-05-22T15:47:17Z</time>
      </trkpt>
      <trkpt lat="44.49927" lon="6.446">
        <ele>1412.7569580078</ele>
        <time>2010-05-22T15:47:26Z</time>
      </trkpt>
      <trkpt lat="44.49924" lon="6.44582">
        <ele>1415.6782226562</ele>
        <time>2010-05-22T15:47:35Z</time>
      </trkpt>
      <trkpt lat="44.4992" lon="6.44564">
        <ele>1418.5621337891</ele>
        <time>2010-05-22T15:47:43Z</time>
      </trkpt>
      <trkpt lat="44.49918" lon="6.44553">
        <ele>1420.2998046875</ele>
        <time>2010-05-22T15:47:49Z</time>
      </trkpt>
      <trkpt lat="44.49917" lon="6.44536">
        <ele>1420.8779296875</ele>
        <time>2010-05-22T15:47:57Z</time>
      </trkpt>
      <trkpt lat="44.49916" lon="6.44522">
        <ele>1420.8533935547</ele>
        <time>2010-05-22T15:48:04Z</time>
      </trkpt>
      <trkpt lat="44.49916" lon="6.44505">
        <ele>1420.5358886719</ele>
        <time>2010-05-22T15:48:12Z</time>
      </trkpt>
      <trkpt lat="44.49918" lon="6.44487">
        <ele>1418.6002197266</ele>
        <time>2010-05-22T15:48:20Z</time>
      </trkpt>
      <trkpt lat="44.4992" lon="6.44469">
        <ele>1417.4027099609</ele>
        <time>2010-05-22T15:48:28Z</time>
      </trkpt>
      <trkpt lat="44.49922" lon="6.44456">
        <ele>1416.6317138672</ele>
        <time>2010-05-22T15:48:34Z</time>
      </trkpt>
      <trkpt lat="44.4992" lon="6.44437">
        <ele>1417.4748535156</ele>
        <time>2010-05-22T15:48:42Z</time>
      </trkpt>
      <trkpt lat="44.49921" lon="6.44422">
        <ele>1417.2403564453</ele>
        <time>2010-05-22T15:48:49Z</time>
      </trkpt>
      <trkpt lat="44.49923" lon="6.44404">
        <ele>1418.6252441406</ele>
        <time>2010-05-22T15:48:57Z</time>
      </trkpt>
      <trkpt lat="44.49924" lon="6.44384">
        <ele>1421.4538574219</ele>
        <time>2010-05-22T15:49:06Z</time>
      </trkpt>
      <trkpt lat="44.49929" lon="6.44364">
        <ele>1424.4891357422</ele>
        <time>2010-05-22T15:49:15Z</time>
      </trkpt>
      <trkpt lat="44.49929" lon="6.44349">
        <ele>1430.3972167969</ele>
        <time>2010-05-22T15:49:22Z</time>
      </trkpt>
      <trkpt lat="44.4993" lon="6.44334">
        <ele>1436.6083984375</ele>
        <time>2010-05-22T15:49:28Z</time>
      </trkpt>
      <trkpt lat="44.4993" lon="6.44332">
        <ele>1437.4410400391</ele>
        <time>2010-05-22T15:49:29Z</time>
      </trkpt>
      <trkpt lat="44.49942" lon="6.44317">
        <ele>1440.6961669922</ele>
        <time>2010-05-22T15:49:37Z</time>
      </trkpt>
      <trkpt lat="44.49944" lon="6.44314">
        <ele>1441.2811279297</ele>
        <time>2010-05-22T15:49:38Z</time>
      </trkpt>
      <trkpt lat="44.49965" lon="6.44301">
        <ele>1440.6773681641</ele>
        <time>2010-05-22T15:49:47Z</time>
      </trkpt>
      <trkpt lat="44.49978" lon="6.44295">
        <ele>1439.3138427734</ele>
        <time>2010-05-22T15:49:54Z</time>
      </trkpt>
      <trkpt lat="44.49989" lon="6.44286">
        <ele>1440.1417236328</ele>
        <time>2010-05-22T15:50:00Z</time>
      </trkpt>
      <trkpt lat="44.50001" lon="6.44283">
        <ele>1439.8166503906</ele>
        <time>2010-05-22T15:50:07Z</time>
      </trkpt>
      <trkpt lat="44.50015" lon="6.44276">
        <ele>1441.3129882812</ele>
        <time>2010-05-22T15:50:13Z</time>
      </trkpt>
      <trkpt lat="44.50028" lon="6.44277">
        <ele>1440.2415771484</ele>
        <time>2010-05-22T15:50:18Z</time>
      </trkpt>
      <trkpt lat="44.50045" lon="6.44288">
        <ele>1437.5383300781</ele>
        <time>2010-05-22T15:50:25Z</time>
      </trkpt>
      <trkpt lat="44.50062" lon="6.44285">
        <ele>1438.7467041016</ele>
        <time>2010-05-22T15:50:30Z</time>
      </trkpt>
      <trkpt lat="44.50078" lon="6.44271">
        <ele>1441.3743896484</ele>
        <time>2010-05-22T15:50:36Z</time>
      </trkpt>
      <trkpt lat="44.50092" lon="6.44262">
        <ele>1441.5399169922</ele>
        <time>2010-05-22T15:50:42Z</time>
      </trkpt>
      <trkpt lat="44.50108" lon="6.44256">
        <ele>1439.3023681641</ele>
        <time>2010-05-22T15:50:49Z</time>
      </trkpt>
      <trkpt lat="44.50119" lon="6.44249">
        <ele>1440.2760009766</ele>
        <time>2010-05-22T15:50:54Z</time>
      </trkpt>
      <trkpt lat="44.50135" lon="6.4424">
        <ele>1444.078125</ele>
        <time>2010-05-22T15:50:59Z</time>
      </trkpt>
      <trkpt lat="44.50139" lon="6.44237">
        <ele>1445.5426025391</ele>
        <time>2010-05-22T15:51:02Z</time>
      </trkpt>
      <trkpt lat="44.50151" lon="6.4423">
        <ele>1448.4471435547</ele>
        <time>2010-05-22T15:51:08Z</time>
      </trkpt>
      <trkpt lat="44.50167" lon="6.44229">
        <ele>1448.4749755859</ele>
        <time>2010-05-22T15:51:15Z</time>
      </trkpt>
      <trkpt lat="44.50179" lon="6.4423">
        <ele>1448.9693603516</ele>
        <time>2010-05-22T15:51:21Z</time>
      </trkpt>
      <trkpt lat="44.50189" lon="6.44224">
        <ele>1452.5673828125</ele>
        <time>2010-05-22T15:51:27Z</time>
      </trkpt>
      <trkpt lat="44.50203" lon="6.44221">
        <ele>1455.5753173828</ele>
        <time>2010-05-22T15:51:34Z</time>
      </trkpt>
      <trkpt lat="44.50215" lon="6.44218">
        <ele>1458.69921875</ele>
        <time>2010-05-22T15:51:41Z</time>
      </trkpt>
      <trkpt lat="44.50225" lon="6.44216">
        <ele>1460.1062011719</ele>
        <time>2010-05-22T15:51:47Z</time>
      </trkpt>
      <trkpt lat="44.50235" lon="6.4422">
        <ele>1458.0305175781</ele>
        <time>2010-05-22T15:51:53Z</time>
      </trkpt>
      <trkpt lat="44.50246" lon="6.4422">
        <ele>1457.1641845703</ele>
        <time>2010-05-22T15:52:01Z</time>
      </trkpt>
      <trkpt lat="44.50257" lon="6.44217">
        <ele>1454.6164550781</ele>
        <time>2010-05-22T15:52:08Z</time>
      </trkpt>
      <trkpt lat="44.50259" lon="6.44215">
        <ele>1454.4007568359</ele>
        <time>2010-05-22T15:52:10Z</time>
      </trkpt>
      <trkpt lat="44.50264" lon="6.44209">
        <ele>1454.0814208984</ele>
        <time>2010-05-22T15:52:15Z</time>
      </trkpt>
      <trkpt lat="44.50265" lon="6.44197">
        <ele>1456.8171386719</ele>
        <time>2010-05-22T15:52:23Z</time>
      </trkpt>
      <trkpt lat="44.50267" lon="6.44193">
        <ele>1456.8525390625</ele>
        <time>2010-05-22T15:52:26Z</time>
      </trkpt>
      <trkpt lat="44.50277" lon="6.44179">
        <ele>1456.0147705078</ele>
        <time>2010-05-22T15:52:35Z</time>
      </trkpt>
      <trkpt lat="44.50282" lon="6.44169">
        <ele>1456.2731933594</ele>
        <time>2010-05-22T15:52:41Z</time>
      </trkpt>
      <trkpt lat="44.50295" lon="6.4416">
        <ele>1453.2407226562</ele>
        <time>2010-05-22T15:52:49Z</time>
      </trkpt>
      <trkpt lat="44.50307" lon="6.4415">
        <ele>1450.3858642578</ele>
        <time>2010-05-22T15:52:57Z</time>
      </trkpt>
      <trkpt lat="44.50317" lon="6.44144">
        <ele>1447.2576904297</ele>
        <time>2010-05-22T15:53:04Z</time>
      </trkpt>
      <trkpt lat="44.5032" lon="6.44129">
        <ele>1450.2005615234</ele>
        <time>2010-05-22T15:53:13Z</time>
      </trkpt>
      <trkpt lat="44.50322" lon="6.44117">
        <ele>1453.1130371094</ele>
        <time>2010-05-22T15:53:19Z</time>
      </trkpt>
      <trkpt lat="44.5033" lon="6.44098">
        <ele>1456.2529296875</ele>
        <time>2010-05-22T15:53:27Z</time>
      </trkpt>
      <trkpt lat="44.50336" lon="6.44083">
        <ele>1459.1888427734</ele>
        <time>2010-05-22T15:53:35Z</time>
      </trkpt>
      <trkpt lat="44.50338" lon="6.4408">
        <ele>1459.7587890625</ele>
        <time>2010-05-22T15:53:37Z</time>
      </trkpt>
      <trkpt lat="44.50346" lon="6.44062">
        <ele>1463.7000732422</ele>
        <time>2010-05-22T15:53:46Z</time>
      </trkpt>
      <trkpt lat="44.50354" lon="6.44049">
        <ele>1465.8435058594</ele>
        <time>2010-05-22T15:53:53Z</time>
      </trkpt>
      <trkpt lat="44.5036" lon="6.44041">
        <ele>1466.2751464844</ele>
        <time>2010-05-22T15:53:59Z</time>
      </trkpt>
      <trkpt lat="44.50368" lon="6.44032">
        <ele>1466.365234375</ele>
        <time>2010-05-22T15:54:05Z</time>
      </trkpt>
      <trkpt lat="44.50377" lon="6.44023">
        <ele>1466.5952148438</ele>
        <time>2010-05-22T15:54:12Z</time>
      </trkpt>
      <trkpt lat="44.5039" lon="6.44004">
        <ele>1466.9981689453</ele>
        <time>2010-05-22T15:54:20Z</time>
      </trkpt>
      <trkpt lat="44.50401" lon="6.43989">
        <ele>1466.822265625</ele>
        <time>2010-05-22T15:54:28Z</time>
      </trkpt>
      <trkpt lat="44.50406" lon="6.43978">
        <ele>1466.9312744141</ele>
        <time>2010-05-22T15:54:34Z</time>
      </trkpt>
      <trkpt lat="44.50409" lon="6.43966">
        <ele>1467.0546875</ele>
        <time>2010-05-22T15:54:40Z</time>
      </trkpt>
      <trkpt lat="44.50409" lon="6.43948">
        <ele>1468.2850341797</ele>
        <time>2010-05-22T15:54:49Z</time>
      </trkpt>
      <trkpt lat="44.5041" lon="6.43932">
        <ele>1467.9864501953</ele>
        <time>2010-05-22T15:54:56Z</time>
      </trkpt>
      <trkpt lat="44.5041" lon="6.43909">
        <ele>1467.8040771484</ele>
        <time>2010-05-22T15:55:06Z</time>
      </trkpt>
      <trkpt lat="44.50407" lon="6.43897">
        <ele>1468.6108398438</ele>
        <time>2010-05-22T15:55:13Z</time>
      </trkpt>
      <trkpt lat="44.50405" lon="6.43882">
        <ele>1468.9418945312</ele>
        <time>2010-05-22T15:55:20Z</time>
      </trkpt>
      <trkpt lat="44.50401" lon="6.43867">
        <ele>1469.8227539062</ele>
        <time>2010-05-22T15:55:27Z</time>
      </trkpt>
      <trkpt lat="44.50395" lon="6.43849">
        <ele>1472.5716552734</ele>
        <time>2010-05-22T15:55:36Z</time>
      </trkpt>
      <trkpt lat="44.50391" lon="6.43831">
        <ele>1473.6831054688</ele>
        <time>2010-05-22T15:55:44Z</time>
      </trkpt>
      <trkpt lat="44.50388" lon="6.43817">
        <ele>1475.0775146484</ele>
        <time>2010-05-22T15:55:51Z</time>
      </trkpt>
      <trkpt lat="44.50386" lon="6.438">
        <ele>1476.0385742188</ele>
        <time>2010-05-22T15:55:58Z</time>
      </trkpt>
      <trkpt lat="44.50383" lon="6.43783">
        <ele>1477.2846679688</ele>
        <time>2010-05-22T15:56:05Z</time>
      </trkpt>
      <trkpt lat="44.50381" lon="6.43763">
        <ele>1478.5335693359</ele>
        <time>2010-05-22T15:56:13Z</time>
      </trkpt>
      <trkpt lat="44.50381" lon="6.43742">
        <ele>1479.2973632812</ele>
        <time>2010-05-22T15:56:21Z</time>
      </trkpt>
      <trkpt lat="44.5038" lon="6.43725">
        <ele>1480.4868164062</ele>
        <time>2010-05-22T15:56:28Z</time>
      </trkpt>
      <trkpt lat="44.50379" lon="6.43705">
        <ele>1482.7364501953</ele>
        <time>2010-05-22T15:56:36Z</time>
      </trkpt>
      <trkpt lat="44.50375" lon="6.43688">
        <ele>1485.7326660156</ele>
        <time>2010-05-22T15:56:43Z</time>
      </trkpt>
      <trkpt lat="44.50371" lon="6.4367">
        <ele>1488.3817138672</ele>
        <time>2010-05-22T15:56:51Z</time>
      </trkpt>
      <trkpt lat="44.50366" lon="6.4365">
        <ele>1490.724609375</ele>
        <time>2010-05-22T15:56:59Z</time>
      </trkpt>
      <trkpt lat="44.50362" lon="6.43631">
        <ele>1492.7799072266</ele>
        <time>2010-05-22T15:57:07Z</time>
      </trkpt>
      <trkpt lat="44.50358" lon="6.43615">
        <ele>1494.4541015625</ele>
        <time>2010-05-22T15:57:14Z</time>
      </trkpt>
      <trkpt lat="44.50354" lon="6.43598">
        <ele>1496.9002685547</ele>
        <time>2010-05-22T15:57:22Z</time>
      </trkpt>
      <trkpt lat="44.50351" lon="6.43584">
        <ele>1498.2669677734</ele>
        <time>2010-05-22T15:57:29Z</time>
      </trkpt>
      <trkpt lat="44.50349" lon="6.43568">
        <ele>1498.5998535156</ele>
        <time>2010-05-22T15:57:36Z</time>
      </trkpt>
      <trkpt lat="44.50349" lon="6.43555">
        <ele>1498.0402832031</ele>
        <time>2010-05-22T15:57:41Z</time>
      </trkpt>
      <trkpt lat="44.50351" lon="6.43543">
        <ele>1497.2144775391</ele>
        <time>2010-05-22T15:57:47Z</time>
      </trkpt>
      <trkpt lat="44.50352" lon="6.43527">
        <ele>1496.0972900391</ele>
        <time>2010-05-22T15:57:54Z</time>
      </trkpt>
      <trkpt lat="44.50349" lon="6.43519">
        <ele>1496.9106445312</ele>
        <time>2010-05-22T15:57:59Z</time>
      </trkpt>
      <trkpt lat="44.50347" lon="6.43517">
        <ele>1497.5859375</ele>
        <time>2010-05-22T15:58:01Z</time>
      </trkpt>
      <trkpt lat="44.50343" lon="6.43522">
        <ele>1499.2634277344</ele>
        <time>2010-05-22T15:58:05Z</time>
      </trkpt>
      <trkpt lat="44.5034" lon="6.43539">
        <ele>1501.3787841797</ele>
        <time>2010-05-22T15:58:14Z</time>
      </trkpt>
      <trkpt lat="44.50338" lon="6.43558">
        <ele>1503.3474121094</ele>
        <time>2010-05-22T15:58:22Z</time>
      </trkpt>
      <trkpt lat="44.50337" lon="6.43573">
        <ele>1505.1097412109</ele>
        <time>2010-05-22T15:58:29Z</time>
      </trkpt>
      <trkpt lat="44.50338" lon="6.43588">
        <ele>1505.5615234375</ele>
        <time>2010-05-22T15:58:36Z</time>
      </trkpt>
      <trkpt lat="44.50339" lon="6.43603">
        <ele>1504.5202636719</ele>
        <time>2010-05-22T15:58:43Z</time>
      </trkpt>
      <trkpt lat="44.50338" lon="6.43618">
        <ele>1504.2584228516</ele>
        <time>2010-05-22T15:58:50Z</time>
      </trkpt>
      <trkpt lat="44.50334" lon="6.43635">
        <ele>1505.7392578125</ele>
        <time>2010-05-22T15:58:57Z</time>
      </trkpt>
      <trkpt lat="44.50332" lon="6.43654">
        <ele>1506.0699462891</ele>
        <time>2010-05-22T15:59:04Z</time>
      </trkpt>
      <trkpt lat="44.5033" lon="6.4367">
        <ele>1506.1802978516</ele>
        <time>2010-05-22T15:59:11Z</time>
      </trkpt>
      <trkpt lat="44.50328" lon="6.43686">
        <ele>1507.0866699219</ele>
        <time>2010-05-22T15:59:18Z</time>
      </trkpt>
      <trkpt lat="44.50325" lon="6.43704">
        <ele>1508.8747558594</ele>
        <time>2010-05-22T15:59:26Z</time>
      </trkpt>
      <trkpt lat="44.50323" lon="6.4372">
        <ele>1510.4637451172</ele>
        <time>2010-05-22T15:59:34Z</time>
      </trkpt>
      <trkpt lat="44.50321" lon="6.43735">
        <ele>1511.6663818359</ele>
        <time>2010-05-22T15:59:41Z</time>
      </trkpt>
      <trkpt lat="44.50321" lon="6.43753">
        <ele>1511.8577880859</ele>
        <time>2010-05-22T15:59:48Z</time>
      </trkpt>
      <trkpt lat="44.50322" lon="6.43767">
        <ele>1510.9877929688</ele>
        <time>2010-05-22T15:59:55Z</time>
      </trkpt>
      <trkpt lat="44.5032" lon="6.43786">
        <ele>1511.8953857422</ele>
        <time>2010-05-22T16:00:03Z</time>
      </trkpt>
      <trkpt lat="44.5032" lon="6.43788">
        <ele>1512.1499023438</ele>
        <time>2010-05-22T16:00:04Z</time>
      </trkpt>
      <trkpt lat="44.50317" lon="6.43805">
        <ele>1514.4260253906</ele>
        <time>2010-05-22T16:00:13Z</time>
      </trkpt>
      <trkpt lat="44.50314" lon="6.43819">
        <ele>1517.1672363281</ele>
        <time>2010-05-22T16:00:19Z</time>
      </trkpt>
      <trkpt lat="44.50308" lon="6.43837">
        <ele>1520.5628662109</ele>
        <time>2010-05-22T16:00:27Z</time>
      </trkpt>
      <trkpt lat="44.50299" lon="6.43854">
        <ele>1522.296875</ele>
        <time>2010-05-22T16:00:35Z</time>
      </trkpt>
      <trkpt lat="44.50298" lon="6.43855">
        <ele>1522.6574707031</ele>
        <time>2010-05-22T16:00:36Z</time>
      </trkpt>
      <trkpt lat="44.50288" lon="6.4385">
        <ele>1525.7713623047</ele>
        <time>2010-05-22T16:00:42Z</time>
      </trkpt>
      <trkpt lat="44.50289" lon="6.43836">
        <ele>1526.6674804688</ele>
        <time>2010-05-22T16:00:49Z</time>
      </trkpt>
      <trkpt lat="44.5029" lon="6.43817">
        <ele>1526.2404785156</ele>
        <time>2010-05-22T16:00:58Z</time>
      </trkpt>
      <trkpt lat="44.50293" lon="6.43799">
        <ele>1524.9090576172</ele>
        <time>2010-05-22T16:01:06Z</time>
      </trkpt>
      <trkpt lat="44.50294" lon="6.4378">
        <ele>1523.4929199219</ele>
        <time>2010-05-22T16:01:14Z</time>
      </trkpt>
      <trkpt lat="44.50291" lon="6.43761">
        <ele>1526.8771972656</ele>
        <time>2010-05-22T16:01:23Z</time>
      </trkpt>
      <trkpt lat="44.50286" lon="6.43741">
        <ele>1530.8016357422</ele>
        <time>2010-05-22T16:01:32Z</time>
      </trkpt>
      <trkpt lat="44.50284" lon="6.43731">
        <ele>1533.1772460938</ele>
        <time>2010-05-22T16:01:37Z</time>
      </trkpt>
      <trkpt lat="44.5028" lon="6.43711">
        <ele>1537.0828857422</ele>
        <time>2010-05-22T16:01:46Z</time>
      </trkpt>
      <trkpt lat="44.50277" lon="6.43696">
        <ele>1540.2387695312</ele>
        <time>2010-05-22T16:01:53Z</time>
      </trkpt>
      <trkpt lat="44.50274" lon="6.43682">
        <ele>1543.5111083984</ele>
        <time>2010-05-22T16:02:00Z</time>
      </trkpt>
      <trkpt lat="44.50272" lon="6.43662">
        <ele>1545.5285644531</ele>
        <time>2010-05-22T16:02:09Z</time>
      </trkpt>
      <trkpt lat="44.50272" lon="6.43647">
        <ele>1545.8319091797</ele>
        <time>2010-05-22T16:02:16Z</time>
      </trkpt>
      <trkpt lat="44.5027" lon="6.43627">
        <ele>1546.0346679688</ele>
        <time>2010-05-22T16:02:25Z</time>
      </trkpt>
      <trkpt lat="44.5027" lon="6.43614">
        <ele>1545.1947021484</ele>
        <time>2010-05-22T16:02:31Z</time>
      </trkpt>
      <trkpt lat="44.50268" lon="6.43597">
        <ele>1545.6831054688</ele>
        <time>2010-05-22T16:02:39Z</time>
      </trkpt>
      <trkpt lat="44.50267" lon="6.43579">
        <ele>1545.6450195312</ele>
        <time>2010-05-22T16:02:47Z</time>
      </trkpt>
      <trkpt lat="44.50265" lon="6.4356">
        <ele>1545.3940429688</ele>
        <time>2010-05-22T16:02:56Z</time>
      </trkpt>
      <trkpt lat="44.50262" lon="6.43543">
        <ele>1545.2600097656</ele>
        <time>2010-05-22T16:03:04Z</time>
      </trkpt>
      <trkpt lat="44.50256" lon="6.4353">
        <ele>1545.6070556641</ele>
        <time>2010-05-22T16:03:11Z</time>
      </trkpt>
      <trkpt lat="44.50248" lon="6.43516">
        <ele>1546.4027099609</ele>
        <time>2010-05-22T16:03:20Z</time>
      </trkpt>
      <trkpt lat="44.50237" lon="6.43503">
        <ele>1547.978515625</ele>
        <time>2010-05-22T16:03:29Z</time>
      </trkpt>
      <trkpt lat="44.50228" lon="6.43489">
        <ele>1549.1578369141</ele>
        <time>2010-05-22T16:03:37Z</time>
      </trkpt>
      <trkpt lat="44.5022" lon="6.43481">
        <ele>1550.3731689453</ele>
        <time>2010-05-22T16:03:44Z</time>
      </trkpt>
      <trkpt lat="44.50212" lon="6.43471">
        <ele>1550.7022705078</ele>
        <time>2010-05-22T16:03:51Z</time>
      </trkpt>
      <trkpt lat="44.50201" lon="6.4346">
        <ele>1551.8360595703</ele>
        <time>2010-05-22T16:04:00Z</time>
      </trkpt>
      <trkpt lat="44.50191" lon="6.43451">
        <ele>1553.1413574219</ele>
        <time>2010-05-22T16:04:07Z</time>
      </trkpt>
      <trkpt lat="44.50182" lon="6.43442">
        <ele>1554.041015625</ele>
        <time>2010-05-22T16:04:13Z</time>
      </trkpt>
      <trkpt lat="44.50173" lon="6.43433">
        <ele>1554.9836425781</ele>
        <time>2010-05-22T16:04:20Z</time>
      </trkpt>
      <trkpt lat="44.50164" lon="6.43422">
        <ele>1556.0531005859</ele>
        <time>2010-05-22T16:04:27Z</time>
      </trkpt>
      <trkpt lat="44.50153" lon="6.43408">
        <ele>1557.3115234375</ele>
        <time>2010-05-22T16:04:36Z</time>
      </trkpt>
      <trkpt lat="44.50143" lon="6.43392">
        <ele>1558.4272460938</ele>
        <time>2010-05-22T16:04:45Z</time>
      </trkpt>
      <trkpt lat="44.50134" lon="6.43379">
        <ele>1560.3896484375</ele>
        <time>2010-05-22T16:04:53Z</time>
      </trkpt>
      <trkpt lat="44.50126" lon="6.43368">
        <ele>1562.3684082031</ele>
        <time>2010-05-22T16:05:00Z</time>
      </trkpt>
      <trkpt lat="44.50119" lon="6.43357">
        <ele>1563.5987548828</ele>
        <time>2010-05-22T16:05:07Z</time>
      </trkpt>
      <trkpt lat="44.50114" lon="6.43347">
        <ele>1564.1726074219</ele>
        <time>2010-05-22T16:05:12Z</time>
      </trkpt>
      <trkpt lat="44.50109" lon="6.43334">
        <ele>1565.2817382812</ele>
        <time>2010-05-22T16:05:19Z</time>
      </trkpt>
      <trkpt lat="44.50106" lon="6.43323">
        <ele>1569.5969238281</ele>
        <time>2010-05-22T16:05:26Z</time>
      </trkpt>
      <trkpt lat="44.50102" lon="6.43312">
        <ele>1574.6839599609</ele>
        <time>2010-05-22T16:05:33Z</time>
      </trkpt>
      <trkpt lat="44.50098" lon="6.43309">
        <ele>1577.0611572266</ele>
        <time>2010-05-22T16:05:39Z</time>
      </trkpt>
      <trkpt lat="44.50095" lon="6.43305">
        <ele>1579.5555419922</ele>
        <time>2010-05-22T16:05:48Z</time>
      </trkpt>
      <trkpt lat="44.50094" lon="6.43305">
        <ele>1580.0567626953</ele>
        <time>2010-05-22T16:06:18Z</time>
      </trkpt>
      <trkpt lat="44.50094" lon="6.43319">
        <ele>1576.1192626953</ele>
        <time>2010-05-22T16:07:11Z</time>
      </trkpt>
      <trkpt lat="44.50097" lon="6.43318">
        <ele>1575.4053955078</ele>
        <time>2010-05-22T16:07:20Z</time>
      </trkpt>
      <trkpt lat="44.50103" lon="6.43308">
        <ele>1575.7166748047</ele>
        <time>2010-05-22T16:07:29Z</time>
      </trkpt>
      <trkpt lat="44.50105" lon="6.43304">
        <ele>1575.9888916016</ele>
        <time>2010-05-22T16:07:44Z</time>
      </trkpt>
      <trkpt lat="44.50101" lon="6.43291">
        <ele>1581.09375</ele>
        <time>2010-05-22T16:08:20Z</time>
      </trkpt>
      <trkpt lat="44.50107" lon="6.43286">
        <ele>1579.7165527344</ele>
        <time>2010-05-22T16:08:30Z</time>
      </trkpt>
      <trkpt lat="44.50107" lon="6.43288">
        <ele>1579.3215332031</ele>
        <time>2010-05-22T16:08:44Z</time>
      </trkpt>
      <trkpt lat="44.50101" lon="6.43295">
        <ele>1579.7897949219</ele>
        <time>2010-05-22T16:08:57Z</time>
      </trkpt>
      <trkpt lat="44.50097" lon="6.43299">
        <ele>1580.5690917969</ele>
        <time>2010-05-22T16:09:16Z</time>
      </trkpt>
      <trkpt lat="44.50098" lon="6.43299">
        <ele>1580.1429443359</ele>
        <time>2010-05-22T16:09:27Z</time>
      </trkpt>
      <trkpt lat="44.50105" lon="6.43296">
        <ele>1578.2141113281</ele>
        <time>2010-05-22T16:09:41Z</time>
      </trkpt>
      <trkpt lat="44.50098" lon="6.43306">
        <ele>1577.8992919922</ele>
        <time>2010-05-22T16:09:49Z</time>
      </trkpt>
      <trkpt lat="44.50101" lon="6.43319">
        <ele>1573.3381347656</ele>
        <time>2010-05-22T16:09:56Z</time>
      </trkpt>
      <trkpt lat="44.501" lon="6.43334">
        <ele>1569.466796875</ele>
        <time>2010-05-22T16:10:02Z</time>
      </trkpt>
      <trkpt lat="44.501" lon="6.43353">
        <ele>1570.8743896484</ele>
        <time>2010-05-22T16:10:10Z</time>
      </trkpt>
      <trkpt lat="44.50102" lon="6.43374">
        <ele>1572.6160888672</ele>
        <time>2010-05-22T16:10:19Z</time>
      </trkpt>
      <trkpt lat="44.50104" lon="6.43392">
        <ele>1574.9935302734</ele>
        <time>2010-05-22T16:10:27Z</time>
      </trkpt>
      <trkpt lat="44.50109" lon="6.43408">
        <ele>1575.46875</ele>
        <time>2010-05-22T16:10:35Z</time>
      </trkpt>
      <trkpt lat="44.50113" lon="6.4342">
        <ele>1575.6861572266</ele>
        <time>2010-05-22T16:10:41Z</time>
      </trkpt>
      <trkpt lat="44.50116" lon="6.43434">
        <ele>1576.0771484375</ele>
        <time>2010-05-22T16:10:48Z</time>
      </trkpt>
      <trkpt lat="44.50121" lon="6.43455">
        <ele>1576.9239501953</ele>
        <time>2010-05-22T16:10:58Z</time>
      </trkpt>
      <trkpt lat="44.50124" lon="6.43473">
        <ele>1578.1279296875</ele>
        <time>2010-05-22T16:11:06Z</time>
      </trkpt>
      <trkpt lat="44.50126" lon="6.43486">
        <ele>1579.2412109375</ele>
        <time>2010-05-22T16:11:12Z</time>
      </trkpt>
      <trkpt lat="44.50128" lon="6.43503">
        <ele>1581.2019042969</ele>
        <time>2010-05-22T16:11:20Z</time>
      </trkpt>
      <trkpt lat="44.50131" lon="6.43521">
        <ele>1582.1202392578</ele>
        <time>2010-05-22T16:11:28Z</time>
      </trkpt>
      <trkpt lat="44.50132" lon="6.43541">
        <ele>1584.5745849609</ele>
        <time>2010-05-22T16:11:36Z</time>
      </trkpt>
      <trkpt lat="44.50134" lon="6.4356">
        <ele>1587.1677246094</ele>
        <time>2010-05-22T16:11:44Z</time>
      </trkpt>
      <trkpt lat="44.50133" lon="6.43576">
        <ele>1589.2019042969</ele>
        <time>2010-05-22T16:11:51Z</time>
      </trkpt>
      <trkpt lat="44.50134" lon="6.43591">
        <ele>1589.9462890625</ele>
        <time>2010-05-22T16:11:58Z</time>
      </trkpt>
      <trkpt lat="44.50134" lon="6.43608">
        <ele>1590.5093994141</ele>
        <time>2010-05-22T16:12:06Z</time>
      </trkpt>
      <trkpt lat="44.50132" lon="6.43625">
        <ele>1591.6147460938</ele>
        <time>2010-05-22T16:12:14Z</time>
      </trkpt>
      <trkpt lat="44.50126" lon="6.43639">
        <ele>1593.2556152344</ele>
        <time>2010-05-22T16:12:20Z</time>
      </trkpt>
      <trkpt lat="44.50113" lon="6.43642">
        <ele>1595.8742675781</ele>
        <time>2010-05-22T16:12:27Z</time>
      </trkpt>
      <trkpt lat="44.5011" lon="6.43642">
        <ele>1596.6887207031</ele>
        <time>2010-05-22T16:12:29Z</time>
      </trkpt>
      <trkpt lat="44.501" lon="6.43629">
        <ele>1599.7097167969</ele>
        <time>2010-05-22T16:12:37Z</time>
      </trkpt>
      <trkpt lat="44.50095" lon="6.43616">
        <ele>1601.6219482422</ele>
        <time>2010-05-22T16:12:44Z</time>
      </trkpt>
      <trkpt lat="44.5009" lon="6.43599">
        <ele>1602.2725830078</ele>
        <time>2010-05-22T16:12:52Z</time>
      </trkpt>
      <trkpt lat="44.50084" lon="6.43583">
        <ele>1602.873046875</ele>
        <time>2010-05-22T16:13:00Z</time>
      </trkpt>
      <trkpt lat="44.50082" lon="6.4358">
        <ele>1603.1099853516</ele>
        <time>2010-05-22T16:13:02Z</time>
      </trkpt>
      <trkpt lat="44.50076" lon="6.43568">
        <ele>1603.9372558594</ele>
        <time>2010-05-22T16:13:09Z</time>
      </trkpt>
      <trkpt lat="44.50069" lon="6.43555">
        <ele>1605.0690917969</ele>
        <time>2010-05-22T16:13:16Z</time>
      </trkpt>
      <trkpt lat="44.50063" lon="6.43544">
        <ele>1606.0961914062</ele>
        <time>2010-05-22T16:13:22Z</time>
      </trkpt>
      <trkpt lat="44.50062" lon="6.43541">
        <ele>1606.4107666016</ele>
        <time>2010-05-22T16:13:24Z</time>
      </trkpt>
      <trkpt lat="44.50052" lon="6.43527">
        <ele>1609.0688476562</ele>
        <time>2010-05-22T16:13:32Z</time>
      </trkpt>
      <trkpt lat="44.50044" lon="6.43508">
        <ele>1611.9490966797</ele>
        <time>2010-05-22T16:13:41Z</time>
      </trkpt>
      <trkpt lat="44.50036" lon="6.4349">
        <ele>1614.6085205078</ele>
        <time>2010-05-22T16:13:50Z</time>
      </trkpt>
      <trkpt lat="44.50029" lon="6.43474">
        <ele>1616.7731933594</ele>
        <time>2010-05-22T16:13:58Z</time>
      </trkpt>
      <trkpt lat="44.50023" lon="6.43456">
        <ele>1617.3273925781</ele>
        <time>2010-05-22T16:14:06Z</time>
      </trkpt>
      <trkpt lat="44.50018" lon="6.43442">
        <ele>1618.3428955078</ele>
        <time>2010-05-22T16:14:13Z</time>
      </trkpt>
      <trkpt lat="44.50011" lon="6.4342">
        <ele>1619.2904052734</ele>
        <time>2010-05-22T16:14:23Z</time>
      </trkpt>
      <trkpt lat="44.50007" lon="6.43406">
        <ele>1619.6165771484</ele>
        <time>2010-05-22T16:14:30Z</time>
      </trkpt>
      <trkpt lat="44.50002" lon="6.4339">
        <ele>1620.4096679688</ele>
        <time>2010-05-22T16:14:37Z</time>
      </trkpt>
      <trkpt lat="44.49998" lon="6.43376">
        <ele>1620.5667724609</ele>
        <time>2010-05-22T16:14:43Z</time>
      </trkpt>
      <trkpt lat="44.49996" lon="6.43361">
        <ele>1620.2012939453</ele>
        <time>2010-05-22T16:14:50Z</time>
      </trkpt>
      <trkpt lat="44.49992" lon="6.43342">
        <ele>1619.30859375</ele>
        <time>2010-05-22T16:14:58Z</time>
      </trkpt>
      <trkpt lat="44.49985" lon="6.43324">
        <ele>1619.5269775391</ele>
        <time>2010-05-22T16:15:05Z</time>
      </trkpt>
      <trkpt lat="44.49977" lon="6.43313">
        <ele>1620.0238037109</ele>
        <time>2010-05-22T16:15:11Z</time>
      </trkpt>
      <trkpt lat="44.49974" lon="6.43305">
        <ele>1619.6859130859</ele>
        <time>2010-05-22T16:15:14Z</time>
      </trkpt>
      <trkpt lat="44.49966" lon="6.43293">
        <ele>1622.9373779297</ele>
        <time>2010-05-22T16:15:21Z</time>
      </trkpt>
      <trkpt lat="44.49959" lon="6.4328">
        <ele>1626.0222167969</ele>
        <time>2010-05-22T16:15:27Z</time>
      </trkpt>
      <trkpt lat="44.49952" lon="6.43272">
        <ele>1628.6485595703</ele>
        <time>2010-05-22T16:15:32Z</time>
      </trkpt>
      <trkpt lat="44.49953" lon="6.43267">
        <ele>1629.0726318359</ele>
        <time>2010-05-22T16:15:35Z</time>
      </trkpt>
      <trkpt lat="44.49956" lon="6.43259">
        <ele>1629.1429443359</ele>
        <time>2010-05-22T16:15:42Z</time>
      </trkpt>
      <trkpt lat="44.49957" lon="6.43263">
        <ele>1628.4030761719</ele>
        <time>2010-05-22T16:16:20Z</time>
      </trkpt>
      <trkpt lat="44.49963" lon="6.43255">
        <ele>1627.6684570312</ele>
        <time>2010-05-22T16:17:00Z</time>
      </trkpt>
      <trkpt lat="44.49952" lon="6.43258">
        <ele>1630.3343505859</ele>
        <time>2010-05-22T16:17:33Z</time>
      </trkpt>
      <trkpt lat="44.49951" lon="6.43259">
        <ele>1630.3377685547</ele>
        <time>2010-05-22T16:17:42Z</time>
      </trkpt>
      <trkpt lat="44.49944" lon="6.43262">
        <ele>1631.6640625</ele>
        <time>2010-05-22T16:17:55Z</time>
      </trkpt>
      <trkpt lat="44.49941" lon="6.43256">
        <ele>1632.2053222656</ele>
        <time>2010-05-22T16:18:43Z</time>
      </trkpt>
      <trkpt lat="44.49945" lon="6.43254">
        <ele>1632.4818115234</ele>
        <time>2010-05-22T16:19:12Z</time>
      </trkpt>
      <trkpt lat="44.49936" lon="6.43263">
        <ele>1631.45703125</ele>
        <time>2010-05-22T16:19:20Z</time>
      </trkpt>
      <trkpt lat="44.49934" lon="6.43263">
        <ele>1631.3684082031</ele>
        <time>2010-05-22T16:19:21Z</time>
      </trkpt>
      <trkpt lat="44.49928" lon="6.43258">
        <ele>1631.4378662109</ele>
        <time>2010-05-22T16:19:30Z</time>
      </trkpt>
      <trkpt lat="44.49945" lon="6.43261">
        <ele>1631.5119628906</ele>
        <time>2010-05-22T16:20:47Z</time>
      </trkpt>
      <trkpt lat="44.49953" lon="6.43265">
        <ele>1629.330078125</ele>
        <time>2010-05-22T16:21:07Z</time>
      </trkpt>
      <trkpt lat="44.49952" lon="6.4325">
        <ele>1631.2376708984</ele>
        <time>2010-05-22T16:21:35Z</time>
      </trkpt>
      <trkpt lat="44.49955" lon="6.43263">
        <ele>1628.9489746094</ele>
        <time>2010-05-22T16:21:52Z</time>
      </trkpt>
      <trkpt lat="44.49956" lon="6.43266">
        <ele>1628.3361816406</ele>
        <time>2010-05-22T16:23:09Z</time>
      </trkpt>
      <trkpt lat="44.49956" lon="6.43269">
        <ele>1627.9910888672</ele>
        <time>2010-05-22T16:23:18Z</time>
      </trkpt>
      <trkpt lat="44.49954" lon="6.43278">
        <ele>1627.5139160156</ele>
        <time>2010-05-22T16:23:32Z</time>
      </trkpt>
      <trkpt lat="44.49953" lon="6.43282">
        <ele>1627.3903808594</ele>
        <time>2010-05-22T16:23:44Z</time>
      </trkpt>
      <trkpt lat="44.49953" lon="6.43281">
        <ele>1627.5894775391</ele>
        <time>2010-05-22T16:23:52Z</time>
      </trkpt>
      <trkpt lat="44.49948" lon="6.43279">
        <ele>1629.0245361328</ele>
        <time>2010-05-22T16:24:29Z</time>
      </trkpt>
      <trkpt lat="44.49948" lon="6.43266">
        <ele>1630.3034667969</ele>
        <time>2010-05-22T16:24:58Z</time>
      </trkpt>
      <trkpt lat="44.4995" lon="6.43258">
        <ele>1630.7651367188</ele>
        <time>2010-05-22T16:25:33Z</time>
      </trkpt>
      <trkpt lat="44.49953" lon="6.43259">
        <ele>1629.8623046875</ele>
        <time>2010-05-22T16:26:04Z</time>
      </trkpt>
      <trkpt lat="44.49949" lon="6.43263">
        <ele>1630.365234375</ele>
        <time>2010-05-22T16:26:20Z</time>
      </trkpt>
      <trkpt lat="44.49944" lon="6.43265">
        <ele>1631.3566894531</ele>
        <time>2010-05-22T16:26:30Z</time>
      </trkpt>
      <trkpt lat="44.49939" lon="6.43259">
        <ele>1631.8499755859</ele>
        <time>2010-05-22T16:26:40Z</time>
      </trkpt>
      <trkpt lat="44.49944" lon="6.43262">
        <ele>1631.7155761719</ele>
        <time>2010-05-22T16:27:02Z</time>
      </trkpt>
      <trkpt lat="44.49945" lon="6.43263">
        <ele>1631.3471679688</ele>
        <time>2010-05-22T16:27:07Z</time>
      </trkpt>
      <trkpt lat="44.49945" lon="6.43257">
        <ele>1632.193359375</ele>
        <time>2010-05-22T16:27:18Z</time>
      </trkpt>
      <trkpt lat="44.49952" lon="6.43248">
        <ele>1631.2376708984</ele>
        <time>2010-05-22T16:27:43Z</time>
      </trkpt>
      <trkpt lat="44.49952" lon="6.43248">
        <ele>1631.5123291016</ele>
        <time>2010-05-22T16:27:52Z</time>
      </trkpt>
      <trkpt lat="44.49951" lon="6.43254">
        <ele>1630.8836669922</ele>
        <time>2010-05-22T16:28:12Z</time>
      </trkpt>
      <trkpt lat="44.49952" lon="6.43259">
        <ele>1630.2313232422</ele>
        <time>2010-05-22T16:28:24Z</time>
      </trkpt>
      <trkpt lat="44.49948" lon="6.43256">
        <ele>1631.5324707031</ele>
        <time>2010-05-22T16:28:54Z</time>
      </trkpt>
      <trkpt lat="44.49946" lon="6.43259">
        <ele>1631.6784667969</ele>
        <time>2010-05-22T16:29:04Z</time>
      </trkpt>
      <trkpt lat="44.49948" lon="6.43261">
        <ele>1630.8956298828</ele>
        <time>2010-05-22T16:29:25Z</time>
      </trkpt>
      <trkpt lat="44.4995" lon="6.43256">
        <ele>1630.9952392578</ele>
        <time>2010-05-22T16:29:37Z</time>
      </trkpt>
      <trkpt lat="44.49946" lon="6.43256">
        <ele>1631.9976806641</ele>
        <time>2010-05-22T16:29:48Z</time>
      </trkpt>
      <trkpt lat="44.49948" lon="6.43253">
        <ele>1631.7917480469</ele>
        <time>2010-05-22T16:30:01Z</time>
      </trkpt>
      <trkpt lat="44.49948" lon="6.43259">
        <ele>1631.2132568359</ele>
        <time>2010-05-22T16:30:17Z</time>
      </trkpt>
      <trkpt lat="44.49947" lon="6.43262">
        <ele>1631.1411132812</ele>
        <time>2010-05-22T16:30:19Z</time>
      </trkpt>
      <trkpt lat="44.49946" lon="6.43264">
        <ele>1631.087890625</ele>
        <time>2010-05-22T16:30:21Z</time>
      </trkpt>
      <trkpt lat="44.49946" lon="6.43272">
        <ele>1630.2227783203</ele>
        <time>2010-05-22T16:30:36Z</time>
      </trkpt>
      <trkpt lat="44.49945" lon="6.43275">
        <ele>1630.1763916016</ele>
        <time>2010-05-22T16:30:55Z</time>
      </trkpt>
      <trkpt lat="44.49943" lon="6.43279">
        <ele>1629.9025878906</ele>
        <time>2010-05-22T16:31:05Z</time>
      </trkpt>
      <trkpt lat="44.49942" lon="6.43281">
        <ele>1629.8061523438</ele>
        <time>2010-05-22T16:31:18Z</time>
      </trkpt>
      <trkpt lat="44.49938" lon="6.43282">
        <ele>1629.8920898438</ele>
        <time>2010-05-22T16:31:31Z</time>
      </trkpt>
      <trkpt lat="44.49944" lon="6.43284">
        <ele>1629.3859863281</ele>
        <time>2010-05-22T16:31:57Z</time>
      </trkpt>
      <trkpt lat="44.49943" lon="6.4327">
        <ele>1630.8555908203</ele>
        <time>2010-05-22T16:32:39Z</time>
      </trkpt>
      <trkpt lat="44.49944" lon="6.4327">
        <ele>1630.8236083984</ele>
        <time>2010-05-22T16:33:06Z</time>
      </trkpt>
      <trkpt lat="44.49945" lon="6.43258">
        <ele>1632.0698242188</ele>
        <time>2010-05-22T16:33:37Z</time>
      </trkpt>
      <trkpt lat="44.49945" lon="6.43256">
        <ele>1632.3118896484</ele>
        <time>2010-05-22T16:33:47Z</time>
      </trkpt>
      <trkpt lat="44.49946" lon="6.43252">
        <ele>1632.4611816406</ele>
        <time>2010-05-22T16:34:03Z</time>
      </trkpt>
      <trkpt lat="44.49947" lon="6.43254">
        <ele>1631.8999023438</ele>
        <time>2010-05-22T16:34:14Z</time>
      </trkpt>
      <trkpt lat="44.49953" lon="6.43244">
        <ele>1631.8350830078</ele>
        <time>2010-05-22T16:34:38Z</time>
      </trkpt>
      <trkpt lat="44.49948" lon="6.43243">
        <ele>1633.1053466797</ele>
        <time>2010-05-22T16:34:54Z</time>
      </trkpt>
      <trkpt lat="44.49947" lon="6.43247">
        <ele>1632.8924560547</ele>
        <time>2010-05-22T16:35:09Z</time>
      </trkpt>
      <trkpt lat="44.49948" lon="6.43249">
        <ele>1632.2264404297</ele>
        <time>2010-05-22T16:35:10Z</time>
      </trkpt>
      <trkpt lat="44.49945" lon="6.43247">
        <ele>1633.345703125</ele>
        <time>2010-05-22T16:35:21Z</time>
      </trkpt>
      <trkpt lat="44.49948" lon="6.43248">
        <ele>1632.4255371094</ele>
        <time>2010-05-22T16:35:39Z</time>
      </trkpt>
      <trkpt lat="44.49948" lon="6.43246">
        <ele>1632.7619628906</ele>
        <time>2010-05-22T16:35:58Z</time>
      </trkpt>
      <trkpt lat="44.49949" lon="6.43243">
        <ele>1632.919921875</ele>
        <time>2010-05-22T16:36:00Z</time>
      </trkpt>
      <trkpt lat="44.49958" lon="6.43226">
        <ele>1632.8856201172</ele>
        <time>2010-05-22T16:36:05Z</time>
      </trkpt>
      <trkpt lat="44.49972" lon="6.43201">
        <ele>1632.3591308594</ele>
        <time>2010-05-22T16:36:09Z</time>
      </trkpt>
      <trkpt lat="44.49979" lon="6.43187">
        <ele>1631.7092285156</ele>
        <time>2010-05-22T16:36:11Z</time>
      </trkpt>
      <trkpt lat="44.49993" lon="6.43171">
        <ele>1629.1424560547</ele>
        <time>2010-05-22T16:36:14Z</time>
      </trkpt>
      <trkpt lat="44.50022" lon="6.43156">
        <ele>1622.0703125</ele>
        <time>2010-05-22T16:36:19Z</time>
      </trkpt>
      <trkpt lat="44.50048" lon="6.43151">
        <ele>1620.255859375</ele>
        <time>2010-05-22T16:36:23Z</time>
      </trkpt>
      <trkpt lat="44.50071" lon="6.43155">
        <ele>1619.3585205078</ele>
        <time>2010-05-22T16:36:27Z</time>
      </trkpt>
      <trkpt lat="44.50085" lon="6.43154">
        <ele>1618.8409423828</ele>
        <time>2010-05-22T16:36:29Z</time>
      </trkpt>
      <trkpt lat="44.501" lon="6.43149">
        <ele>1618.8427734375</ele>
        <time>2010-05-22T16:36:31Z</time>
      </trkpt>
      <trkpt lat="44.50131" lon="6.43138">
        <ele>1617.2331542969</ele>
        <time>2010-05-22T16:36:36Z</time>
      </trkpt>
      <trkpt lat="44.50144" lon="6.43134">
        <ele>1615.0123291016</ele>
        <time>2010-05-22T16:36:38Z</time>
      </trkpt>
      <trkpt lat="44.50174" lon="6.43129">
        <ele>1606.2810058594</ele>
        <time>2010-05-22T16:36:43Z</time>
      </trkpt>
      <trkpt lat="44.50193" lon="6.43123">
        <ele>1602.8001708984</ele>
        <time>2010-05-22T16:36:46Z</time>
      </trkpt>
      <trkpt lat="44.50211" lon="6.43113">
        <ele>1596.95703125</ele>
        <time>2010-05-22T16:36:49Z</time>
      </trkpt>
      <trkpt lat="44.50232" lon="6.43099">
        <ele>1593.7337646484</ele>
        <time>2010-05-22T16:36:53Z</time>
      </trkpt>
      <trkpt lat="44.50263" lon="6.43061">
        <ele>1586.4694824219</ele>
        <time>2010-05-22T16:36:58Z</time>
      </trkpt>
      <trkpt lat="44.50284" lon="6.43036">
        <ele>1574.0013427734</ele>
        <time>2010-05-22T16:37:02Z</time>
      </trkpt>
      <trkpt lat="44.50288" lon="6.43012">
        <ele>1564.9493408203</ele>
        <time>2010-05-22T16:37:06Z</time>
      </trkpt>
      <trkpt lat="44.50282" lon="6.42991">
        <ele>1562.1606445312</ele>
        <time>2010-05-22T16:37:09Z</time>
      </trkpt>
      <trkpt lat="44.5028" lon="6.42986">
        <ele>1562.2518310547</ele>
        <time>2010-05-22T16:37:10Z</time>
      </trkpt>
      <trkpt lat="44.50257" lon="6.42957">
        <ele>1559.6734619141</ele>
        <time>2010-05-22T16:37:17Z</time>
      </trkpt>
      <trkpt lat="44.50243" lon="6.42923">
        <ele>1552.3958740234</ele>
        <time>2010-05-22T16:37:22Z</time>
      </trkpt>
      <trkpt lat="44.50239" lon="6.42909">
        <ele>1548.9748535156</ele>
        <time>2010-05-22T16:37:24Z</time>
      </trkpt>
      <trkpt lat="44.50225" lon="6.42887">
        <ele>1543.7874755859</ele>
        <time>2010-05-22T16:37:29Z</time>
      </trkpt>
      <trkpt lat="44.50217" lon="6.42882">
        <ele>1542.8961181641</ele>
        <time>2010-05-22T16:37:31Z</time>
      </trkpt>
      <trkpt lat="44.50201" lon="6.42878">
        <ele>1541.6773681641</ele>
        <time>2010-05-22T16:37:34Z</time>
      </trkpt>
      <trkpt lat="44.50188" lon="6.42875">
        <ele>1542.4942626953</ele>
        <time>2010-05-22T16:37:37Z</time>
      </trkpt>
      <trkpt lat="44.50179" lon="6.42862">
        <ele>1540.3240966797</ele>
        <time>2010-05-22T16:37:42Z</time>
      </trkpt>
      <trkpt lat="44.50173" lon="6.42847">
        <ele>1535.8685302734</ele>
        <time>2010-05-22T16:37:48Z</time>
      </trkpt>
      <trkpt lat="44.50165" lon="6.42835">
        <ele>1532.9324951172</ele>
        <time>2010-05-22T16:37:54Z</time>
      </trkpt>
      <trkpt lat="44.50162" lon="6.42833">
        <ele>1532.6229248047</ele>
        <time>2010-05-22T16:37:56Z</time>
      </trkpt>
      <trkpt lat="44.50158" lon="6.42832">
        <ele>1532.6247558594</ele>
        <time>2010-05-22T16:37:59Z</time>
      </trkpt>
      <trkpt lat="44.50149" lon="6.42827">
        <ele>1532.4772949219</ele>
        <time>2010-05-22T16:38:05Z</time>
      </trkpt>
      <trkpt lat="44.50146" lon="6.42822">
        <ele>1531.0941162109</ele>
        <time>2010-05-22T16:38:07Z</time>
      </trkpt>
      <trkpt lat="44.50136" lon="6.42798">
        <ele>1525.1285400391</ele>
        <time>2010-05-22T16:38:14Z</time>
      </trkpt>
      <trkpt lat="44.50124" lon="6.42781">
        <ele>1522.6806640625</ele>
        <time>2010-05-22T16:38:20Z</time>
      </trkpt>
      <trkpt lat="44.50118" lon="6.4278">
        <ele>1523.9807128906</ele>
        <time>2010-05-22T16:38:22Z</time>
      </trkpt>
      <trkpt lat="44.50118" lon="6.4277">
        <ele>1519.3291015625</ele>
        <time>2010-05-22T16:38:26Z</time>
      </trkpt>
      <trkpt lat="44.50123" lon="6.42766">
        <ele>1516.4847412109</ele>
        <time>2010-05-22T16:38:28Z</time>
      </trkpt>
      <trkpt lat="44.50142" lon="6.42764">
        <ele>1510.4013671875</ele>
        <time>2010-05-22T16:38:36Z</time>
      </trkpt>
      <trkpt lat="44.50145" lon="6.42757">
        <ele>1506.8909912109</ele>
        <time>2010-05-22T16:38:40Z</time>
      </trkpt>
      <trkpt lat="44.50144" lon="6.42755">
        <ele>1506.4376220703</ele>
        <time>2010-05-22T16:38:41Z</time>
      </trkpt>
      <trkpt lat="44.50128" lon="6.42744">
        <ele>1504.3850097656</ele>
        <time>2010-05-22T16:38:48Z</time>
      </trkpt>
      <trkpt lat="44.50125" lon="6.42744">
        <ele>1504.9807128906</ele>
        <time>2010-05-22T16:38:49Z</time>
      </trkpt>
      <trkpt lat="44.50109" lon="6.42739">
        <ele>1506.3328857422</ele>
        <time>2010-05-22T16:38:54Z</time>
      </trkpt>
      <trkpt lat="44.50105" lon="6.42738">
        <ele>1506.5988769531</ele>
        <time>2010-05-22T16:38:55Z</time>
      </trkpt>
      <trkpt lat="44.50092" lon="6.42738">
        <ele>1508.7446289062</ele>
        <time>2010-05-22T16:38:59Z</time>
      </trkpt>
      <trkpt lat="44.50082" lon="6.4273">
        <ele>1506.4781494141</ele>
        <time>2010-05-22T16:39:03Z</time>
      </trkpt>
      <trkpt lat="44.50069" lon="6.42704">
        <ele>1496.9885253906</ele>
        <time>2010-05-22T16:39:09Z</time>
      </trkpt>
      <trkpt lat="44.5006" lon="6.42692">
        <ele>1493.0710449219</ele>
        <time>2010-05-22T16:39:14Z</time>
      </trkpt>
      <trkpt lat="44.50046" lon="6.42673">
        <ele>1483.9495849609</ele>
        <time>2010-05-22T16:39:19Z</time>
      </trkpt>
      <trkpt lat="44.50036" lon="6.42657">
        <ele>1476.9877929688</ele>
        <time>2010-05-22T16:39:23Z</time>
      </trkpt>
      <trkpt lat="44.50032" lon="6.42655">
        <ele>1475.8001708984</ele>
        <time>2010-05-22T16:39:25Z</time>
      </trkpt>
      <trkpt lat="44.50028" lon="6.42655">
        <ele>1475.7467041016</ele>
        <time>2010-05-22T16:39:28Z</time>
      </trkpt>
      <trkpt lat="44.50026" lon="6.42656">
        <ele>1475.7204589844</ele>
        <time>2010-05-22T16:39:30Z</time>
      </trkpt>
      <trkpt lat="44.50023" lon="6.42646">
        <ele>1471.5765380859</ele>
        <time>2010-05-22T16:39:34Z</time>
      </trkpt>
      <trkpt lat="44.50022" lon="6.42631">
        <ele>1466.3605957031</ele>
        <time>2010-05-22T16:39:37Z</time>
      </trkpt>
      <trkpt lat="44.5003" lon="6.42621">
        <ele>1463.5424804688</ele>
        <time>2010-05-22T16:39:43Z</time>
      </trkpt>
      <trkpt lat="44.50034" lon="6.42627">
        <ele>1465.3067626953</ele>
        <time>2010-05-22T16:39:45Z</time>
      </trkpt>
      <trkpt lat="44.50052" lon="6.42634">
        <ele>1467.779296875</ele>
        <time>2010-05-22T16:39:50Z</time>
      </trkpt>
      <trkpt lat="44.5007" lon="6.4264">
        <ele>1466.4539794922</ele>
        <time>2010-05-22T16:39:54Z</time>
      </trkpt>
      <trkpt lat="44.50075" lon="6.4264">
        <ele>1465.2565917969</ele>
        <time>2010-05-22T16:39:55Z</time>
      </trkpt>
      <trkpt lat="44.50089" lon="6.42652">
        <ele>1467.3521728516</ele>
        <time>2010-05-22T16:40:00Z</time>
      </trkpt>
      <trkpt lat="44.5009" lon="6.42653">
        <ele>1467.4478759766</ele>
        <time>2010-05-22T16:40:01Z</time>
      </trkpt>
      <trkpt lat="44.50088" lon="6.4265">
        <ele>1466.9565429688</ele>
        <time>2010-05-22T16:40:11Z</time>
      </trkpt>
      <trkpt lat="44.5009" lon="6.42643">
        <ele>1462.3741455078</ele>
        <time>2010-05-22T16:40:26Z</time>
      </trkpt>
      <trkpt lat="44.50087" lon="6.42635">
        <ele>1459.5286865234</ele>
        <time>2010-05-22T16:40:45Z</time>
      </trkpt>
      <trkpt lat="44.50087" lon="6.42635">
        <ele>1459.6950683594</ele>
        <time>2010-05-22T16:40:48Z</time>
      </trkpt>
      <trkpt lat="44.50083" lon="6.42626">
        <ele>1456.4168701172</ele>
        <time>2010-05-22T16:40:53Z</time>
      </trkpt>
      <trkpt lat="44.50071" lon="6.42611">
        <ele>1453.1352539062</ele>
        <time>2010-05-22T16:40:59Z</time>
      </trkpt>
      <trkpt lat="44.50064" lon="6.426">
        <ele>1451.7664794922</ele>
        <time>2010-05-22T16:41:03Z</time>
      </trkpt>
      <trkpt lat="44.50054" lon="6.42581">
        <ele>1449.4722900391</ele>
        <time>2010-05-22T16:41:08Z</time>
      </trkpt>
      <trkpt lat="44.5005" lon="6.42577">
        <ele>1448.6339111328</ele>
        <time>2010-05-22T16:41:12Z</time>
      </trkpt>
      <trkpt lat="44.50049" lon="6.42577">
        <ele>1448.748046875</ele>
        <time>2010-05-22T16:41:18Z</time>
      </trkpt>
      <trkpt lat="44.50055" lon="6.42573">
        <ele>1447.7718505859</ele>
        <time>2010-05-22T16:41:31Z</time>
      </trkpt>
      <trkpt lat="44.50052" lon="6.42569">
        <ele>1446.9682617188</ele>
        <time>2010-05-22T16:41:38Z</time>
      </trkpt>
      <trkpt lat="44.50048" lon="6.42564">
        <ele>1445.8217773438</ele>
        <time>2010-05-22T16:41:51Z</time>
      </trkpt>
      <trkpt lat="44.50047" lon="6.42567">
        <ele>1446.5003662109</ele>
        <time>2010-05-22T16:42:13Z</time>
      </trkpt>
      <trkpt lat="44.50053" lon="6.42576">
        <ele>1448.4927978516</ele>
        <time>2010-05-22T16:42:29Z</time>
      </trkpt>
      <trkpt lat="44.50048" lon="6.42578">
        <ele>1449.0772705078</ele>
        <time>2010-05-22T16:42:44Z</time>
      </trkpt>
      <trkpt lat="44.50043" lon="6.42581">
        <ele>1449.9129638672</ele>
        <time>2010-05-22T16:42:56Z</time>
      </trkpt>
      <trkpt lat="44.50043" lon="6.42577">
        <ele>1448.8784179688</ele>
        <time>2010-05-22T16:42:59Z</time>
      </trkpt>
      <trkpt lat="44.50042" lon="6.42574">
        <ele>1448.2104492188</ele>
        <time>2010-05-22T16:43:09Z</time>
      </trkpt>
      <trkpt lat="44.50042" lon="6.42571">
        <ele>1447.515625</ele>
        <time>2010-05-22T16:43:18Z</time>
      </trkpt>
      <trkpt lat="44.50042" lon="6.42571">
        <ele>1447.3107910156</ele>
        <time>2010-05-22T16:43:34Z</time>
      </trkpt>
      <trkpt lat="44.50043" lon="6.42571">
        <ele>1447.4367675781</ele>
        <time>2010-05-22T16:43:52Z</time>
      </trkpt>
      <trkpt lat="44.50044" lon="6.42571">
        <ele>1447.3059082031</ele>
        <time>2010-05-22T16:44:03Z</time>
      </trkpt>
      <trkpt lat="44.50047" lon="6.4257">
        <ele>1447.1823730469</ele>
        <time>2010-05-22T16:44:35Z</time>
      </trkpt>
      <trkpt lat="44.5004" lon="6.42573">
        <ele>1447.8037109375</ele>
        <time>2010-05-22T16:45:08Z</time>
      </trkpt>
      <trkpt lat="44.50045" lon="6.4258">
        <ele>1449.4964599609</ele>
        <time>2010-05-22T16:45:28Z</time>
      </trkpt>
      <trkpt lat="44.50046" lon="6.42583">
        <ele>1450.3748779297</ele>
        <time>2010-05-22T16:45:38Z</time>
      </trkpt>
      <trkpt lat="44.50051" lon="6.42577">
        <ele>1448.6457519531</ele>
        <time>2010-05-22T16:45:52Z</time>
      </trkpt>
      <trkpt lat="44.50054" lon="6.42569">
        <ele>1446.8433837891</ele>
        <time>2010-05-22T16:46:07Z</time>
      </trkpt>
      <trkpt lat="44.50055" lon="6.4257">
        <ele>1447.0942382812</ele>
        <time>2010-05-22T16:46:09Z</time>
      </trkpt>
      <trkpt lat="44.50057" lon="6.4257">
        <ele>1446.509765625</ele>
        <time>2010-05-22T16:46:27Z</time>
      </trkpt>
      <trkpt lat="44.50063" lon="6.42574">
        <ele>1445.2254638672</ele>
        <time>2010-05-22T16:47:24Z</time>
      </trkpt>
      <trkpt lat="44.50061" lon="6.42574">
        <ele>1445.6904296875</ele>
        <time>2010-05-22T16:47:33Z</time>
      </trkpt>
      <trkpt lat="44.50053" lon="6.4257">
        <ele>1447.1809082031</ele>
        <time>2010-05-22T16:47:57Z</time>
      </trkpt>
      <trkpt lat="44.50052" lon="6.4257">
        <ele>1447.2370605469</ele>
        <time>2010-05-22T16:48:09Z</time>
      </trkpt>
      <trkpt lat="44.5005" lon="6.42562">
        <ele>1445.2606201172</ele>
        <time>2010-05-22T16:48:15Z</time>
      </trkpt>
      <trkpt lat="44.5005" lon="6.4257">
        <ele>1447.0551757812</ele>
        <time>2010-05-22T16:48:29Z</time>
      </trkpt>
      <trkpt lat="44.5005" lon="6.42574">
        <ele>1448.0072021484</ele>
        <time>2010-05-22T16:48:37Z</time>
      </trkpt>
      <trkpt lat="44.50051" lon="6.4258">
        <ele>1449.3546142578</ele>
        <time>2010-05-22T16:48:50Z</time>
      </trkpt>
      <trkpt lat="44.50048" lon="6.42577">
        <ele>1448.7816162109</ele>
        <time>2010-05-22T16:49:01Z</time>
      </trkpt>
      <trkpt lat="44.50047" lon="6.42577">
        <ele>1448.8646240234</ele>
        <time>2010-05-22T16:49:18Z</time>
      </trkpt>
      <trkpt lat="44.50049" lon="6.42581">
        <ele>1449.6608886719</ele>
        <time>2010-05-22T16:49:29Z</time>
      </trkpt>
      <trkpt lat="44.50047" lon="6.42575">
        <ele>1448.216796875</ele>
        <time>2010-05-22T16:49:51Z</time>
      </trkpt>
      <trkpt lat="44.50046" lon="6.42564">
        <ele>1445.8035888672</ele>
        <time>2010-05-22T16:50:08Z</time>
      </trkpt>
      <trkpt lat="44.50046" lon="6.42568">
        <ele>1446.6207275391</ele>
        <time>2010-05-22T16:50:12Z</time>
      </trkpt>
      <trkpt lat="44.50048" lon="6.42574">
        <ele>1448.16796875</ele>
        <time>2010-05-22T16:50:22Z</time>
      </trkpt>
      <trkpt lat="44.5005" lon="6.42582">
        <ele>1449.8892822266</ele>
        <time>2010-05-22T16:50:33Z</time>
      </trkpt>
      <trkpt lat="44.50049" lon="6.42576">
        <ele>1448.63671875</ele>
        <time>2010-05-22T16:50:42Z</time>
      </trkpt>
      <trkpt lat="44.50051" lon="6.42568">
        <ele>1446.6547851562</ele>
        <time>2010-05-22T16:51:02Z</time>
      </trkpt>
      <trkpt lat="44.5005" lon="6.42567">
        <ele>1446.4265136719</ele>
        <time>2010-05-22T16:51:13Z</time>
      </trkpt>
      <trkpt lat="44.50047" lon="6.42566">
        <ele>1446.2534179688</ele>
        <time>2010-05-22T16:51:23Z</time>
      </trkpt>
      <trkpt lat="44.50047" lon="6.42568">
        <ele>1446.7493896484</ele>
        <time>2010-05-22T16:51:32Z</time>
      </trkpt>
      <trkpt lat="44.50052" lon="6.42565">
        <ele>1445.8928222656</ele>
        <time>2010-05-22T16:51:58Z</time>
      </trkpt>
      <trkpt lat="44.50052" lon="6.42564">
        <ele>1445.68359375</ele>
        <time>2010-05-22T16:52:09Z</time>
      </trkpt>
      <trkpt lat="44.50053" lon="6.42566">
        <ele>1446.2575683594</ele>
        <time>2010-05-22T16:52:20Z</time>
      </trkpt>
      <trkpt lat="44.50053" lon="6.42567">
        <ele>1446.50390625</ele>
        <time>2010-05-22T16:52:32Z</time>
      </trkpt>
      <trkpt lat="44.50053" lon="6.42564">
        <ele>1445.8492431641</ele>
        <time>2010-05-22T16:52:58Z</time>
      </trkpt>
      <trkpt lat="44.50058" lon="6.42565">
        <ele>1444.775390625</ele>
        <time>2010-05-22T16:53:23Z</time>
      </trkpt>
      <trkpt lat="44.5006" lon="6.42562">
        <ele>1443.2545166016</ele>
        <time>2010-05-22T16:53:33Z</time>
      </trkpt>
      <trkpt lat="44.50059" lon="6.42559">
        <ele>1442.9859619141</ele>
        <time>2010-05-22T16:53:52Z</time>
      </trkpt>
      <trkpt lat="44.50059" lon="6.42562">
        <ele>1443.6009521484</ele>
        <time>2010-05-22T16:54:03Z</time>
      </trkpt>
      <trkpt lat="44.50058" lon="6.42563">
        <ele>1444.2806396484</ele>
        <time>2010-05-22T16:54:15Z</time>
      </trkpt>
      <trkpt lat="44.50056" lon="6.42564">
        <ele>1445.3375244141</ele>
        <time>2010-05-22T16:54:30Z</time>
      </trkpt>
      <trkpt lat="44.50055" lon="6.4257">
        <ele>1447.0421142578</ele>
        <time>2010-05-22T16:54:35Z</time>
      </trkpt>
      <trkpt lat="44.50053" lon="6.42573">
        <ele>1447.8774414062</ele>
        <time>2010-05-22T16:54:43Z</time>
      </trkpt>
      <trkpt lat="44.50053" lon="6.42576">
        <ele>1448.4395751953</ele>
        <time>2010-05-22T16:54:54Z</time>
      </trkpt>
      <trkpt lat="44.50052" lon="6.42579">
        <ele>1449.216796875</ele>
        <time>2010-05-22T16:55:06Z</time>
      </trkpt>
      <trkpt lat="44.50051" lon="6.42574">
        <ele>1448.1009521484</ele>
        <time>2010-05-22T16:55:21Z</time>
      </trkpt>
      <trkpt lat="44.50051" lon="6.42571">
        <ele>1447.4669189453</ele>
        <time>2010-05-22T16:55:31Z</time>
      </trkpt>
      <trkpt lat="44.50052" lon="6.42566">
        <ele>1446.3151855469</ele>
        <time>2010-05-22T16:55:49Z</time>
      </trkpt>
      <trkpt lat="44.5005" lon="6.42566">
        <ele>1446.2312011719</ele>
        <time>2010-05-22T16:55:58Z</time>
      </trkpt>
      <trkpt lat="44.50048" lon="6.42568">
        <ele>1446.5852050781</ele>
        <time>2010-05-22T16:56:11Z</time>
      </trkpt>
      <trkpt lat="44.50049" lon="6.42563">
        <ele>1445.5484619141</ele>
        <time>2010-05-22T16:56:20Z</time>
      </trkpt>
      <trkpt lat="44.50051" lon="6.42569">
        <ele>1446.8914794922</ele>
        <time>2010-05-22T16:56:24Z</time>
      </trkpt>
      <trkpt lat="44.50054" lon="6.42581">
        <ele>1449.5563964844</ele>
        <time>2010-05-22T16:56:36Z</time>
      </trkpt>
      <trkpt lat="44.50056" lon="6.42584">
        <ele>1450.1639404297</ele>
        <time>2010-05-22T16:56:48Z</time>
      </trkpt>
      <trkpt lat="44.50055" lon="6.42583">
        <ele>1449.9713134766</ele>
        <time>2010-05-22T16:57:06Z</time>
      </trkpt>
      <trkpt lat="44.50051" lon="6.42579">
        <ele>1449.1175537109</ele>
        <time>2010-05-22T16:57:55Z</time>
      </trkpt>
      <trkpt lat="44.5005" lon="6.42584">
        <ele>1450.3869628906</ele>
        <time>2010-05-22T16:58:13Z</time>
      </trkpt>
      <trkpt lat="44.50043" lon="6.42565">
        <ele>1446.0061035156</ele>
        <time>2010-05-22T16:58:42Z</time>
      </trkpt>
      <trkpt lat="44.50047" lon="6.42563">
        <ele>1445.4710693359</ele>
        <time>2010-05-22T16:58:50Z</time>
      </trkpt>
      <trkpt lat="44.50048" lon="6.42561">
        <ele>1444.9714355469</ele>
        <time>2010-05-22T16:58:59Z</time>
      </trkpt>
      <trkpt lat="44.50048" lon="6.42561">
        <ele>1444.9660644531</ele>
        <time>2010-05-22T16:59:08Z</time>
      </trkpt>
      <trkpt lat="44.5005" lon="6.42563">
        <ele>1445.5278320312</ele>
        <time>2010-05-22T16:59:19Z</time>
      </trkpt>
      <trkpt lat="44.50052" lon="6.42563">
        <ele>1445.6300048828</ele>
        <time>2010-05-22T16:59:49Z</time>
      </trkpt>
      <trkpt lat="44.50054" lon="6.42564">
        <ele>1445.8223876953</ele>
        <time>2010-05-22T17:00:07Z</time>
      </trkpt>
      <trkpt lat="44.50061" lon="6.42565">
        <ele>1443.4562988281</ele>
        <time>2010-05-22T17:00:25Z</time>
      </trkpt>
      <trkpt lat="44.5006" lon="6.42566">
        <ele>1444.5932617188</ele>
        <time>2010-05-22T17:00:39Z</time>
      </trkpt>
      <trkpt lat="44.50056" lon="6.42567">
        <ele>1446.3306884766</ele>
        <time>2010-05-22T17:00:48Z</time>
      </trkpt>
      <trkpt lat="44.50046" lon="6.42564">
        <ele>1445.7741699219</ele>
        <time>2010-05-22T17:01:03Z</time>
      </trkpt>
      <trkpt lat="44.50024" lon="6.42564">
        <ele>1444.4172363281</ele>
        <time>2010-05-22T17:01:43Z</time>
      </trkpt>
      <trkpt lat="44.50049" lon="6.42585">
        <ele>1450.69921875</ele>
        <time>2010-05-22T17:02:50Z</time>
      </trkpt>
      <trkpt lat="44.50048" lon="6.42589">
        <ele>1451.8648681641</ele>
        <time>2010-05-22T17:02:54Z</time>
      </trkpt>
      <trkpt lat="44.50043" lon="6.42594">
        <ele>1453.5922851562</ele>
        <time>2010-05-22T17:03:02Z</time>
      </trkpt>
      <trkpt lat="44.50048" lon="6.4259">
        <ele>1452.0209960938</ele>
        <time>2010-05-22T17:03:08Z</time>
      </trkpt>
      <trkpt lat="44.50051" lon="6.42577">
        <ele>1448.6854248047</ele>
        <time>2010-05-22T17:03:15Z</time>
      </trkpt>
      <trkpt lat="44.50054" lon="6.42573">
        <ele>1447.7261962891</ele>
        <time>2010-05-22T17:03:19Z</time>
      </trkpt>
      <trkpt lat="44.50056" lon="6.42571">
        <ele>1447.0212402344</ele>
        <time>2010-05-22T17:03:32Z</time>
      </trkpt>
      <trkpt lat="44.50047" lon="6.42585">
        <ele>1450.7634277344</ele>
        <time>2010-05-22T17:03:57Z</time>
      </trkpt>
      <trkpt lat="44.50047" lon="6.42595">
        <ele>1453.5780029297</ele>
        <time>2010-05-22T17:04:06Z</time>
      </trkpt>
      <trkpt lat="44.50046" lon="6.42598">
        <ele>1454.4620361328</ele>
        <time>2010-05-22T17:04:11Z</time>
      </trkpt>
      <trkpt lat="44.50043" lon="6.42601">
        <ele>1455.4562988281</ele>
        <time>2010-05-22T17:04:21Z</time>
      </trkpt>
      <trkpt lat="44.50043" lon="6.42596">
        <ele>1454.0101318359</ele>
        <time>2010-05-22T17:04:28Z</time>
      </trkpt>
      <trkpt lat="44.5004" lon="6.42575">
        <ele>1448.4229736328</ele>
        <time>2010-05-22T17:04:48Z</time>
      </trkpt>
      <trkpt lat="44.50045" lon="6.42579">
        <ele>1449.4040527344</ele>
        <time>2010-05-22T17:05:06Z</time>
      </trkpt>
      <trkpt lat="44.50045" lon="6.42581">
        <ele>1449.7387695312</ele>
        <time>2010-05-22T17:05:19Z</time>
      </trkpt>
      <trkpt lat="44.50042" lon="6.42576">
        <ele>1448.5458984375</ele>
        <time>2010-05-22T17:05:35Z</time>
      </trkpt>
      <trkpt lat="44.50047" lon="6.42578">
        <ele>1449.0920410156</ele>
        <time>2010-05-22T17:06:17Z</time>
      </trkpt>
      <trkpt lat="44.50051" lon="6.42576">
        <ele>1448.5882568359</ele>
        <time>2010-05-22T17:06:38Z</time>
      </trkpt>
      <trkpt lat="44.50051" lon="6.42568">
        <ele>1446.5882568359</ele>
        <time>2010-05-22T17:07:07Z</time>
      </trkpt>
      <trkpt lat="44.50055" lon="6.42565">
        <ele>1446.0872802734</ele>
        <time>2010-05-22T17:07:28Z</time>
      </trkpt>
      <trkpt lat="44.50055" lon="6.42565">
        <ele>1446.0310058594</ele>
        <time>2010-05-22T17:07:30Z</time>
      </trkpt>
      <trkpt lat="44.50059" lon="6.42561">
        <ele>1443.4332275391</ele>
        <time>2010-05-22T17:07:34Z</time>
      </trkpt>
      <trkpt lat="44.50076" lon="6.42572">
        <ele>1439.1788330078</ele>
        <time>2010-05-22T17:07:40Z</time>
      </trkpt>
      <trkpt lat="44.50081" lon="6.42578">
        <ele>1438.8624267578</ele>
        <time>2010-05-22T17:07:43Z</time>
      </trkpt>
      <trkpt lat="44.50082" lon="6.42578">
        <ele>1438.5169677734</ele>
        <time>2010-05-22T17:07:45Z</time>
      </trkpt>
      <trkpt lat="44.50083" lon="6.42576">
        <ele>1437.3358154297</ele>
        <time>2010-05-22T17:07:47Z</time>
      </trkpt>
      <trkpt lat="44.50081" lon="6.42561">
        <ele>1432.9020996094</ele>
        <time>2010-05-22T17:07:52Z</time>
      </trkpt>
      <trkpt lat="44.50069" lon="6.4254">
        <ele>1431.5029296875</ele>
        <time>2010-05-22T17:07:57Z</time>
      </trkpt>
      <trkpt lat="44.50073" lon="6.42535">
        <ele>1427.828125</ele>
        <time>2010-05-22T17:08:00Z</time>
      </trkpt>
      <trkpt lat="44.50077" lon="6.42538">
        <ele>1427.1358642578</ele>
        <time>2010-05-22T17:08:06Z</time>
      </trkpt>
      <trkpt lat="44.50084" lon="6.42546">
        <ele>1426.8116455078</ele>
        <time>2010-05-22T17:08:10Z</time>
      </trkpt>
      <trkpt lat="44.50096" lon="6.42561">
        <ele>1427.6163330078</ele>
        <time>2010-05-22T17:08:14Z</time>
      </trkpt>
      <trkpt lat="44.50098" lon="6.42565">
        <ele>1428.2547607422</ele>
        <time>2010-05-22T17:08:15Z</time>
      </trkpt>
      <trkpt lat="44.50098" lon="6.42563">
        <ele>1427.5571289062</ele>
        <time>2010-05-22T17:08:20Z</time>
      </trkpt>
      <trkpt lat="44.5009" lon="6.42541">
        <ele>1423.0091552734</ele>
        <time>2010-05-22T17:08:26Z</time>
      </trkpt>
      <trkpt lat="44.50088" lon="6.4253">
        <ele>1420.2957763672</ele>
        <time>2010-05-22T17:08:29Z</time>
      </trkpt>
      <trkpt lat="44.5008" lon="6.42501">
        <ele>1414.6295166016</ele>
        <time>2010-05-22T17:08:35Z</time>
      </trkpt>
      <trkpt lat="44.50075" lon="6.42476">
        <ele>1410.177734375</ele>
        <time>2010-05-22T17:08:40Z</time>
      </trkpt>
      <trkpt lat="44.50071" lon="6.42466">
        <ele>1409.1893310547</ele>
        <time>2010-05-22T17:08:44Z</time>
      </trkpt>
      <trkpt lat="44.50074" lon="6.42461">
        <ele>1407.6787109375</ele>
        <time>2010-05-22T17:08:50Z</time>
      </trkpt>
      <trkpt lat="44.50083" lon="6.42467">
        <ele>1407.2152099609</ele>
        <time>2010-05-22T17:08:56Z</time>
      </trkpt>
      <trkpt lat="44.5009" lon="6.42476">
        <ele>1406.0526123047</ele>
        <time>2010-05-22T17:09:00Z</time>
      </trkpt>
      <trkpt lat="44.50098" lon="6.42466">
        <ele>1401.091796875</ele>
        <time>2010-05-22T17:09:04Z</time>
      </trkpt>
      <trkpt lat="44.50095" lon="6.42452">
        <ele>1400.2609863281</ele>
        <time>2010-05-22T17:09:07Z</time>
      </trkpt>
      <trkpt lat="44.50093" lon="6.42443">
        <ele>1399.4880371094</ele>
        <time>2010-05-22T17:09:09Z</time>
      </trkpt>
      <trkpt lat="44.50111" lon="6.42424">
        <ele>1391.2305908203</ele>
        <time>2010-05-22T17:09:13Z</time>
      </trkpt>
      <trkpt lat="44.50117" lon="6.42418">
        <ele>1388.4370117188</ele>
        <time>2010-05-22T17:09:17Z</time>
      </trkpt>
      <trkpt lat="44.50114" lon="6.42413">
        <ele>1388.5571289062</ele>
        <time>2010-05-22T17:09:18Z</time>
      </trkpt>
      <trkpt lat="44.50113" lon="6.42387">
        <ele>1385.2136230469</ele>
        <time>2010-05-22T17:09:22Z</time>
      </trkpt>
      <trkpt lat="44.50109" lon="6.42343">
        <ele>1378.2683105469</ele>
        <time>2010-05-22T17:09:27Z</time>
      </trkpt>
      <trkpt lat="44.50101" lon="6.42318">
        <ele>1372.5246582031</ele>
        <time>2010-05-22T17:09:31Z</time>
      </trkpt>
      <trkpt lat="44.50093" lon="6.423">
        <ele>1366.5313720703</ele>
        <time>2010-05-22T17:09:34Z</time>
      </trkpt>
      <trkpt lat="44.50089" lon="6.42292">
        <ele>1363.1882324219</ele>
        <time>2010-05-22T17:09:39Z</time>
      </trkpt>
      <trkpt lat="44.50094" lon="6.42283">
        <ele>1359.20703125</ele>
        <time>2010-05-22T17:09:43Z</time>
      </trkpt>
      <trkpt lat="44.50098" lon="6.42277">
        <ele>1356.8276367188</ele>
        <time>2010-05-22T17:09:47Z</time>
      </trkpt>
      <trkpt lat="44.50095" lon="6.42275">
        <ele>1355.3858642578</ele>
        <time>2010-05-22T17:09:49Z</time>
      </trkpt>
      <trkpt lat="44.50085" lon="6.42272">
        <ele>1354.1164550781</ele>
        <time>2010-05-22T17:09:53Z</time>
      </trkpt>
      <trkpt lat="44.50081" lon="6.4227">
        <ele>1352.0521240234</ele>
        <time>2010-05-22T17:09:58Z</time>
      </trkpt>
      <trkpt lat="44.5008" lon="6.4227">
        <ele>1351.7781982422</ele>
        <time>2010-05-22T17:10:08Z</time>
      </trkpt>
      <trkpt lat="44.50081" lon="6.42267">
        <ele>1350.5812988281</ele>
        <time>2010-05-22T17:10:21Z</time>
      </trkpt>
      <trkpt lat="44.50084" lon="6.42266">
        <ele>1350.8072509766</ele>
        <time>2010-05-22T17:10:30Z</time>
      </trkpt>
      <trkpt lat="44.50079" lon="6.42261">
        <ele>1346.4635009766</ele>
        <time>2010-05-22T17:10:47Z</time>
      </trkpt>
      <trkpt lat="44.50079" lon="6.42258">
        <ele>1344.9761962891</ele>
        <time>2010-05-22T17:10:56Z</time>
      </trkpt>
      <trkpt lat="44.5008" lon="6.42257">
        <ele>1344.5661621094</ele>
        <time>2010-05-22T17:10:57Z</time>
      </trkpt>
      <trkpt lat="44.50095" lon="6.42248">
        <ele>1339.2822265625</ele>
        <time>2010-05-22T17:11:02Z</time>
      </trkpt>
      <trkpt lat="44.501" lon="6.42245">
        <ele>1337.4443359375</ele>
        <time>2010-05-22T17:11:03Z</time>
      </trkpt>
      <trkpt lat="44.50123" lon="6.42252">
        <ele>1336.7014160156</ele>
        <time>2010-05-22T17:11:09Z</time>
      </trkpt>
      <trkpt lat="44.50142" lon="6.42267">
        <ele>1339.1773681641</ele>
        <time>2010-05-22T17:11:14Z</time>
      </trkpt>
      <trkpt lat="44.5015" lon="6.42273">
        <ele>1339.6623535156</ele>
        <time>2010-05-22T17:11:16Z</time>
      </trkpt>
      <trkpt lat="44.50167" lon="6.42298">
        <ele>1340.7852783203</ele>
        <time>2010-05-22T17:11:21Z</time>
      </trkpt>
      <trkpt lat="44.50172" lon="6.42308">
        <ele>1340.5849609375</ele>
        <time>2010-05-22T17:11:23Z</time>
      </trkpt>
      <trkpt lat="44.50186" lon="6.4233">
        <ele>1338.6339111328</ele>
        <time>2010-05-22T17:11:27Z</time>
      </trkpt>
      <trkpt lat="44.50192" lon="6.42344">
        <ele>1338.2528076172</ele>
        <time>2010-05-22T17:11:30Z</time>
      </trkpt>
      <trkpt lat="44.50193" lon="6.42356">
        <ele>1340.0826416016</ele>
        <time>2010-05-22T17:11:32Z</time>
      </trkpt>
      <trkpt lat="44.50196" lon="6.42368">
        <ele>1339.9666748047</ele>
        <time>2010-05-22T17:11:37Z</time>
      </trkpt>
      <trkpt lat="44.50196" lon="6.42366">
        <ele>1339.2720947266</ele>
        <time>2010-05-22T17:11:40Z</time>
      </trkpt>
      <trkpt lat="44.502" lon="6.42351">
        <ele>1332.2386474609</ele>
        <time>2010-05-22T17:11:45Z</time>
      </trkpt>
      <trkpt lat="44.50201" lon="6.42344">
        <ele>1330.3952636719</ele>
        <time>2010-05-22T17:11:47Z</time>
      </trkpt>
      <trkpt lat="44.50201" lon="6.42315">
        <ele>1322.7141113281</ele>
        <time>2010-05-22T17:11:53Z</time>
      </trkpt>
      <trkpt lat="44.50203" lon="6.42285">
        <ele>1314.6878662109</ele>
        <time>2010-05-22T17:11:58Z</time>
      </trkpt>
      <trkpt lat="44.50199" lon="6.42261">
        <ele>1310.8176269531</ele>
        <time>2010-05-22T17:12:02Z</time>
      </trkpt>
      <trkpt lat="44.50199" lon="6.42254">
        <ele>1308.6741943359</ele>
        <time>2010-05-22T17:12:03Z</time>
      </trkpt>
      <trkpt lat="44.50201" lon="6.42218">
        <ele>1297.1584472656</ele>
        <time>2010-05-22T17:12:07Z</time>
      </trkpt>
      <trkpt lat="44.50196" lon="6.42187">
        <ele>1288.0190429688</ele>
        <time>2010-05-22T17:12:12Z</time>
      </trkpt>
      <trkpt lat="44.50189" lon="6.42168">
        <ele>1281.6820068359</ele>
        <time>2010-05-22T17:12:15Z</time>
      </trkpt>
      <trkpt lat="44.50185" lon="6.42145">
        <ele>1268.9440917969</ele>
        <time>2010-05-22T17:12:20Z</time>
      </trkpt>
      <trkpt lat="44.50187" lon="6.42147">
        <ele>1269.9470214844</ele>
        <time>2010-05-22T17:12:21Z</time>
      </trkpt>
      <trkpt lat="44.50195" lon="6.42149">
        <ele>1270.5676269531</ele>
        <time>2010-05-22T17:12:23Z</time>
      </trkpt>
      <trkpt lat="44.50212" lon="6.42162">
        <ele>1270.5261230469</ele>
        <time>2010-05-22T17:12:28Z</time>
      </trkpt>
      <trkpt lat="44.50223" lon="6.42168">
        <ele>1269.1997070312</ele>
        <time>2010-05-22T17:12:33Z</time>
      </trkpt>
      <trkpt lat="44.50224" lon="6.42163">
        <ele>1266.8151855469</ele>
        <time>2010-05-22T17:12:38Z</time>
      </trkpt>
      <trkpt lat="44.5022" lon="6.42156">
        <ele>1265.1751708984</ele>
        <time>2010-05-22T17:12:42Z</time>
      </trkpt>
      <trkpt lat="44.5022" lon="6.4215">
        <ele>1262.5513916016</ele>
        <time>2010-05-22T17:12:44Z</time>
      </trkpt>
      <trkpt lat="44.50221" lon="6.42141">
        <ele>1258.2028808594</ele>
        <time>2010-05-22T17:12:49Z</time>
      </trkpt>
      <trkpt lat="44.50224" lon="6.42141">
        <ele>1257.0373535156</ele>
        <time>2010-05-22T17:12:53Z</time>
      </trkpt>
      <trkpt lat="44.50229" lon="6.42151">
        <ele>1259.2209472656</ele>
        <time>2010-05-22T17:12:59Z</time>
      </trkpt>
      <trkpt lat="44.5023" lon="6.42153">
        <ele>1259.1934814453</ele>
        <time>2010-05-22T17:13:03Z</time>
      </trkpt>
      <trkpt lat="44.50229" lon="6.42147">
        <ele>1257.1335449219</ele>
        <time>2010-05-22T17:13:08Z</time>
      </trkpt>
      <trkpt lat="44.50227" lon="6.42122">
        <ele>1245.8172607422</ele>
        <time>2010-05-22T17:13:14Z</time>
      </trkpt>
      <trkpt lat="44.50217" lon="6.42098">
        <ele>1238.0438232422</ele>
        <time>2010-05-22T17:13:20Z</time>
      </trkpt>
      <trkpt lat="44.50209" lon="6.42083">
        <ele>1232.7595214844</ele>
        <time>2010-05-22T17:13:24Z</time>
      </trkpt>
      <trkpt lat="44.50203" lon="6.4207">
        <ele>1228.9967041016</ele>
        <time>2010-05-22T17:13:29Z</time>
      </trkpt>
      <trkpt lat="44.50196" lon="6.42064">
        <ele>1227.7109375</ele>
        <time>2010-05-22T17:13:34Z</time>
      </trkpt>
      <trkpt lat="44.50194" lon="6.42064">
        <ele>1227.7951660156</ele>
        <time>2010-05-22T17:13:35Z</time>
      </trkpt>
      <trkpt lat="44.5018" lon="6.42061">
        <ele>1227.3165283203</ele>
        <time>2010-05-22T17:13:40Z</time>
      </trkpt>
      <trkpt lat="44.50161" lon="6.4206">
        <ele>1227.5290527344</ele>
        <time>2010-05-22T17:13:44Z</time>
      </trkpt>
      <trkpt lat="44.50148" lon="6.4205">
        <ele>1223.0922851562</ele>
        <time>2010-05-22T17:13:48Z</time>
      </trkpt>
      <trkpt lat="44.50143" lon="6.4204">
        <ele>1217.8137207031</ele>
        <time>2010-05-22T17:13:50Z</time>
      </trkpt>
      <trkpt lat="44.50141" lon="6.42028">
        <ele>1211.0931396484</ele>
        <time>2010-05-22T17:13:53Z</time>
      </trkpt>
      <trkpt lat="44.50141" lon="6.42022">
        <ele>1208.6437988281</ele>
        <time>2010-05-22T17:14:09Z</time>
      </trkpt>
      <trkpt lat="44.5014" lon="6.42024">
        <ele>1209.4471435547</ele>
        <time>2010-05-22T17:14:29Z</time>
      </trkpt>
      <trkpt lat="44.50143" lon="6.42028">
        <ele>1210.9509277344</ele>
        <time>2010-05-22T17:14:35Z</time>
      </trkpt>
      <trkpt lat="44.50142" lon="6.42022">
        <ele>1208.4377441406</ele>
        <time>2010-05-22T17:14:40Z</time>
      </trkpt>
      <trkpt lat="44.50139" lon="6.42014">
        <ele>1204.9770507812</ele>
        <time>2010-05-22T17:14:45Z</time>
      </trkpt>
      <trkpt lat="44.50136" lon="6.42015">
        <ele>1206.5609130859</ele>
        <time>2010-05-22T17:14:50Z</time>
      </trkpt>
      <trkpt lat="44.50137" lon="6.42027">
        <ele>1211.1984863281</ele>
        <time>2010-05-22T17:14:59Z</time>
      </trkpt>
      <trkpt lat="44.50126" lon="6.42026">
        <ele>1213.4304199219</ele>
        <time>2010-05-22T17:15:04Z</time>
      </trkpt>
      <trkpt lat="44.50105" lon="6.42011">
        <ele>1216.0561523438</ele>
        <time>2010-05-22T17:15:09Z</time>
      </trkpt>
      <trkpt lat="44.50102" lon="6.41993">
        <ele>1215.2178955078</ele>
        <time>2010-05-22T17:15:13Z</time>
      </trkpt>
      <trkpt lat="44.50106" lon="6.41983">
        <ele>1214.2838134766</ele>
        <time>2010-05-22T17:15:16Z</time>
      </trkpt>
      <trkpt lat="44.50111" lon="6.41975">
        <ele>1213.2828369141</ele>
        <time>2010-05-22T17:15:21Z</time>
      </trkpt>
      <trkpt lat="44.50124" lon="6.4198">
        <ele>1207.0056152344</ele>
        <time>2010-05-22T17:15:44Z</time>
      </trkpt>
      <trkpt lat="44.50126" lon="6.41982">
        <ele>1205.8845214844</ele>
        <time>2010-05-22T17:15:57Z</time>
      </trkpt>
      <trkpt lat="44.50119" lon="6.41983">
        <ele>1209.3829345703</ele>
        <time>2010-05-22T17:16:08Z</time>
      </trkpt>
      <trkpt lat="44.50117" lon="6.41981">
        <ele>1210.2800292969</ele>
        <time>2010-05-22T17:16:25Z</time>
      </trkpt>
      <trkpt lat="44.50112" lon="6.41984">
        <ele>1213.3005371094</ele>
        <time>2010-05-22T17:17:11Z</time>
      </trkpt>
      <trkpt lat="44.50111" lon="6.41988">
        <ele>1214.1540527344</ele>
        <time>2010-05-22T17:17:16Z</time>
      </trkpt>
      <trkpt lat="44.50109" lon="6.41997">
        <ele>1214.9401855469</ele>
        <time>2010-05-22T17:17:23Z</time>
      </trkpt>
      <trkpt lat="44.50108" lon="6.42003">
        <ele>1215.3979492188</ele>
        <time>2010-05-22T17:17:27Z</time>
      </trkpt>
      <trkpt lat="44.50109" lon="6.42008">
        <ele>1215.6966552734</ele>
        <time>2010-05-22T17:17:32Z</time>
      </trkpt>
      <trkpt lat="44.5011" lon="6.4201">
        <ele>1215.7789306641</ele>
        <time>2010-05-22T17:17:39Z</time>
      </trkpt>
      <trkpt lat="44.50118" lon="6.42009">
        <ele>1212.4987792969</ele>
        <time>2010-05-22T17:17:55Z</time>
      </trkpt>
      <trkpt lat="44.50123" lon="6.42011">
        <ele>1210.7482910156</ele>
        <time>2010-05-22T17:18:04Z</time>
      </trkpt>
      <trkpt lat="44.50127" lon="6.42012">
        <ele>1209.2436523438</ele>
        <time>2010-05-22T17:18:09Z</time>
      </trkpt>
      <trkpt lat="44.50131" lon="6.42015">
        <ele>1208.4653320312</ele>
        <time>2010-05-22T17:18:13Z</time>
      </trkpt>
      <trkpt lat="44.50137" lon="6.42012">
        <ele>1204.9129638672</ele>
        <time>2010-05-22T17:18:21Z</time>
      </trkpt>
      <trkpt lat="44.5014" lon="6.42016">
        <ele>1205.9658203125</ele>
        <time>2010-05-22T17:18:27Z</time>
      </trkpt>
      <trkpt lat="44.5014" lon="6.4202">
        <ele>1207.6756591797</ele>
        <time>2010-05-22T17:18:29Z</time>
      </trkpt>
      <trkpt lat="44.5014" lon="6.42022">
        <ele>1208.7055664062</ele>
        <time>2010-05-22T17:18:31Z</time>
      </trkpt>
      <trkpt lat="44.50143" lon="6.42029">
        <ele>1211.4793701172</ele>
        <time>2010-05-22T17:18:37Z</time>
      </trkpt>
      <trkpt lat="44.50144" lon="6.42037">
        <ele>1216.2430419922</ele>
        <time>2010-05-22T17:18:42Z</time>
      </trkpt>
      <trkpt lat="44.50148" lon="6.42047">
        <ele>1221.4185791016</ele>
        <time>2010-05-22T17:18:48Z</time>
      </trkpt>
      <trkpt lat="44.50148" lon="6.42053">
        <ele>1224.6372070312</ele>
        <time>2010-05-22T17:18:52Z</time>
      </trkpt>
      <trkpt lat="44.50151" lon="6.42055">
        <ele>1225.5899658203</ele>
        <time>2010-05-22T17:18:57Z</time>
      </trkpt>
      <trkpt lat="44.50162" lon="6.42053">
        <ele>1224.4827880859</ele>
        <time>2010-05-22T17:19:07Z</time>
      </trkpt>
      <trkpt lat="44.50167" lon="6.42052">
        <ele>1224.0433349609</ele>
        <time>2010-05-22T17:19:14Z</time>
      </trkpt>
      <trkpt lat="44.50171" lon="6.42048">
        <ele>1221.5985107422</ele>
        <time>2010-05-22T17:19:20Z</time>
      </trkpt>
      <trkpt lat="44.50175" lon="6.4205">
        <ele>1222.4228515625</ele>
        <time>2010-05-22T17:19:25Z</time>
      </trkpt>
      <trkpt lat="44.50177" lon="6.42052">
        <ele>1223.6398925781</ele>
        <time>2010-05-22T17:19:32Z</time>
      </trkpt>
      <trkpt lat="44.5018" lon="6.42047">
        <ele>1220.806640625</ele>
        <time>2010-05-22T17:19:42Z</time>
      </trkpt>
      <trkpt lat="44.50186" lon="6.42054">
        <ele>1224.2867431641</ele>
        <time>2010-05-22T17:19:57Z</time>
      </trkpt>
      <trkpt lat="44.50192" lon="6.42054">
        <ele>1223.8822021484</ele>
        <time>2010-05-22T17:20:14Z</time>
      </trkpt>
      <trkpt lat="44.50199" lon="6.42059">
        <ele>1225.8690185547</ele>
        <time>2010-05-22T17:20:22Z</time>
      </trkpt>
      <trkpt lat="44.50203" lon="6.42059">
        <ele>1225.4244384766</ele>
        <time>2010-05-22T17:20:32Z</time>
      </trkpt>
      <trkpt lat="44.50211" lon="6.42074">
        <ele>1229.9735107422</ele>
        <time>2010-05-22T17:21:03Z</time>
      </trkpt>
      <trkpt lat="44.50214" lon="6.4208">
        <ele>1231.4909667969</ele>
        <time>2010-05-22T17:21:10Z</time>
      </trkpt>
      <trkpt lat="44.50215" lon="6.42083">
        <ele>1232.3596191406</ele>
        <time>2010-05-22T17:21:14Z</time>
      </trkpt>
      <trkpt lat="44.50219" lon="6.4209">
        <ele>1234.8803710938</ele>
        <time>2010-05-22T17:21:21Z</time>
      </trkpt>
      <trkpt lat="44.50221" lon="6.4209">
        <ele>1234.55078125</ele>
        <time>2010-05-22T17:21:34Z</time>
      </trkpt>
      <trkpt lat="44.50222" lon="6.42097">
        <ele>1236.9448242188</ele>
        <time>2010-05-22T17:21:40Z</time>
      </trkpt>
      <trkpt lat="44.50225" lon="6.42109">
        <ele>1240.4050292969</ele>
        <time>2010-05-22T17:21:49Z</time>
      </trkpt>
      <trkpt lat="44.50232" lon="6.4212">
        <ele>1243.1260986328</ele>
        <time>2010-05-22T17:22:16Z</time>
      </trkpt>
      <trkpt lat="44.50232" lon="6.42122">
        <ele>1244.2642822266</ele>
        <time>2010-05-22T17:22:20Z</time>
      </trkpt>
      <trkpt lat="44.50233" lon="6.42126">
        <ele>1245.7943115234</ele>
        <time>2010-05-22T17:22:24Z</time>
      </trkpt>
      <trkpt lat="44.50229" lon="6.42133">
        <ele>1251.1690673828</ele>
        <time>2010-05-22T17:22:31Z</time>
      </trkpt>
      <trkpt lat="44.50227" lon="6.4214">
        <ele>1255.0942382812</ele>
        <time>2010-05-22T17:22:36Z</time>
      </trkpt>
      <trkpt lat="44.50224" lon="6.42144">
        <ele>1258.3831787109</ele>
        <time>2010-05-22T17:22:42Z</time>
      </trkpt>
      <trkpt lat="44.50231" lon="6.42161">
        <ele>1262.2764892578</ele>
        <time>2010-05-22T17:23:20Z</time>
      </trkpt>
      <trkpt lat="44.50238" lon="6.42166">
        <ele>1261.6311035156</ele>
        <time>2010-05-22T17:23:32Z</time>
      </trkpt>
      <trkpt lat="44.50239" lon="6.42166">
        <ele>1261.0954589844</ele>
        <time>2010-05-22T17:23:34Z</time>
      </trkpt>
      <trkpt lat="44.50243" lon="6.42179">
        <ele>1262.6000976562</ele>
        <time>2010-05-22T17:23:38Z</time>
      </trkpt>
      <trkpt lat="44.50245" lon="6.42182">
        <ele>1262.5445556641</ele>
        <time>2010-05-22T17:23:41Z</time>
      </trkpt>
      <trkpt lat="44.50252" lon="6.42184">
        <ele>1259.6047363281</ele>
        <time>2010-05-22T17:23:47Z</time>
      </trkpt>
      <trkpt lat="44.50254" lon="6.42183">
        <ele>1258.1976318359</ele>
        <time>2010-05-22T17:23:51Z</time>
      </trkpt>
      <trkpt lat="44.50267" lon="6.42181">
        <ele>1250.6223144531</ele>
        <time>2010-05-22T17:23:56Z</time>
      </trkpt>
      <trkpt lat="44.50271" lon="6.42179">
        <ele>1246.9694824219</ele>
        <time>2010-05-22T17:23:57Z</time>
      </trkpt>
      <trkpt lat="44.50272" lon="6.42168">
        <ele>1240.1026611328</ele>
        <time>2010-05-22T17:24:02Z</time>
      </trkpt>
      <trkpt lat="44.50271" lon="6.42169">
        <ele>1241.4182128906</ele>
        <time>2010-05-22T17:24:06Z</time>
      </trkpt>
      <trkpt lat="44.5026" lon="6.42161">
        <ele>1245.4250488281</ele>
        <time>2010-05-22T17:24:11Z</time>
      </trkpt>
      <trkpt lat="44.50265" lon="6.42154">
        <ele>1237.6784667969</ele>
        <time>2010-05-22T17:24:14Z</time>
      </trkpt>
      <trkpt lat="44.50273" lon="6.4214">
        <ele>1221.5982666016</ele>
        <time>2010-05-22T17:24:18Z</time>
      </trkpt>
      <trkpt lat="44.50278" lon="6.4213">
        <ele>1214.0810546875</ele>
        <time>2010-05-22T17:24:22Z</time>
      </trkpt>
      <trkpt lat="44.50284" lon="6.42122">
        <ele>1208.8304443359</ele>
        <time>2010-05-22T17:24:25Z</time>
      </trkpt>
      <trkpt lat="44.50287" lon="6.42115">
        <ele>1205.5174560547</ele>
        <time>2010-05-22T17:24:31Z</time>
      </trkpt>
      <trkpt lat="44.50286" lon="6.42114">
        <ele>1205.8641357422</ele>
        <time>2010-05-22T17:24:33Z</time>
      </trkpt>
      <trkpt lat="44.50275" lon="6.42116">
        <ele>1213.0760498047</ele>
        <time>2010-05-22T17:24:40Z</time>
      </trkpt>
      <trkpt lat="44.50273" lon="6.42116">
        <ele>1215.2763671875</ele>
        <time>2010-05-22T17:24:45Z</time>
      </trkpt>
      <trkpt lat="44.50268" lon="6.42104">
        <ele>1216.0419921875</ele>
        <time>2010-05-22T17:24:53Z</time>
      </trkpt>
      <trkpt lat="44.50268" lon="6.42103">
        <ele>1215.8297119141</ele>
        <time>2010-05-22T17:24:54Z</time>
      </trkpt>
      <trkpt lat="44.50267" lon="6.42098">
        <ele>1215.4788818359</ele>
        <time>2010-05-22T17:25:01Z</time>
      </trkpt>
      <trkpt lat="44.50266" lon="6.42085">
        <ele>1212.5112304688</ele>
        <time>2010-05-22T17:25:05Z</time>
      </trkpt>
      <trkpt lat="44.50266" lon="6.42081">
        <ele>1211.2849121094</ele>
        <time>2010-05-22T17:25:06Z</time>
      </trkpt>
      <trkpt lat="44.50261" lon="6.42061">
        <ele>1207.3719482422</ele>
        <time>2010-05-22T17:25:12Z</time>
      </trkpt>
      <trkpt lat="44.50266" lon="6.42056">
        <ele>1203.0551757812</ele>
        <time>2010-05-22T17:25:16Z</time>
      </trkpt>
      <trkpt lat="44.50265" lon="6.42048">
        <ele>1199.6154785156</ele>
        <time>2010-05-22T17:25:19Z</time>
      </trkpt>
      <trkpt lat="44.50256" lon="6.42031">
        <ele>1195.7459716797</ele>
        <time>2010-05-22T17:25:24Z</time>
      </trkpt>
      <trkpt lat="44.50253" lon="6.4202">
        <ele>1192.5128173828</ele>
        <time>2010-05-22T17:25:28Z</time>
      </trkpt>
      <trkpt lat="44.50249" lon="6.42018">
        <ele>1193.2531738281</ele>
        <time>2010-05-22T17:25:32Z</time>
      </trkpt>
      <trkpt lat="44.50242" lon="6.42011">
        <ele>1192.3731689453</ele>
        <time>2010-05-22T17:25:37Z</time>
      </trkpt>
      <trkpt lat="44.50231" lon="6.42003">
        <ele>1190.9700927734</ele>
        <time>2010-05-22T17:25:41Z</time>
      </trkpt>
      <trkpt lat="44.50206" lon="6.41986">
        <ele>1191.654296875</ele>
        <time>2010-05-22T17:25:47Z</time>
      </trkpt>
      <trkpt lat="44.50187" lon="6.41961">
        <ele>1193.6220703125</ele>
        <time>2010-05-22T17:25:52Z</time>
      </trkpt>
      <trkpt lat="44.50183" lon="6.41959">
        <ele>1194.0340576172</ele>
        <time>2010-05-22T17:25:53Z</time>
      </trkpt>
      <trkpt lat="44.50166" lon="6.41942">
        <ele>1196.0805664062</ele>
        <time>2010-05-22T17:25:59Z</time>
      </trkpt>
      <trkpt lat="44.50165" lon="6.41933">
        <ele>1196.1829833984</ele>
        <time>2010-05-22T17:26:01Z</time>
      </trkpt>
      <trkpt lat="44.5017" lon="6.41917">
        <ele>1195.5598144531</ele>
        <time>2010-05-22T17:26:07Z</time>
      </trkpt>
      <trkpt lat="44.50166" lon="6.41904">
        <ele>1196.9569091797</ele>
        <time>2010-05-22T17:26:15Z</time>
      </trkpt>
      <trkpt lat="44.50166" lon="6.41896">
        <ele>1197.6160888672</ele>
        <time>2010-05-22T17:26:20Z</time>
      </trkpt>
      <trkpt lat="44.50176" lon="6.41885">
        <ele>1197.2375488281</ele>
        <time>2010-05-22T17:26:25Z</time>
      </trkpt>
      <trkpt lat="44.50182" lon="6.41877">
        <ele>1197.2888183594</ele>
        <time>2010-05-22T17:26:30Z</time>
      </trkpt>
      <trkpt lat="44.50186" lon="6.41877">
        <ele>1196.9002685547</ele>
        <time>2010-05-22T17:26:35Z</time>
      </trkpt>
      <trkpt lat="44.50182" lon="6.4187">
        <ele>1197.7573242188</ele>
        <time>2010-05-22T17:26:42Z</time>
      </trkpt>
      <trkpt lat="44.50181" lon="6.4187">
        <ele>1197.8499755859</ele>
        <time>2010-05-22T17:26:49Z</time>
      </trkpt>
      <trkpt lat="44.50184" lon="6.41871">
        <ele>1197.5933837891</ele>
        <time>2010-05-22T17:26:53Z</time>
      </trkpt>
      <trkpt lat="44.50183" lon="6.41867">
        <ele>1197.8863525391</ele>
        <time>2010-05-22T17:27:00Z</time>
      </trkpt>
      <trkpt lat="44.50177" lon="6.41863">
        <ele>1198.5205078125</ele>
        <time>2010-05-22T17:27:18Z</time>
      </trkpt>
      <trkpt lat="44.50172" lon="6.41867">
        <ele>1198.5139160156</ele>
        <time>2010-05-22T17:27:32Z</time>
      </trkpt>
      <trkpt lat="44.5018" lon="6.41869">
        <ele>1197.9134521484</ele>
        <time>2010-05-22T17:27:50Z</time>
      </trkpt>
      <trkpt lat="44.50183" lon="6.4187">
        <ele>1197.7039794922</ele>
        <time>2010-05-22T17:27:59Z</time>
      </trkpt>
      <trkpt lat="44.5018" lon="6.41869">
        <ele>1197.9285888672</ele>
        <time>2010-05-22T17:28:11Z</time>
      </trkpt>
      <trkpt lat="44.50174" lon="6.41877">
        <ele>1197.8638916016</ele>
        <time>2010-05-22T17:30:28Z</time>
      </trkpt>
      <trkpt lat="44.50164" lon="6.41887">
        <ele>1198.5129394531</ele>
        <time>2010-05-22T17:30:33Z</time>
      </trkpt>
      <trkpt lat="44.50161" lon="6.41901">
        <ele>1197.9799804688</ele>
        <time>2010-05-22T17:30:37Z</time>
      </trkpt>
      <trkpt lat="44.50158" lon="6.41903">
        <ele>1198.2958984375</ele>
        <time>2010-05-22T17:30:39Z</time>
      </trkpt>
      <trkpt lat="44.50152" lon="6.41905">
        <ele>1198.9447021484</ele>
        <time>2010-05-22T17:30:43Z</time>
      </trkpt>
      <trkpt lat="44.50151" lon="6.41894">
        <ele>1199.9163818359</ele>
        <time>2010-05-22T17:30:48Z</time>
      </trkpt>
      <trkpt lat="44.50164" lon="6.41887">
        <ele>1198.4418945312</ele>
        <time>2010-05-22T17:30:52Z</time>
      </trkpt>
      <trkpt lat="44.50178" lon="6.41872">
        <ele>1197.8659667969</ele>
        <time>2010-05-22T17:30:57Z</time>
      </trkpt>
      <trkpt lat="44.5018" lon="6.41847">
        <ele>1201.7961425781</ele>
        <time>2010-05-22T17:31:03Z</time>
      </trkpt>
      <trkpt lat="44.50185" lon="6.41836">
        <ele>1204.0607910156</ele>
        <time>2010-05-22T17:31:07Z</time>
      </trkpt>
      <trkpt lat="44.50208" lon="6.41834">
        <ele>1204.4353027344</ele>
        <time>2010-05-22T17:31:12Z</time>
      </trkpt>
      <trkpt lat="44.5022" lon="6.41828">
        <ele>1207.6307373047</ele>
        <time>2010-05-22T17:31:17Z</time>
      </trkpt>
      <trkpt lat="44.50214" lon="6.4182">
        <ele>1212.36328125</ele>
        <time>2010-05-22T17:31:21Z</time>
      </trkpt>
      <trkpt lat="44.50215" lon="6.4181">
        <ele>1218.1280517578</ele>
        <time>2010-05-22T17:31:27Z</time>
      </trkpt>
      <trkpt lat="44.50214" lon="6.41796">
        <ele>1225.4478759766</ele>
        <time>2010-05-22T17:31:33Z</time>
      </trkpt>
      <trkpt lat="44.50218" lon="6.41793">
        <ele>1225.8044433594</ele>
        <time>2010-05-22T17:31:38Z</time>
      </trkpt>
      <trkpt lat="44.5023" lon="6.41782">
        <ele>1228.3941650391</ele>
        <time>2010-05-22T17:31:46Z</time>
      </trkpt>
      <trkpt lat="44.50242" lon="6.41778">
        <ele>1227.6490478516</ele>
        <time>2010-05-22T17:31:53Z</time>
      </trkpt>
      <trkpt lat="44.50256" lon="6.41773">
        <ele>1228.0106201172</ele>
        <time>2010-05-22T17:31:59Z</time>
      </trkpt>
      <trkpt lat="44.50272" lon="6.41777">
        <ele>1227.6672363281</ele>
        <time>2010-05-22T17:32:06Z</time>
      </trkpt>
      <trkpt lat="44.50283" lon="6.41781">
        <ele>1227.6605224609</ele>
        <time>2010-05-22T17:32:12Z</time>
      </trkpt>
      <trkpt lat="44.50294" lon="6.41787">
        <ele>1226.9864501953</ele>
        <time>2010-05-22T17:32:17Z</time>
      </trkpt>
      <trkpt lat="44.50307" lon="6.41793">
        <ele>1226.5778808594</ele>
        <time>2010-05-22T17:32:23Z</time>
      </trkpt>
      <trkpt lat="44.50318" lon="6.41795">
        <ele>1229</ele>
        <time>2010-05-22T17:32:29Z</time>
      </trkpt>
      <trkpt lat="44.5032" lon="6.41796">
        <ele>1229.1613769531</ele>
        <time>2010-05-22T17:32:35Z</time>
      </trkpt>
      <trkpt lat="44.50322" lon="6.41796">
        <ele>1230.1037597656</ele>
        <time>2010-05-22T17:32:37Z</time>
      </trkpt>
      <trkpt lat="44.50334" lon="6.4179">
        <ele>1236.2205810547</ele>
        <time>2010-05-22T17:32:44Z</time>
      </trkpt>
      <trkpt lat="44.50336" lon="6.41788">
        <ele>1237.3020019531</ele>
        <time>2010-05-22T17:32:45Z</time>
      </trkpt>
      <trkpt lat="44.50335" lon="6.41784">
        <ele>1239.1384277344</ele>
        <time>2010-05-22T17:32:48Z</time>
      </trkpt>
      <trkpt lat="44.5033" lon="6.41781">
        <ele>1239.1022949219</ele>
        <time>2010-05-22T17:32:54Z</time>
      </trkpt>
      <trkpt lat="44.5032" lon="6.41779">
        <ele>1237.2277832031</ele>
        <time>2010-05-22T17:33:02Z</time>
      </trkpt>
      <trkpt lat="44.50312" lon="6.41771">
        <ele>1237.830078125</ele>
        <time>2010-05-22T17:33:08Z</time>
      </trkpt>
      <trkpt lat="44.50303" lon="6.41761">
        <ele>1239.4581298828</ele>
        <time>2010-05-22T17:33:16Z</time>
      </trkpt>
      <trkpt lat="44.50298" lon="6.41762">
        <ele>1238.2158203125</ele>
        <time>2010-05-22T17:33:23Z</time>
      </trkpt>
      <trkpt lat="44.50291" lon="6.4176">
        <ele>1237.3890380859</ele>
        <time>2010-05-22T17:33:28Z</time>
      </trkpt>
      <trkpt lat="44.50283" lon="6.41762">
        <ele>1235.0294189453</ele>
        <time>2010-05-22T17:33:35Z</time>
      </trkpt>
      <trkpt lat="44.50277" lon="6.41759">
        <ele>1234.5474853516</ele>
        <time>2010-05-22T17:33:42Z</time>
      </trkpt>
      <trkpt lat="44.50269" lon="6.41755">
        <ele>1235.4744873047</ele>
        <time>2010-05-22T17:33:48Z</time>
      </trkpt>
      <trkpt lat="44.50257" lon="6.41751">
        <ele>1236.2365722656</ele>
        <time>2010-05-22T17:33:55Z</time>
      </trkpt>
      <trkpt lat="44.50249" lon="6.41748">
        <ele>1237.0567626953</ele>
        <time>2010-05-22T17:34:00Z</time>
      </trkpt>
      <trkpt lat="44.50249" lon="6.41742">
        <ele>1240.4964599609</ele>
        <time>2010-05-22T17:34:06Z</time>
      </trkpt>
      <trkpt lat="44.50251" lon="6.41734">
        <ele>1244.4736328125</ele>
        <time>2010-05-22T17:34:10Z</time>
      </trkpt>
      <trkpt lat="44.50251" lon="6.41725">
        <ele>1248.6053466797</ele>
        <time>2010-05-22T17:34:14Z</time>
      </trkpt>
      <trkpt lat="44.50252" lon="6.41715">
        <ele>1254.74609375</ele>
        <time>2010-05-22T17:34:21Z</time>
      </trkpt>
      <trkpt lat="44.50256" lon="6.41714">
        <ele>1255.6213378906</ele>
        <time>2010-05-22T17:34:28Z</time>
      </trkpt>
      <trkpt lat="44.50259" lon="6.41716">
        <ele>1254.9591064453</ele>
        <time>2010-05-22T17:34:30Z</time>
      </trkpt>
      <trkpt lat="44.50266" lon="6.41719">
        <ele>1254.3914794922</ele>
        <time>2010-05-22T17:34:37Z</time>
      </trkpt>
      <trkpt lat="44.50274" lon="6.41718">
        <ele>1255.6013183594</ele>
        <time>2010-05-22T17:34:43Z</time>
      </trkpt>
      <trkpt lat="44.50285" lon="6.41713">
        <ele>1259.4927978516</ele>
        <time>2010-05-22T17:34:51Z</time>
      </trkpt>
      <trkpt lat="44.50293" lon="6.41708">
        <ele>1262.6243896484</ele>
        <time>2010-05-22T17:34:57Z</time>
      </trkpt>
      <trkpt lat="44.50301" lon="6.41709">
        <ele>1263.0933837891</ele>
        <time>2010-05-22T17:35:02Z</time>
      </trkpt>
      <trkpt lat="44.50314" lon="6.41705">
        <ele>1264.7303466797</ele>
        <time>2010-05-22T17:35:12Z</time>
      </trkpt>
      <trkpt lat="44.50325" lon="6.41702">
        <ele>1265.7945556641</ele>
        <time>2010-05-22T17:35:19Z</time>
      </trkpt>
      <trkpt lat="44.50337" lon="6.41703">
        <ele>1265.1649169922</ele>
        <time>2010-05-22T17:35:26Z</time>
      </trkpt>
      <trkpt lat="44.50348" lon="6.41703">
        <ele>1264.4226074219</ele>
        <time>2010-05-22T17:35:33Z</time>
      </trkpt>
      <trkpt lat="44.50357" lon="6.41705">
        <ele>1263.4494628906</ele>
        <time>2010-05-22T17:35:40Z</time>
      </trkpt>
      <trkpt lat="44.50366" lon="6.41709">
        <ele>1262.2381591797</ele>
        <time>2010-05-22T17:35:47Z</time>
      </trkpt>
      <trkpt lat="44.5038" lon="6.41707">
        <ele>1260.5319824219</ele>
        <time>2010-05-22T17:35:55Z</time>
      </trkpt>
      <trkpt lat="44.50388" lon="6.41698">
        <ele>1261.3913574219</ele>
        <time>2010-05-22T17:36:02Z</time>
      </trkpt>
      <trkpt lat="44.50393" lon="6.41685">
        <ele>1261.1052246094</ele>
        <time>2010-05-22T17:36:09Z</time>
      </trkpt>
      <trkpt lat="44.50395" lon="6.41681">
        <ele>1260.8991699219</ele>
        <time>2010-05-22T17:36:11Z</time>
      </trkpt>
      <trkpt lat="44.50401" lon="6.41659">
        <ele>1260.6983642578</ele>
        <time>2010-05-22T17:36:20Z</time>
      </trkpt>
      <trkpt lat="44.50406" lon="6.41643">
        <ele>1260.5512695312</ele>
        <time>2010-05-22T17:36:28Z</time>
      </trkpt>
      <trkpt lat="44.50407" lon="6.41642">
        <ele>1260.2679443359</ele>
        <time>2010-05-22T17:36:29Z</time>
      </trkpt>
      <trkpt lat="44.50409" lon="6.41633">
        <ele>1260.505859375</ele>
        <time>2010-05-22T17:36:33Z</time>
      </trkpt>
      <trkpt lat="44.50414" lon="6.4162">
        <ele>1260.0532226562</ele>
        <time>2010-05-22T17:36:40Z</time>
      </trkpt>
      <trkpt lat="44.50415" lon="6.41605">
        <ele>1260.9128417969</ele>
        <time>2010-05-22T17:36:47Z</time>
      </trkpt>
      <trkpt lat="44.50415" lon="6.41599">
        <ele>1261.6276855469</ele>
        <time>2010-05-22T17:36:50Z</time>
      </trkpt>
      <trkpt lat="44.5042" lon="6.41591">
        <ele>1260.9812011719</ele>
        <time>2010-05-22T17:36:56Z</time>
      </trkpt>
      <trkpt lat="44.50421" lon="6.41575">
        <ele>1263.0953369141</ele>
        <time>2010-05-22T17:37:03Z</time>
      </trkpt>
      <trkpt lat="44.50422" lon="6.41571">
        <ele>1263.8264160156</ele>
        <time>2010-05-22T17:37:05Z</time>
      </trkpt>
      <trkpt lat="44.50427" lon="6.41554">
        <ele>1266.4318847656</ele>
        <time>2010-05-22T17:37:12Z</time>
      </trkpt>
      <trkpt lat="44.50434" lon="6.41541">
        <ele>1267.4102783203</ele>
        <time>2010-05-22T17:37:18Z</time>
      </trkpt>
      <trkpt lat="44.50441" lon="6.41525">
        <ele>1269.0411376953</ele>
        <time>2010-05-22T17:37:25Z</time>
      </trkpt>
      <trkpt lat="44.50451" lon="6.41514">
        <ele>1269.2001953125</ele>
        <time>2010-05-22T17:37:32Z</time>
      </trkpt>
      <trkpt lat="44.50459" lon="6.41505">
        <ele>1268.9530029297</ele>
        <time>2010-05-22T17:37:39Z</time>
      </trkpt>
      <trkpt lat="44.50462" lon="6.41494">
        <ele>1269.7147216797</ele>
        <time>2010-05-22T17:37:45Z</time>
      </trkpt>
      <trkpt lat="44.50467" lon="6.4148">
        <ele>1269.2952880859</ele>
        <time>2010-05-22T17:37:52Z</time>
      </trkpt>
      <trkpt lat="44.5047" lon="6.41463">
        <ele>1269.1011962891</ele>
        <time>2010-05-22T17:38:00Z</time>
      </trkpt>
      <trkpt lat="44.50465" lon="6.41455">
        <ele>1271.9903564453</ele>
        <time>2010-05-22T17:38:06Z</time>
      </trkpt>
      <trkpt lat="44.50459" lon="6.41459">
        <ele>1274.2697753906</ele>
        <time>2010-05-22T17:38:11Z</time>
      </trkpt>
      <trkpt lat="44.50456" lon="6.41469">
        <ele>1274.1839599609</ele>
        <time>2010-05-22T17:38:16Z</time>
      </trkpt>
      <trkpt lat="44.50458" lon="6.41477">
        <ele>1272.7105712891</ele>
        <time>2010-05-22T17:38:19Z</time>
      </trkpt>
      <trkpt lat="44.50451" lon="6.41489">
        <ele>1273.3251953125</ele>
        <time>2010-05-22T17:38:26Z</time>
      </trkpt>
      <trkpt lat="44.50439" lon="6.41494">
        <ele>1275.1514892578</ele>
        <time>2010-05-22T17:38:33Z</time>
      </trkpt>
      <trkpt lat="44.50429" lon="6.41491">
        <ele>1277.8522949219</ele>
        <time>2010-05-22T17:38:40Z</time>
      </trkpt>
      <trkpt lat="44.50425" lon="6.41487">
        <ele>1279.48046875</ele>
        <time>2010-05-22T17:38:44Z</time>
      </trkpt>
      <trkpt lat="44.50412" lon="6.4148">
        <ele>1284.1923828125</ele>
        <time>2010-05-22T17:38:52Z</time>
      </trkpt>
      <trkpt lat="44.50393" lon="6.41469">
        <ele>1292.3403320312</ele>
        <time>2010-05-22T17:39:02Z</time>
      </trkpt>
      <trkpt lat="44.50378" lon="6.41463">
        <ele>1296.4600830078</ele>
        <time>2010-05-22T17:39:11Z</time>
      </trkpt>
      <trkpt lat="44.50377" lon="6.41461">
        <ele>1297.2491455078</ele>
        <time>2010-05-22T17:39:15Z</time>
      </trkpt>
      <trkpt lat="44.50375" lon="6.41455">
        <ele>1299.4787597656</ele>
        <time>2010-05-22T17:39:19Z</time>
      </trkpt>
      <trkpt lat="44.50376" lon="6.41443">
        <ele>1303.4052734375</ele>
        <time>2010-05-22T17:39:24Z</time>
      </trkpt>
      <trkpt lat="44.50384" lon="6.41429">
        <ele>1306.3795166016</ele>
        <time>2010-05-22T17:39:32Z</time>
      </trkpt>
      <trkpt lat="44.5039" lon="6.41423">
        <ele>1307.2938232422</ele>
        <time>2010-05-22T17:39:38Z</time>
      </trkpt>
      <trkpt lat="44.50392" lon="6.41421">
        <ele>1307.3977050781</ele>
        <time>2010-05-22T17:39:40Z</time>
      </trkpt>
      <trkpt lat="44.50399" lon="6.41416">
        <ele>1307.4342041016</ele>
        <time>2010-05-22T17:39:47Z</time>
      </trkpt>
      <trkpt lat="44.50406" lon="6.41413">
        <ele>1306.8111572266</ele>
        <time>2010-05-22T17:39:52Z</time>
      </trkpt>
      <trkpt lat="44.5042" lon="6.41408">
        <ele>1303.9387207031</ele>
        <time>2010-05-22T17:40:02Z</time>
      </trkpt>
      <trkpt lat="44.5043" lon="6.41401">
        <ele>1299.7243652344</ele>
        <time>2010-05-22T17:40:10Z</time>
      </trkpt>
      <trkpt lat="44.50436" lon="6.41387">
        <ele>1299.0291748047</ele>
        <time>2010-05-22T17:40:17Z</time>
      </trkpt>
      <trkpt lat="44.50441" lon="6.41382">
        <ele>1297.1751708984</ele>
        <time>2010-05-22T17:40:22Z</time>
      </trkpt>
      <trkpt lat="44.50449" lon="6.4137">
        <ele>1293.7841796875</ele>
        <time>2010-05-22T17:40:30Z</time>
      </trkpt>
      <trkpt lat="44.50454" lon="6.41356">
        <ele>1292.4025878906</ele>
        <time>2010-05-22T17:40:37Z</time>
      </trkpt>
      <trkpt lat="44.50454" lon="6.41352">
        <ele>1292.8128662109</ele>
        <time>2010-05-22T17:40:39Z</time>
      </trkpt>
      <trkpt lat="44.50453" lon="6.41338">
        <ele>1296.5533447266</ele>
        <time>2010-05-22T17:40:47Z</time>
      </trkpt>
      <trkpt lat="44.50452" lon="6.41323">
        <ele>1300.3203125</ele>
        <time>2010-05-22T17:40:54Z</time>
      </trkpt>
      <trkpt lat="44.50452" lon="6.41305">
        <ele>1304.4162597656</ele>
        <time>2010-05-22T17:41:02Z</time>
      </trkpt>
      <trkpt lat="44.50452" lon="6.41292">
        <ele>1307.5828857422</ele>
        <time>2010-05-22T17:41:08Z</time>
      </trkpt>
      <trkpt lat="44.5045" lon="6.4127">
        <ele>1312.9382324219</ele>
        <time>2010-05-22T17:41:17Z</time>
      </trkpt>
      <trkpt lat="44.50448" lon="6.41252">
        <ele>1317.0753173828</ele>
        <time>2010-05-22T17:41:25Z</time>
      </trkpt>
      <trkpt lat="44.50444" lon="6.41232">
        <ele>1319.6555175781</ele>
        <time>2010-05-22T17:41:34Z</time>
      </trkpt>
      <trkpt lat="44.50451" lon="6.41216">
        <ele>1317.1586914062</ele>
        <time>2010-05-22T17:41:41Z</time>
      </trkpt>
      <trkpt lat="44.50461" lon="6.41198">
        <ele>1312.1599121094</ele>
        <time>2010-05-22T17:41:50Z</time>
      </trkpt>
      <trkpt lat="44.50466" lon="6.41183">
        <ele>1308.5395507812</ele>
        <time>2010-05-22T17:41:57Z</time>
      </trkpt>
      <trkpt lat="44.50465" lon="6.41172">
        <ele>1308.1524658203</ele>
        <time>2010-05-22T17:42:03Z</time>
      </trkpt>
      <trkpt lat="44.50461" lon="6.41159">
        <ele>1308.8579101562</ele>
        <time>2010-05-22T17:42:09Z</time>
      </trkpt>
      <trkpt lat="44.50455" lon="6.41144">
        <ele>1311.2828369141</ele>
        <time>2010-05-22T17:42:16Z</time>
      </trkpt>
      <trkpt lat="44.50456" lon="6.41128">
        <ele>1308.8739013672</ele>
        <time>2010-05-22T17:42:22Z</time>
      </trkpt>
      <trkpt lat="44.50459" lon="6.41116">
        <ele>1305.1158447266</ele>
        <time>2010-05-22T17:42:27Z</time>
      </trkpt>
      <trkpt lat="44.50452" lon="6.41104">
        <ele>1310.9254150391</ele>
        <time>2010-05-22T17:42:31Z</time>
      </trkpt>
      <trkpt lat="44.50437" lon="6.41073">
        <ele>1319.2218017578</ele>
        <time>2010-05-22T17:42:39Z</time>
      </trkpt>
      <trkpt lat="44.50425" lon="6.41044">
        <ele>1323.1229248047</ele>
        <time>2010-05-22T17:42:45Z</time>
      </trkpt>
      <trkpt lat="44.50425" lon="6.41011">
        <ele>1322.5557861328</ele>
        <time>2010-05-22T17:42:52Z</time>
      </trkpt>
      <trkpt lat="44.5043" lon="6.40987">
        <ele>1321.2327880859</ele>
        <time>2010-05-22T17:42:58Z</time>
      </trkpt>
      <trkpt lat="44.50436" lon="6.40963">
        <ele>1318.6673583984</ele>
        <time>2010-05-22T17:43:05Z</time>
      </trkpt>
      <trkpt lat="44.5044" lon="6.40939">
        <ele>1317.6854248047</ele>
        <time>2010-05-22T17:43:11Z</time>
      </trkpt>
      <trkpt lat="44.50442" lon="6.4093">
        <ele>1316.9798583984</ele>
        <time>2010-05-22T17:43:15Z</time>
      </trkpt>
      <trkpt lat="44.50439" lon="6.40927">
        <ele>1318.3154296875</ele>
        <time>2010-05-22T17:43:30Z</time>
      </trkpt>
      <trkpt lat="44.50433" lon="6.40927">
        <ele>1321.6370849609</ele>
        <time>2010-05-22T17:43:48Z</time>
      </trkpt>
      <trkpt lat="44.50437" lon="6.40927">
        <ele>1319.7659912109</ele>
        <time>2010-05-22T17:43:54Z</time>
      </trkpt>
      <trkpt lat="44.50444" lon="6.40933">
        <ele>1315.8486328125</ele>
        <time>2010-05-22T17:43:58Z</time>
      </trkpt>
      <trkpt lat="44.50456" lon="6.4096">
        <ele>1310.1221923828</ele>
        <time>2010-05-22T17:44:03Z</time>
      </trkpt>
      <trkpt lat="44.50462" lon="6.40968">
        <ele>1307.1888427734</ele>
        <time>2010-05-22T17:44:06Z</time>
      </trkpt>
      <trkpt lat="44.50465" lon="6.40969">
        <ele>1306.2163085938</ele>
        <time>2010-05-22T17:44:07Z</time>
      </trkpt>
      <trkpt lat="44.50467" lon="6.40965">
        <ele>1305.4207763672</ele>
        <time>2010-05-22T17:44:10Z</time>
      </trkpt>
      <trkpt lat="44.50471" lon="6.40948">
        <ele>1305.1436767578</ele>
        <time>2010-05-22T17:44:15Z</time>
      </trkpt>
      <trkpt lat="44.50476" lon="6.40938">
        <ele>1303.6491699219</ele>
        <time>2010-05-22T17:44:17Z</time>
      </trkpt>
      <trkpt lat="44.50482" lon="6.4092">
        <ele>1302.6157226562</ele>
        <time>2010-05-22T17:44:22Z</time>
      </trkpt>
      <trkpt lat="44.50486" lon="6.409">
        <ele>1301.9722900391</ele>
        <time>2010-05-22T17:44:27Z</time>
      </trkpt>
      <trkpt lat="44.50494" lon="6.40882">
        <ele>1300.0123291016</ele>
        <time>2010-05-22T17:44:30Z</time>
      </trkpt>
      <trkpt lat="44.50504" lon="6.40858">
        <ele>1299.3919677734</ele>
        <time>2010-05-22T17:44:35Z</time>
      </trkpt>
      <trkpt lat="44.50502" lon="6.40839">
        <ele>1301.0673828125</ele>
        <time>2010-05-22T17:44:39Z</time>
      </trkpt>
      <trkpt lat="44.50504" lon="6.40811">
        <ele>1302.7393798828</ele>
        <time>2010-05-22T17:44:44Z</time>
      </trkpt>
      <trkpt lat="44.50503" lon="6.40786">
        <ele>1305.4637451172</ele>
        <time>2010-05-22T17:44:48Z</time>
      </trkpt>
      <trkpt lat="44.50508" lon="6.40763">
        <ele>1306.5661621094</ele>
        <time>2010-05-22T17:44:51Z</time>
      </trkpt>
      <trkpt lat="44.50516" lon="6.40736">
        <ele>1307.2322998047</ele>
        <time>2010-05-22T17:44:56Z</time>
      </trkpt>
      <trkpt lat="44.50522" lon="6.40727">
        <ele>1306.2886962891</ele>
        <time>2010-05-22T17:44:59Z</time>
      </trkpt>
      <trkpt lat="44.50534" lon="6.40712">
        <ele>1304.9331054688</ele>
        <time>2010-05-22T17:45:05Z</time>
      </trkpt>
      <trkpt lat="44.50545" lon="6.40697">
        <ele>1304.0596923828</ele>
        <time>2010-05-22T17:45:10Z</time>
      </trkpt>
      <trkpt lat="44.50554" lon="6.40676">
        <ele>1303.6510009766</ele>
        <time>2010-05-22T17:45:15Z</time>
      </trkpt>
      <trkpt lat="44.50563" lon="6.40658">
        <ele>1301.3046875</ele>
        <time>2010-05-22T17:45:20Z</time>
      </trkpt>
      <trkpt lat="44.50581" lon="6.40637">
        <ele>1294.1717529297</ele>
        <time>2010-05-22T17:45:24Z</time>
      </trkpt>
      <trkpt lat="44.50595" lon="6.40616">
        <ele>1286.974609375</ele>
        <time>2010-05-22T17:45:27Z</time>
      </trkpt>
      <trkpt lat="44.50601" lon="6.40593">
        <ele>1282.4061279297</ele>
        <time>2010-05-22T17:45:30Z</time>
      </trkpt>
      <trkpt lat="44.50604" lon="6.40556">
        <ele>1278.98828125</ele>
        <time>2010-05-22T17:45:35Z</time>
      </trkpt>
      <trkpt lat="44.506" lon="6.40542">
        <ele>1279.7974853516</ele>
        <time>2010-05-22T17:45:38Z</time>
      </trkpt>
      <trkpt lat="44.50592" lon="6.40512">
        <ele>1283.5433349609</ele>
        <time>2010-05-22T17:45:42Z</time>
      </trkpt>
      <trkpt lat="44.50593" lon="6.40481">
        <ele>1285.65234375</ele>
        <time>2010-05-22T17:45:46Z</time>
      </trkpt>
      <trkpt lat="44.50593" lon="6.40469">
        <ele>1286.3020019531</ele>
        <time>2010-05-22T17:45:48Z</time>
      </trkpt>
      <trkpt lat="44.50595" lon="6.40453">
        <ele>1286.6109619141</ele>
        <time>2010-05-22T17:45:54Z</time>
      </trkpt>
      <trkpt lat="44.50595" lon="6.40446">
        <ele>1286.8345947266</ele>
        <time>2010-05-22T17:46:25Z</time>
      </trkpt>
      <trkpt lat="44.50593" lon="6.40433">
        <ele>1288.9359130859</ele>
        <time>2010-05-22T17:46:31Z</time>
      </trkpt>
      <trkpt lat="44.50601" lon="6.40421">
        <ele>1286.9996337891</ele>
        <time>2010-05-22T17:46:35Z</time>
      </trkpt>
      <trkpt lat="44.50612" lon="6.40411">
        <ele>1283.5263671875</ele>
        <time>2010-05-22T17:46:40Z</time>
      </trkpt>
      <trkpt lat="44.50621" lon="6.40407">
        <ele>1282.0699462891</ele>
        <time>2010-05-22T17:46:43Z</time>
      </trkpt>
      <trkpt lat="44.50627" lon="6.40394">
        <ele>1282.3698730469</ele>
        <time>2010-05-22T17:46:48Z</time>
      </trkpt>
      <trkpt lat="44.50631" lon="6.4039">
        <ele>1281.9854736328</ele>
        <time>2010-05-22T17:46:50Z</time>
      </trkpt>
      <trkpt lat="44.50643" lon="6.40383">
        <ele>1279.8209228516</ele>
        <time>2010-05-22T17:46:54Z</time>
      </trkpt>
      <trkpt lat="44.5066" lon="6.4038">
        <ele>1274.9089355469</ele>
        <time>2010-05-22T17:47:00Z</time>
      </trkpt>
      <trkpt lat="44.50671" lon="6.40379">
        <ele>1272.2355957031</ele>
        <time>2010-05-22T17:47:04Z</time>
      </trkpt>
      <trkpt lat="44.50685" lon="6.40379">
        <ele>1269.7104492188</ele>
        <time>2010-05-22T17:47:09Z</time>
      </trkpt>
      <trkpt lat="44.507" lon="6.40373">
        <ele>1267.8813476562</ele>
        <time>2010-05-22T17:47:13Z</time>
      </trkpt>
      <trkpt lat="44.50712" lon="6.40363">
        <ele>1267.2443847656</ele>
        <time>2010-05-22T17:47:17Z</time>
      </trkpt>
      <trkpt lat="44.50729" lon="6.40348">
        <ele>1265.5935058594</ele>
        <time>2010-05-22T17:47:21Z</time>
      </trkpt>
      <trkpt lat="44.50743" lon="6.40335">
        <ele>1262.0643310547</ele>
        <time>2010-05-22T17:47:24Z</time>
      </trkpt>
      <trkpt lat="44.50754" lon="6.40329">
        <ele>1259.7596435547</ele>
        <time>2010-05-22T17:47:26Z</time>
      </trkpt>
      <trkpt lat="44.50766" lon="6.40321">
        <ele>1258.9420166016</ele>
        <time>2010-05-22T17:47:28Z</time>
      </trkpt>
      <trkpt lat="44.50792" lon="6.40286">
        <ele>1258.3605957031</ele>
        <time>2010-05-22T17:47:33Z</time>
      </trkpt>
      <trkpt lat="44.50802" lon="6.40274">
        <ele>1258.6345214844</ele>
        <time>2010-05-22T17:47:35Z</time>
      </trkpt>
      <trkpt lat="44.50806" lon="6.40273">
        <ele>1258.3275146484</ele>
        <time>2010-05-22T17:47:39Z</time>
      </trkpt>
      <trkpt lat="44.50808" lon="6.40272">
        <ele>1258.455078125</ele>
        <time>2010-05-22T17:47:45Z</time>
      </trkpt>
      <trkpt lat="44.50804" lon="6.40268">
        <ele>1258.8836669922</ele>
        <time>2010-05-22T17:48:18Z</time>
      </trkpt>
      <trkpt lat="44.50809" lon="6.40269">
        <ele>1258.6938476562</ele>
        <time>2010-05-22T17:48:21Z</time>
      </trkpt>
      <trkpt lat="44.50819" lon="6.40273">
        <ele>1258.4232177734</ele>
        <time>2010-05-22T17:48:27Z</time>
      </trkpt>
      <trkpt lat="44.50823" lon="6.40276">
        <ele>1258.1630859375</ele>
        <time>2010-05-22T17:48:30Z</time>
      </trkpt>
      <trkpt lat="44.50822" lon="6.40278">
        <ele>1258.0142822266</ele>
        <time>2010-05-22T17:48:36Z</time>
      </trkpt>
      <trkpt lat="44.50822" lon="6.40278">
        <ele>1257.9332275391</ele>
        <time>2010-05-22T17:48:41Z</time>
      </trkpt>
      <trkpt lat="44.50821" lon="6.4028">
        <ele>1257.6719970703</ele>
        <time>2010-05-22T17:48:44Z</time>
      </trkpt>
      <trkpt lat="44.50833" lon="6.40288">
        <ele>1256.5964355469</ele>
        <time>2010-05-22T17:48:50Z</time>
      </trkpt>
      <trkpt lat="44.50842" lon="6.40293">
        <ele>1255.3421630859</ele>
        <time>2010-05-22T17:48:53Z</time>
      </trkpt>
      <trkpt lat="44.50846" lon="6.40293">
        <ele>1255.1535644531</ele>
        <time>2010-05-22T17:48:59Z</time>
      </trkpt>
      <trkpt lat="44.50846" lon="6.40291">
        <ele>1255.3244628906</ele>
        <time>2010-05-22T17:49:01Z</time>
      </trkpt>
      <trkpt lat="44.50853" lon="6.40297">
        <ele>1254.015625</ele>
        <time>2010-05-22T17:49:05Z</time>
      </trkpt>
      <trkpt lat="44.50875" lon="6.40307">
        <ele>1249.0318603516</ele>
        <time>2010-05-22T17:49:10Z</time>
      </trkpt>
      <trkpt lat="44.50891" lon="6.40309">
        <ele>1245.8153076172</ele>
        <time>2010-05-22T17:49:13Z</time>
      </trkpt>
      <trkpt lat="44.50906" lon="6.40312">
        <ele>1242.9895019531</ele>
        <time>2010-05-22T17:49:18Z</time>
      </trkpt>
      <trkpt lat="44.50913" lon="6.40317">
        <ele>1241.0914306641</ele>
        <time>2010-05-22T17:49:20Z</time>
      </trkpt>
      <trkpt lat="44.5093" lon="6.40323">
        <ele>1236.4456787109</ele>
        <time>2010-05-22T17:49:25Z</time>
      </trkpt>
      <trkpt lat="44.50945" lon="6.40331">
        <ele>1230.6885986328</ele>
        <time>2010-05-22T17:49:29Z</time>
      </trkpt>
      <trkpt lat="44.50954" lon="6.40327">
        <ele>1228.7624511719</ele>
        <time>2010-05-22T17:49:32Z</time>
      </trkpt>
      <trkpt lat="44.50961" lon="6.40313">
        <ele>1232.6612548828</ele>
        <time>2010-05-22T17:49:37Z</time>
      </trkpt>
      <trkpt lat="44.5097" lon="6.40304">
        <ele>1234.1754150391</ele>
        <time>2010-05-22T17:49:41Z</time>
      </trkpt>
      <trkpt lat="44.50971" lon="6.40302">
        <ele>1234.6221923828</ele>
        <time>2010-05-22T17:49:42Z</time>
      </trkpt>
      <trkpt lat="44.50991" lon="6.40298">
        <ele>1227.1259765625</ele>
        <time>2010-05-22T17:49:47Z</time>
      </trkpt>
      <trkpt lat="44.5102" lon="6.40292">
        <ele>1223.251953125</ele>
        <time>2010-05-22T17:49:52Z</time>
      </trkpt>
      <trkpt lat="44.51036" lon="6.40305">
        <ele>1219.0064697266</ele>
        <time>2010-05-22T17:49:56Z</time>
      </trkpt>
      <trkpt lat="44.5107" lon="6.40337">
        <ele>1207.1494140625</ele>
        <time>2010-05-22T17:50:01Z</time>
      </trkpt>
      <trkpt lat="44.51102" lon="6.40346">
        <ele>1208.2749023438</ele>
        <time>2010-05-22T17:50:06Z</time>
      </trkpt>
      <trkpt lat="44.5114" lon="6.40362">
        <ele>1199.3294677734</ele>
        <time>2010-05-22T17:50:11Z</time>
      </trkpt>
      <trkpt lat="44.51173" lon="6.40375">
        <ele>1187.7823486328</ele>
        <time>2010-05-22T17:50:16Z</time>
      </trkpt>
      <trkpt lat="44.51186" lon="6.40378">
        <ele>1185.0010986328</ele>
        <time>2010-05-22T17:50:18Z</time>
      </trkpt>
      <trkpt lat="44.51196" lon="6.40375">
        <ele>1185.7331542969</ele>
        <time>2010-05-22T17:50:20Z</time>
      </trkpt>
      <trkpt lat="44.51215" lon="6.40385">
        <ele>1181.4544677734</ele>
        <time>2010-05-22T17:50:25Z</time>
      </trkpt>
      <trkpt lat="44.51214" lon="6.40397">
        <ele>1176.2879638672</ele>
        <time>2010-05-22T17:50:27Z</time>
      </trkpt>
      <trkpt lat="44.51218" lon="6.40416">
        <ele>1168.9237060547</ele>
        <time>2010-05-22T17:50:30Z</time>
      </trkpt>
      <trkpt lat="44.51231" lon="6.40433">
        <ele>1164.5969238281</ele>
        <time>2010-05-22T17:50:34Z</time>
      </trkpt>
      <trkpt lat="44.51253" lon="6.40459">
        <ele>1163.2578125</ele>
        <time>2010-05-22T17:50:39Z</time>
      </trkpt>
      <trkpt lat="44.51272" lon="6.40487">
        <ele>1158.3604736328</ele>
        <time>2010-05-22T17:50:43Z</time>
      </trkpt>
      <trkpt lat="44.51278" lon="6.40493">
        <ele>1157.8743896484</ele>
        <time>2010-05-22T17:50:44Z</time>
      </trkpt>
      <trkpt lat="44.51289" lon="6.40503">
        <ele>1156.8537597656</ele>
        <time>2010-05-22T17:50:46Z</time>
      </trkpt>
      <trkpt lat="44.51317" lon="6.40515">
        <ele>1157.7145996094</ele>
        <time>2010-05-22T17:50:50Z</time>
      </trkpt>
      <trkpt lat="44.51334" lon="6.4052">
        <ele>1156.4805908203</ele>
        <time>2010-05-22T17:50:55Z</time>
      </trkpt>
      <trkpt lat="44.51363" lon="6.40533">
        <ele>1146.5069580078</ele>
        <time>2010-05-22T17:51:01Z</time>
      </trkpt>
      <trkpt lat="44.51382" lon="6.40535">
        <ele>1143.4598388672</ele>
        <time>2010-05-22T17:51:04Z</time>
      </trkpt>
      <trkpt lat="44.51416" lon="6.40533">
        <ele>1131.5935058594</ele>
        <time>2010-05-22T17:51:09Z</time>
      </trkpt>
      <trkpt lat="44.51443" lon="6.40509">
        <ele>1122.5794677734</ele>
        <time>2010-05-22T17:51:14Z</time>
      </trkpt>
      <trkpt lat="44.51463" lon="6.40492">
        <ele>1113.3464355469</ele>
        <time>2010-05-22T17:51:17Z</time>
      </trkpt>
      <trkpt lat="44.51487" lon="6.40469">
        <ele>1102.6312255859</ele>
        <time>2010-05-22T17:51:21Z</time>
      </trkpt>
      <trkpt lat="44.51498" lon="6.40456">
        <ele>1098.0942382812</ele>
        <time>2010-05-22T17:51:23Z</time>
      </trkpt>
      <trkpt lat="44.51508" lon="6.40435">
        <ele>1097.9815673828</ele>
        <time>2010-05-22T17:51:26Z</time>
      </trkpt>
      <trkpt lat="44.51515" lon="6.40421">
        <ele>1098.5872802734</ele>
        <time>2010-05-22T17:51:28Z</time>
      </trkpt>
      <trkpt lat="44.51531" lon="6.40403">
        <ele>1095.0240478516</ele>
        <time>2010-05-22T17:51:31Z</time>
      </trkpt>
      <trkpt lat="44.51555" lon="6.40377">
        <ele>1087.4261474609</ele>
        <time>2010-05-22T17:51:35Z</time>
      </trkpt>
      <trkpt lat="44.51567" lon="6.40362">
        <ele>1082.720703125</ele>
        <time>2010-05-22T17:51:38Z</time>
      </trkpt>
      <trkpt lat="44.51573" lon="6.40349">
        <ele>1080.5939941406</ele>
        <time>2010-05-22T17:51:40Z</time>
      </trkpt>
      <trkpt lat="44.51588" lon="6.40322">
        <ele>1076.7677001953</ele>
        <time>2010-05-22T17:51:44Z</time>
      </trkpt>
      <trkpt lat="44.51605" lon="6.40281">
        <ele>1075.0357666016</ele>
        <time>2010-05-22T17:51:49Z</time>
      </trkpt>
      <trkpt lat="44.51608" lon="6.40272">
        <ele>1074.5441894531</ele>
        <time>2010-05-22T17:51:50Z</time>
      </trkpt>
      <trkpt lat="44.51624" lon="6.40237">
        <ele>1072.8842773438</ele>
        <time>2010-05-22T17:51:54Z</time>
      </trkpt>
      <trkpt lat="44.51639" lon="6.40212">
        <ele>1071.6828613281</ele>
        <time>2010-05-22T17:51:57Z</time>
      </trkpt>
      <trkpt lat="44.51665" lon="6.40168">
        <ele>1065.5406494141</ele>
        <time>2010-05-22T17:52:03Z</time>
      </trkpt>
      <trkpt lat="44.51677" lon="6.40153">
        <ele>1061.5327148438</ele>
        <time>2010-05-22T17:52:06Z</time>
      </trkpt>
      <trkpt lat="44.51682" lon="6.40136">
        <ele>1058.8430175781</ele>
        <time>2010-05-22T17:52:11Z</time>
      </trkpt>
      <trkpt lat="44.51682" lon="6.40133">
        <ele>1058.7492675781</ele>
        <time>2010-05-22T17:52:12Z</time>
      </trkpt>
      <trkpt lat="44.51681" lon="6.40123">
        <ele>1058.2922363281</ele>
        <time>2010-05-22T17:52:17Z</time>
      </trkpt>
      <trkpt lat="44.5168" lon="6.40121">
        <ele>1058.2745361328</ele>
        <time>2010-05-22T17:52:31Z</time>
      </trkpt>
      <trkpt lat="44.51683" lon="6.40118">
        <ele>1057.0269775391</ele>
        <time>2010-05-22T17:52:36Z</time>
      </trkpt>
      <trkpt lat="44.51689" lon="6.40124">
        <ele>1055.4763183594</ele>
        <time>2010-05-22T17:52:40Z</time>
      </trkpt>
      <trkpt lat="44.51697" lon="6.40133">
        <ele>1053.3819580078</ele>
        <time>2010-05-22T17:52:44Z</time>
      </trkpt>
      <trkpt lat="44.5169" lon="6.4013">
        <ele>1055.5083007812</ele>
        <time>2010-05-22T17:53:07Z</time>
      </trkpt>
      <trkpt lat="44.51678" lon="6.4012">
        <ele>1058.9210205078</ele>
        <time>2010-05-22T17:53:18Z</time>
      </trkpt>
      <trkpt lat="44.51673" lon="6.40115">
        <ele>1060.7979736328</ele>
        <time>2010-05-22T17:53:29Z</time>
      </trkpt>
      <trkpt lat="44.51666" lon="6.40106">
        <ele>1063.3447265625</ele>
        <time>2010-05-22T17:53:40Z</time>
      </trkpt>
      <trkpt lat="44.51677" lon="6.40094">
        <ele>1059.0908203125</ele>
        <time>2010-05-22T17:53:45Z</time>
      </trkpt>
      <trkpt lat="44.51684" lon="6.40089">
        <ele>1056.0229492188</ele>
        <time>2010-05-22T17:53:47Z</time>
      </trkpt>
      <trkpt lat="44.51696" lon="6.40067">
        <ele>1050.705078125</ele>
        <time>2010-05-22T17:53:52Z</time>
      </trkpt>
      <trkpt lat="44.51703" lon="6.40053">
        <ele>1047.9747314453</ele>
        <time>2010-05-22T17:53:57Z</time>
      </trkpt>
      <trkpt lat="44.51708" lon="6.40038">
        <ele>1046.4996337891</ele>
        <time>2010-05-22T17:54:02Z</time>
      </trkpt>
      <trkpt lat="44.51717" lon="6.40026">
        <ele>1043.2386474609</ele>
        <time>2010-05-22T17:54:09Z</time>
      </trkpt>
      <trkpt lat="44.5173" lon="6.40026">
        <ele>1038.9099121094</ele>
        <time>2010-05-22T17:54:13Z</time>
      </trkpt>
      <trkpt lat="44.51749" lon="6.40038">
        <ele>1032.5192871094</ele>
        <time>2010-05-22T17:54:17Z</time>
      </trkpt>
      <trkpt lat="44.51756" lon="6.40046">
        <ele>1029.5728759766</ele>
        <time>2010-05-22T17:54:19Z</time>
      </trkpt>
      <trkpt lat="44.51771" lon="6.40049">
        <ele>1024.2069091797</ele>
        <time>2010-05-22T17:54:23Z</time>
      </trkpt>
      <trkpt lat="44.51788" lon="6.40054">
        <ele>1019.7306518555</ele>
        <time>2010-05-22T17:54:27Z</time>
      </trkpt>
      <trkpt lat="44.51803" lon="6.40061">
        <ele>1017.0114135742</ele>
        <time>2010-05-22T17:54:30Z</time>
      </trkpt>
      <trkpt lat="44.51812" lon="6.4007">
        <ele>1014.130859375</ele>
        <time>2010-05-22T17:54:32Z</time>
      </trkpt>
      <trkpt lat="44.5182" lon="6.40076">
        <ele>1011.2767944336</ele>
        <time>2010-05-22T17:54:34Z</time>
      </trkpt>
      <trkpt lat="44.51832" lon="6.401">
        <ele>1007.8858642578</ele>
        <time>2010-05-22T17:54:38Z</time>
      </trkpt>
      <trkpt lat="44.51834" lon="6.40123">
        <ele>1008.8874511719</ele>
        <time>2010-05-22T17:54:42Z</time>
      </trkpt>
      <trkpt lat="44.51831" lon="6.40145">
        <ele>1011.3189086914</ele>
        <time>2010-05-22T17:54:46Z</time>
      </trkpt>
      <trkpt lat="44.5183" lon="6.40165">
        <ele>1009.8076171875</ele>
        <time>2010-05-22T17:54:52Z</time>
      </trkpt>
      <trkpt lat="44.51843" lon="6.40177">
        <ele>1004.3434448242</ele>
        <time>2010-05-22T17:54:57Z</time>
      </trkpt>
      <trkpt lat="44.51848" lon="6.40181">
        <ele>1002.7608032227</ele>
        <time>2010-05-22T17:54:59Z</time>
      </trkpt>
      <trkpt lat="44.51867" lon="6.40185">
        <ele>997.53503417969</ele>
        <time>2010-05-22T17:55:05Z</time>
      </trkpt>
      <trkpt lat="44.51884" lon="6.40178">
        <ele>991.88696289062</ele>
        <time>2010-05-22T17:55:10Z</time>
      </trkpt>
      <trkpt lat="44.51898" lon="6.40182">
        <ele>988.06481933594</ele>
        <time>2010-05-22T17:55:14Z</time>
      </trkpt>
      <trkpt lat="44.51906" lon="6.40194">
        <ele>985.00775146484</ele>
        <time>2010-05-22T17:55:18Z</time>
      </trkpt>
      <trkpt lat="44.51924" lon="6.40211">
        <ele>980.81719970703</ele>
        <time>2010-05-22T17:55:24Z</time>
      </trkpt>
      <trkpt lat="44.51942" lon="6.40226">
        <ele>976.86004638672</ele>
        <time>2010-05-22T17:55:29Z</time>
      </trkpt>
      <trkpt lat="44.51945" lon="6.40231">
        <ele>975.46990966797</ele>
        <time>2010-05-22T17:55:31Z</time>
      </trkpt>
      <trkpt lat="44.51939" lon="6.40252">
        <ele>973.2490234375</ele>
        <time>2010-05-22T17:55:35Z</time>
      </trkpt>
      <trkpt lat="44.51931" lon="6.40274">
        <ele>970.60089111328</ele>
        <time>2010-05-22T17:55:39Z</time>
      </trkpt>
      <trkpt lat="44.5193" lon="6.40278">
        <ele>970.017578125</ele>
        <time>2010-05-22T17:55:40Z</time>
      </trkpt>
      <trkpt lat="44.51941" lon="6.40292">
        <ele>967.57720947266</ele>
        <time>2010-05-22T17:55:45Z</time>
      </trkpt>
      <trkpt lat="44.5195" lon="6.40304">
        <ele>964.69030761719</ele>
        <time>2010-05-22T17:55:49Z</time>
      </trkpt>
      <trkpt lat="44.5195" lon="6.40316">
        <ele>962.32727050781</ele>
        <time>2010-05-22T17:55:53Z</time>
      </trkpt>
      <trkpt lat="44.51961" lon="6.40324">
        <ele>957.93786621094</ele>
        <time>2010-05-22T17:55:57Z</time>
      </trkpt>
      <trkpt lat="44.51971" lon="6.40335">
        <ele>953.10266113281</ele>
        <time>2010-05-22T17:56:02Z</time>
      </trkpt>
      <trkpt lat="44.51987" lon="6.40339">
        <ele>949.56628417969</ele>
        <time>2010-05-22T17:56:06Z</time>
      </trkpt>
      <trkpt lat="44.51997" lon="6.40338">
        <ele>948.12902832031</ele>
        <time>2010-05-22T17:56:08Z</time>
      </trkpt>
      <trkpt lat="44.52007" lon="6.40335">
        <ele>944.31695556641</ele>
        <time>2010-05-22T17:56:10Z</time>
      </trkpt>
      <trkpt lat="44.52023" lon="6.40322">
        <ele>937.45568847656</ele>
        <time>2010-05-22T17:56:15Z</time>
      </trkpt>
      <trkpt lat="44.52035" lon="6.40318">
        <ele>934.74328613281</ele>
        <time>2010-05-22T17:56:18Z</time>
      </trkpt>
      <trkpt lat="44.52047" lon="6.40312">
        <ele>934.03912353516</ele>
        <time>2010-05-22T17:56:21Z</time>
      </trkpt>
      <trkpt lat="44.52057" lon="6.4031">
        <ele>933.31237792969</ele>
        <time>2010-05-22T17:56:23Z</time>
      </trkpt>
      <trkpt lat="44.5207" lon="6.40308">
        <ele>932.06958007812</ele>
        <time>2010-05-22T17:56:28Z</time>
      </trkpt>
      <trkpt lat="44.52071" lon="6.40308">
        <ele>932.00775146484</ele>
        <time>2010-05-22T17:56:34Z</time>
      </trkpt>
      <trkpt lat="44.52076" lon="6.40307">
        <ele>931.50646972656</ele>
        <time>2010-05-22T17:57:34Z</time>
      </trkpt>
      <trkpt lat="44.52082" lon="6.40303">
        <ele>931.22869873047</ele>
        <time>2010-05-22T17:57:39Z</time>
      </trkpt>
      <trkpt lat="44.52087" lon="6.40303">
        <ele>930.49090576172</ele>
        <time>2010-05-22T17:57:48Z</time>
      </trkpt>
      <trkpt lat="44.52094" lon="6.40302">
        <ele>929.67553710938</ele>
        <time>2010-05-22T17:57:52Z</time>
      </trkpt>
      <trkpt lat="44.52106" lon="6.40311">
        <ele>926.97924804688</ele>
        <time>2010-05-22T17:57:57Z</time>
      </trkpt>
      <trkpt lat="44.52127" lon="6.40324">
        <ele>923.50848388672</ele>
        <time>2010-05-22T17:58:01Z</time>
      </trkpt>
      <trkpt lat="44.52135" lon="6.40327">
        <ele>922.87701416016</ele>
        <time>2010-05-22T17:58:02Z</time>
      </trkpt>
      <trkpt lat="44.52162" lon="6.40337">
        <ele>920.79797363281</ele>
        <time>2010-05-22T17:58:07Z</time>
      </trkpt>
      <trkpt lat="44.5218" lon="6.40329">
        <ele>918.77386474609</ele>
        <time>2010-05-22T17:58:10Z</time>
      </trkpt>
      <trkpt lat="44.5219" lon="6.4032">
        <ele>918.22534179688</ele>
        <time>2010-05-22T17:58:12Z</time>
      </trkpt>
      <trkpt lat="44.52201" lon="6.40316">
        <ele>913.77038574219</ele>
        <time>2010-05-22T17:58:16Z</time>
      </trkpt>
      <trkpt lat="44.52201" lon="6.40316">
        <ele>913.74426269531</ele>
        <time>2010-05-22T17:58:23Z</time>
      </trkpt>
      <trkpt lat="44.52204" lon="6.40322">
        <ele>911.12866210938</ele>
        <time>2010-05-22T17:58:54Z</time>
      </trkpt>
      <trkpt lat="44.52205" lon="6.40319">
        <ele>910.68646240234</ele>
        <time>2010-05-22T17:59:02Z</time>
      </trkpt>
      <trkpt lat="44.52201" lon="6.40318">
        <ele>913.25891113281</ele>
        <time>2010-05-22T17:59:06Z</time>
      </trkpt>
      <trkpt lat="44.522" lon="6.40305">
        <ele>916.31726074219</ele>
        <time>2010-05-22T17:59:11Z</time>
      </trkpt>
      <trkpt lat="44.52201" lon="6.40301">
        <ele>915.38116455078</ele>
        <time>2010-05-22T17:59:13Z</time>
      </trkpt>
      <trkpt lat="44.52203" lon="6.40287">
        <ele>912.93591308594</ele>
        <time>2010-05-22T17:59:19Z</time>
      </trkpt>
      <trkpt lat="44.52201" lon="6.40268">
        <ele>910.75378417969</ele>
        <time>2010-05-22T17:59:24Z</time>
      </trkpt>
      <trkpt lat="44.52196" lon="6.40246">
        <ele>907.6279296875</ele>
        <time>2010-05-22T17:59:29Z</time>
      </trkpt>
      <trkpt lat="44.52193" lon="6.40238">
        <ele>906.40826416016</ele>
        <time>2010-05-22T17:59:33Z</time>
      </trkpt>
      <trkpt lat="44.52189" lon="6.4023">
        <ele>905.82550048828</ele>
        <time>2010-05-22T17:59:39Z</time>
      </trkpt>
      <trkpt lat="44.52188" lon="6.40226">
        <ele>905.15637207031</ele>
        <time>2010-05-22T17:59:42Z</time>
      </trkpt>
      <trkpt lat="44.52184" lon="6.40219">
        <ele>904.05987548828</ele>
        <time>2010-05-22T17:59:47Z</time>
      </trkpt>
      <trkpt lat="44.52177" lon="6.40207">
        <ele>902.8427734375</ele>
        <time>2010-05-22T17:59:54Z</time>
      </trkpt>
      <trkpt lat="44.52171" lon="6.40197">
        <ele>901.28753662109</ele>
        <time>2010-05-22T18:00:02Z</time>
      </trkpt>
      <trkpt lat="44.52165" lon="6.40192">
        <ele>902.13433837891</ele>
        <time>2010-05-22T18:00:09Z</time>
      </trkpt>
      <trkpt lat="44.52155" lon="6.40187">
        <ele>906.49426269531</ele>
        <time>2010-05-22T18:00:16Z</time>
      </trkpt>
      <trkpt lat="44.52137" lon="6.40177">
        <ele>915.33264160156</ele>
        <time>2010-05-22T18:00:22Z</time>
      </trkpt>
      <trkpt lat="44.52123" lon="6.40171">
        <ele>916.05584716797</ele>
        <time>2010-05-22T18:00:27Z</time>
      </trkpt>
      <trkpt lat="44.52108" lon="6.40151">
        <ele>916.62982177734</ele>
        <time>2010-05-22T18:00:31Z</time>
      </trkpt>
      <trkpt lat="44.52105" lon="6.40139">
        <ele>916.49591064453</ele>
        <time>2010-05-22T18:00:33Z</time>
      </trkpt>
      <trkpt lat="44.52115" lon="6.40119">
        <ele>913.04187011719</ele>
        <time>2010-05-22T18:00:37Z</time>
      </trkpt>
      <trkpt lat="44.52127" lon="6.40092">
        <ele>908.98455810547</ele>
        <time>2010-05-22T18:00:41Z</time>
      </trkpt>
      <trkpt lat="44.52125" lon="6.40069">
        <ele>907.15155029297</ele>
        <time>2010-05-22T18:00:45Z</time>
      </trkpt>
      <trkpt lat="44.5212" lon="6.40049">
        <ele>906.57525634766</ele>
        <time>2010-05-22T18:00:48Z</time>
      </trkpt>
      <trkpt lat="44.52118" lon="6.40029">
        <ele>905.62084960938</ele>
        <time>2010-05-22T18:00:51Z</time>
      </trkpt>
      <trkpt lat="44.52118" lon="6.39991">
        <ele>903.00262451172</ele>
        <time>2010-05-22T18:00:57Z</time>
      </trkpt>
      <trkpt lat="44.52118" lon="6.39979">
        <ele>901.95416259766</ele>
        <time>2010-05-22T18:00:59Z</time>
      </trkpt>
      <trkpt lat="44.52109" lon="6.39949">
        <ele>900.88452148438</ele>
        <time>2010-05-22T18:01:04Z</time>
      </trkpt>
      <trkpt lat="44.52099" lon="6.39911">
        <ele>895.84484863281</ele>
        <time>2010-05-22T18:01:10Z</time>
      </trkpt>
      <trkpt lat="44.52099" lon="6.39892">
        <ele>890.43353271484</ele>
        <time>2010-05-22T18:01:13Z</time>
      </trkpt>
      <trkpt lat="44.52094" lon="6.39877">
        <ele>886.64758300781</ele>
        <time>2010-05-22T18:01:17Z</time>
      </trkpt>
      <trkpt lat="44.52092" lon="6.39875">
        <ele>886.66394042969</ele>
        <time>2010-05-22T18:01:18Z</time>
      </trkpt>
      <trkpt lat="44.52084" lon="6.39871">
        <ele>888.61187744141</ele>
        <time>2010-05-22T18:01:26Z</time>
      </trkpt>
      <trkpt lat="44.52077" lon="6.39867">
        <ele>889.30688476562</ele>
        <time>2010-05-22T18:01:30Z</time>
      </trkpt>
      <trkpt lat="44.52076" lon="6.39865">
        <ele>888.69647216797</ele>
        <time>2010-05-22T18:01:34Z</time>
      </trkpt>
      <trkpt lat="44.52069" lon="6.39857">
        <ele>887.75372314453</ele>
        <time>2010-05-22T18:01:39Z</time>
      </trkpt>
      <trkpt lat="44.52068" lon="6.39856">
        <ele>887.05334472656</ele>
        <time>2010-05-22T18:01:40Z</time>
      </trkpt>
      <trkpt lat="44.52052" lon="6.39849">
        <ele>891.00250244141</ele>
        <time>2010-05-22T18:01:45Z</time>
      </trkpt>
      <trkpt lat="44.52044" lon="6.39846">
        <ele>894.17797851562</ele>
        <time>2010-05-22T18:01:46Z</time>
      </trkpt>
      <trkpt lat="44.52028" lon="6.39844">
        <ele>903.67956542969</ele>
        <time>2010-05-22T18:01:49Z</time>
      </trkpt>
      <trkpt lat="44.52015" lon="6.39847">
        <ele>912.33813476562</ele>
        <time>2010-05-22T18:01:52Z</time>
      </trkpt>
      <trkpt lat="44.52011" lon="6.39853">
        <ele>914.87603759766</ele>
        <time>2010-05-22T18:01:54Z</time>
      </trkpt>
      <trkpt lat="44.52008" lon="6.3986">
        <ele>916.51049804688</ele>
        <time>2010-05-22T18:01:58Z</time>
      </trkpt>
      <trkpt lat="44.51999" lon="6.39849">
        <ele>922.04742431641</ele>
        <time>2010-05-22T18:02:03Z</time>
      </trkpt>
      <trkpt lat="44.51992" lon="6.39838">
        <ele>924.67572021484</ele>
        <time>2010-05-22T18:02:08Z</time>
      </trkpt>
      <trkpt lat="44.5199" lon="6.39825">
        <ele>925.59930419922</ele>
        <time>2010-05-22T18:02:14Z</time>
      </trkpt>
      <trkpt lat="44.5199" lon="6.39816">
        <ele>925.58001708984</ele>
        <time>2010-05-22T18:02:18Z</time>
      </trkpt>
      <trkpt lat="44.5199" lon="6.39803">
        <ele>925.44226074219</ele>
        <time>2010-05-22T18:02:23Z</time>
      </trkpt>
      <trkpt lat="44.51992" lon="6.39794">
        <ele>923.65057373047</ele>
        <time>2010-05-22T18:02:28Z</time>
      </trkpt>
      <trkpt lat="44.51997" lon="6.39774">
        <ele>920.19891357422</ele>
        <time>2010-05-22T18:02:35Z</time>
      </trkpt>
      <trkpt lat="44.51999" lon="6.39761">
        <ele>916.71136474609</ele>
        <time>2010-05-22T18:02:40Z</time>
      </trkpt>
      <trkpt lat="44.51998" lon="6.39751">
        <ele>914.68725585938</ele>
        <time>2010-05-22T18:02:46Z</time>
      </trkpt>
      <trkpt lat="44.51995" lon="6.39746">
        <ele>913.33514404297</ele>
        <time>2010-05-22T18:02:48Z</time>
      </trkpt>
      <trkpt lat="44.51997" lon="6.39741">
        <ele>910.77874755859</ele>
        <time>2010-05-22T18:02:53Z</time>
      </trkpt>
      <trkpt lat="44.5199" lon="6.39729">
        <ele>909.572265625</ele>
        <time>2010-05-22T18:02:56Z</time>
      </trkpt>
      <trkpt lat="44.51982" lon="6.39718">
        <ele>911.12567138672</ele>
        <time>2010-05-22T18:02:59Z</time>
      </trkpt>
      <trkpt lat="44.51978" lon="6.39715">
        <ele>913.36279296875</ele>
        <time>2010-05-22T18:03:02Z</time>
      </trkpt>
      <trkpt lat="44.5197" lon="6.3971">
        <ele>916.96600341797</ele>
        <time>2010-05-22T18:03:06Z</time>
      </trkpt>
      <trkpt lat="44.51961" lon="6.39702">
        <ele>920.11151123047</ele>
        <time>2010-05-22T18:03:10Z</time>
      </trkpt>
      <trkpt lat="44.51949" lon="6.39687">
        <ele>923.11560058594</ele>
        <time>2010-05-22T18:03:15Z</time>
      </trkpt>
      <trkpt lat="44.51945" lon="6.39682">
        <ele>923.98187255859</ele>
        <time>2010-05-22T18:03:17Z</time>
      </trkpt>
      <trkpt lat="44.51938" lon="6.39672">
        <ele>926.89910888672</ele>
        <time>2010-05-22T18:03:20Z</time>
      </trkpt>
      <trkpt lat="44.51937" lon="6.39657">
        <ele>925.62078857422</ele>
        <time>2010-05-22T18:03:27Z</time>
      </trkpt>
      <trkpt lat="44.51938" lon="6.39651">
        <ele>924.43005371094</ele>
        <time>2010-05-22T18:03:30Z</time>
      </trkpt>
      <trkpt lat="44.51937" lon="6.39642">
        <ele>923.61029052734</ele>
        <time>2010-05-22T18:03:34Z</time>
      </trkpt>
      <trkpt lat="44.51931" lon="6.39624">
        <ele>922.87841796875</ele>
        <time>2010-05-22T18:03:39Z</time>
      </trkpt>
      <trkpt lat="44.51926" lon="6.39609">
        <ele>921.01049804688</ele>
        <time>2010-05-22T18:03:46Z</time>
      </trkpt>
      <trkpt lat="44.51925" lon="6.39605">
        <ele>920.88684082031</ele>
        <time>2010-05-22T18:03:48Z</time>
      </trkpt>
      <trkpt lat="44.51921" lon="6.39597">
        <ele>920.6328125</ele>
        <time>2010-05-22T18:03:53Z</time>
      </trkpt>
      <trkpt lat="44.51922" lon="6.39596">
        <ele>920.28948974609</ele>
        <time>2010-05-22T18:03:54Z</time>
      </trkpt>
      <trkpt lat="44.51918" lon="6.3958">
        <ele>919.12133789062</ele>
        <time>2010-05-22T18:03:59Z</time>
      </trkpt>
      <trkpt lat="44.51907" lon="6.39559">
        <ele>922.44653320312</ele>
        <time>2010-05-22T18:04:03Z</time>
      </trkpt>
      <trkpt lat="44.51907" lon="6.39544">
        <ele>920.22607421875</ele>
        <time>2010-05-22T18:04:06Z</time>
      </trkpt>
      <trkpt lat="44.51905" lon="6.39534">
        <ele>919.97332763672</ele>
        <time>2010-05-22T18:04:08Z</time>
      </trkpt>
      <trkpt lat="44.51901" lon="6.39529">
        <ele>921.13104248047</ele>
        <time>2010-05-22T18:04:13Z</time>
      </trkpt>
      <trkpt lat="44.51884" lon="6.39504">
        <ele>922.76239013672</ele>
        <time>2010-05-22T18:05:28Z</time>
      </trkpt>
      <trkpt lat="44.51895" lon="6.39501">
        <ele>917.88220214844</ele>
        <time>2010-05-22T18:05:44Z</time>
      </trkpt>
      <trkpt lat="44.51879" lon="6.39492">
        <ele>923.43280029297</ele>
        <time>2010-05-22T18:06:16Z</time>
      </trkpt>
      <trkpt lat="44.51874" lon="6.3949">
        <ele>925.32434082031</ele>
        <time>2010-05-22T18:06:23Z</time>
      </trkpt>
      <trkpt lat="44.51868" lon="6.39488">
        <ele>927.55834960938</ele>
        <time>2010-05-22T18:06:29Z</time>
      </trkpt>
      <trkpt lat="44.5189" lon="6.39503">
        <ele>920.31158447266</ele>
        <time>2010-05-22T18:06:52Z</time>
      </trkpt>
      <trkpt lat="44.51902" lon="6.39505">
        <ele>915.58569335938</ele>
        <time>2010-05-22T18:06:57Z</time>
      </trkpt>
      <trkpt lat="44.51915" lon="6.39506">
        <ele>910.71850585938</ele>
        <time>2010-05-22T18:07:01Z</time>
      </trkpt>
      <trkpt lat="44.51921" lon="6.39518">
        <ele>910.58569335938</ele>
        <time>2010-05-22T18:07:04Z</time>
      </trkpt>
      <trkpt lat="44.51939" lon="6.39539">
        <ele>908.51129150391</ele>
        <time>2010-05-22T18:07:09Z</time>
      </trkpt>
      <trkpt lat="44.51966" lon="6.39567">
        <ele>905.34124755859</ele>
        <time>2010-05-22T18:07:14Z</time>
      </trkpt>
      <trkpt lat="44.51973" lon="6.39575">
        <ele>903.82238769531</ele>
        <time>2010-05-22T18:07:16Z</time>
      </trkpt>
      <trkpt lat="44.51982" lon="6.39581">
        <ele>897.10083007812</ele>
        <time>2010-05-22T18:07:19Z</time>
      </trkpt>
      <trkpt lat="44.51984" lon="6.39581">
        <ele>895.94354248047</ele>
        <time>2010-05-22T18:07:21Z</time>
      </trkpt>
      <trkpt lat="44.5199" lon="6.39565">
        <ele>890.58251953125</ele>
        <time>2010-05-22T18:07:27Z</time>
      </trkpt>
      <trkpt lat="44.5201" lon="6.3957">
        <ele>882.31127929688</ele>
        <time>2010-05-22T18:07:33Z</time>
      </trkpt>
      <trkpt lat="44.52013" lon="6.39572">
        <ele>881.95452880859</ele>
        <time>2010-05-22T18:07:34Z</time>
      </trkpt>
      <trkpt lat="44.52029" lon="6.39578">
        <ele>879.76300048828</ele>
        <time>2010-05-22T18:07:39Z</time>
      </trkpt>
      <trkpt lat="44.52041" lon="6.39585">
        <ele>877.04058837891</ele>
        <time>2010-05-22T18:07:42Z</time>
      </trkpt>
      <trkpt lat="44.52058" lon="6.39577">
        <ele>874.25347900391</ele>
        <time>2010-05-22T18:07:48Z</time>
      </trkpt>
      <trkpt lat="44.52068" lon="6.39569">
        <ele>872.55749511719</ele>
        <time>2010-05-22T18:07:52Z</time>
      </trkpt>
      <trkpt lat="44.5208" lon="6.39564">
        <ele>869.87951660156</ele>
        <time>2010-05-22T18:07:56Z</time>
      </trkpt>
      <trkpt lat="44.52094" lon="6.39559">
        <ele>865.62823486328</ele>
        <time>2010-05-22T18:08:01Z</time>
      </trkpt>
      <trkpt lat="44.52116" lon="6.39556">
        <ele>856.73651123047</ele>
        <time>2010-05-22T18:08:06Z</time>
      </trkpt>
      <trkpt lat="44.52129" lon="6.39546">
        <ele>845.65087890625</ele>
        <time>2010-05-22T18:08:10Z</time>
      </trkpt>
      <trkpt lat="44.52136" lon="6.39534">
        <ele>839.03454589844</ele>
        <time>2010-05-22T18:08:12Z</time>
      </trkpt>
      <trkpt lat="44.52142" lon="6.39521">
        <ele>833.20574951172</ele>
        <time>2010-05-22T18:08:14Z</time>
      </trkpt>
      <trkpt lat="44.5216" lon="6.39498">
        <ele>821.51965332031</ele>
        <time>2010-05-22T18:08:18Z</time>
      </trkpt>
      <trkpt lat="44.52184" lon="6.39468">
        <ele>807.06365966797</ele>
        <time>2010-05-22T18:08:24Z</time>
      </trkpt>
      <trkpt lat="44.52192" lon="6.39465">
        <ele>804.96484375</ele>
        <time>2010-05-22T18:08:27Z</time>
      </trkpt>
      <trkpt lat="44.52205" lon="6.39465">
        <ele>803.39569091797</ele>
        <time>2010-05-22T18:08:33Z</time>
      </trkpt>
      <trkpt lat="44.52221" lon="6.39477">
        <ele>805.98956298828</ele>
        <time>2010-05-22T18:08:38Z</time>
      </trkpt>
      <trkpt lat="44.52229" lon="6.39491">
        <ele>808.82464599609</ele>
        <time>2010-05-22T18:08:42Z</time>
      </trkpt>
      <trkpt lat="44.52246" lon="6.39509">
        <ele>805.41717529297</ele>
        <time>2010-05-22T18:08:47Z</time>
      </trkpt>
      <trkpt lat="44.52267" lon="6.39531">
        <ele>803.29156494141</ele>
        <time>2010-05-22T18:08:53Z</time>
      </trkpt>
      <trkpt lat="44.52271" lon="6.39535">
        <ele>802.66259765625</ele>
        <time>2010-05-22T18:08:54Z</time>
      </trkpt>
      <trkpt lat="44.52279" lon="6.39557">
        <ele>802.82025146484</ele>
        <time>2010-05-22T18:08:58Z</time>
      </trkpt>
      <trkpt lat="44.52285" lon="6.39575">
        <ele>802.26287841797</ele>
        <time>2010-05-22T18:09:03Z</time>
      </trkpt>
      <trkpt lat="44.5229" lon="6.39576">
        <ele>800.85906982422</ele>
        <time>2010-05-22T18:09:07Z</time>
      </trkpt>
      <trkpt lat="44.5229" lon="6.39577">
        <ele>800.69573974609</ele>
        <time>2010-05-22T18:09:13Z</time>
      </trkpt>
      <trkpt lat="44.52294" lon="6.39583">
        <ele>800.16851806641</ele>
        <time>2010-05-22T18:09:38Z</time>
      </trkpt>
      <trkpt lat="44.52291" lon="6.39608">
        <ele>803.40368652344</ele>
        <time>2010-05-22T18:09:44Z</time>
      </trkpt>
      <trkpt lat="44.52283" lon="6.39637">
        <ele>804.79632568359</ele>
        <time>2010-05-22T18:09:50Z</time>
      </trkpt>
      <trkpt lat="44.52274" lon="6.39671">
        <ele>804.86517333984</ele>
        <time>2010-05-22T18:09:56Z</time>
      </trkpt>
      <trkpt lat="44.52259" lon="6.39704">
        <ele>801.34887695312</ele>
        <time>2010-05-22T18:10:03Z</time>
      </trkpt>
      <trkpt lat="44.52254" lon="6.39744">
        <ele>792.66412353516</ele>
        <time>2010-05-22T18:10:12Z</time>
      </trkpt>
      <trkpt lat="44.52259" lon="6.39779">
        <ele>792.16424560547</ele>
        <time>2010-05-22T18:10:19Z</time>
      </trkpt>
      <trkpt lat="44.52265" lon="6.39807">
        <ele>795.34674072266</ele>
        <time>2010-05-22T18:10:25Z</time>
      </trkpt>
      <trkpt lat="44.52268" lon="6.39833">
        <ele>796.06768798828</ele>
        <time>2010-05-22T18:10:31Z</time>
      </trkpt>
      <trkpt lat="44.52278" lon="6.39864">
        <ele>794.10308837891</ele>
        <time>2010-05-22T18:10:37Z</time>
      </trkpt>
      <trkpt lat="44.52287" lon="6.39883">
        <ele>793.07171630859</ele>
        <time>2010-05-22T18:10:41Z</time>
      </trkpt>
      <trkpt lat="44.52295" lon="6.39902">
        <ele>792.46057128906</ele>
        <time>2010-05-22T18:10:45Z</time>
      </trkpt>
      <trkpt lat="44.52301" lon="6.39916">
        <ele>791.73101806641</ele>
        <time>2010-05-22T18:10:48Z</time>
      </trkpt>
      <trkpt lat="44.52312" lon="6.39935">
        <ele>791.85772705078</ele>
        <time>2010-05-22T18:10:52Z</time>
      </trkpt>
      <trkpt lat="44.5234" lon="6.39963">
        <ele>792.14343261719</ele>
        <time>2010-05-22T18:11:00Z</time>
      </trkpt>
      <trkpt lat="44.52365" lon="6.39982">
        <ele>792.67199707031</ele>
        <time>2010-05-22T18:11:06Z</time>
      </trkpt>
      <trkpt lat="44.52397" lon="6.40001">
        <ele>794.02716064453</ele>
        <time>2010-05-22T18:11:13Z</time>
      </trkpt>
      <trkpt lat="44.52413" lon="6.4001">
        <ele>794.69372558594</ele>
        <time>2010-05-22T18:11:17Z</time>
      </trkpt>
      <trkpt lat="44.52422" lon="6.40013">
        <ele>794.21185302734</ele>
        <time>2010-05-22T18:11:20Z</time>
      </trkpt>
      <trkpt lat="44.52441" lon="6.4001">
        <ele>791.72650146484</ele>
        <time>2010-05-22T18:11:24Z</time>
      </trkpt>
      <trkpt lat="44.52456" lon="6.40011">
        <ele>788.67541503906</ele>
        <time>2010-05-22T18:11:28Z</time>
      </trkpt>
      <trkpt lat="44.52463" lon="6.40015">
        <ele>787.14025878906</ele>
        <time>2010-05-22T18:11:30Z</time>
      </trkpt>
      <trkpt lat="44.52468" lon="6.40026">
        <ele>785.93383789062</ele>
        <time>2010-05-22T18:11:35Z</time>
      </trkpt>
      <trkpt lat="44.52468" lon="6.40027">
        <ele>786.03460693359</ele>
        <time>2010-05-22T18:11:38Z</time>
      </trkpt>
    </trkseg>
  </trk>
</gpx>